<?xml version='1.0' encoding='UTF-8'?><gpx version="1.1" creator="JPX - https://github.com/jenetics/jpx" xmlns="http://www.topografix.com/GPX/1/1"><trk><trkseg><trkpt lat="45.83385443724311" lon="9.017663153361815"><ele>241.0</ele><time>2026-04-30T14:18:57.999Z</time></trkpt><trkpt lat="45.83371036570381" lon="9.017620124526143"><ele>241.0</ele><time>2026-04-30T14:18:59.999Z</time></trkpt><trkpt lat="45.833600924250185" lon="9.017587269262538"><ele>241.0</ele><time>2026-04-30T14:19:00.999Z</time></trkpt><trkpt lat="45.83345256573724" lon="9.017560935836128"><ele>241.0</ele><time>2026-04-30T14:19:01.999Z</time></trkpt><trkpt lat="45.83331758312017" lon="9.017537523575042"><ele>241.0</ele><time>2026-04-30T14:19:02.999Z</time></trkpt><trkpt lat="45.83317888180415" lon="9.017519039246801"><ele>241.0</ele><time>2026-04-30T14:19:03.999Z</time></trkpt><trkpt lat="45.83303073918624" lon="9.017480837268732"><ele>241.0</ele><time>2026-04-30T14:19:04.999Z</time></trkpt><trkpt lat="45.83288540388037" lon="9.0174665408841"><ele>241.0</ele><time>2026-04-30T14:19:05.999Z</time></trkpt><trkpt lat="45.832755912245744" lon="9.01743944259158"><ele>241.25</ele><time>2026-04-30T14:19:06.999Z</time></trkpt><trkpt lat="45.832604782006314" lon="9.017401707311148"><ele>241.5</ele><time>2026-04-30T14:19:07.999Z</time></trkpt><trkpt lat="45.83250234811455" lon="9.017397853777217"><ele>241.75</ele><time>2026-04-30T14:19:08.999Z</time></trkpt><trkpt lat="45.832377208578734" lon="9.017383695604398"><ele>242.0</ele><time>2026-04-30T14:19:09.999Z</time></trkpt><trkpt lat="45.83228577094001" lon="9.01736474423045"><ele>242.0</ele><time>2026-04-30T14:19:10.999Z</time></trkpt><trkpt lat="45.83221843685909" lon="9.017347158512434"><ele>242.0</ele><time>2026-04-30T14:19:12.999Z</time></trkpt><trkpt lat="45.832155966111245" lon="9.017469544970295"><ele>242.0</ele><time>2026-04-30T14:19:15.999Z</time></trkpt><trkpt lat="45.832138227193084" lon="9.017629495135692"><ele>242.0</ele><time>2026-04-30T14:19:16.999Z</time></trkpt><trkpt lat="45.83212565456477" lon="9.017803140720462"><ele>242.0</ele><time>2026-04-30T14:19:17.999Z</time></trkpt><trkpt lat="45.83210671288723" lon="9.018023264010436"><ele>241.75</ele><time>2026-04-30T14:19:18.999Z</time></trkpt><trkpt lat="45.83208981825802" lon="9.018230148420121"><ele>241.5</ele><time>2026-04-30T14:19:19.999Z</time></trkpt><trkpt lat="45.83208731785559" lon="9.018436075447772"><ele>241.25</ele><time>2026-04-30T14:19:20.999Z</time></trkpt><trkpt lat="45.8320590340102" lon="9.01864256711012"><ele>241.0</ele><time>2026-04-30T14:19:21.999Z</time></trkpt><trkpt lat="45.83205977099418" lon="9.018828862604895"><ele>241.0</ele><time>2026-04-30T14:19:22.999Z</time></trkpt><trkpt lat="45.83204631635052" lon="9.018998219570943"><ele>241.0</ele><time>2026-04-30T14:19:23.999Z</time></trkpt><trkpt lat="45.83201568843516" lon="9.019206484674747"><ele>241.0</ele><time>2026-04-30T14:19:24.999Z</time></trkpt><trkpt lat="45.832011042439085" lon="9.019410136108386"><ele>241.0</ele><time>2026-04-30T14:19:25.999Z</time></trkpt><trkpt lat="45.831984761252684" lon="9.019611606743291"><ele>241.5</ele><time>2026-04-30T14:19:26.999Z</time></trkpt><trkpt lat="45.831985295204944" lon="9.019818098852092"><ele>242.0</ele><time>2026-04-30T14:19:27.999Z</time></trkpt><trkpt lat="45.83196642863181" lon="9.020023794607072"><ele>242.5</ele><time>2026-04-30T14:19:28.999Z</time></trkpt><trkpt lat="45.831949907580935" lon="9.020226080958283"><ele>243.0</ele><time>2026-04-30T14:19:29.999Z</time></trkpt><trkpt lat="45.83193611011929" lon="9.020425585047319"><ele>243.5</ele><time>2026-04-30T14:19:30.999Z</time></trkpt><trkpt lat="45.831909463084855" lon="9.020618929799728"><ele>244.0</ele><time>2026-04-30T14:19:31.999Z</time></trkpt><trkpt lat="45.83189452609172" lon="9.020808436759504"><ele>244.5</ele><time>2026-04-30T14:19:32.999Z</time></trkpt><trkpt lat="45.83189478768459" lon="9.020995479397191"><ele>245.0</ele><time>2026-04-30T14:19:33.999Z</time></trkpt><trkpt lat="45.83187480213271" lon="9.02117025349336"><ele>245.25</ele><time>2026-04-30T14:19:34.999Z</time></trkpt><trkpt lat="45.83186267025462" lon="9.021362348861642"><ele>245.5</ele><time>2026-04-30T14:19:35.999Z</time></trkpt><trkpt lat="45.83184741080017" lon="9.021567677051275"><ele>245.75</ele><time>2026-04-30T14:19:36.999Z</time></trkpt><trkpt lat="45.83183070180357" lon="9.021789665457284"><ele>246.0</ele><time>2026-04-30T14:19:37.999Z</time></trkpt><trkpt lat="45.8318153512133" lon="9.022027604610884"><ele>244.66666666666669</ele><time>2026-04-30T14:19:38.999Z</time></trkpt><trkpt lat="45.8317946204294" lon="9.022275594454984"><ele>243.33333333333334</ele><time>2026-04-30T14:19:39.999Z</time></trkpt><trkpt lat="45.831774553787874" lon="9.022529037696723"><ele>242.0</ele><time>2026-04-30T14:19:40.999Z</time></trkpt><trkpt lat="45.83175490698078" lon="9.022784988871875"><ele>241.0</ele><time>2026-04-30T14:19:41.999Z</time></trkpt><trkpt lat="45.83173602655356" lon="9.023044169923423"><ele>240.0</ele><time>2026-04-30T14:19:42.999Z</time></trkpt><trkpt lat="45.83171644986817" lon="9.023296150821563"><ele>239.0</ele><time>2026-04-30T14:19:43.999Z</time></trkpt><trkpt lat="45.831697865307014" lon="9.023536999656203"><ele>238.75</ele><time>2026-04-30T14:19:44.999Z</time></trkpt><trkpt lat="45.83167751855685" lon="9.02376401934176"><ele>238.5</ele><time>2026-04-30T14:19:45.999Z</time></trkpt><trkpt lat="45.83165659876681" lon="9.023970418280063"><ele>238.25</ele><time>2026-04-30T14:19:46.999Z</time></trkpt><trkpt lat="45.83163471533383" lon="9.024166324015516"><ele>238.0</ele><time>2026-04-30T14:19:47.999Z</time></trkpt><trkpt lat="45.83161415081405" lon="9.024349115636696"><ele>237.8</ele><time>2026-04-30T14:19:48.999Z</time></trkpt><trkpt lat="45.831592887700836" lon="9.024517108891537"><ele>237.60000000000002</ele><time>2026-04-30T14:19:49.999Z</time></trkpt><trkpt lat="45.83158130508005" lon="9.024632296259046"><ele>237.39999999999998</ele><time>2026-04-30T14:19:50.999Z</time></trkpt><trkpt lat="45.831567411438236" lon="9.024757097716973"><ele>237.2</ele><time>2026-04-30T14:19:52.999Z</time></trkpt><trkpt lat="45.83155170361603" lon="9.024856716581722"><ele>237.0</ele><time>2026-04-30T14:19:56.999Z</time></trkpt><trkpt lat="45.83152613401862" lon="9.024988165378552"><ele>237.0</ele><time>2026-04-30T14:20:25.999Z</time></trkpt><trkpt lat="45.831515422107444" lon="9.025100170591877"><ele>237.0</ele><time>2026-04-30T14:20:26.999Z</time></trkpt><trkpt lat="45.83150624682619" lon="9.025236453266746"><ele>237.0</ele><time>2026-04-30T14:20:27.999Z</time></trkpt><trkpt lat="45.8314907160662" lon="9.025384066754905"><ele>237.0</ele><time>2026-04-30T14:20:28.999Z</time></trkpt><trkpt lat="45.83145937968321" lon="9.025554993006203"><ele>237.0</ele><time>2026-04-30T14:20:29.999Z</time></trkpt><trkpt lat="45.83143732634787" lon="9.025748867422516"><ele>237.25</ele><time>2026-04-30T14:20:30.999Z</time></trkpt><trkpt lat="45.83142675943622" lon="9.025955748308064"><ele>237.5</ele><time>2026-04-30T14:20:31.999Z</time></trkpt><trkpt lat="45.83140096371093" lon="9.02615201990359"><ele>237.75</ele><time>2026-04-30T14:20:32.999Z</time></trkpt><trkpt lat="45.831385393453814" lon="9.026332886840025"><ele>238.0</ele><time>2026-04-30T14:20:33.999Z</time></trkpt><trkpt lat="45.83136117623678" lon="9.026511835461982"><ele>237.75</ele><time>2026-04-30T14:20:34.999Z</time></trkpt><trkpt lat="45.83134227502884" lon="9.02668694125951"><ele>237.5</ele><time>2026-04-30T14:20:35.999Z</time></trkpt><trkpt lat="45.83132185256403" lon="9.02685858958657"><ele>237.25</ele><time>2026-04-30T14:20:36.999Z</time></trkpt><trkpt lat="45.831303097948656" lon="9.02702709300637"><ele>237.0</ele><time>2026-04-30T14:20:37.999Z</time></trkpt><trkpt lat="45.8312833218372" lon="9.027190380790207"><ele>237.0</ele><time>2026-04-30T14:20:38.999Z</time></trkpt><trkpt lat="45.83126455608668" lon="9.027355924278922"><ele>237.0</ele><time>2026-04-30T14:20:39.999Z</time></trkpt><trkpt lat="45.831245804838446" lon="9.027523829827851"><ele>237.0</ele><time>2026-04-30T14:20:40.999Z</time></trkpt><trkpt lat="45.83122583117176" lon="9.027705789144171"><ele>237.0</ele><time>2026-04-30T14:20:41.999Z</time></trkpt><trkpt lat="45.831203105914" lon="9.02790064127387"><ele>236.5</ele><time>2026-04-30T14:20:42.999Z</time></trkpt><trkpt lat="45.8311809209929" lon="9.028101389560561"><ele>236.0</ele><time>2026-04-30T14:20:43.999Z</time></trkpt><trkpt lat="45.83115608689101" lon="9.02830880714534"><ele>235.5</ele><time>2026-04-30T14:20:44.999Z</time></trkpt><trkpt lat="45.83113514225659" lon="9.028494604874496"><ele>235.0</ele><time>2026-04-30T14:20:45.999Z</time></trkpt><trkpt lat="45.831116210995894" lon="9.028659141380674"><ele>235.0</ele><time>2026-04-30T14:20:46.999Z</time></trkpt><trkpt lat="45.831099559483086" lon="9.028802232786251"><ele>235.0</ele><time>2026-04-30T14:20:47.999Z</time></trkpt><trkpt lat="45.83108463004593" lon="9.028931867370627"><ele>235.0</ele><time>2026-04-30T14:20:48.999Z</time></trkpt><trkpt lat="45.831069145193844" lon="9.029049008300278"><ele>235.0</ele><time>2026-04-30T14:20:49.999Z</time></trkpt><trkpt lat="45.83105355019128" lon="9.029165551856545"><ele>235.0</ele><time>2026-04-30T14:20:50.999Z</time></trkpt><trkpt lat="45.83103772534004" lon="9.029337465921902"><ele>235.33333333333331</ele><time>2026-04-30T14:20:52.999Z</time></trkpt><trkpt lat="45.83100717374455" lon="9.02943291632321"><ele>235.66666666666666</ele><time>2026-04-30T14:20:54.999Z</time></trkpt><trkpt lat="45.83092970836222" lon="9.029490346268606"><ele>236.0</ele><time>2026-04-30T14:20:56.999Z</time></trkpt><trkpt lat="45.83084905065232" lon="9.029499083276052"><ele>236.33333333333331</ele><time>2026-04-30T14:20:57.999Z</time></trkpt><trkpt lat="45.830758528964715" lon="9.029510455378329"><ele>236.66666666666666</ele><time>2026-04-30T14:20:58.999Z</time></trkpt><trkpt lat="45.83065380889005" lon="9.029544849103226"><ele>237.0</ele><time>2026-04-30T14:20:59.999Z</time></trkpt><trkpt lat="45.83055998967012" lon="9.029598834427325"><ele>237.0</ele><time>2026-04-30T14:21:00.999Z</time></trkpt><trkpt lat="45.830472166100236" lon="9.02968028855657"><ele>237.0</ele><time>2026-04-30T14:21:01.999Z</time></trkpt><trkpt lat="45.83037536434619" lon="9.029808832286438"><ele>237.0</ele><time>2026-04-30T14:21:02.999Z</time></trkpt><trkpt lat="45.83029627351365" lon="9.02998899240353"><ele>237.0</ele><time>2026-04-30T14:21:03.999Z</time></trkpt><trkpt lat="45.83025301359866" lon="9.030169589552655"><ele>237.0</ele><time>2026-04-30T14:21:04.999Z</time></trkpt><trkpt lat="45.83023452102465" lon="9.030392712175514"><ele>237.0</ele><time>2026-04-30T14:21:05.999Z</time></trkpt><trkpt lat="45.83022771057667" lon="9.030629777734003"><ele>237.0</ele><time>2026-04-30T14:21:06.999Z</time></trkpt><trkpt lat="45.83020840611299" lon="9.030845413978678"><ele>237.0</ele><time>2026-04-30T14:21:07.999Z</time></trkpt><trkpt lat="45.83018675562705" lon="9.031050973186405"><ele>237.0</ele><time>2026-04-30T14:21:08.999Z</time></trkpt><trkpt lat="45.83015283606194" lon="9.031255061790667"><ele>237.0</ele><time>2026-04-30T14:21:09.999Z</time></trkpt><trkpt lat="45.83010837189776" lon="9.031459017181438"><ele>237.0</ele><time>2026-04-30T14:21:10.999Z</time></trkpt><trkpt lat="45.83003416034433" lon="9.031651167097912"><ele>240.66666666666669</ele><time>2026-04-30T14:21:11.999Z</time></trkpt><trkpt lat="45.829963516757545" lon="9.031858883884361"><ele>244.33333333333334</ele><time>2026-04-30T14:21:12.999Z</time></trkpt><trkpt lat="45.829902695407604" lon="9.032074727860797"><ele>248.0</ele><time>2026-04-30T14:21:13.999Z</time></trkpt><trkpt lat="45.829838278879805" lon="9.032269060652244"><ele>248.0</ele><time>2026-04-30T14:21:14.999Z</time></trkpt><trkpt lat="45.82978985377863" lon="9.032464611716104"><ele>248.0</ele><time>2026-04-30T14:21:15.999Z</time></trkpt><trkpt lat="45.82976562478815" lon="9.032667115396071"><ele>248.0</ele><time>2026-04-30T14:21:16.999Z</time></trkpt><trkpt lat="45.82975264486578" lon="9.032854592907851"><ele>248.0</ele><time>2026-04-30T14:21:17.999Z</time></trkpt><trkpt lat="45.829751608420246" lon="9.0330092374638"><ele>247.33333333333334</ele><time>2026-04-30T14:21:18.999Z</time></trkpt><trkpt lat="45.82976700229436" lon="9.033141476736711"><ele>246.66666666666669</ele><time>2026-04-30T14:21:19.999Z</time></trkpt><trkpt lat="45.829797168034865" lon="9.033257330279511"><ele>246.0</ele><time>2026-04-30T14:21:20.999Z</time></trkpt><trkpt lat="45.82980718434202" lon="9.033364973322456"><ele>245.33333333333331</ele><time>2026-04-30T14:21:21.999Z</time></trkpt><trkpt lat="45.829813371596984" lon="9.0335218916888"><ele>244.66666666666666</ele><time>2026-04-30T14:21:23.999Z</time></trkpt><trkpt lat="45.82975997117836" lon="9.03357432689867"><ele>244.0</ele><time>2026-04-30T14:21:24.999Z</time></trkpt><trkpt lat="45.82969165256224" lon="9.033570926889821"><ele>244.0</ele><time>2026-04-30T14:21:25.999Z</time></trkpt><trkpt lat="45.82963362714674" lon="9.033512900557328"><ele>243.99999999999997</ele><time>2026-04-30T14:21:26.999Z</time></trkpt><trkpt lat="45.82959713281322" lon="9.033386860400215"><ele>243.99999999999997</ele><time>2026-04-30T14:21:27.999Z</time></trkpt><trkpt lat="45.82955691255952" lon="9.033224634186958"><ele>244.0</ele><time>2026-04-30T14:21:28.999Z</time></trkpt><trkpt lat="45.82949588618374" lon="9.033056831763489"><ele>244.0</ele><time>2026-04-30T14:21:29.999Z</time></trkpt><trkpt lat="45.82944960121676" lon="9.032890376578441"><ele>244.0</ele><time>2026-04-30T14:21:30.999Z</time></trkpt><trkpt lat="45.82944062952489" lon="9.032723813675279"><ele>243.99999999999997</ele><time>2026-04-30T14:21:31.999Z</time></trkpt><trkpt lat="45.82945177644297" lon="9.032558632541404"><ele>243.99999999999997</ele><time>2026-04-30T14:21:32.999Z</time></trkpt><trkpt lat="45.82947851923187" lon="9.032399156876592"><ele>244.0</ele><time>2026-04-30T14:21:33.999Z</time></trkpt><trkpt lat="45.829506537545235" lon="9.032270989408689"><ele>244.0</ele><time>2026-04-30T14:21:34.999Z</time></trkpt><trkpt lat="45.829525068062736" lon="9.032167102191998"><ele>244.79999999999998</ele><time>2026-04-30T14:21:35.999Z</time></trkpt><trkpt lat="45.82948675657161" lon="9.032024387508418"><ele>245.59999999999997</ele><time>2026-04-30T14:21:37.999Z</time></trkpt><trkpt lat="45.82937164532349" lon="9.032064610094602"><ele>246.4</ele><time>2026-04-30T14:21:39.999Z</time></trkpt><trkpt lat="45.829335139116615" lon="9.032176007705278"><ele>247.2</ele><time>2026-04-30T14:21:40.999Z</time></trkpt><trkpt lat="45.829302961016154" lon="9.032334537482365"><ele>248.0</ele><time>2026-04-30T14:21:41.999Z</time></trkpt><trkpt lat="45.82924549985078" lon="9.032492425053015"><ele>254.0</ele><time>2026-04-30T14:21:42.999Z</time></trkpt><trkpt lat="45.82921585620009" lon="9.03265793928306"><ele>260.0</ele><time>2026-04-30T14:21:43.999Z</time></trkpt><trkpt lat="45.82917684609198" lon="9.032808530422358"><ele>266.0</ele><time>2026-04-30T14:21:44.999Z</time></trkpt><trkpt lat="45.82913531015353" lon="9.03294929989639"><ele>272.0</ele><time>2026-04-30T14:21:45.999Z</time></trkpt><trkpt lat="45.829101576434226" lon="9.03308959702922"><ele>278.0</ele><time>2026-04-30T14:21:46.999Z</time></trkpt><trkpt lat="45.8290794326241" lon="9.033213292706934"><ele>278.0</ele><time>2026-04-30T14:21:47.999Z</time></trkpt><trkpt lat="45.829054234269115" lon="9.03330112010574"><ele>278.0</ele><time>2026-04-30T14:21:48.999Z</time></trkpt><trkpt lat="45.829022019279314" lon="9.033407802737834"><ele>278.0</ele><time>2026-04-30T14:21:51.999Z</time></trkpt><trkpt lat="45.828941905461306" lon="9.03330461535733"><ele>278.0</ele><time>2026-04-30T14:21:53.999Z</time></trkpt><trkpt lat="45.82896870347443" lon="9.033177357822835"><ele>278.0</ele><time>2026-04-30T14:21:54.999Z</time></trkpt><trkpt lat="45.82900023273671" lon="9.033043636313305"><ele>278.0</ele><time>2026-04-30T14:21:55.999Z</time></trkpt><trkpt lat="45.82901952680252" lon="9.032887226252779"><ele>278.0</ele><time>2026-04-30T14:21:56.999Z</time></trkpt><trkpt lat="45.82903643807456" lon="9.032724330033782"><ele>278.0</ele><time>2026-04-30T14:21:57.999Z</time></trkpt><trkpt lat="45.82905391218192" lon="9.032554141629873"><ele>278.0</ele><time>2026-04-30T14:21:58.999Z</time></trkpt><trkpt lat="45.82906612028837" lon="9.032378322149835"><ele>278.0</ele><time>2026-04-30T14:21:59.999Z</time></trkpt><trkpt lat="45.82907487185426" lon="9.032203010563515"><ele>279.1666666666667</ele><time>2026-04-30T14:22:00.999Z</time></trkpt><trkpt lat="45.829077988919636" lon="9.032051741365326"><ele>280.33333333333337</ele><time>2026-04-30T14:22:01.999Z</time></trkpt><trkpt lat="45.82907569125158" lon="9.031937918519157"><ele>281.5</ele><time>2026-04-30T14:22:02.999Z</time></trkpt><trkpt lat="45.82907896523444" lon="9.031845224537186"><ele>282.6666666666667</ele><time>2026-04-30T14:22:03.999Z</time></trkpt><trkpt lat="45.82908306475848" lon="9.031752375038263"><ele>283.8333333333333</ele><time>2026-04-30T14:22:04.999Z</time></trkpt><trkpt lat="45.82908620851275" lon="9.031653707465466"><ele>285.0</ele><time>2026-04-30T14:22:05.999Z</time></trkpt><trkpt lat="45.829086670347984" lon="9.031557194681735"><ele>285.5</ele><time>2026-04-30T14:22:06.999Z</time></trkpt><trkpt lat="45.82908427274293" lon="9.031460498206451"><ele>286.0</ele><time>2026-04-30T14:22:07.999Z</time></trkpt><trkpt lat="45.82902000460816" lon="9.03130519405951"><ele>286.5</ele><time>2026-04-30T14:22:09.999Z</time></trkpt><trkpt lat="45.82894453329167" lon="9.031263598554128"><ele>287.0</ele><time>2026-04-30T14:22:10.999Z</time></trkpt><trkpt lat="45.82886309483895" lon="9.031217018857937"><ele>287.5</ele><time>2026-04-30T14:22:11.999Z</time></trkpt><trkpt lat="45.82879222824642" lon="9.031145717961177"><ele>288.0</ele><time>2026-04-30T14:22:12.999Z</time></trkpt><trkpt lat="45.82876311610368" lon="9.031059230507896"><ele>288.0</ele><time>2026-04-30T14:22:13.999Z</time></trkpt><trkpt lat="45.828760781384794" lon="9.030953924549205"><ele>288.0</ele><time>2026-04-30T14:22:14.999Z</time></trkpt><trkpt lat="45.828787478291396" lon="9.030842388621682"><ele>288.0</ele><time>2026-04-30T14:22:15.999Z</time></trkpt><trkpt lat="45.82883532117035" lon="9.03072814398448"><ele>288.0</ele><time>2026-04-30T14:22:16.999Z</time></trkpt><trkpt lat="45.82889618020294" lon="9.030611470183592"><ele>288.0</ele><time>2026-04-30T14:22:17.999Z</time></trkpt><trkpt lat="45.82896343901458" lon="9.030499101530156"><ele>289.2</ele><time>2026-04-30T14:22:18.999Z</time></trkpt><trkpt lat="45.82902617861842" lon="9.030384316548604"><ele>290.4</ele><time>2026-04-30T14:22:19.999Z</time></trkpt><trkpt lat="45.8290821886345" lon="9.030265867366094"><ele>291.59999999999997</ele><time>2026-04-30T14:22:20.999Z</time></trkpt><trkpt lat="45.829110685913086" lon="9.030135782819007"><ele>292.8</ele><time>2026-04-30T14:22:21.999Z</time></trkpt><trkpt lat="45.829128953772226" lon="9.030000755852237"><ele>294.0</ele><time>2026-04-30T14:22:22.999Z</time></trkpt><trkpt lat="45.82914659335961" lon="9.029875042491264"><ele>295.6666666666667</ele><time>2026-04-30T14:22:23.999Z</time></trkpt><trkpt lat="45.829145186393646" lon="9.02974691024734"><ele>297.3333333333333</ele><time>2026-04-30T14:22:24.999Z</time></trkpt><trkpt lat="45.82913261564725" lon="9.029650721491931"><ele>299.0</ele><time>2026-04-30T14:22:25.999Z</time></trkpt><trkpt lat="45.829132310695215" lon="9.029528839187106"><ele>300.66666666666663</ele><time>2026-04-30T14:22:26.999Z</time></trkpt><trkpt lat="45.829138908475954" lon="9.02939356225315"><ele>302.3333333333333</ele><time>2026-04-30T14:22:27.999Z</time></trkpt><trkpt lat="45.829148171747555" lon="9.029251396248819"><ele>304.0</ele><time>2026-04-30T14:22:28.999Z</time></trkpt><trkpt lat="45.82915824785711" lon="9.02910699552035"><ele>305.4</ele><time>2026-04-30T14:22:29.999Z</time></trkpt><trkpt lat="45.8291687788608" lon="9.028959746701437"><ele>306.79999999999995</ele><time>2026-04-30T14:22:30.999Z</time></trkpt><trkpt lat="45.82918265329591" lon="9.028810797318192"><ele>308.20000000000005</ele><time>2026-04-30T14:22:31.999Z</time></trkpt><trkpt lat="45.82919688453423" lon="9.028657856743898"><ele>309.6</ele><time>2026-04-30T14:22:32.999Z</time></trkpt><trkpt lat="45.829211786255705" lon="9.028506555088713"><ele>311.0</ele><time>2026-04-30T14:22:33.999Z</time></trkpt><trkpt lat="45.82922458777267" lon="9.028354505293391"><ele>311.40000000000003</ele><time>2026-04-30T14:22:34.999Z</time></trkpt><trkpt lat="45.829234974620555" lon="9.028203184858416"><ele>311.8</ele><time>2026-04-30T14:22:35.999Z</time></trkpt><trkpt lat="45.82923673808832" lon="9.028047389344525"><ele>312.20000000000005</ele><time>2026-04-30T14:22:36.999Z</time></trkpt><trkpt lat="45.82921606505555" lon="9.027904048059325"><ele>312.6</ele><time>2026-04-30T14:22:37.999Z</time></trkpt><trkpt lat="45.82918138655366" lon="9.027758511453365"><ele>313.0</ele><time>2026-04-30T14:22:38.999Z</time></trkpt><trkpt lat="45.82914544544895" lon="9.027608543166798"><ele>313.6</ele><time>2026-04-30T14:22:39.999Z</time></trkpt><trkpt lat="45.82911138374223" lon="9.027455502434949"><ele>314.20000000000005</ele><time>2026-04-30T14:22:40.999Z</time></trkpt><trkpt lat="45.829079681413695" lon="9.027304258458306"><ele>314.8</ele><time>2026-04-30T14:22:41.999Z</time></trkpt><trkpt lat="45.82904975181884" lon="9.02716045096169"><ele>315.40000000000003</ele><time>2026-04-30T14:22:42.999Z</time></trkpt><trkpt lat="45.829020981342325" lon="9.027025736897643"><ele>316.0</ele><time>2026-04-30T14:22:43.999Z</time></trkpt><trkpt lat="45.82898937101668" lon="9.026895100680106"><ele>316.0</ele><time>2026-04-30T14:22:44.999Z</time></trkpt><trkpt lat="45.82895743433899" lon="9.026764124128043"><ele>316.0</ele><time>2026-04-30T14:22:45.999Z</time></trkpt><trkpt lat="45.82892660532867" lon="9.02663473947992"><ele>316.0</ele><time>2026-04-30T14:22:46.999Z</time></trkpt><trkpt lat="45.82889812501246" lon="9.026504911596126"><ele>316.0</ele><time>2026-04-30T14:22:47.999Z</time></trkpt><trkpt lat="45.82887765847735" lon="9.026379243126703"><ele>316.0</ele><time>2026-04-30T14:22:48.999Z</time></trkpt><trkpt lat="45.82887413547951" lon="9.026258377627144"><ele>317.3333333333333</ele><time>2026-04-30T14:22:49.999Z</time></trkpt><trkpt lat="45.82888400008767" lon="9.026140050209763"><ele>318.66666666666663</ele><time>2026-04-30T14:22:50.999Z</time></trkpt><trkpt lat="45.828894569885364" lon="9.026017559202058"><ele>320.0</ele><time>2026-04-30T14:22:51.999Z</time></trkpt><trkpt lat="45.82890208521018" lon="9.025895935811448"><ele>321.3333333333333</ele><time>2026-04-30T14:22:52.999Z</time></trkpt><trkpt lat="45.828909963743946" lon="9.02577373042911"><ele>322.6666666666667</ele><time>2026-04-30T14:22:53.999Z</time></trkpt><trkpt lat="45.828909123399626" lon="9.025663986016461"><ele>324.0</ele><time>2026-04-30T14:22:54.999Z</time></trkpt><trkpt lat="45.828892865435456" lon="9.025560170479224"><ele>325.0</ele><time>2026-04-30T14:22:55.999Z</time></trkpt><trkpt lat="45.82886281800355" lon="9.025468919947459"><ele>326.0</ele><time>2026-04-30T14:22:56.999Z</time></trkpt><trkpt lat="45.828829085738384" lon="9.025376890434405"><ele>327.0</ele><time>2026-04-30T14:22:57.999Z</time></trkpt><trkpt lat="45.82878830821527" lon="9.025283948493419"><ele>328.0</ele><time>2026-04-30T14:22:58.999Z</time></trkpt><trkpt lat="45.82874569969166" lon="9.02519020167676"><ele>329.0</ele><time>2026-04-30T14:22:59.999Z</time></trkpt><trkpt lat="45.8287035657898" lon="9.025096469806446"><ele>330.0</ele><time>2026-04-30T14:23:00.999Z</time></trkpt><trkpt lat="45.82865607017385" lon="9.025009753913912"><ele>331.8333333333333</ele><time>2026-04-30T14:23:01.999Z</time></trkpt><trkpt lat="45.82860526810303" lon="9.024930189383504"><ele>333.6666666666667</ele><time>2026-04-30T14:23:02.999Z</time></trkpt><trkpt lat="45.82855028017545" lon="9.024860204737175"><ele>335.5</ele><time>2026-04-30T14:23:03.999Z</time></trkpt><trkpt lat="45.8284974494287" lon="9.024803818562386"><ele>337.33333333333337</ele><time>2026-04-30T14:23:04.999Z</time></trkpt><trkpt lat="45.828420863397376" lon="9.024703874534387"><ele>339.1666666666667</ele><time>2026-04-30T14:23:06.999Z</time></trkpt><trkpt lat="45.82841147263532" lon="9.024558805592909"><ele>341.0</ele><time>2026-04-30T14:23:08.999Z</time></trkpt><trkpt lat="45.828513254005784" lon="9.024468042401205"><ele>341.0</ele><time>2026-04-30T14:23:10.999Z</time></trkpt><trkpt lat="45.82859786740228" lon="9.024484554870165"><ele>341.0</ele><time>2026-04-30T14:23:11.999Z</time></trkpt><trkpt lat="45.82868904171981" lon="9.02448829263044"><ele>341.0</ele><time>2026-04-30T14:23:12.999Z</time></trkpt><trkpt lat="45.828783242541384" lon="9.024463410497086"><ele>341.0</ele><time>2026-04-30T14:23:13.999Z</time></trkpt><trkpt lat="45.8288703179389" lon="9.024399407786659"><ele>341.0</ele><time>2026-04-30T14:23:14.999Z</time></trkpt><trkpt lat="45.82893743540714" lon="9.024292761714493"><ele>341.0</ele><time>2026-04-30T14:23:15.999Z</time></trkpt><trkpt lat="45.828991811916694" lon="9.024176751281786"><ele>341.0</ele><time>2026-04-30T14:23:16.999Z</time></trkpt><trkpt lat="45.829021309760606" lon="9.02404634029042"><ele>341.0</ele><time>2026-04-30T14:23:17.999Z</time></trkpt><trkpt lat="45.82902902506208" lon="9.023911210062709"><ele>341.0</ele><time>2026-04-30T14:23:18.999Z</time></trkpt><trkpt lat="45.82900944747457" lon="9.023765384473677"><ele>341.0</ele><time>2026-04-30T14:23:19.999Z</time></trkpt><trkpt lat="45.82898419241349" lon="9.023615209033085"><ele>342.6</ele><time>2026-04-30T14:23:20.999Z</time></trkpt><trkpt lat="45.82895303160428" lon="9.023470756994111"><ele>344.20000000000005</ele><time>2026-04-30T14:23:21.999Z</time></trkpt><trkpt lat="45.828925041872786" lon="9.023336613083682"><ele>345.79999999999995</ele><time>2026-04-30T14:23:22.999Z</time></trkpt><trkpt lat="45.828920834413374" lon="9.023208276393946"><ele>347.4</ele><time>2026-04-30T14:23:23.999Z</time></trkpt><trkpt lat="45.828939658775894" lon="9.02308849804167"><ele>349.0</ele><time>2026-04-30T14:23:24.999Z</time></trkpt><trkpt lat="45.82897983746399" lon="9.022977423443256"><ele>350.3333333333333</ele><time>2026-04-30T14:23:25.999Z</time></trkpt><trkpt lat="45.829035648387084" lon="9.022885529093363"><ele>351.66666666666663</ele><time>2026-04-30T14:23:26.999Z</time></trkpt><trkpt lat="45.829099952062776" lon="9.02281621477296"><ele>353.0</ele><time>2026-04-30T14:23:27.999Z</time></trkpt><trkpt lat="45.82916593587984" lon="9.022759432434183"><ele>354.3333333333333</ele><time>2026-04-30T14:23:28.999Z</time></trkpt><trkpt lat="45.82922395004328" lon="9.022694622227439"><ele>355.6666666666667</ele><time>2026-04-30T14:23:29.999Z</time></trkpt><trkpt lat="45.82925351337066" lon="9.022605414822438"><ele>357.0</ele><time>2026-04-30T14:23:30.999Z</time></trkpt><trkpt lat="45.82925345541547" lon="9.022507120016627"><ele>357.0</ele><time>2026-04-30T14:23:31.999Z</time></trkpt><trkpt lat="45.82921464606259" lon="9.022417917138059"><ele>357.0</ele><time>2026-04-30T14:23:32.999Z</time></trkpt><trkpt lat="45.8291431399897" lon="9.022368405227166"><ele>357.0</ele><time>2026-04-30T14:23:33.999Z</time></trkpt><trkpt lat="45.82906120719936" lon="9.022388436806704"><ele>357.0</ele><time>2026-04-30T14:23:34.999Z</time></trkpt><trkpt lat="45.82899243755183" lon="9.022472626205644"><ele>357.0</ele><time>2026-04-30T14:23:35.999Z</time></trkpt><trkpt lat="45.828936444695614" lon="9.02259898589373"><ele>357.0</ele><time>2026-04-30T14:23:36.999Z</time></trkpt><trkpt lat="45.82887944652716" lon="9.02273412597703"><ele>357.0</ele><time>2026-04-30T14:23:37.999Z</time></trkpt><trkpt lat="45.82882681066179" lon="9.022850436917066"><ele>357.0</ele><time>2026-04-30T14:23:38.999Z</time></trkpt><trkpt lat="45.82877593581785" lon="9.022960678910058"><ele>357.0</ele><time>2026-04-30T14:23:39.999Z</time></trkpt><trkpt lat="45.828723793525555" lon="9.023072712164671"><ele>357.0</ele><time>2026-04-30T14:23:40.999Z</time></trkpt><trkpt lat="45.82866400913685" lon="9.023182258915458"><ele>357.0</ele><time>2026-04-30T14:23:41.999Z</time></trkpt><trkpt lat="45.82860072762709" lon="9.023287435787626"><ele>355.40000000000003</ele><time>2026-04-30T14:23:42.999Z</time></trkpt><trkpt lat="45.82853361263616" lon="9.023387946759936"><ele>353.8</ele><time>2026-04-30T14:23:43.999Z</time></trkpt><trkpt lat="45.828463269592056" lon="9.023486136697493"><ele>352.2</ele><time>2026-04-30T14:23:44.999Z</time></trkpt><trkpt lat="45.82838873336229" lon="9.023578273355183"><ele>350.6</ele><time>2026-04-30T14:23:45.999Z</time></trkpt><trkpt lat="45.82830862601706" lon="9.023659845550858"><ele>349.0</ele><time>2026-04-30T14:23:46.999Z</time></trkpt><trkpt lat="45.828223481135666" lon="9.023716052590014"><ele>353.6</ele><time>2026-04-30T14:23:47.999Z</time></trkpt><trkpt lat="45.82813268620982" lon="9.023741597239486"><ele>358.2</ele><time>2026-04-30T14:23:48.999Z</time></trkpt><trkpt lat="45.82804007172203" lon="9.023732926067698"><ele>362.8</ele><time>2026-04-30T14:23:49.999Z</time></trkpt><trkpt lat="45.82795187166914" lon="9.023691267529472"><ele>367.40000000000003</ele><time>2026-04-30T14:23:50.999Z</time></trkpt><trkpt lat="45.827873986308774" lon="9.02361696946116"><ele>372.0</ele><time>2026-04-30T14:23:51.999Z</time></trkpt><trkpt lat="45.82781157501974" lon="9.023523054326857"><ele>372.0</ele><time>2026-04-30T14:23:52.999Z</time></trkpt><trkpt lat="45.827761044951856" lon="9.023413858572805"><ele>372.0</ele><time>2026-04-30T14:23:53.999Z</time></trkpt><trkpt lat="45.827722338603486" lon="9.02330343611263"><ele>372.0</ele><time>2026-04-30T14:23:54.999Z</time></trkpt><trkpt lat="45.82769093017732" lon="9.023213047206902"><ele>372.0</ele><time>2026-04-30T14:23:55.999Z</time></trkpt><trkpt lat="45.82765930553109" lon="9.0231269438824"><ele>372.0</ele><time>2026-04-30T14:23:56.999Z</time></trkpt><trkpt lat="45.82762005855669" lon="9.023042539543798"><ele>372.0</ele><time>2026-04-30T14:23:57.999Z</time></trkpt><trkpt lat="45.82757826356124" lon="9.022949570744194"><ele>374.5</ele><time>2026-04-30T14:23:58.999Z</time></trkpt><trkpt lat="45.82752848214397" lon="9.022849912018971"><ele>377.0</ele><time>2026-04-30T14:23:59.999Z</time></trkpt><trkpt lat="45.82747770392182" lon="9.022742085048614"><ele>379.5</ele><time>2026-04-30T14:24:00.999Z</time></trkpt><trkpt lat="45.827426770846394" lon="9.022635217381222"><ele>382.0</ele><time>2026-04-30T14:24:01.999Z</time></trkpt><trkpt lat="45.827378686761314" lon="9.022532436273348"><ele>384.5</ele><time>2026-04-30T14:24:02.999Z</time></trkpt><trkpt lat="45.827333481156835" lon="9.02243603901967"><ele>387.0</ele><time>2026-04-30T14:24:03.999Z</time></trkpt><trkpt lat="45.82728849987289" lon="9.022343381055894"><ele>388.1666666666667</ele><time>2026-04-30T14:24:04.999Z</time></trkpt><trkpt lat="45.82724058669579" lon="9.022247669312774"><ele>389.33333333333337</ele><time>2026-04-30T14:24:05.999Z</time></trkpt><trkpt lat="45.827192929128024" lon="9.022149808556437"><ele>390.5</ele><time>2026-04-30T14:24:06.999Z</time></trkpt><trkpt lat="45.827152950292245" lon="9.02203379652031"><ele>391.6666666666667</ele><time>2026-04-30T14:24:07.999Z</time></trkpt><trkpt lat="45.8271312775096" lon="9.021901304759712"><ele>392.83333333333337</ele><time>2026-04-30T14:24:08.999Z</time></trkpt><trkpt lat="45.82712389434362" lon="9.021763208633594"><ele>394.0</ele><time>2026-04-30T14:24:09.999Z</time></trkpt><trkpt lat="45.827118053411105" lon="9.021622484966523"><ele>395.6</ele><time>2026-04-30T14:24:10.999Z</time></trkpt><trkpt lat="45.827107408358145" lon="9.021478647164646"><ele>397.2</ele><time>2026-04-30T14:24:11.999Z</time></trkpt><trkpt lat="45.827099128266106" lon="9.021331824394206"><ele>398.8</ele><time>2026-04-30T14:24:12.999Z</time></trkpt><trkpt lat="45.82708955665434" lon="9.021181631882524"><ele>400.40000000000003</ele><time>2026-04-30T14:24:13.999Z</time></trkpt><trkpt lat="45.82707981315973" lon="9.021027499973885"><ele>402.0</ele><time>2026-04-30T14:24:14.999Z</time></trkpt><trkpt lat="45.82707487311247" lon="9.020872413473091"><ele>402.8</ele><time>2026-04-30T14:24:15.999Z</time></trkpt><trkpt lat="45.82707813601791" lon="9.02071706968094"><ele>403.6</ele><time>2026-04-30T14:24:16.999Z</time></trkpt><trkpt lat="45.827085312245615" lon="9.020559685544237"><ele>404.40000000000003</ele><time>2026-04-30T14:24:17.999Z</time></trkpt><trkpt lat="45.82709074050337" lon="9.02040281769875"><ele>405.20000000000005</ele><time>2026-04-30T14:24:18.999Z</time></trkpt><trkpt lat="45.82708468532166" lon="9.020247437805633"><ele>406.0</ele><time>2026-04-30T14:24:19.999Z</time></trkpt><trkpt lat="45.827066027357596" lon="9.020091843172906"><ele>406.6</ele><time>2026-04-30T14:24:20.999Z</time></trkpt><trkpt lat="45.82703063617492" lon="9.019945596199419"><ele>407.20000000000005</ele><time>2026-04-30T14:24:21.999Z</time></trkpt><trkpt lat="45.826987928440815" lon="9.019807985880067"><ele>407.79999999999995</ele><time>2026-04-30T14:24:22.999Z</time></trkpt><trkpt lat="45.82694027427105" lon="9.019680866700647"><ele>408.4</ele><time>2026-04-30T14:24:23.999Z</time></trkpt><trkpt lat="45.82689492324312" lon="9.019558603229102"><ele>409.0</ele><time>2026-04-30T14:24:24.999Z</time></trkpt><trkpt lat="45.826850651155844" lon="9.01944015819912"><ele>411.83333333333337</ele><time>2026-04-30T14:24:25.999Z</time></trkpt><trkpt lat="45.826806052901425" lon="9.019327610445535"><ele>414.6666666666667</ele><time>2026-04-30T14:24:26.999Z</time></trkpt><trkpt lat="45.82676558776678" lon="9.01922199596535"><ele>417.5</ele><time>2026-04-30T14:24:27.999Z</time></trkpt><trkpt lat="45.826729392152146" lon="9.019125957846363"><ele>420.33333333333337</ele><time>2026-04-30T14:24:28.999Z</time></trkpt><trkpt lat="45.82669243442841" lon="9.019027787789854"><ele>423.1666666666667</ele><time>2026-04-30T14:24:29.999Z</time></trkpt><trkpt lat="45.82666538221139" lon="9.018920620147824"><ele>426.0</ele><time>2026-04-30T14:24:30.999Z</time></trkpt><trkpt lat="45.826651075280274" lon="9.01881744646958"><ele>426.20000000000005</ele><time>2026-04-30T14:24:31.999Z</time></trkpt><trkpt lat="45.82664383550766" lon="9.01867016530118"><ele>426.40000000000003</ele><time>2026-04-30T14:24:33.999Z</time></trkpt><trkpt lat="45.82664193295336" lon="9.018496176050201"><ele>426.6</ele><time>2026-04-30T14:24:35.999Z</time></trkpt><trkpt lat="45.826639666048855" lon="9.018371891984495"><ele>426.8</ele><time>2026-04-30T14:24:37.999Z</time></trkpt><trkpt lat="45.82664066562047" lon="9.018240778589988"><ele>427.0</ele><time>2026-04-30T14:24:40.999Z</time></trkpt><trkpt lat="45.82662476670431" lon="9.018092487181542"><ele>427.83333333333337</ele><time>2026-04-30T14:24:42.999Z</time></trkpt><trkpt lat="45.826630331726335" lon="9.017976245167484"><ele>428.6666666666667</ele><time>2026-04-30T14:24:43.999Z</time></trkpt><trkpt lat="45.826630521233874" lon="9.01787878267159"><ele>429.5</ele><time>2026-04-30T14:24:44.999Z</time></trkpt><trkpt lat="45.82661181347513" lon="9.017753735240849"><ele>430.33333333333337</ele><time>2026-04-30T14:24:45.999Z</time></trkpt><trkpt lat="45.826589897362105" lon="9.01760632908876"><ele>431.1666666666667</ele><time>2026-04-30T14:24:46.999Z</time></trkpt><trkpt lat="45.826564537626425" lon="9.017466058151248"><ele>432.0</ele><time>2026-04-30T14:24:47.999Z</time></trkpt><trkpt lat="45.82654338660985" lon="9.017340685502226"><ele>432.5</ele><time>2026-04-30T14:24:48.999Z</time></trkpt><trkpt lat="45.82652743069336" lon="9.01722761071567"><ele>433.0</ele><time>2026-04-30T14:24:49.999Z</time></trkpt><trkpt lat="45.82650855082429" lon="9.017128099052986"><ele>433.5</ele><time>2026-04-30T14:24:50.999Z</time></trkpt><trkpt lat="45.82649796021332" lon="9.017028730033301"><ele>434.0</ele><time>2026-04-30T14:24:51.999Z</time></trkpt><trkpt lat="45.826477057544444" lon="9.01693063358054"><ele>434.5</ele><time>2026-04-30T14:24:52.999Z</time></trkpt><trkpt lat="45.8264634971412" lon="9.016769386497765"><ele>435.0</ele><time>2026-04-30T14:24:54.999Z</time></trkpt><trkpt lat="45.826454968724626" lon="9.016671855388156"><ele>436.0</ele><time>2026-04-30T14:24:55.999Z</time></trkpt><trkpt lat="45.826442632514286" lon="9.01656306105597"><ele>437.0</ele><time>2026-04-30T14:24:56.999Z</time></trkpt><trkpt lat="45.82642407494409" lon="9.016447130148155"><ele>438.0</ele><time>2026-04-30T14:24:57.999Z</time></trkpt><trkpt lat="45.82640297634321" lon="9.016337374863669"><ele>439.0</ele><time>2026-04-30T14:24:58.999Z</time></trkpt><trkpt lat="45.82638626050668" lon="9.01622876129763"><ele>440.0</ele><time>2026-04-30T14:24:59.999Z</time></trkpt><trkpt lat="45.82635180837438" lon="9.016126572523179"><ele>441.0</ele><time>2026-04-30T14:25:00.999Z</time></trkpt><trkpt lat="45.82633387441752" lon="9.016020179527658"><ele>441.0</ele><time>2026-04-30T14:25:01.999Z</time></trkpt><trkpt lat="45.82631402909645" lon="9.015929250604465"><ele>441.0</ele><time>2026-04-30T14:25:02.999Z</time></trkpt><trkpt lat="45.82629038306877" lon="9.0158206315956"><ele>441.0</ele><time>2026-04-30T14:25:05.999Z</time></trkpt><trkpt lat="45.826263939617874" lon="9.015704171518538"><ele>441.0</ele><time>2026-04-30T14:25:10.999Z</time></trkpt><trkpt lat="45.82623425069692" lon="9.01555914106437"><ele>441.0</ele><time>2026-04-30T14:25:12.999Z</time></trkpt><trkpt lat="45.82621637270041" lon="9.015471149940394"><ele>441.0</ele><time>2026-04-30T14:25:13.999Z</time></trkpt><trkpt lat="45.826194985248286" lon="9.015309918365205"><ele>440.8333333333333</ele><time>2026-04-30T14:25:15.999Z</time></trkpt><trkpt lat="45.8261746633533" lon="9.015133116769888"><ele>440.66666666666663</ele><time>2026-04-30T14:25:17.999Z</time></trkpt><trkpt lat="45.826165704673066" lon="9.01503258117783"><ele>440.5</ele><time>2026-04-30T14:25:18.999Z</time></trkpt><trkpt lat="45.82615582652333" lon="9.014921506968555"><ele>440.3333333333333</ele><time>2026-04-30T14:25:19.999Z</time></trkpt><trkpt lat="45.826144656767724" lon="9.01479590915262"><ele>440.16666666666663</ele><time>2026-04-30T14:25:20.999Z</time></trkpt><trkpt lat="45.82613407429765" lon="9.014676915247616"><ele>440.0</ele><time>2026-04-30T14:25:21.999Z</time></trkpt><trkpt lat="45.82612563637602" lon="9.01458224828431"><ele>439.6</ele><time>2026-04-30T14:25:22.999Z</time></trkpt><trkpt lat="45.82609905341026" lon="9.01442106994185"><ele>439.2</ele><time>2026-04-30T14:25:24.999Z</time></trkpt><trkpt lat="45.826080386417736" lon="9.014269530089877"><ele>438.79999999999995</ele><time>2026-04-30T14:25:26.999Z</time></trkpt><trkpt lat="45.82606577339311" lon="9.014153656332343"><ele>438.4</ele><time>2026-04-30T14:25:28.999Z</time></trkpt><trkpt lat="45.8260391478096" lon="9.014040762110625"><ele>438.0</ele><time>2026-04-30T14:25:30.999Z</time></trkpt><trkpt lat="45.82606600080041" lon="9.013929334459768"><ele>436.59999999999997</ele><time>2026-04-30T14:25:32.999Z</time></trkpt><trkpt lat="45.82604622588018" lon="9.01381700652425"><ele>435.19999999999993</ele><time>2026-04-30T14:25:34.999Z</time></trkpt><trkpt lat="45.82597992455387" lon="9.01378010002837"><ele>433.8</ele><time>2026-04-30T14:25:35.999Z</time></trkpt><trkpt lat="45.82584396865842" lon="9.013753689832573"><ele>432.4</ele><time>2026-04-30T14:25:37.999Z</time></trkpt><trkpt lat="45.825776400722894" lon="9.013650816969918"><ele>431.0</ele><time>2026-04-30T14:25:38.999Z</time></trkpt><trkpt lat="45.825703573321995" lon="9.013538506342824"><ele>430.0</ele><time>2026-04-30T14:25:39.999Z</time></trkpt><trkpt lat="45.82560102746994" lon="9.013442543053324"><ele>429.0</ele><time>2026-04-30T14:25:40.999Z</time></trkpt><trkpt lat="45.82550776288455" lon="9.013296901287799"><ele>428.0</ele><time>2026-04-30T14:25:41.999Z</time></trkpt><trkpt lat="45.82539032495698" lon="9.013151997888809"><ele>427.0</ele><time>2026-04-30T14:25:42.999Z</time></trkpt><trkpt lat="45.82526705265399" lon="9.013003090736909"><ele>424.6666666666667</ele><time>2026-04-30T14:25:43.999Z</time></trkpt><trkpt lat="45.82513068683933" lon="9.012851270515414"><ele>422.33333333333337</ele><time>2026-04-30T14:25:44.999Z</time></trkpt><trkpt lat="45.82501764213564" lon="9.01270791104255"><ele>420.0</ele><time>2026-04-30T14:25:45.999Z</time></trkpt><trkpt lat="45.824912891943875" lon="9.012572769229129"><ele>419.2</ele><time>2026-04-30T14:25:46.999Z</time></trkpt><trkpt lat="45.8248181639101" lon="9.012453255153018"><ele>418.4</ele><time>2026-04-30T14:25:47.999Z</time></trkpt><trkpt lat="45.82473010105228" lon="9.012342210512186"><ele>417.6</ele><time>2026-04-30T14:25:48.999Z</time></trkpt><trkpt lat="45.82465080440464" lon="9.01224659589355"><ele>416.8</ele><time>2026-04-30T14:25:49.999Z</time></trkpt><trkpt lat="45.8245745139304" lon="9.012157433397684"><ele>416.0</ele><time>2026-04-30T14:25:50.999Z</time></trkpt><trkpt lat="45.82449424988206" lon="9.012055165695699"><ele>416.0</ele><time>2026-04-30T14:25:51.999Z</time></trkpt><trkpt lat="45.82440519057111" lon="9.011959434371148"><ele>416.0</ele><time>2026-04-30T14:25:52.999Z</time></trkpt><trkpt lat="45.82431850182008" lon="9.011855333213466"><ele>416.0</ele><time>2026-04-30T14:25:53.999Z</time></trkpt><trkpt lat="45.824233170036244" lon="9.011746807218124"><ele>416.0</ele><time>2026-04-30T14:25:54.999Z</time></trkpt><trkpt lat="45.82414695231762" lon="9.011632981983722"><ele>416.4</ele><time>2026-04-30T14:25:55.999Z</time></trkpt><trkpt lat="45.824060623501936" lon="9.011527901359734"><ele>416.8</ele><time>2026-04-30T14:25:56.999Z</time></trkpt><trkpt lat="45.82397978548651" lon="9.01141142165022"><ele>417.2</ele><time>2026-04-30T14:25:57.999Z</time></trkpt><trkpt lat="45.82391608111253" lon="9.011303013546602"><ele>417.59999999999997</ele><time>2026-04-30T14:25:58.999Z</time></trkpt><trkpt lat="45.82385128365317" lon="9.011208350303884"><ele>418.0</ele><time>2026-04-30T14:25:59.999Z</time></trkpt><trkpt lat="45.82383411618171" lon="9.011077098009629"><ele>418.00000000000006</ele><time>2026-04-30T14:26:00.999Z</time></trkpt><trkpt lat="45.82380432743848" lon="9.010964133929257"><ele>418.0</ele><time>2026-04-30T14:26:01.999Z</time></trkpt><trkpt lat="45.82377676016038" lon="9.01084544883933"><ele>418.0</ele><time>2026-04-30T14:26:02.999Z</time></trkpt><trkpt lat="45.823747851960334" lon="9.010730686371044"><ele>418.0</ele><time>2026-04-30T14:26:03.999Z</time></trkpt><trkpt lat="45.82371397645141" lon="9.01060993023266"><ele>418.00000000000006</ele><time>2026-04-30T14:26:04.999Z</time></trkpt><trkpt lat="45.823676040080066" lon="9.010485100219174"><ele>418.0</ele><time>2026-04-30T14:26:05.999Z</time></trkpt><trkpt lat="45.82362768761805" lon="9.010373939644861"><ele>418.59999999999997</ele><time>2026-04-30T14:26:06.999Z</time></trkpt><trkpt lat="45.82357702298548" lon="9.01024599450202"><ele>419.2</ele><time>2026-04-30T14:26:07.999Z</time></trkpt><trkpt lat="45.82351944089923" lon="9.010128748809443"><ele>419.8</ele><time>2026-04-30T14:26:08.999Z</time></trkpt><trkpt lat="45.82345162807706" lon="9.010007134983756"><ele>420.4</ele><time>2026-04-30T14:26:09.999Z</time></trkpt><trkpt lat="45.82338960565081" lon="9.009881751822578"><ele>421.0</ele><time>2026-04-30T14:26:10.999Z</time></trkpt><trkpt lat="45.82333136009637" lon="9.009769588520493"><ele>421.8</ele><time>2026-04-30T14:26:11.999Z</time></trkpt><trkpt lat="45.82327807136491" lon="9.009659911910807"><ele>422.6</ele><time>2026-04-30T14:26:12.999Z</time></trkpt><trkpt lat="45.823228095417264" lon="9.009559036598528"><ele>423.4</ele><time>2026-04-30T14:26:13.999Z</time></trkpt><trkpt lat="45.823177066613184" lon="9.009447162409455"><ele>424.2</ele><time>2026-04-30T14:26:14.999Z</time></trkpt><trkpt lat="45.82312290908942" lon="9.009334986315098"><ele>425.0</ele><time>2026-04-30T14:26:15.999Z</time></trkpt><trkpt lat="45.82306101257521" lon="9.00920330081949"><ele>424.25</ele><time>2026-04-30T14:26:16.999Z</time></trkpt><trkpt lat="45.82299812952237" lon="9.00907024998666"><ele>423.5</ele><time>2026-04-30T14:26:17.999Z</time></trkpt><trkpt lat="45.82292635777777" lon="9.008932492374461"><ele>422.75</ele><time>2026-04-30T14:26:18.999Z</time></trkpt><trkpt lat="45.82285503206602" lon="9.00879534120648"><ele>422.0</ele><time>2026-04-30T14:26:19.999Z</time></trkpt><trkpt lat="45.82278771779922" lon="9.008662328768365"><ele>422.0</ele><time>2026-04-30T14:26:20.999Z</time></trkpt><trkpt lat="45.82271886880445" lon="9.008556534175913"><ele>422.0</ele><time>2026-04-30T14:26:21.999Z</time></trkpt><trkpt lat="45.82264780469572" lon="9.008476452218199"><ele>422.0</ele><time>2026-04-30T14:26:22.999Z</time></trkpt><trkpt lat="45.82257690851043" lon="9.008395847492107"><ele>422.0</ele><time>2026-04-30T14:26:23.999Z</time></trkpt><trkpt lat="45.82249838275996" lon="9.008319328324845"><ele>422.0</ele><time>2026-04-30T14:26:24.999Z</time></trkpt><trkpt lat="45.82242338484728" lon="9.008225763866253"><ele>422.40000000000003</ele><time>2026-04-30T14:26:25.999Z</time></trkpt><trkpt lat="45.82235896863919" lon="9.00812371166647"><ele>422.8</ele><time>2026-04-30T14:26:26.999Z</time></trkpt><trkpt lat="45.82230312345244" lon="9.008000713885103"><ele>423.2</ele><time>2026-04-30T14:26:27.999Z</time></trkpt><trkpt lat="45.822269914790375" lon="9.007870825332743"><ele>423.6</ele><time>2026-04-30T14:26:28.999Z</time></trkpt><trkpt lat="45.822244006347105" lon="9.007757767645241"><ele>424.0</ele><time>2026-04-30T14:26:29.999Z</time></trkpt><trkpt lat="45.82221736400257" lon="9.00764344635054"><ele>424.00000000000006</ele><time>2026-04-30T14:26:31Z</time></trkpt><trkpt lat="45.82219455101512" lon="9.00754707654444"><ele>424.0</ele><time>2026-04-30T14:26:32Z</time></trkpt><trkpt lat="45.82216650161907" lon="9.007461259888492"><ele>424.0</ele><time>2026-04-30T14:26:33Z</time></trkpt><trkpt lat="45.82210368624916" lon="9.00733971452047"><ele>424.0</ele><time>2026-04-30T14:26:35Z</time></trkpt><trkpt lat="45.822054691523704" lon="9.007242907314698"><ele>424.00000000000006</ele><time>2026-04-30T14:26:37Z</time></trkpt><trkpt lat="45.8220010231201" lon="9.00714418923278"><ele>424.0</ele><time>2026-04-30T14:26:39Z</time></trkpt><trkpt lat="45.82192904478871" lon="9.007042671578573"><ele>425.1666666666667</ele><time>2026-04-30T14:26:41Z</time></trkpt><trkpt lat="45.82182296296747" lon="9.006947958048814"><ele>426.33333333333337</ele><time>2026-04-30T14:26:43Z</time></trkpt><trkpt lat="45.821754199803145" lon="9.006908946272553"><ele>427.5</ele><time>2026-04-30T14:26:44Z</time></trkpt><trkpt lat="45.82168249992053" lon="9.006876085906304"><ele>428.66666666666663</ele><time>2026-04-30T14:26:45Z</time></trkpt><trkpt lat="45.82161283038294" lon="9.00684166194078"><ele>429.8333333333333</ele><time>2026-04-30T14:26:46Z</time></trkpt><trkpt lat="45.82154446166076" lon="9.006796713513035"><ele>431.0</ele><time>2026-04-30T14:26:47Z</time></trkpt><trkpt lat="45.82148186501451" lon="9.006736051720093"><ele>430.16666666666663</ele><time>2026-04-30T14:26:48Z</time></trkpt><trkpt lat="45.8214331087455" lon="9.006652380648935"><ele>429.3333333333333</ele><time>2026-04-30T14:26:49Z</time></trkpt><trkpt lat="45.82140486591416" lon="9.006553247014969"><ele>428.5</ele><time>2026-04-30T14:26:50Z</time></trkpt><trkpt lat="45.821391880548205" lon="9.00644598756773"><ele>427.66666666666663</ele><time>2026-04-30T14:26:51Z</time></trkpt><trkpt lat="45.82138271200126" lon="9.006316508285016"><ele>426.8333333333333</ele><time>2026-04-30T14:26:52Z</time></trkpt><trkpt lat="45.82137257560617" lon="9.006163265367046"><ele>426.0</ele><time>2026-04-30T14:26:53Z</time></trkpt><trkpt lat="45.821378241902856" lon="9.006024446668146"><ele>426.0</ele><time>2026-04-30T14:26:54Z</time></trkpt><trkpt lat="45.821363618214335" lon="9.00586213301197"><ele>426.0</ele><time>2026-04-30T14:26:55Z</time></trkpt><trkpt lat="45.8213506677672" lon="9.005699647605026"><ele>426.0</ele><time>2026-04-30T14:26:56Z</time></trkpt><trkpt lat="45.82133604744262" lon="9.005548394937183"><ele>426.0</ele><time>2026-04-30T14:26:57Z</time></trkpt><trkpt lat="45.82131848536572" lon="9.005404016243151"><ele>426.0</ele><time>2026-04-30T14:26:58Z</time></trkpt><trkpt lat="45.82129306047949" lon="9.005264797717842"><ele>425.4</ele><time>2026-04-30T14:26:59Z</time></trkpt><trkpt lat="45.821259241583206" lon="9.00513418674088"><ele>424.8</ele><time>2026-04-30T14:27:00Z</time></trkpt><trkpt lat="45.821220551955705" lon="9.005013142813802"><ele>424.2</ele><time>2026-04-30T14:27:01Z</time></trkpt><trkpt lat="45.82118074622753" lon="9.00489877806815"><ele>423.59999999999997</ele><time>2026-04-30T14:27:02Z</time></trkpt><trkpt lat="45.82113558001993" lon="9.004787508256236"><ele>423.0</ele><time>2026-04-30T14:27:03Z</time></trkpt><trkpt lat="45.821082457981134" lon="9.004667627284203"><ele>424.1666666666667</ele><time>2026-04-30T14:27:04Z</time></trkpt><trkpt lat="45.821018238602065" lon="9.004552708126138"><ele>425.33333333333337</ele><time>2026-04-30T14:27:05Z</time></trkpt><trkpt lat="45.82094772394444" lon="9.00446359445714"><ele>426.5</ele><time>2026-04-30T14:27:06Z</time></trkpt><trkpt lat="45.820880191839066" lon="9.004395337247727"><ele>427.6666666666667</ele><time>2026-04-30T14:27:07Z</time></trkpt><trkpt lat="45.82081750128636" lon="9.00433618083382"><ele>428.83333333333337</ele><time>2026-04-30T14:27:08Z</time></trkpt><trkpt lat="45.82076166772537" lon="9.004276905598328"><ele>430.0</ele><time>2026-04-30T14:27:09Z</time></trkpt><trkpt lat="45.82070797685505" lon="9.004219504699764"><ele>429.0</ele><time>2026-04-30T14:27:10Z</time></trkpt><trkpt lat="45.82060929433494" lon="9.004116031390138"><ele>428.0</ele><time>2026-04-30T14:27:12Z</time></trkpt><trkpt lat="45.82053685533484" lon="9.003933274405883"><ele>427.0</ele><time>2026-04-30T14:27:14Z</time></trkpt><trkpt lat="45.820487166464034" lon="9.00380960976577"><ele>426.0</ele><time>2026-04-30T14:27:15Z</time></trkpt><trkpt lat="45.82054839655805" lon="9.00368162093302"><ele>426.0</ele><time>2026-04-30T14:27:16Z</time></trkpt><trkpt lat="45.820557718319336" lon="9.003553246711565"><ele>426.0</ele><time>2026-04-30T14:27:16.999Z</time></trkpt><trkpt lat="45.820592349966326" lon="9.003450664068506"><ele>426.0</ele><time>2026-04-30T14:27:17.999Z</time></trkpt><trkpt lat="45.82062010276003" lon="9.003358499227444"><ele>426.0</ele><time>2026-04-30T14:27:18.999Z</time></trkpt><trkpt lat="45.82063750784423" lon="9.003256633192656"><ele>426.0</ele><time>2026-04-30T14:27:19.999Z</time></trkpt><trkpt lat="45.82065064495292" lon="9.003154994197455"><ele>426.0</ele><time>2026-04-30T14:27:20.999Z</time></trkpt><trkpt lat="45.82065443811955" lon="9.003047649420928"><ele>425.6</ele><time>2026-04-30T14:27:21.999Z</time></trkpt><trkpt lat="45.820653481612624" lon="9.002938543671686"><ele>425.20000000000005</ele><time>2026-04-30T14:27:22.999Z</time></trkpt><trkpt lat="45.82064988553696" lon="9.002836449880927"><ele>424.79999999999995</ele><time>2026-04-30T14:27:23.999Z</time></trkpt><trkpt lat="45.82064416268411" lon="9.002742739477329"><ele>424.4</ele><time>2026-04-30T14:27:24.999Z</time></trkpt><trkpt lat="45.820614099834465" lon="9.002544229048372"><ele>424.0</ele><time>2026-04-30T14:27:26.999Z</time></trkpt><trkpt lat="45.820591298609685" lon="9.00239839006868"><ele>422.5</ele><time>2026-04-30T14:27:27.999Z</time></trkpt><trkpt lat="45.820568804481375" lon="9.002260207317596"><ele>421.0</ele><time>2026-04-30T14:27:28.999Z</time></trkpt><trkpt lat="45.82054241151916" lon="9.002102094468944"><ele>419.5</ele><time>2026-04-30T14:27:29.999Z</time></trkpt><trkpt lat="45.82051827804387" lon="9.001933119317217"><ele>418.0</ele><time>2026-04-30T14:27:30.999Z</time></trkpt><trkpt lat="45.82049107178964" lon="9.001742054856928"><ele>415.75</ele><time>2026-04-30T14:27:31.999Z</time></trkpt><trkpt lat="45.82046009194601" lon="9.001530840316283"><ele>413.5</ele><time>2026-04-30T14:27:32.999Z</time></trkpt><trkpt lat="45.82044019064721" lon="9.001341691673378"><ele>411.25</ele><time>2026-04-30T14:27:33.999Z</time></trkpt><trkpt lat="45.82042824308867" lon="9.00117601633482"><ele>409.0</ele><time>2026-04-30T14:27:34.999Z</time></trkpt><trkpt lat="45.820416537613525" lon="9.001020671489451"><ele>409.0</ele><time>2026-04-30T14:27:35.999Z</time></trkpt><trkpt lat="45.82039930695884" lon="9.000852711702775"><ele>409.0</ele><time>2026-04-30T14:27:36.999Z</time></trkpt><trkpt lat="45.82037796722713" lon="9.000674126550686"><ele>409.0</ele><time>2026-04-30T14:27:37.999Z</time></trkpt><trkpt lat="45.82036652810384" lon="9.000477509327316"><ele>409.0</ele><time>2026-04-30T14:27:38.999Z</time></trkpt><trkpt lat="45.8203511969005" lon="9.000289613132454"><ele>407.0</ele><time>2026-04-30T14:27:39.999Z</time></trkpt><trkpt lat="45.82034581611859" lon="9.000112573516056"><ele>405.0</ele><time>2026-04-30T14:27:40.999Z</time></trkpt><trkpt lat="45.82033410641158" lon="8.99992929773451"><ele>403.0</ele><time>2026-04-30T14:27:41.999Z</time></trkpt><trkpt lat="45.820301006388426" lon="8.999721644651997"><ele>401.0</ele><time>2026-04-30T14:27:42.999Z</time></trkpt><trkpt lat="45.82024740390198" lon="8.999527855479338"><ele>401.0</ele><time>2026-04-30T14:27:43.999Z</time></trkpt><trkpt lat="45.820176099168506" lon="8.999335400181012"><ele>401.0</ele><time>2026-04-30T14:27:44.999Z</time></trkpt><trkpt lat="45.820085223630585" lon="8.99916728842218"><ele>401.0</ele><time>2026-04-30T14:27:45.999Z</time></trkpt><trkpt lat="45.82000440534825" lon="8.99902598162571"><ele>401.0</ele><time>2026-04-30T14:27:46.999Z</time></trkpt><trkpt lat="45.81993370394966" lon="8.998898940765434"><ele>400.4</ele><time>2026-04-30T14:27:47.999Z</time></trkpt><trkpt lat="45.81987201979925" lon="8.998781983175267"><ele>399.8</ele><time>2026-04-30T14:27:48.999Z</time></trkpt><trkpt lat="45.81981341897063" lon="8.99866570258129"><ele>399.2</ele><time>2026-04-30T14:27:49.999Z</time></trkpt><trkpt lat="45.81975767532198" lon="8.998524591730968"><ele>398.59999999999997</ele><time>2026-04-30T14:27:50.999Z</time></trkpt><trkpt lat="45.81971286804068" lon="8.998392930231942"><ele>398.0</ele><time>2026-04-30T14:27:51.999Z</time></trkpt><trkpt lat="45.81967368333536" lon="8.99826163502676"><ele>398.0</ele><time>2026-04-30T14:27:52.999Z</time></trkpt><trkpt lat="45.81963112362345" lon="8.998138056968811"><ele>398.0</ele><time>2026-04-30T14:27:53.999Z</time></trkpt><trkpt lat="45.819568850123424" lon="8.99802804147067"><ele>398.0</ele><time>2026-04-30T14:27:54.999Z</time></trkpt><trkpt lat="45.81949524566838" lon="8.997904547890217"><ele>398.0</ele><time>2026-04-30T14:27:55.999Z</time></trkpt><trkpt lat="45.8193963380862" lon="8.997791887879625"><ele>398.0</ele><time>2026-04-30T14:27:56.999Z</time></trkpt><trkpt lat="45.81928576121702" lon="8.997687625952574"><ele>399.0</ele><time>2026-04-30T14:27:57.999Z</time></trkpt><trkpt lat="45.81916709398457" lon="8.997595554142555"><ele>400.0</ele><time>2026-04-30T14:27:58.999Z</time></trkpt><trkpt lat="45.819049085319335" lon="8.99750285260974"><ele>401.0</ele><time>2026-04-30T14:27:59.999Z</time></trkpt><trkpt lat="45.81892355675575" lon="8.997406760741272"><ele>402.0</ele><time>2026-04-30T14:28:00.999Z</time></trkpt><trkpt lat="45.81880289614507" lon="8.997312489617523"><ele>402.0</ele><time>2026-04-30T14:28:01.999Z</time></trkpt><trkpt lat="45.81869323330134" lon="8.997213783694843"><ele>402.0</ele><time>2026-04-30T14:28:02.999Z</time></trkpt><trkpt lat="45.81859915254406" lon="8.99709656787128"><ele>402.0</ele><time>2026-04-30T14:28:03.999Z</time></trkpt><trkpt lat="45.81852111019111" lon="8.99695834636918"><ele>402.0</ele><time>2026-04-30T14:28:04.999Z</time></trkpt><trkpt lat="45.818461377196186" lon="8.99680921183444"><ele>400.20000000000005</ele><time>2026-04-30T14:28:05.999Z</time></trkpt><trkpt lat="45.81840178428443" lon="8.99666550663429"><ele>398.4</ele><time>2026-04-30T14:28:06.999Z</time></trkpt><trkpt lat="45.81833785439675" lon="8.996534562073942"><ele>396.6</ele><time>2026-04-30T14:28:07.999Z</time></trkpt><trkpt lat="45.8182657367115" lon="8.996428534438039"><ele>394.79999999999995</ele><time>2026-04-30T14:28:08.999Z</time></trkpt><trkpt lat="45.81818648711596" lon="8.996350396994723"><ele>393.0</ele><time>2026-04-30T14:28:09.999Z</time></trkpt><trkpt lat="45.81809890091015" lon="8.996310744319997"><ele>393.0</ele><time>2026-04-30T14:28:10.999Z</time></trkpt><trkpt lat="45.818007267425436" lon="8.996317816370643"><ele>393.0</ele><time>2026-04-30T14:28:11.999Z</time></trkpt><trkpt lat="45.81792526099056" lon="8.996378773835186"><ele>393.0</ele><time>2026-04-30T14:28:12.999Z</time></trkpt><trkpt lat="45.81785625912561" lon="8.996472208600697"><ele>393.0</ele><time>2026-04-30T14:28:13.999Z</time></trkpt><trkpt lat="45.81778755600179" lon="8.996570800692428"><ele>393.0</ele><time>2026-04-30T14:28:14.999Z</time></trkpt><trkpt lat="45.8177179716746" lon="8.996651494546226"><ele>396.1666666666667</ele><time>2026-04-30T14:28:15.999Z</time></trkpt><trkpt lat="45.81764330401875" lon="8.996704671781204"><ele>399.33333333333337</ele><time>2026-04-30T14:28:16.999Z</time></trkpt><trkpt lat="45.817561211260404" lon="8.99673597568233"><ele>402.5</ele><time>2026-04-30T14:28:17.999Z</time></trkpt><trkpt lat="45.81747957667329" lon="8.996752649530858"><ele>405.6666666666667</ele><time>2026-04-30T14:28:18.999Z</time></trkpt><trkpt lat="45.81739923234123" lon="8.996751516912095"><ele>408.83333333333337</ele><time>2026-04-30T14:28:19.999Z</time></trkpt><trkpt lat="45.817326314131556" lon="8.996727361467913"><ele>412.0</ele><time>2026-04-30T14:28:20.999Z</time></trkpt><trkpt lat="45.81725341532609" lon="8.99669945646827"><ele>411.99999999999994</ele><time>2026-04-30T14:28:21.999Z</time></trkpt><trkpt lat="45.81718175965596" lon="8.99667533491695"><ele>412.0</ele><time>2026-04-30T14:28:22.999Z</time></trkpt><trkpt lat="45.81711846399487" lon="8.996722422027675"><ele>412.0</ele><time>2026-04-30T14:28:23.999Z</time></trkpt><trkpt lat="45.81705402587048" lon="8.996748104029633"><ele>412.0</ele><time>2026-04-30T14:28:24.999Z</time></trkpt><trkpt lat="45.81699290495196" lon="8.99678563284988"><ele>412.0</ele><time>2026-04-30T14:28:25.999Z</time></trkpt><trkpt lat="45.816938389095924" lon="8.996869761150686"><ele>411.99999999999994</ele><time>2026-04-30T14:28:26.999Z</time></trkpt><trkpt lat="45.81687900396535" lon="8.996952043211627"><ele>412.0</ele><time>2026-04-30T14:28:27.999Z</time></trkpt><trkpt lat="45.81682960791459" lon="8.997018817623994"><ele>408.0</ele><time>2026-04-30T14:28:28.999Z</time></trkpt><trkpt lat="45.81673199157703" lon="8.997066029715153"><ele>404.0</ele><time>2026-04-30T14:28:30.999Z</time></trkpt><trkpt lat="45.816642187592265" lon="8.997034267115952"><ele>400.0</ele><time>2026-04-30T14:28:32.999Z</time></trkpt><trkpt lat="45.81657933233796" lon="8.997050928983594"><ele>396.0</ele><time>2026-04-30T14:28:33.999Z</time></trkpt><trkpt lat="45.816524760556526" lon="8.997200748538836"><ele>392.0</ele><time>2026-04-30T14:28:35.999Z</time></trkpt><trkpt lat="45.81648799868233" lon="8.997317693665888"><ele>391.99999999999994</ele><time>2026-04-30T14:28:37Z</time></trkpt><trkpt lat="45.81643949618432" lon="8.997435211687984"><ele>392.0</ele><time>2026-04-30T14:28:38Z</time></trkpt><trkpt lat="45.81638387445601" lon="8.997552326674603"><ele>392.0</ele><time>2026-04-30T14:28:39Z</time></trkpt><trkpt lat="45.8163238538566" lon="8.99765163769553"><ele>392.0</ele><time>2026-04-30T14:28:40Z</time></trkpt><trkpt lat="45.81626879188814" lon="8.997728480352995"><ele>391.99999999999994</ele><time>2026-04-30T14:28:41Z</time></trkpt><trkpt lat="45.816215049373476" lon="8.997788843126358"><ele>392.0</ele><time>2026-04-30T14:28:42Z</time></trkpt><trkpt lat="45.816094445711855" lon="8.997878451931022"><ele>391.8</ele><time>2026-04-30T14:28:44Z</time></trkpt><trkpt lat="45.816016339367934" lon="8.99792734911421"><ele>391.6</ele><time>2026-04-30T14:28:45Z</time></trkpt><trkpt lat="45.81593194338321" lon="8.99797029896863"><ele>391.40000000000003</ele><time>2026-04-30T14:28:46Z</time></trkpt><trkpt lat="45.81584493394505" lon="8.998013622317416"><ele>391.20000000000005</ele><time>2026-04-30T14:28:47Z</time></trkpt><trkpt lat="45.81575138539489" lon="8.998051208005927"><ele>391.0</ele><time>2026-04-30T14:28:48Z</time></trkpt><trkpt lat="45.81566236038879" lon="8.99810051652424"><ele>391.0</ele><time>2026-04-30T14:28:49Z</time></trkpt><trkpt lat="45.81559150855662" lon="8.998173207673045"><ele>391.0</ele><time>2026-04-30T14:28:50Z</time></trkpt><trkpt lat="45.815527962532705" lon="8.998258383335743"><ele>391.0</ele><time>2026-04-30T14:28:51Z</time></trkpt><trkpt lat="45.81545958180177" lon="8.998347101018762"><ele>391.0</ele><time>2026-04-30T14:28:52Z</time></trkpt><trkpt lat="45.81538069480905" lon="8.99844278895525"><ele>391.0</ele><time>2026-04-30T14:28:53Z</time></trkpt><trkpt lat="45.81529361082496" lon="8.998542790623679"><ele>392.5</ele><time>2026-04-30T14:28:54Z</time></trkpt><trkpt lat="45.81520074874216" lon="8.99863654145759"><ele>394.0</ele><time>2026-04-30T14:28:55Z</time></trkpt><trkpt lat="45.81510022294659" lon="8.99871201366091"><ele>395.5</ele><time>2026-04-30T14:28:56Z</time></trkpt><trkpt lat="45.814986612076204" lon="8.998760427229342"><ele>397.0</ele><time>2026-04-30T14:28:57Z</time></trkpt><trkpt lat="45.81486776239683" lon="8.998786707118434"><ele>397.0</ele><time>2026-04-30T14:28:58Z</time></trkpt><trkpt lat="45.81474738450309" lon="8.998810565938005"><ele>397.0</ele><time>2026-04-30T14:28:59Z</time></trkpt><trkpt lat="45.81462631976042" lon="8.9988331041916"><ele>397.0</ele><time>2026-04-30T14:29:00Z</time></trkpt><trkpt lat="45.81450293645466" lon="8.998829904351636"><ele>397.0</ele><time>2026-04-30T14:29:01Z</time></trkpt><trkpt lat="45.81437989036993" lon="8.998808911304556"><ele>398.40000000000003</ele><time>2026-04-30T14:29:02Z</time></trkpt><trkpt lat="45.814267970421994" lon="8.998764434233946"><ele>399.8</ele><time>2026-04-30T14:29:03Z</time></trkpt><trkpt lat="45.814165260392386" lon="8.99872192809433"><ele>401.2</ele><time>2026-04-30T14:29:04Z</time></trkpt><trkpt lat="45.81407612997644" lon="8.99865556045589"><ele>402.6</ele><time>2026-04-30T14:29:05Z</time></trkpt><trkpt lat="45.813987709197846" lon="8.998609924633696"><ele>404.0</ele><time>2026-04-30T14:29:06Z</time></trkpt><trkpt lat="45.81390114420226" lon="8.998586023427196"><ele>404.0</ele><time>2026-04-30T14:29:07Z</time></trkpt><trkpt lat="45.81383302400879" lon="8.998530036898506"><ele>404.0</ele><time>2026-04-30T14:29:08Z</time></trkpt><trkpt lat="45.813734163549995" lon="8.998475262991402"><ele>404.0</ele><time>2026-04-30T14:29:10Z</time></trkpt><trkpt lat="45.813702217848636" lon="8.998356386142817"><ele>404.0</ele><time>2026-04-30T14:29:13Z</time></trkpt><trkpt lat="45.813679215498816" lon="8.998267244490274"><ele>404.0</ele><time>2026-04-30T14:29:16Z</time></trkpt><trkpt lat="45.81379199153263" lon="8.998202581380589"><ele>398.5</ele><time>2026-04-30T14:29:17Z</time></trkpt><trkpt lat="45.8138823370288" lon="8.998185283200161"><ele>393.0</ele><time>2026-04-30T14:29:18Z</time></trkpt><trkpt lat="45.81399179809635" lon="8.998149450593804"><ele>387.5</ele><time>2026-04-30T14:29:19Z</time></trkpt><trkpt lat="45.81411545054141" lon="8.998100819977848"><ele>382.0</ele><time>2026-04-30T14:29:20Z</time></trkpt><trkpt lat="45.81423630756767" lon="8.99804754720733"><ele>382.25</ele><time>2026-04-30T14:29:21Z</time></trkpt><trkpt lat="45.81435685822382" lon="8.997981011602095"><ele>382.5</ele><time>2026-04-30T14:29:22Z</time></trkpt><trkpt lat="45.81447699885771" lon="8.997890191817623"><ele>382.75</ele><time>2026-04-30T14:29:23Z</time></trkpt><trkpt lat="45.81458137397933" lon="8.997758808204612"><ele>383.0</ele><time>2026-04-30T14:29:24Z</time></trkpt><trkpt lat="45.81467016987456" lon="8.997606948511368"><ele>381.33333333333337</ele><time>2026-04-30T14:29:25Z</time></trkpt><trkpt lat="45.81473350408379" lon="8.997417036708658"><ele>379.6666666666667</ele><time>2026-04-30T14:29:26Z</time></trkpt><trkpt lat="45.814801571207205" lon="8.997190120599472"><ele>378.0</ele><time>2026-04-30T14:29:27Z</time></trkpt><trkpt lat="45.81486519279586" lon="8.996954046739509"><ele>378.0</ele><time>2026-04-30T14:29:28Z</time></trkpt><trkpt lat="45.814926922863506" lon="8.996762609332157"><ele>378.0</ele><time>2026-04-30T14:29:29Z</time></trkpt><trkpt lat="45.81498214126211" lon="8.996592777901485"><ele>378.0</ele><time>2026-04-30T14:29:30Z</time></trkpt><trkpt lat="45.81503015744937" lon="8.996430284410017"><ele>378.0</ele><time>2026-04-30T14:29:31Z</time></trkpt><trkpt lat="45.815074839057104" lon="8.996273051965117"><ele>377.4</ele><time>2026-04-30T14:29:32Z</time></trkpt><trkpt lat="45.815107569366155" lon="8.996128599751247"><ele>376.79999999999995</ele><time>2026-04-30T14:29:33Z</time></trkpt><trkpt lat="45.81511285986656" lon="8.995992995152356"><ele>376.2</ele><time>2026-04-30T14:29:34Z</time></trkpt><trkpt lat="45.81508690025413" lon="8.995846928459857"><ele>375.6</ele><time>2026-04-30T14:29:35Z</time></trkpt><trkpt lat="45.815123051586504" lon="8.995678414258617"><ele>375.0</ele><time>2026-04-30T14:29:35.999Z</time></trkpt><trkpt lat="45.81513527975467" lon="8.995491398804159"><ele>375.6666666666667</ele><time>2026-04-30T14:29:36.999Z</time></trkpt><trkpt lat="45.815173704287474" lon="8.995283422168725"><ele>376.33333333333337</ele><time>2026-04-30T14:29:37.999Z</time></trkpt><trkpt lat="45.81525905781013" lon="8.995071924383534"><ele>377.0</ele><time>2026-04-30T14:29:38.999Z</time></trkpt><trkpt lat="45.81533086967553" lon="8.994816936834015"><ele>375.6666666666667</ele><time>2026-04-30T14:29:39.999Z</time></trkpt><trkpt lat="45.81541809844853" lon="8.994588828767943"><ele>374.3333333333333</ele><time>2026-04-30T14:29:40.999Z</time></trkpt><trkpt lat="45.81548847247731" lon="8.994386186181032"><ele>373.0</ele><time>2026-04-30T14:29:41.999Z</time></trkpt><trkpt lat="45.81554981030023" lon="8.994197442431823"><ele>373.25</ele><time>2026-04-30T14:29:42.999Z</time></trkpt><trkpt lat="45.8156075404147" lon="8.99402224954965"><ele>373.5</ele><time>2026-04-30T14:29:43.999Z</time></trkpt><trkpt lat="45.81566010082543" lon="8.99385750196531"><ele>373.75</ele><time>2026-04-30T14:29:44.999Z</time></trkpt><trkpt lat="45.815708044117535" lon="8.993706732197193"><ele>374.0</ele><time>2026-04-30T14:29:45.999Z</time></trkpt><trkpt lat="45.81575222001791" lon="8.993564609934912"><ele>374.0</ele><time>2026-04-30T14:29:46.999Z</time></trkpt><trkpt lat="45.815788387030416" lon="8.993428827761932"><ele>374.0</ele><time>2026-04-30T14:29:47.999Z</time></trkpt><trkpt lat="45.81580994706414" lon="8.993277326665801"><ele>374.0</ele><time>2026-04-30T14:29:48.999Z</time></trkpt><trkpt lat="45.815806013899106" lon="8.99311191307464"><ele>374.0</ele><time>2026-04-30T14:29:49.999Z</time></trkpt><trkpt lat="45.815770614054124" lon="8.992903993525955"><ele>372.75</ele><time>2026-04-30T14:29:50.999Z</time></trkpt><trkpt lat="45.81571561786489" lon="8.992681424647275"><ele>371.5</ele><time>2026-04-30T14:29:51.999Z</time></trkpt><trkpt lat="45.81568268852034" lon="8.992477641902315"><ele>370.25</ele><time>2026-04-30T14:29:52.999Z</time></trkpt><trkpt lat="45.815671749237644" lon="8.99228574788205"><ele>369.0</ele><time>2026-04-30T14:29:53.999Z</time></trkpt><trkpt lat="45.815686039327694" lon="8.992101247179809"><ele>367.75</ele><time>2026-04-30T14:29:54.999Z</time></trkpt><trkpt lat="45.81573105453497" lon="8.991935692135378"><ele>366.5</ele><time>2026-04-30T14:29:55.999Z</time></trkpt><trkpt lat="45.81580166991747" lon="8.991793622780547"><ele>365.25</ele><time>2026-04-30T14:29:56.999Z</time></trkpt><trkpt lat="45.81590196168453" lon="8.991702368329321"><ele>364.0</ele><time>2026-04-30T14:29:57.999Z</time></trkpt><trkpt lat="45.81599918295429" lon="8.991620665862804"><ele>362.75</ele><time>2026-04-30T14:29:58.999Z</time></trkpt><trkpt lat="45.816068247813114" lon="8.99149693327283"><ele>361.5</ele><time>2026-04-30T14:29:59.999Z</time></trkpt><trkpt lat="45.81609791183275" lon="8.99134310674422"><ele>360.25</ele><time>2026-04-30T14:30:00.999Z</time></trkpt><trkpt lat="45.81606106422058" lon="8.991179516159711"><ele>359.0</ele><time>2026-04-30T14:30:01.999Z</time></trkpt><trkpt lat="45.81599931920253" lon="8.99101586913348"><ele>357.33333333333337</ele><time>2026-04-30T14:30:02.999Z</time></trkpt><trkpt lat="45.81589952195146" lon="8.990839637751884"><ele>355.6666666666667</ele><time>2026-04-30T14:30:03.999Z</time></trkpt><trkpt lat="45.81576084463118" lon="8.990656824560329"><ele>354.0</ele><time>2026-04-30T14:30:04.999Z</time></trkpt><trkpt lat="45.81563484282368" lon="8.990495162124649"><ele>354.0</ele><time>2026-04-30T14:30:05.999Z</time></trkpt><trkpt lat="45.81552120537973" lon="8.990322147804411"><ele>354.0</ele><time>2026-04-30T14:30:06.999Z</time></trkpt><trkpt lat="45.81542398045424" lon="8.99013985808021"><ele>354.0</ele><time>2026-04-30T14:30:07.999Z</time></trkpt><trkpt lat="45.81533816274622" lon="8.989980036975622"><ele>354.4</ele><time>2026-04-30T14:30:08.999Z</time></trkpt><trkpt lat="45.815253342216046" lon="8.98987144341288"><ele>354.79999999999995</ele><time>2026-04-30T14:30:09.999Z</time></trkpt><trkpt lat="45.81517767445143" lon="8.989803124305014"><ele>355.20000000000005</ele><time>2026-04-30T14:30:10.999Z</time></trkpt><trkpt lat="45.8151112768472" lon="8.989680101548888"><ele>355.6</ele><time>2026-04-30T14:30:12.999Z</time></trkpt><trkpt lat="45.815155968602994" lon="8.989521466699287"><ele>356.0</ele><time>2026-04-30T14:30:14.999Z</time></trkpt><trkpt lat="45.815225344520236" lon="8.989504130232264"><ele>355.6666666666667</ele><time>2026-04-30T14:30:15.999Z</time></trkpt><trkpt lat="45.81528959959488" lon="8.989556585652311"><ele>355.33333333333337</ele><time>2026-04-30T14:30:16.999Z</time></trkpt><trkpt lat="45.81533879773388" lon="8.989645907128896"><ele>355.0</ele><time>2026-04-30T14:30:17.999Z</time></trkpt><trkpt lat="45.81539430346268" lon="8.989758607792288"><ele>354.6666666666667</ele><time>2026-04-30T14:30:18.999Z</time></trkpt><trkpt lat="45.8154517068419" lon="8.989863565245136"><ele>354.3333333333333</ele><time>2026-04-30T14:30:19.999Z</time></trkpt><trkpt lat="45.81550248895469" lon="8.98995590653112"><ele>354.0</ele><time>2026-04-30T14:30:20.999Z</time></trkpt><trkpt lat="45.815549061863585" lon="8.990028630463454"><ele>354.0</ele><time>2026-04-30T14:30:21.999Z</time></trkpt><trkpt lat="45.81561053946088" lon="8.99007057125087"><ele>354.0</ele><time>2026-04-30T14:30:22.999Z</time></trkpt><trkpt lat="45.815678174637895" lon="8.99006403520812"><ele>354.0</ele><time>2026-04-30T14:30:23.999Z</time></trkpt><trkpt lat="45.81573696785638" lon="8.990004308015019"><ele>354.0</ele><time>2026-04-30T14:30:24.999Z</time></trkpt><trkpt lat="45.815752651851376" lon="8.989785903381959"><ele>354.0</ele><time>2026-04-30T14:30:26.999Z</time></trkpt><trkpt lat="45.815695465828654" lon="8.989682281428772"><ele>351.5</ele><time>2026-04-30T14:30:27.999Z</time></trkpt><trkpt lat="45.81561314509356" lon="8.98960060163138"><ele>349.0</ele><time>2026-04-30T14:30:28.999Z</time></trkpt><trkpt lat="45.81552416060916" lon="8.989508216864094"><ele>346.5</ele><time>2026-04-30T14:30:29.999Z</time></trkpt><trkpt lat="45.8154404200481" lon="8.989381555993228"><ele>344.0</ele><time>2026-04-30T14:30:30.999Z</time></trkpt><trkpt lat="45.815367340917255" lon="8.989243807625439"><ele>344.0</ele><time>2026-04-30T14:30:31.999Z</time></trkpt><trkpt lat="45.81529407305867" lon="8.989106846260405"><ele>344.0</ele><time>2026-04-30T14:30:32.999Z</time></trkpt><trkpt lat="45.8152220407966" lon="8.988966114994364"><ele>344.0</ele><time>2026-04-30T14:30:33.999Z</time></trkpt><trkpt lat="45.81516292039413" lon="8.988814531681022"><ele>344.0</ele><time>2026-04-30T14:30:34.999Z</time></trkpt><trkpt lat="45.81511193389708" lon="8.98865592392207"><ele>344.0</ele><time>2026-04-30T14:30:35.999Z</time></trkpt><trkpt lat="45.815057176740595" lon="8.988501133309384"><ele>344.0</ele><time>2026-04-30T14:30:36.999Z</time></trkpt><trkpt lat="45.81498614304885" lon="8.988357985086443"><ele>344.0</ele><time>2026-04-30T14:30:37.999Z</time></trkpt><trkpt lat="45.81489008896755" lon="8.988223755197504"><ele>344.0</ele><time>2026-04-30T14:30:38.999Z</time></trkpt><trkpt lat="45.814780427507074" lon="8.98811056865529"><ele>339.5</ele><time>2026-04-30T14:30:39.999Z</time></trkpt><trkpt lat="45.814681970829206" lon="8.988004416974023"><ele>335.0</ele><time>2026-04-30T14:30:40.999Z</time></trkpt><trkpt lat="45.814605912930084" lon="8.98787711230797"><ele>330.5</ele><time>2026-04-30T14:30:42Z</time></trkpt><trkpt lat="45.814559021502276" lon="8.98772329241609"><ele>326.0</ele><time>2026-04-30T14:30:43Z</time></trkpt><trkpt lat="45.81454160675166" lon="8.987556223771621"><ele>323.0</ele><time>2026-04-30T14:30:44Z</time></trkpt><trkpt lat="45.81455645468602" lon="8.987389172931497"><ele>320.0</ele><time>2026-04-30T14:30:45Z</time></trkpt><trkpt lat="45.81459882664143" lon="8.987226817954133"><ele>317.0</ele><time>2026-04-30T14:30:46Z</time></trkpt><trkpt lat="45.81465552975052" lon="8.987060017678498"><ele>314.0</ele><time>2026-04-30T14:30:47Z</time></trkpt><trkpt lat="45.814712743217335" lon="8.986902690944214"><ele>314.0</ele><time>2026-04-30T14:30:48Z</time></trkpt><trkpt lat="45.81476417417498" lon="8.986744158650103"><ele>314.0</ele><time>2026-04-30T14:30:49Z</time></trkpt><trkpt lat="45.81479662348936" lon="8.986581451887304"><ele>314.0</ele><time>2026-04-30T14:30:50Z</time></trkpt><trkpt lat="45.814799079840896" lon="8.98641580984845"><ele>314.0</ele><time>2026-04-30T14:30:51Z</time></trkpt><trkpt lat="45.8147681497099" lon="8.986257087637865"><ele>312.59999999999997</ele><time>2026-04-30T14:30:52Z</time></trkpt><trkpt lat="45.81472602670203" lon="8.98610723224977"><ele>311.2</ele><time>2026-04-30T14:30:53Z</time></trkpt><trkpt lat="45.81468950833429" lon="8.985976282300316"><ele>309.79999999999995</ele><time>2026-04-30T14:30:54Z</time></trkpt><trkpt lat="45.81466780627741" lon="8.985858823565005"><ele>308.4</ele><time>2026-04-30T14:30:55Z</time></trkpt><trkpt lat="45.81467679006908" lon="8.985735606861338"><ele>307.0</ele><time>2026-04-30T14:30:56Z</time></trkpt><trkpt lat="45.814724662691326" lon="8.98562557457337"><ele>305.4</ele><time>2026-04-30T14:30:57Z</time></trkpt><trkpt lat="45.814807329535675" lon="8.985557276504835"><ele>303.79999999999995</ele><time>2026-04-30T14:30:58Z</time></trkpt><trkpt lat="45.81491574158281" lon="8.9855322278938"><ele>302.2</ele><time>2026-04-30T14:30:59Z</time></trkpt><trkpt lat="45.81503460012961" lon="8.985531180748804"><ele>300.59999999999997</ele><time>2026-04-30T14:31:00Z</time></trkpt><trkpt lat="45.815145403270286" lon="8.985518218461943"><ele>299.0</ele><time>2026-04-30T14:31:01Z</time></trkpt><trkpt lat="45.81525166248571" lon="8.985483841521846"><ele>298.0</ele><time>2026-04-30T14:31:02Z</time></trkpt><trkpt lat="45.81535388655115" lon="8.985431035440142"><ele>297.0</ele><time>2026-04-30T14:31:03Z</time></trkpt><trkpt lat="45.81545786206883" lon="8.985381796183372"><ele>296.0</ele><time>2026-04-30T14:31:04Z</time></trkpt><trkpt lat="45.815564878386404" lon="8.985341845852023"><ele>295.0</ele><time>2026-04-30T14:31:05Z</time></trkpt><trkpt lat="45.81567327321704" lon="8.985316564621698"><ele>294.0</ele><time>2026-04-30T14:31:06Z</time></trkpt><trkpt lat="45.81578284194804" lon="8.985313528385676"><ele>294.0</ele><time>2026-04-30T14:31:07Z</time></trkpt><trkpt lat="45.815909219804205" lon="8.985324467158948"><ele>294.0</ele><time>2026-04-30T14:31:08Z</time></trkpt><trkpt lat="45.81604125031309" lon="8.985324142067263"><ele>294.0</ele><time>2026-04-30T14:31:09Z</time></trkpt><trkpt lat="45.81616391648433" lon="8.985317133962193"><ele>294.0</ele><time>2026-04-30T14:31:10Z</time></trkpt><trkpt lat="45.81626881287885" lon="8.985300129954627"><ele>292.25</ele><time>2026-04-30T14:31:11Z</time></trkpt><trkpt lat="45.81636767095597" lon="8.985239846255954"><ele>290.5</ele><time>2026-04-30T14:31:12Z</time></trkpt><trkpt lat="45.81644575468885" lon="8.985131403398364"><ele>288.75</ele><time>2026-04-30T14:31:13Z</time></trkpt><trkpt lat="45.81651443177669" lon="8.984989550720872"><ele>287.0</ele><time>2026-04-30T14:31:14Z</time></trkpt><trkpt lat="45.81658386306855" lon="8.984836270838924"><ele>285.5</ele><time>2026-04-30T14:31:15Z</time></trkpt><trkpt lat="45.816652511754924" lon="8.984694717454957"><ele>284.0</ele><time>2026-04-30T14:31:16Z</time></trkpt><trkpt lat="45.81672684478286" lon="8.984558195065993"><ele>282.5</ele><time>2026-04-30T14:31:17Z</time></trkpt><trkpt lat="45.8168009737779" lon="8.984436790664148"><ele>281.0</ele><time>2026-04-30T14:31:18Z</time></trkpt><trkpt lat="45.81686657530389" lon="8.98432387485863"><ele>280.6666666666667</ele><time>2026-04-30T14:31:19Z</time></trkpt><trkpt lat="45.81692589328882" lon="8.984216283494481"><ele>280.33333333333337</ele><time>2026-04-30T14:31:20Z</time></trkpt><trkpt lat="45.816980350196175" lon="8.984117285860004"><ele>280.0</ele><time>2026-04-30T14:31:21Z</time></trkpt><trkpt lat="45.81703285814269" lon="8.984026995442289"><ele>279.6666666666667</ele><time>2026-04-30T14:31:22Z</time></trkpt><trkpt lat="45.817081697205424" lon="8.983943218921135"><ele>279.3333333333333</ele><time>2026-04-30T14:31:23Z</time></trkpt><trkpt lat="45.81713077429757" lon="8.983864942544265"><ele>279.0</ele><time>2026-04-30T14:31:24Z</time></trkpt><trkpt lat="45.81720121683682" lon="8.983769604498853"><ele>279.0</ele><time>2026-04-30T14:31:26Z</time></trkpt><trkpt lat="45.817290665358826" lon="8.983696386856131"><ele>279.0</ele><time>2026-04-30T14:31:28Z</time></trkpt><trkpt lat="45.81736868001626" lon="8.983606253978383"><ele>279.0</ele><time>2026-04-30T14:31:30Z</time></trkpt><trkpt lat="45.81733366189923" lon="8.983513129619913"><ele>279.0</ele><time>2026-04-30T14:31:31Z</time></trkpt><trkpt lat="45.817237572100034" lon="8.983380222630744"><ele>279.0</ele><time>2026-04-30T14:31:33Z</time></trkpt><trkpt lat="45.81720812593028" lon="8.983240624192742"><ele>279.6666666666667</ele><time>2026-04-30T14:31:34Z</time></trkpt><trkpt lat="45.81717631924048" lon="8.98305398044298"><ele>280.33333333333337</ele><time>2026-04-30T14:31:35Z</time></trkpt><trkpt lat="45.8171344037725" lon="8.982834256354467"><ele>281.0</ele><time>2026-04-30T14:31:36Z</time></trkpt><trkpt lat="45.817072444189314" lon="8.982587243910274"><ele>281.0</ele><time>2026-04-30T14:31:37Z</time></trkpt><trkpt lat="45.81701662206112" lon="8.982375614483686"><ele>281.0</ele><time>2026-04-30T14:31:38Z</time></trkpt><trkpt lat="45.816963637039876" lon="8.982188851757401"><ele>281.0</ele><time>2026-04-30T14:31:39Z</time></trkpt><trkpt lat="45.816886839876155" lon="8.982012630206036"><ele>281.0</ele><time>2026-04-30T14:31:39.999Z</time></trkpt><trkpt lat="45.81677387519216" lon="8.981821790343544"><ele>282.33333333333337</ele><time>2026-04-30T14:31:40.999Z</time></trkpt><trkpt lat="45.81665010906505" lon="8.981615403976935"><ele>283.6666666666667</ele><time>2026-04-30T14:31:41.999Z</time></trkpt><trkpt lat="45.81653682219799" lon="8.981393324191469"><ele>285.0</ele><time>2026-04-30T14:31:42.999Z</time></trkpt><trkpt lat="45.816442684945685" lon="8.981191305186739"><ele>285.0</ele><time>2026-04-30T14:31:43.999Z</time></trkpt><trkpt lat="45.81635511079319" lon="8.981017529890858"><ele>285.0</ele><time>2026-04-30T14:31:44.999Z</time></trkpt><trkpt lat="45.8162629860229" lon="8.98086874656965"><ele>285.0</ele><time>2026-04-30T14:31:45.999Z</time></trkpt><trkpt lat="45.8161483569815" lon="8.98072952069699"><ele>285.0</ele><time>2026-04-30T14:31:46.999Z</time></trkpt><trkpt lat="45.816018625032775" lon="8.980604313119715"><ele>285.5</ele><time>2026-04-30T14:31:47.999Z</time></trkpt><trkpt lat="45.81589968830376" lon="8.980489414605326"><ele>286.0</ele><time>2026-04-30T14:31:48.999Z</time></trkpt><trkpt lat="45.81579503859789" lon="8.980387252209557"><ele>286.5</ele><time>2026-04-30T14:31:49.999Z</time></trkpt><trkpt lat="45.815696920373696" lon="8.980307177734447"><ele>287.0</ele><time>2026-04-30T14:31:50.999Z</time></trkpt><trkpt lat="45.81559126614974" lon="8.980257569769313"><ele>287.0</ele><time>2026-04-30T14:31:51.999Z</time></trkpt><trkpt lat="45.815470904094376" lon="8.98023255831753"><ele>287.0</ele><time>2026-04-30T14:31:52.999Z</time></trkpt><trkpt lat="45.81533185897276" lon="8.980239650192303"><ele>287.0</ele><time>2026-04-30T14:31:53.999Z</time></trkpt><trkpt lat="45.81518591903862" lon="8.980254748617806"><ele>287.0</ele><time>2026-04-30T14:31:54.999Z</time></trkpt><trkpt lat="45.81501196107614" lon="8.980287767502201"><ele>287.0</ele><time>2026-04-30T14:31:55.999Z</time></trkpt><trkpt lat="45.814810263515355" lon="8.980325927150401"><ele>287.0</ele><time>2026-04-30T14:31:56.999Z</time></trkpt><trkpt lat="45.8146383834217" lon="8.980354312088258"><ele>287.0</ele><time>2026-04-30T14:31:57.999Z</time></trkpt><trkpt lat="45.81449954347635" lon="8.98037775975731"><ele>287.0</ele><time>2026-04-30T14:31:58.999Z</time></trkpt><trkpt lat="45.814403046531645" lon="8.980363663513062"><ele>287.0</ele><time>2026-04-30T14:31:59.999Z</time></trkpt><trkpt lat="45.81429509443991" lon="8.980305192756909"><ele>287.0</ele><time>2026-04-30T14:32:01.999Z</time></trkpt><trkpt lat="45.81423898234988" lon="8.980189202513957"><ele>287.0</ele><time>2026-04-30T14:32:02.999Z</time></trkpt><trkpt lat="45.8141982093802" lon="8.980027274906321"><ele>287.0</ele><time>2026-04-30T14:32:03.999Z</time></trkpt><trkpt lat="45.81412440323605" lon="8.979864825844503"><ele>290.0</ele><time>2026-04-30T14:32:04.999Z</time></trkpt><trkpt lat="45.814031937372086" lon="8.979773769785783"><ele>293.0</ele><time>2026-04-30T14:32:05.999Z</time></trkpt><trkpt lat="45.81391355288718" lon="8.979695914255824"><ele>296.0</ele><time>2026-04-30T14:32:06.999Z</time></trkpt><trkpt lat="45.81372379823991" lon="8.97962455442199"><ele>299.0</ele><time>2026-04-30T14:32:07.999Z</time></trkpt><trkpt lat="45.81353091842813" lon="8.979493484668334"><ele>301.6666666666667</ele><time>2026-04-30T14:32:08.999Z</time></trkpt><trkpt lat="45.813340733487216" lon="8.97941121342501"><ele>304.3333333333333</ele><time>2026-04-30T14:32:09.999Z</time></trkpt><trkpt lat="45.81317280019064" lon="8.979334087781796"><ele>307.0</ele><time>2026-04-30T14:32:10.999Z</time></trkpt><trkpt lat="45.81298171883719" lon="8.9792660109592"><ele>307.0</ele><time>2026-04-30T14:32:11.999Z</time></trkpt><trkpt lat="45.81278434817531" lon="8.979205039329148"><ele>307.0</ele><time>2026-04-30T14:32:12.999Z</time></trkpt><trkpt lat="45.812581847810144" lon="8.979158705075077"><ele>307.0</ele><time>2026-04-30T14:32:13.999Z</time></trkpt><trkpt lat="45.81235357258978" lon="8.979140442729916"><ele>304.66666666666663</ele><time>2026-04-30T14:32:14.999Z</time></trkpt><trkpt lat="45.812132510018735" lon="8.979130870238912"><ele>302.3333333333333</ele><time>2026-04-30T14:32:15.999Z</time></trkpt><trkpt lat="45.81195963988264" lon="8.979129429999526"><ele>300.0</ele><time>2026-04-30T14:32:16.999Z</time></trkpt><trkpt lat="45.81185645555186" lon="8.979087757937549"><ele>303.25</ele><time>2026-04-30T14:32:17.999Z</time></trkpt><trkpt lat="45.81177426509242" lon="8.979040180419755"><ele>306.5</ele><time>2026-04-30T14:32:18.999Z</time></trkpt><trkpt lat="45.81170869230125" lon="8.978951480463477"><ele>309.75</ele><time>2026-04-30T14:32:19.999Z</time></trkpt><trkpt lat="45.81162652117563" lon="8.978806411864623"><ele>313.0</ele><time>2026-04-30T14:32:20.999Z</time></trkpt><trkpt lat="45.81152151039853" lon="8.978630252024201"><ele>313.0</ele><time>2026-04-30T14:32:21.999Z</time></trkpt><trkpt lat="45.81140873570519" lon="8.97845344436491"><ele>313.0</ele><time>2026-04-30T14:32:22.999Z</time></trkpt><trkpt lat="45.81129948583079" lon="8.97834170434785"><ele>313.0</ele><time>2026-04-30T14:32:23.999Z</time></trkpt><trkpt lat="45.81120637427106" lon="8.978250212742633"><ele>313.0</ele><time>2026-04-30T14:32:24.999Z</time></trkpt><trkpt lat="45.811093571918825" lon="8.978188648206556"><ele>316.3333333333333</ele><time>2026-04-30T14:32:25.999Z</time></trkpt><trkpt lat="45.81095997502128" lon="8.978170640415195"><ele>319.6666666666667</ele><time>2026-04-30T14:32:26.999Z</time></trkpt><trkpt lat="45.81079672015952" lon="8.978197456737059"><ele>323.0</ele><time>2026-04-30T14:32:27.999Z</time></trkpt><trkpt lat="45.81061085453202" lon="8.978242609179397"><ele>323.0</ele><time>2026-04-30T14:32:28.999Z</time></trkpt><trkpt lat="45.810400228431945" lon="8.978275467576099"><ele>323.0</ele><time>2026-04-30T14:32:29.999Z</time></trkpt><trkpt lat="45.810177080456036" lon="8.978298238904541"><ele>323.0</ele><time>2026-04-30T14:32:30.999Z</time></trkpt><trkpt lat="45.80999755003888" lon="8.978324180815614"><ele>324.0</ele><time>2026-04-30T14:32:31.999Z</time></trkpt><trkpt lat="45.80985262878475" lon="8.97834707810568"><ele>325.0</ele><time>2026-04-30T14:32:32.999Z</time></trkpt><trkpt lat="45.80974267911753" lon="8.978359677212662"><ele>326.0</ele><time>2026-04-30T14:32:33.999Z</time></trkpt><trkpt lat="45.80965531557966" lon="8.978326634547454"><ele>327.0</ele><time>2026-04-30T14:32:34.999Z</time></trkpt><trkpt lat="45.809579296973205" lon="8.978183289366802"><ele>328.0</ele><time>2026-04-30T14:32:35.999Z</time></trkpt><trkpt lat="45.80947241721848" lon="8.97804900961501"><ele>329.0</ele><time>2026-04-30T14:32:36.999Z</time></trkpt><trkpt lat="45.809356887324576" lon="8.977938922911646"><ele>330.0</ele><time>2026-04-30T14:32:37.999Z</time></trkpt><trkpt lat="45.809229693777" lon="8.977853795616696"><ele>331.0</ele><time>2026-04-30T14:32:38.999Z</time></trkpt><trkpt lat="45.809087468421524" lon="8.97780746996434"><ele>333.4</ele><time>2026-04-30T14:32:39.999Z</time></trkpt><trkpt lat="45.80897900811826" lon="8.977800696940726"><ele>335.8</ele><time>2026-04-30T14:32:40.999Z</time></trkpt><trkpt lat="45.80888455677654" lon="8.977823766385416"><ele>338.2</ele><time>2026-04-30T14:32:41.999Z</time></trkpt><trkpt lat="45.80878588880062" lon="8.977859758814773"><ele>340.59999999999997</ele><time>2026-04-30T14:32:42.999Z</time></trkpt><trkpt lat="45.808691296156226" lon="8.977909227326782"><ele>343.0</ele><time>2026-04-30T14:32:43.999Z</time></trkpt><trkpt lat="45.808592940000004" lon="8.977970615965887"><ele>345.75</ele><time>2026-04-30T14:32:44.999Z</time></trkpt><trkpt lat="45.80849183559656" lon="8.978029119050053"><ele>348.5</ele><time>2026-04-30T14:32:45.999Z</time></trkpt><trkpt lat="45.80837985736363" lon="8.978099682200071"><ele>351.25</ele><time>2026-04-30T14:32:46.999Z</time></trkpt><trkpt lat="45.80827006803508" lon="8.978176498064197"><ele>354.0</ele><time>2026-04-30T14:32:48Z</time></trkpt><trkpt lat="45.80817616580259" lon="8.978282254839439"><ele>352.1666666666667</ele><time>2026-04-30T14:32:49Z</time></trkpt><trkpt lat="45.80810663315738" lon="8.978410269846828"><ele>350.3333333333333</ele><time>2026-04-30T14:32:50Z</time></trkpt><trkpt lat="45.8080551312602" lon="8.978537417649218"><ele>348.5</ele><time>2026-04-30T14:32:51Z</time></trkpt><trkpt lat="45.807985592199415" lon="8.978595077757628"><ele>346.66666666666663</ele><time>2026-04-30T14:32:52Z</time></trkpt><trkpt lat="45.80793928439002" lon="8.978657355488703"><ele>344.8333333333333</ele><time>2026-04-30T14:32:53Z</time></trkpt><trkpt lat="45.80786759250847" lon="8.978652527530894"><ele>343.0</ele><time>2026-04-30T14:32:54Z</time></trkpt><trkpt lat="45.807812551318264" lon="8.978558324147535"><ele>343.0</ele><time>2026-04-30T14:32:55Z</time></trkpt><trkpt lat="45.807766028076664" lon="8.97842951523923"><ele>343.0</ele><time>2026-04-30T14:32:56Z</time></trkpt><trkpt lat="45.80769274837737" lon="8.978303414336903"><ele>343.0</ele><time>2026-04-30T14:32:57Z</time></trkpt><trkpt lat="45.80760758363434" lon="8.978153970107773"><ele>343.0</ele><time>2026-04-30T14:32:58Z</time></trkpt><trkpt lat="45.80751302551925" lon="8.977986044894617"><ele>347.0</ele><time>2026-04-30T14:32:59Z</time></trkpt><trkpt lat="45.80743301092049" lon="8.977840962849907"><ele>351.0</ele><time>2026-04-30T14:33:00Z</time></trkpt><trkpt lat="45.807364101734244" lon="8.977713597740069"><ele>355.0</ele><time>2026-04-30T14:33:01Z</time></trkpt><trkpt lat="45.80728748179637" lon="8.977600026934066"><ele>359.0</ele><time>2026-04-30T14:33:02Z</time></trkpt><trkpt lat="45.80722283982013" lon="8.97747717826992"><ele>359.2</ele><time>2026-04-30T14:33:03Z</time></trkpt><trkpt lat="45.807160133059746" lon="8.977365298154076"><ele>359.4</ele><time>2026-04-30T14:33:04Z</time></trkpt><trkpt lat="45.80710228525914" lon="8.977255003678062"><ele>359.6</ele><time>2026-04-30T14:33:05Z</time></trkpt><trkpt lat="45.8070639909674" lon="8.977133247872407"><ele>359.8</ele><time>2026-04-30T14:33:06Z</time></trkpt><trkpt lat="45.80699615515159" lon="8.977046692233642"><ele>360.0</ele><time>2026-04-30T14:33:07Z</time></trkpt><trkpt lat="45.80692628806699" lon="8.97696044459813"><ele>360.0</ele><time>2026-04-30T14:33:08Z</time></trkpt><trkpt lat="45.806829608978255" lon="8.976905193349538"><ele>360.0</ele><time>2026-04-30T14:33:09Z</time></trkpt><trkpt lat="45.80671146583195" lon="8.976867938016454"><ele>360.0</ele><time>2026-04-30T14:33:10Z</time></trkpt><trkpt lat="45.80658564635618" lon="8.976817300075107"><ele>360.0</ele><time>2026-04-30T14:33:11Z</time></trkpt><trkpt lat="45.806476093731526" lon="8.97676264023176"><ele>360.0</ele><time>2026-04-30T14:33:12Z</time></trkpt><trkpt lat="45.80637268852785" lon="8.976719906012342"><ele>360.0</ele><time>2026-04-30T14:33:13Z</time></trkpt><trkpt lat="45.806279960549574" lon="8.976688717089827"><ele>360.0</ele><time>2026-04-30T14:33:14Z</time></trkpt><trkpt lat="45.80618124303785" lon="8.9766814566517"><ele>360.0</ele><time>2026-04-30T14:33:15Z</time></trkpt><trkpt lat="45.8060729608013" lon="8.976706123981105"><ele>360.0</ele><time>2026-04-30T14:33:16Z</time></trkpt><trkpt lat="45.80595466163622" lon="8.976759135582501"><ele>360.0</ele><time>2026-04-30T14:33:17Z</time></trkpt><trkpt lat="45.80583545788693" lon="8.976843174346971"><ele>360.0</ele><time>2026-04-30T14:33:18Z</time></trkpt><trkpt lat="45.80572515582965" lon="8.976954854601653"><ele>360.0</ele><time>2026-04-30T14:33:19Z</time></trkpt><trkpt lat="45.805632524784954" lon="8.977065198414381"><ele>360.0</ele><time>2026-04-30T14:33:20Z</time></trkpt><trkpt lat="45.80554186289275" lon="8.97713474505706"><ele>360.0</ele><time>2026-04-30T14:33:21Z</time></trkpt><trkpt lat="45.80544941077365" lon="8.97716263146746"><ele>360.0</ele><time>2026-04-30T14:33:22Z</time></trkpt><trkpt lat="45.80535777056602" lon="8.977126362336909"><ele>360.0</ele><time>2026-04-30T14:33:23Z</time></trkpt><trkpt lat="45.80524998902053" lon="8.977100017436008"><ele>360.0</ele><time>2026-04-30T14:33:24Z</time></trkpt><trkpt lat="45.805130231479666" lon="8.977088767343965"><ele>360.0</ele><time>2026-04-30T14:33:25Z</time></trkpt><trkpt lat="45.80500715095651" lon="8.97705846835927"><ele>359.8</ele><time>2026-04-30T14:33:26Z</time></trkpt><trkpt lat="45.8048863874373" lon="8.977028532008898"><ele>359.6</ele><time>2026-04-30T14:33:27Z</time></trkpt><trkpt lat="45.80477897900962" lon="8.977002132598441"><ele>359.4</ele><time>2026-04-30T14:33:28Z</time></trkpt><trkpt lat="45.804685467935904" lon="8.976980399187552"><ele>359.2</ele><time>2026-04-30T14:33:29Z</time></trkpt><trkpt lat="45.804594357842966" lon="8.976963270852716"><ele>359.0</ele><time>2026-04-30T14:33:30Z</time></trkpt><trkpt lat="45.80450312568916" lon="8.976953129660505"><ele>359.0</ele><time>2026-04-30T14:33:31Z</time></trkpt><trkpt lat="45.80440039598683" lon="8.976960844168872"><ele>359.0</ele><time>2026-04-30T14:33:32Z</time></trkpt><trkpt lat="45.804267625302096" lon="8.977003319098253"><ele>359.0</ele><time>2026-04-30T14:33:33Z</time></trkpt><trkpt lat="45.80412197371511" lon="8.977105107029956"><ele>359.0</ele><time>2026-04-30T14:33:34Z</time></trkpt><trkpt lat="45.803963298910425" lon="8.977252742958566"><ele>360.33333333333337</ele><time>2026-04-30T14:33:35Z</time></trkpt><trkpt lat="45.80371275183587" lon="8.97746907075527"><ele>361.6666666666667</ele><time>2026-04-30T14:33:37Z</time></trkpt><trkpt lat="45.80361137126588" lon="8.977558734027543"><ele>363.0</ele><time>2026-04-30T14:33:38Z</time></trkpt><trkpt lat="45.80350331013202" lon="8.977654305611292"><ele>364.59999999999997</ele><time>2026-04-30T14:33:39Z</time></trkpt><trkpt lat="45.803397121962306" lon="8.977744162128067"><ele>366.2</ele><time>2026-04-30T14:33:40Z</time></trkpt><trkpt lat="45.80332481199935" lon="8.977814316868415"><ele>367.8</ele><time>2026-04-30T14:33:41Z</time></trkpt><trkpt lat="45.803234602528185" lon="8.977886839686557"><ele>369.4</ele><time>2026-04-30T14:33:42Z</time></trkpt><trkpt lat="45.803144581347674" lon="8.977934370381476"><ele>371.0</ele><time>2026-04-30T14:33:43Z</time></trkpt><trkpt lat="45.803048743509024" lon="8.97796156201713"><ele>371.0</ele><time>2026-04-30T14:33:44Z</time></trkpt><trkpt lat="45.80297647907069" lon="8.977954856623208"><ele>371.0</ele><time>2026-04-30T14:33:45Z</time></trkpt><trkpt lat="45.802912220389054" lon="8.977954177144081"><ele>371.0</ele><time>2026-04-30T14:33:46Z</time></trkpt><trkpt lat="45.802803489777816" lon="8.97793343346437"><ele>371.0</ele><time>2026-04-30T14:33:47Z</time></trkpt><trkpt lat="45.80273526616318" lon="8.977910516559056"><ele>371.0</ele><time>2026-04-30T14:33:58.999Z</time></trkpt><trkpt lat="45.80262865905149" lon="8.977878088152844"><ele>371.0</ele><time>2026-04-30T14:34:00.999Z</time></trkpt><trkpt lat="45.80257313375126" lon="8.977817095839141"><ele>370.0</ele><time>2026-04-30T14:34:01.999Z</time></trkpt><trkpt lat="45.80250406399304" lon="8.977770247465546"><ele>369.0</ele><time>2026-04-30T14:34:02.999Z</time></trkpt><trkpt lat="45.802382247339395" lon="8.977683820813155"><ele>368.0</ele><time>2026-04-30T14:34:04.999Z</time></trkpt><trkpt lat="45.80226867751829" lon="8.977604085808013"><ele>367.0</ele><time>2026-04-30T14:34:06.999Z</time></trkpt><trkpt lat="45.80215901079341" lon="8.977527410888468"><ele>366.8333333333333</ele><time>2026-04-30T14:34:08.999Z</time></trkpt><trkpt lat="45.80203990951697" lon="8.977444139752574"><ele>366.66666666666663</ele><time>2026-04-30T14:34:10.999Z</time></trkpt><trkpt lat="45.80197592530796" lon="8.977399404183341"><ele>366.5</ele><time>2026-04-30T14:34:11.999Z</time></trkpt><trkpt lat="45.801915734811445" lon="8.977356447724882"><ele>366.3333333333333</ele><time>2026-04-30T14:34:13.999Z</time></trkpt><trkpt lat="45.801849806687635" lon="8.97731033439037"><ele>366.1666666666667</ele><time>2026-04-30T14:34:16.999Z</time></trkpt><trkpt lat="45.80177311025407" lon="8.97725706990606"><ele>366.0</ele><time>2026-04-30T14:34:19.999Z</time></trkpt><trkpt lat="45.80165250092243" lon="8.977173308608231"><ele>366.4</ele><time>2026-04-30T14:34:21.999Z</time></trkpt><trkpt lat="45.80156329429726" lon="8.977110538281632"><ele>366.8</ele><time>2026-04-30T14:34:22.999Z</time></trkpt><trkpt lat="45.80145594658212" lon="8.977034949573785"><ele>367.2</ele><time>2026-04-30T14:34:23.999Z</time></trkpt><trkpt lat="45.80135940691247" lon="8.976966059471923"><ele>367.59999999999997</ele><time>2026-04-30T14:34:24.999Z</time></trkpt><trkpt lat="45.80127577103412" lon="8.97690630737077"><ele>368.0</ele><time>2026-04-30T14:34:25.999Z</time></trkpt><trkpt lat="45.801214939218376" lon="8.976862845772793"><ele>368.0</ele><time>2026-04-30T14:34:26.999Z</time></trkpt><trkpt lat="45.80109545822812" lon="8.976778562789542"><ele>368.0</ele><time>2026-04-30T14:34:28.999Z</time></trkpt><trkpt lat="45.80101347280939" lon="8.976720805978095"><ele>368.0</ele><time>2026-04-30T14:34:29.999Z</time></trkpt><trkpt lat="45.800939667327526" lon="8.976670078191066"><ele>368.0</ele><time>2026-04-30T14:34:30.999Z</time></trkpt><trkpt lat="45.80085046903151" lon="8.97662863591303"><ele>368.0</ele><time>2026-04-30T14:34:32.999Z</time></trkpt><trkpt lat="45.80077834150168" lon="8.976581264133845"><ele>368.33333333333337</ele><time>2026-04-30T14:34:34.999Z</time></trkpt><trkpt lat="45.80070517978713" lon="8.976528405291315"><ele>368.6666666666667</ele><time>2026-04-30T14:34:36.999Z</time></trkpt><trkpt lat="45.80062796195918" lon="8.97646820116253"><ele>369.0</ele><time>2026-04-30T14:34:39.999Z</time></trkpt><trkpt lat="45.8005798131298" lon="8.976404685808042"><ele>369.3333333333333</ele><time>2026-04-30T14:34:40.999Z</time></trkpt><trkpt lat="45.80053298485222" lon="8.976315345796367"><ele>369.66666666666663</ele><time>2026-04-30T14:34:41.999Z</time></trkpt><trkpt lat="45.8004825312461" lon="8.976202203461863"><ele>370.0</ele><time>2026-04-30T14:34:42.999Z</time></trkpt><trkpt lat="45.80040558733341" lon="8.976091726695088"><ele>370.0</ele><time>2026-04-30T14:34:43.999Z</time></trkpt><trkpt lat="45.80030381325463" lon="8.976001584625468"><ele>370.0</ele><time>2026-04-30T14:34:44.999Z</time></trkpt><trkpt lat="45.80018622863192" lon="8.975936239760792"><ele>370.0</ele><time>2026-04-30T14:34:45.999Z</time></trkpt><trkpt lat="45.800081365780976" lon="8.975855889473758"><ele>370.0</ele><time>2026-04-30T14:34:46.999Z</time></trkpt><trkpt lat="45.79998213034893" lon="8.975752336229798"><ele>372.0</ele><time>2026-04-30T14:34:47.999Z</time></trkpt><trkpt lat="45.799878823851635" lon="8.975631746613082"><ele>374.0</ele><time>2026-04-30T14:34:48.999Z</time></trkpt><trkpt lat="45.79977795900324" lon="8.975499585254719"><ele>376.0</ele><time>2026-04-30T14:34:49.999Z</time></trkpt><trkpt lat="45.79969249847939" lon="8.975355508282492"><ele>378.0</ele><time>2026-04-30T14:34:50.999Z</time></trkpt><trkpt lat="45.79964160320289" lon="8.97518587216053"><ele>378.0</ele><time>2026-04-30T14:34:51.999Z</time></trkpt><trkpt lat="45.799570250502626" lon="8.975035148417088"><ele>378.0</ele><time>2026-04-30T14:34:52.999Z</time></trkpt><trkpt lat="45.79951665072472" lon="8.97487574194983"><ele>378.0</ele><time>2026-04-30T14:34:54Z</time></trkpt><trkpt lat="45.79945784764629" lon="8.97470786748251"><ele>378.0</ele><time>2026-04-30T14:34:55Z</time></trkpt><trkpt lat="45.79939301223881" lon="8.974525593413839"><ele>378.0</ele><time>2026-04-30T14:34:56Z</time></trkpt><trkpt lat="45.799316588754934" lon="8.974303066397509"><ele>378.0</ele><time>2026-04-30T14:34:57Z</time></trkpt><trkpt lat="45.79923861730651" lon="8.974102520084895"><ele>378.0</ele><time>2026-04-30T14:34:58Z</time></trkpt><trkpt lat="45.79916179276563" lon="8.973895533112662"><ele>378.0</ele><time>2026-04-30T14:34:59Z</time></trkpt><trkpt lat="45.799090863627384" lon="8.973682976591446"><ele>378.0</ele><time>2026-04-30T14:35:00Z</time></trkpt><trkpt lat="45.799028812717815" lon="8.973501483566453"><ele>378.0</ele><time>2026-04-30T14:35:01Z</time></trkpt><trkpt lat="45.79897814394403" lon="8.97333808307933"><ele>378.0</ele><time>2026-04-30T14:35:02Z</time></trkpt><trkpt lat="45.79893893254963" lon="8.973185679615549"><ele>378.0</ele><time>2026-04-30T14:35:03Z</time></trkpt><trkpt lat="45.7988981099493" lon="8.973022305412227"><ele>378.0</ele><time>2026-04-30T14:35:04Z</time></trkpt><trkpt lat="45.79885514298073" lon="8.972836337914238"><ele>378.0</ele><time>2026-04-30T14:35:05Z</time></trkpt><trkpt lat="45.79880800732691" lon="8.972637949195242"><ele>378.0</ele><time>2026-04-30T14:35:06Z</time></trkpt><trkpt lat="45.79875850894163" lon="8.97245019050141"><ele>378.0</ele><time>2026-04-30T14:35:07Z</time></trkpt><trkpt lat="45.79870293393018" lon="8.972283561265037"><ele>378.0</ele><time>2026-04-30T14:35:08Z</time></trkpt><trkpt lat="45.798631166222826" lon="8.972139285112345"><ele>378.0</ele><time>2026-04-30T14:35:09Z</time></trkpt><trkpt lat="45.798544082715146" lon="8.972006082859266"><ele>378.0</ele><time>2026-04-30T14:35:10Z</time></trkpt><trkpt lat="45.798454142793" lon="8.971887064613712"><ele>379.0</ele><time>2026-04-30T14:35:11Z</time></trkpt><trkpt lat="45.79834795844869" lon="8.971780172510691"><ele>380.0</ele><time>2026-04-30T14:35:12Z</time></trkpt><trkpt lat="45.79823668138256" lon="8.971658022916932"><ele>381.0</ele><time>2026-04-30T14:35:13Z</time></trkpt><trkpt lat="45.798133212425455" lon="8.971517614985668"><ele>382.0</ele><time>2026-04-30T14:35:14Z</time></trkpt><trkpt lat="45.79803369952797" lon="8.971407944037436"><ele>382.0</ele><time>2026-04-30T14:35:15Z</time></trkpt><trkpt lat="45.79795360545395" lon="8.971288564522087"><ele>382.0</ele><time>2026-04-30T14:35:16Z</time></trkpt><trkpt lat="45.79787686772711" lon="8.971175435533448"><ele>382.0</ele><time>2026-04-30T14:35:17Z</time></trkpt><trkpt lat="45.79780501694396" lon="8.971063764675574"><ele>382.0</ele><time>2026-04-30T14:35:18Z</time></trkpt><trkpt lat="45.79773667716279" lon="8.970962415071401"><ele>382.0</ele><time>2026-04-30T14:35:19Z</time></trkpt><trkpt lat="45.7976782276395" lon="8.97088373851068"><ele>381.6</ele><time>2026-04-30T14:35:20Z</time></trkpt><trkpt lat="45.797615902960814" lon="8.97075808674705"><ele>381.20000000000005</ele><time>2026-04-30T14:35:22Z</time></trkpt><trkpt lat="45.7975691458932" lon="8.970689354613427"><ele>380.8</ele><time>2026-04-30T14:35:24Z</time></trkpt><trkpt lat="45.7974641546252" lon="8.970535663940309"><ele>380.4</ele><time>2026-04-30T14:35:26Z</time></trkpt><trkpt lat="45.79740850862332" lon="8.970454206960937"><ele>380.0</ele><time>2026-04-30T14:35:27Z</time></trkpt><trkpt lat="45.79735670883921" lon="8.970378379873367"><ele>380.0</ele><time>2026-04-30T14:35:29Z</time></trkpt><trkpt lat="45.797257173733776" lon="8.97024122359528"><ele>380.0</ele><time>2026-04-30T14:35:31Z</time></trkpt><trkpt lat="45.79720295857625" lon="8.970176593314545"><ele>380.0</ele><time>2026-04-30T14:35:32Z</time></trkpt><trkpt lat="45.79714407322891" lon="8.970116752295182"><ele>380.0</ele><time>2026-04-30T14:35:33Z</time></trkpt><trkpt lat="45.79707786449578" lon="8.97005704457354"><ele>380.0</ele><time>2026-04-30T14:35:34Z</time></trkpt><trkpt lat="45.79698440792328" lon="8.970000362991728"><ele>380.0</ele><time>2026-04-30T14:35:36Z</time></trkpt><trkpt lat="45.79691715384361" lon="8.969914992226183"><ele>380.0</ele><time>2026-04-30T14:35:42Z</time></trkpt><trkpt lat="45.796842487398614" lon="8.96975177468053"><ele>380.0</ele><time>2026-04-30T14:35:44Z</time></trkpt><trkpt lat="45.79679114984609" lon="8.96967559346372"><ele>380.0</ele><time>2026-04-30T14:35:45Z</time></trkpt><trkpt lat="45.79672696376918" lon="8.969586426030814"><ele>380.0</ele><time>2026-04-30T14:35:46Z</time></trkpt><trkpt lat="45.79665329008891" lon="8.96951367065801"><ele>379.33333333333337</ele><time>2026-04-30T14:35:47Z</time></trkpt><trkpt lat="45.79662765510429" lon="8.969324139939767"><ele>378.6666666666667</ele><time>2026-04-30T14:35:48Z</time></trkpt><trkpt lat="45.79657590634382" lon="8.969135166173078"><ele>378.0</ele><time>2026-04-30T14:35:49Z</time></trkpt><trkpt lat="45.79654825986358" lon="8.968885716205106"><ele>377.3333333333333</ele><time>2026-04-30T14:35:50Z</time></trkpt><trkpt lat="45.79653583801899" lon="8.968626363496567"><ele>376.66666666666663</ele><time>2026-04-30T14:35:51Z</time></trkpt><trkpt lat="45.79654005327566" lon="8.9683715659722"><ele>376.0</ele><time>2026-04-30T14:35:52Z</time></trkpt><trkpt lat="45.796575337417586" lon="8.968112170422309"><ele>378.0</ele><time>2026-04-30T14:35:53Z</time></trkpt><trkpt lat="45.7966353823591" lon="8.967865830968668"><ele>380.0</ele><time>2026-04-30T14:35:54Z</time></trkpt><trkpt lat="45.79671867383905" lon="8.9676405803404"><ele>382.0</ele><time>2026-04-30T14:35:55Z</time></trkpt><trkpt lat="45.796819805256305" lon="8.96743412332018"><ele>379.0</ele><time>2026-04-30T14:35:56Z</time></trkpt><trkpt lat="45.79693205095122" lon="8.967222945470594"><ele>376.0</ele><time>2026-04-30T14:35:56.999Z</time></trkpt><trkpt lat="45.79705037607414" lon="8.967009198412356"><ele>373.0</ele><time>2026-04-30T14:35:57.999Z</time></trkpt><trkpt lat="45.797176608327156" lon="8.966800180373486"><ele>375.3333333333333</ele><time>2026-04-30T14:35:58.999Z</time></trkpt><trkpt lat="45.797295958939465" lon="8.96659532061979"><ele>377.6666666666667</ele><time>2026-04-30T14:35:59.999Z</time></trkpt><trkpt lat="45.79740162450766" lon="8.966408613515483"><ele>380.0</ele><time>2026-04-30T14:36:00.999Z</time></trkpt><trkpt lat="45.7974976199203" lon="8.966235560281477"><ele>380.0</ele><time>2026-04-30T14:36:01.999Z</time></trkpt><trkpt lat="45.79759804024684" lon="8.966056181280079"><ele>380.0</ele><time>2026-04-30T14:36:02.999Z</time></trkpt><trkpt lat="45.7977052317885" lon="8.965856129389056"><ele>380.0</ele><time>2026-04-30T14:36:03.999Z</time></trkpt><trkpt lat="45.79780437810018" lon="8.965637785775836"><ele>379.6666666666667</ele><time>2026-04-30T14:36:04.999Z</time></trkpt><trkpt lat="45.79788796680875" lon="8.965404586788738"><ele>379.3333333333333</ele><time>2026-04-30T14:36:05.999Z</time></trkpt><trkpt lat="45.7979483960235" lon="8.96516104867028"><ele>379.0</ele><time>2026-04-30T14:36:06.999Z</time></trkpt><trkpt lat="45.797990607439324" lon="8.964905082390828"><ele>380.0</ele><time>2026-04-30T14:36:07.999Z</time></trkpt><trkpt lat="45.79803129916115" lon="8.964643073884615"><ele>381.0</ele><time>2026-04-30T14:36:08.999Z</time></trkpt><trkpt lat="45.798080329163234" lon="8.964355265525354"><ele>382.0</ele><time>2026-04-30T14:36:09.999Z</time></trkpt><trkpt lat="45.798148804004114" lon="8.964028907531818"><ele>382.0</ele><time>2026-04-30T14:36:10.999Z</time></trkpt><trkpt lat="45.798211485822684" lon="8.963673162812661"><ele>382.0</ele><time>2026-04-30T14:36:11.999Z</time></trkpt><trkpt lat="45.798271423468435" lon="8.96330761536149"><ele>383.5</ele><time>2026-04-30T14:36:12.999Z</time></trkpt><trkpt lat="45.798350851429745" lon="8.962912847274705"><ele>385.0</ele><time>2026-04-30T14:36:13.999Z</time></trkpt><trkpt lat="45.79842198276348" lon="8.962529676440115"><ele>385.5</ele><time>2026-04-30T14:36:14.999Z</time></trkpt><trkpt lat="45.79848243305993" lon="8.962181760004562"><ele>386.0</ele><time>2026-04-30T14:36:15.999Z</time></trkpt><trkpt lat="45.79855210600036" lon="8.961840157064547"><ele>381.5</ele><time>2026-04-30T14:36:16.999Z</time></trkpt><trkpt lat="45.798636494773056" lon="8.961500615623722"><ele>377.0</ele><time>2026-04-30T14:36:17.999Z</time></trkpt><trkpt lat="45.798744146935675" lon="8.961160147552661"><ele>376.5</ele><time>2026-04-30T14:36:18.999Z</time></trkpt><trkpt lat="45.79889213652316" lon="8.960837763268366"><ele>376.0</ele><time>2026-04-30T14:36:19.999Z</time></trkpt><trkpt lat="45.79905080216583" lon="8.960499788385764"><ele>376.0</ele><time>2026-04-30T14:36:20.999Z</time></trkpt><trkpt lat="45.79920346777106" lon="8.960149083807403"><ele>376.0</ele><time>2026-04-30T14:36:21.999Z</time></trkpt><trkpt lat="45.79936108103451" lon="8.959836902399084"><ele>377.5</ele><time>2026-04-30T14:36:22.999Z</time></trkpt><trkpt lat="45.799502984982475" lon="8.959546762341173"><ele>379.0</ele><time>2026-04-30T14:36:23.999Z</time></trkpt><trkpt lat="45.799631073162224" lon="8.959275446159362"><ele>380.0</ele><time>2026-04-30T14:36:24.999Z</time></trkpt><trkpt lat="45.79975590590504" lon="8.959005110547304"><ele>381.0</ele><time>2026-04-30T14:36:25.999Z</time></trkpt><trkpt lat="45.79986775362622" lon="8.958765258859872"><ele>382.0</ele><time>2026-04-30T14:36:26.999Z</time></trkpt><trkpt lat="45.79996844758344" lon="8.958534509907883"><ele>384.0</ele><time>2026-04-30T14:36:27.999Z</time></trkpt><trkpt lat="45.800051167850164" lon="8.958308369361971"><ele>386.0</ele><time>2026-04-30T14:36:28.999Z</time></trkpt><trkpt lat="45.800111235223575" lon="8.95808830218404"><ele>388.0</ele><time>2026-04-30T14:36:29.999Z</time></trkpt><trkpt lat="45.80016854534232" lon="8.957853442101017"><ele>388.0</ele><time>2026-04-30T14:36:30.999Z</time></trkpt><trkpt lat="45.8002110868592" lon="8.957601363070584"><ele>388.0</ele><time>2026-04-30T14:36:31.999Z</time></trkpt><trkpt lat="45.8002444070039" lon="8.957332162639029"><ele>388.0</ele><time>2026-04-30T14:36:32.999Z</time></trkpt><trkpt lat="45.80027048637628" lon="8.957018486913848"><ele>391.5</ele><time>2026-04-30T14:36:33.999Z</time></trkpt><trkpt lat="45.80029350652447" lon="8.956671955381744"><ele>395.0</ele><time>2026-04-30T14:36:34.999Z</time></trkpt><trkpt lat="45.80030000966689" lon="8.956325655794064"><ele>395.0</ele><time>2026-04-30T14:36:35.999Z</time></trkpt><trkpt lat="45.80029475246485" lon="8.95598333388584"><ele>395.0</ele><time>2026-04-30T14:36:36.999Z</time></trkpt><trkpt lat="45.80031561282799" lon="8.955657215431625"><ele>396.0</ele><time>2026-04-30T14:36:37.999Z</time></trkpt><trkpt lat="45.800322758695806" lon="8.95534354429124"><ele>397.0</ele><time>2026-04-30T14:36:38.999Z</time></trkpt><trkpt lat="45.80031752397095" lon="8.95505994834296"><ele>398.0</ele><time>2026-04-30T14:36:39.999Z</time></trkpt><trkpt lat="45.80032647155811" lon="8.954836512765324"><ele>398.25</ele><time>2026-04-30T14:36:40.999Z</time></trkpt><trkpt lat="45.80033215370931" lon="8.954636005095054"><ele>398.5</ele><time>2026-04-30T14:36:41.999Z</time></trkpt><trkpt lat="45.80033798585403" lon="8.954455674509115"><ele>398.75</ele><time>2026-04-30T14:36:42.999Z</time></trkpt><trkpt lat="45.8003417900436" lon="8.954303170699655"><ele>399.0</ele><time>2026-04-30T14:36:43.999Z</time></trkpt><trkpt lat="45.800346820572585" lon="8.954185743735017"><ele>399.0</ele><time>2026-04-30T14:36:44.999Z</time></trkpt><trkpt lat="45.800360357215" lon="8.954040976012825"><ele>399.0</ele><time>2026-04-30T14:36:46.999Z</time></trkpt><trkpt lat="45.80037884471639" lon="8.953950492689518"><ele>399.0</ele><time>2026-04-30T14:36:49.999Z</time></trkpt><trkpt lat="45.80042466194725" lon="8.953830339840163"><ele>399.0</ele><time>2026-04-30T14:36:58.999Z</time></trkpt><trkpt lat="45.80047915390021" lon="8.953720114412313"><ele>399.0</ele><time>2026-04-30T14:37:00Z</time></trkpt><trkpt lat="45.80052817939681" lon="8.953610352948454"><ele>399.0</ele><time>2026-04-30T14:37:01Z</time></trkpt><trkpt lat="45.8005309182211" lon="8.953501242887338"><ele>399.0</ele><time>2026-04-30T14:37:02Z</time></trkpt><trkpt lat="45.800483629256924" lon="8.953403665111049"><ele>399.0</ele><time>2026-04-30T14:37:03Z</time></trkpt><trkpt lat="45.8004071325336" lon="8.953340650304355"><ele>399.0</ele><time>2026-04-30T14:37:04Z</time></trkpt><trkpt lat="45.800321444756115" lon="8.953317080873559"><ele>399.0</ele><time>2026-04-30T14:37:05Z</time></trkpt><trkpt lat="45.80024190794241" lon="8.953349005465723"><ele>399.0</ele><time>2026-04-30T14:37:06Z</time></trkpt><trkpt lat="45.80016971546129" lon="8.953434183823052"><ele>399.0</ele><time>2026-04-30T14:37:07Z</time></trkpt><trkpt lat="45.80011266759856" lon="8.953561970987462"><ele>396.66666666666663</ele><time>2026-04-30T14:37:08Z</time></trkpt><trkpt lat="45.800035206972375" lon="8.953737250849047"><ele>394.3333333333333</ele><time>2026-04-30T14:37:09Z</time></trkpt><trkpt lat="45.79991549463457" lon="8.953923907094108"><ele>392.0</ele><time>2026-04-30T14:37:10Z</time></trkpt><trkpt lat="45.79974251046442" lon="8.954114472600937"><ele>392.5</ele><time>2026-04-30T14:37:11Z</time></trkpt><trkpt lat="45.799553114667326" lon="8.954303705647018"><ele>393.0</ele><time>2026-04-30T14:37:12Z</time></trkpt><trkpt lat="45.799345377562304" lon="8.954507492137822"><ele>391.5</ele><time>2026-04-30T14:37:13Z</time></trkpt><trkpt lat="45.7991243745099" lon="8.954718657633942"><ele>390.0</ele><time>2026-04-30T14:37:14Z</time></trkpt><trkpt lat="45.798913658997385" lon="8.954927525308735"><ele>388.0</ele><time>2026-04-30T14:37:15Z</time></trkpt><trkpt lat="45.798706955980805" lon="8.955133593447814"><ele>386.0</ele><time>2026-04-30T14:37:16Z</time></trkpt><trkpt lat="45.79851533512664" lon="8.95532558497935"><ele>388.0</ele><time>2026-04-30T14:37:17Z</time></trkpt><trkpt lat="45.79833617695411" lon="8.955504265682103"><ele>390.0</ele><time>2026-04-30T14:37:18Z</time></trkpt><trkpt lat="45.798166072093416" lon="8.955674062988649"><ele>392.0</ele><time>2026-04-30T14:37:19Z</time></trkpt><trkpt lat="45.797989208493775" lon="8.955851561934812"><ele>392.0</ele><time>2026-04-30T14:37:20Z</time></trkpt><trkpt lat="45.79779840019868" lon="8.956042169201694"><ele>392.0</ele><time>2026-04-30T14:37:21Z</time></trkpt><trkpt lat="45.79758826916221" lon="8.956250114721996"><ele>392.0</ele><time>2026-04-30T14:37:22Z</time></trkpt><trkpt lat="45.79738905107647" lon="8.956451228598786"><ele>392.0</ele><time>2026-04-30T14:37:23Z</time></trkpt><trkpt lat="45.797205292732926" lon="8.956638173644086"><ele>392.0</ele><time>2026-04-30T14:37:24Z</time></trkpt><trkpt lat="45.797031663427795" lon="8.956810331049866"><ele>392.0</ele><time>2026-04-30T14:37:25Z</time></trkpt><trkpt lat="45.79686776945096" lon="8.956972898264771"><ele>392.0</ele><time>2026-04-30T14:37:26Z</time></trkpt><trkpt lat="45.796709238246834" lon="8.957124788384995"><ele>392.0</ele><time>2026-04-30T14:37:27Z</time></trkpt><trkpt lat="45.79656216147866" lon="8.95727021452797"><ele>392.0</ele><time>2026-04-30T14:37:28Z</time></trkpt><trkpt lat="45.79642162271541" lon="8.957411242648964"><ele>392.0</ele><time>2026-04-30T14:37:29Z</time></trkpt><trkpt lat="45.796277247581536" lon="8.957549836770564"><ele>392.3333333333333</ele><time>2026-04-30T14:37:30Z</time></trkpt><trkpt lat="45.79612565183515" lon="8.957709650474962"><ele>392.66666666666663</ele><time>2026-04-30T14:37:31Z</time></trkpt><trkpt lat="45.795968592984615" lon="8.957865063093044"><ele>393.0</ele><time>2026-04-30T14:37:32Z</time></trkpt><trkpt lat="45.79580658031886" lon="8.958023419165249"><ele>392.33333333333337</ele><time>2026-04-30T14:37:33Z</time></trkpt><trkpt lat="45.79563890497476" lon="8.958186221663313"><ele>391.6666666666667</ele><time>2026-04-30T14:37:34Z</time></trkpt><trkpt lat="45.795467642248745" lon="8.958348250739716"><ele>391.0</ele><time>2026-04-30T14:37:35Z</time></trkpt><trkpt lat="45.7952954216284" lon="8.95851300135663"><ele>390.33333333333337</ele><time>2026-04-30T14:37:36Z</time></trkpt><trkpt lat="45.795116177625395" lon="8.958666544790805"><ele>389.66666666666663</ele><time>2026-04-30T14:37:37Z</time></trkpt><trkpt lat="45.794943969718005" lon="8.958794273714032"><ele>389.0</ele><time>2026-04-30T14:37:38Z</time></trkpt><trkpt lat="45.79477005587352" lon="8.958886738313437"><ele>389.0</ele><time>2026-04-30T14:37:39Z</time></trkpt><trkpt lat="45.79458187781564" lon="8.958959925125678"><ele>389.0</ele><time>2026-04-30T14:37:40Z</time></trkpt><trkpt lat="45.79438859755639" lon="8.959022088055324"><ele>389.0</ele><time>2026-04-30T14:37:41Z</time></trkpt><trkpt lat="45.79420593825614" lon="8.959068345096581"><ele>388.3333333333333</ele><time>2026-04-30T14:37:42Z</time></trkpt><trkpt lat="45.79403387951502" lon="8.959095812034487"><ele>387.66666666666663</ele><time>2026-04-30T14:37:43Z</time></trkpt><trkpt lat="45.79386977653923" lon="8.95910881610345"><ele>387.0</ele><time>2026-04-30T14:37:44Z</time></trkpt><trkpt lat="45.79371551913356" lon="8.959117902040942"><ele>387.0</ele><time>2026-04-30T14:37:45Z</time></trkpt><trkpt lat="45.79356128489314" lon="8.959123583779629"><ele>387.0</ele><time>2026-04-30T14:37:46Z</time></trkpt><trkpt lat="45.793409657614696" lon="8.959052980282177"><ele>387.0</ele><time>2026-04-30T14:37:47Z</time></trkpt><trkpt lat="45.79325297798206" lon="8.959017925770059"><ele>388.33333333333337</ele><time>2026-04-30T14:37:48Z</time></trkpt><trkpt lat="45.79309189149835" lon="8.958969466879644"><ele>389.6666666666667</ele><time>2026-04-30T14:37:49Z</time></trkpt><trkpt lat="45.792925398062515" lon="8.958921929923607"><ele>391.0</ele><time>2026-04-30T14:37:50Z</time></trkpt><trkpt lat="45.792760038404275" lon="8.95884109713196"><ele>392.33333333333337</ele><time>2026-04-30T14:37:51Z</time></trkpt><trkpt lat="45.792590864573995" lon="8.958812360779078"><ele>393.66666666666663</ele><time>2026-04-30T14:37:52Z</time></trkpt><trkpt lat="45.792440370076505" lon="8.958765512189176"><ele>395.0</ele><time>2026-04-30T14:37:53Z</time></trkpt><trkpt lat="45.792302008388134" lon="8.958719583647847"><ele>395.0</ele><time>2026-04-30T14:37:54Z</time></trkpt><trkpt lat="45.792176075071225" lon="8.958678565221533"><ele>395.0</ele><time>2026-04-30T14:37:55Z</time></trkpt><trkpt lat="45.792054825926066" lon="8.958643150669761"><ele>395.0</ele><time>2026-04-30T14:37:56Z</time></trkpt><trkpt lat="45.79193032469412" lon="8.958606791211338"><ele>395.0</ele><time>2026-04-30T14:37:57Z</time></trkpt><trkpt lat="45.791809836313455" lon="8.958565997504131"><ele>396.5</ele><time>2026-04-30T14:37:58Z</time></trkpt><trkpt lat="45.79168121190475" lon="8.95852676722598"><ele>398.0</ele><time>2026-04-30T14:37:59Z</time></trkpt><trkpt lat="45.79154039635885" lon="8.958485605621012"><ele>399.5</ele><time>2026-04-30T14:37:59.999Z</time></trkpt><trkpt lat="45.79140791455873" lon="8.958445891445578"><ele>401.0</ele><time>2026-04-30T14:38:00.999Z</time></trkpt><trkpt lat="45.79129142537672" lon="8.958415788470234"><ele>400.99999999999994</ele><time>2026-04-30T14:38:01.999Z</time></trkpt><trkpt lat="45.791204251324885" lon="8.958392947971847"><ele>401.0</ele><time>2026-04-30T14:38:02.999Z</time></trkpt><trkpt lat="45.79114875091527" lon="8.958346862240852"><ele>401.0</ele><time>2026-04-30T14:38:03.999Z</time></trkpt><trkpt lat="45.791068996001776" lon="8.958322378531152"><ele>401.0</ele><time>2026-04-30T14:38:05.999Z</time></trkpt><trkpt lat="45.790969128534584" lon="8.958291919170712"><ele>400.99999999999994</ele><time>2026-04-30T14:38:07.999Z</time></trkpt><trkpt lat="45.79087426837514" lon="8.958263007842525"><ele>401.0</ele><time>2026-04-30T14:38:09.999Z</time></trkpt><trkpt lat="45.79080378436782" lon="8.958278465919879"><ele>401.20000000000005</ele><time>2026-04-30T14:38:10.999Z</time></trkpt><trkpt lat="45.790732098626435" lon="8.958254484469455"><ele>401.40000000000003</ele><time>2026-04-30T14:38:11.999Z</time></trkpt><trkpt lat="45.79064847724813" lon="8.958228589319223"><ele>401.6</ele><time>2026-04-30T14:38:12.999Z</time></trkpt><trkpt lat="45.790547176655444" lon="8.958196234095341"><ele>401.8</ele><time>2026-04-30T14:38:13.999Z</time></trkpt><trkpt lat="45.79044876251839" lon="8.958163098178764"><ele>402.0</ele><time>2026-04-30T14:38:14.999Z</time></trkpt><trkpt lat="45.79036473008464" lon="8.95813534849939"><ele>402.0</ele><time>2026-04-30T14:38:15.999Z</time></trkpt><trkpt lat="45.790282718517254" lon="8.958083076831878"><ele>402.0</ele><time>2026-04-30T14:38:16.999Z</time></trkpt><trkpt lat="45.790199738078094" lon="8.958057816428166"><ele>402.0</ele><time>2026-04-30T14:38:17.999Z</time></trkpt><trkpt lat="45.79011705097654" lon="8.958032645365622"><ele>402.0</ele><time>2026-04-30T14:38:18.999Z</time></trkpt><trkpt lat="45.79003883813617" lon="8.958008698476064"><ele>402.0</ele><time>2026-04-30T14:38:19.999Z</time></trkpt><trkpt lat="45.78993851316258" lon="8.957977829288428"><ele>402.0</ele><time>2026-04-30T14:38:21.999Z</time></trkpt><trkpt lat="45.789868692348946" lon="8.957956345861968"><ele>402.8</ele><time>2026-04-30T14:38:22.999Z</time></trkpt><trkpt lat="45.789763636697785" lon="8.957924059377639"><ele>403.6</ele><time>2026-04-30T14:38:23.999Z</time></trkpt><trkpt lat="45.78965239101558" lon="8.957889955667696"><ele>404.40000000000003</ele><time>2026-04-30T14:38:24.999Z</time></trkpt><trkpt lat="45.78955171361789" lon="8.957859091772917"><ele>405.20000000000005</ele><time>2026-04-30T14:38:25.999Z</time></trkpt><trkpt lat="45.78946615779059" lon="8.957832863561235"><ele>406.0</ele><time>2026-04-30T14:38:26.999Z</time></trkpt><trkpt lat="45.78938827364414" lon="8.957808987271385"><ele>406.0</ele><time>2026-04-30T14:38:27.999Z</time></trkpt><trkpt lat="45.78930823307698" lon="8.957784449842727"><ele>406.0</ele><time>2026-04-30T14:38:28.999Z</time></trkpt><trkpt lat="45.78921061998467" lon="8.957754525356933"><ele>406.0</ele><time>2026-04-30T14:38:29.999Z</time></trkpt><trkpt lat="45.789101500461456" lon="8.957721826271227"><ele>406.0</ele><time>2026-04-30T14:38:30.999Z</time></trkpt><trkpt lat="45.78900790726697" lon="8.957693979561837"><ele>406.0</ele><time>2026-04-30T14:38:31.999Z</time></trkpt><trkpt lat="45.78892043780217" lon="8.957667954861773"><ele>406.0</ele><time>2026-04-30T14:38:32.999Z</time></trkpt><trkpt lat="45.78883564006005" lon="8.957642725093056"><ele>406.0</ele><time>2026-04-30T14:38:33.999Z</time></trkpt><trkpt lat="45.78874813308943" lon="8.957616688810779"><ele>406.0</ele><time>2026-04-30T14:38:34.999Z</time></trkpt><trkpt lat="45.78863675097973" lon="8.9575835585006"><ele>406.0</ele><time>2026-04-30T14:38:35.999Z</time></trkpt><trkpt lat="45.788512158315974" lon="8.957545079997315"><ele>406.0</ele><time>2026-04-30T14:38:36.999Z</time></trkpt><trkpt lat="45.78840142161786" lon="8.95751088065936"><ele>406.20000000000005</ele><time>2026-04-30T14:38:37.999Z</time></trkpt><trkpt lat="45.78830952056362" lon="8.957482498449801"><ele>406.40000000000003</ele><time>2026-04-30T14:38:38.999Z</time></trkpt><trkpt lat="45.788222709890086" lon="8.957480174575215"><ele>406.6</ele><time>2026-04-30T14:38:39.999Z</time></trkpt><trkpt lat="45.788116773078826" lon="8.957423391996"><ele>406.8</ele><time>2026-04-30T14:38:40.999Z</time></trkpt><trkpt lat="45.78798298207638" lon="8.95738305082443"><ele>407.0</ele><time>2026-04-30T14:38:41.999Z</time></trkpt><trkpt lat="45.78785999215518" lon="8.957346575710497"><ele>407.0</ele><time>2026-04-30T14:38:42.999Z</time></trkpt><trkpt lat="45.78775338041635" lon="8.957335777154398"><ele>407.0</ele><time>2026-04-30T14:38:43.999Z</time></trkpt><trkpt lat="45.787652436845235" lon="8.957304621289879"><ele>407.0</ele><time>2026-04-30T14:38:44.999Z</time></trkpt><trkpt lat="45.78755013972163" lon="8.957273669142118"><ele>407.0</ele><time>2026-04-30T14:38:45.999Z</time></trkpt><trkpt lat="45.78745020577437" lon="8.957243150105903"><ele>407.0</ele><time>2026-04-30T14:38:46.999Z</time></trkpt><trkpt lat="45.78735543809402" lon="8.957212378559863"><ele>406.40000000000003</ele><time>2026-04-30T14:38:47.999Z</time></trkpt><trkpt lat="45.78727046373326" lon="8.957172864429143"><ele>405.8</ele><time>2026-04-30T14:38:48.999Z</time></trkpt><trkpt lat="45.78718619674533" lon="8.957119135784671"><ele>405.2</ele><time>2026-04-30T14:38:49.999Z</time></trkpt><trkpt lat="45.78710855680771" lon="8.957055181639744"><ele>404.6</ele><time>2026-04-30T14:38:50.999Z</time></trkpt><trkpt lat="45.7870361674693" lon="8.95694169295378"><ele>404.0</ele><time>2026-04-30T14:38:52.999Z</time></trkpt><trkpt lat="45.787007615425985" lon="8.956840053792506"><ele>404.0</ele><time>2026-04-30T14:39:10Z</time></trkpt><trkpt lat="45.7869828379131" lon="8.9567533311478"><ele>404.0</ele><time>2026-04-30T14:39:12Z</time></trkpt><trkpt lat="45.786946814455206" lon="8.956582791096105"><ele>404.0</ele><time>2026-04-30T14:39:14Z</time></trkpt><trkpt lat="45.78689816014765" lon="8.956466152423289"><ele>404.0</ele><time>2026-04-30T14:39:16Z</time></trkpt><trkpt lat="45.7868517145389" lon="8.956329681351656"><ele>404.0</ele><time>2026-04-30T14:39:18Z</time></trkpt><trkpt lat="45.786847017302755" lon="8.956222312124845"><ele>403.99999999999994</ele><time>2026-04-30T14:39:19Z</time></trkpt><trkpt lat="45.786853073424695" lon="8.956125825400429"><ele>404.0</ele><time>2026-04-30T14:39:20Z</time></trkpt><trkpt lat="45.78688277534076" lon="8.955952125650633"><ele>404.0</ele><time>2026-04-30T14:39:22Z</time></trkpt><trkpt lat="45.78690990619487" lon="8.955866050269186"><ele>404.0</ele><time>2026-04-30T14:39:23Z</time></trkpt><trkpt lat="45.78695264589805" lon="8.95573179816413"><ele>403.99999999999994</ele><time>2026-04-30T14:39:25Z</time></trkpt><trkpt lat="45.786984153487765" lon="8.955643699213908"><ele>404.0</ele><time>2026-04-30T14:39:27Z</time></trkpt><trkpt lat="45.787025622525" lon="8.955538069436379"><ele>404.3333333333333</ele><time>2026-04-30T14:39:42Z</time></trkpt><trkpt lat="45.787055470944054" lon="8.95544593968406"><ele>404.66666666666663</ele><time>2026-04-30T14:39:45Z</time></trkpt><trkpt lat="45.78708733249498" lon="8.955362656272644"><ele>405.0</ele><time>2026-04-30T14:39:49Z</time></trkpt><trkpt lat="45.78711913415751" lon="8.955263928030076"><ele>405.33333333333337</ele><time>2026-04-30T14:39:54Z</time></trkpt><trkpt lat="45.787145713359" lon="8.955181846710463"><ele>405.6666666666667</ele><time>2026-04-30T14:39:58Z</time></trkpt><trkpt lat="45.78719439866518" lon="8.955038340884151"><ele>406.0</ele><time>2026-04-30T14:40:00Z</time></trkpt><trkpt lat="45.78723016669874" lon="8.954935827860261"><ele>406.00000000000006</ele><time>2026-04-30T14:40:01Z</time></trkpt><trkpt lat="45.78727596081165" lon="8.954836741106982"><ele>406.0</ele><time>2026-04-30T14:40:02Z</time></trkpt><trkpt lat="45.78729771658361" lon="8.954737629331317"><ele>406.0</ele><time>2026-04-30T14:40:03Z</time></trkpt><trkpt lat="45.78734680006014" lon="8.954603512178691"><ele>406.0</ele><time>2026-04-30T14:40:04.999Z</time></trkpt><trkpt lat="45.787387227352895" lon="8.954488699849003"><ele>406.00000000000006</ele><time>2026-04-30T14:40:07.999Z</time></trkpt><trkpt lat="45.78741651596446" lon="8.954400388609205"><ele>406.0</ele><time>2026-04-30T14:40:08.999Z</time></trkpt><trkpt lat="45.78745482173237" lon="8.954286366862547"><ele>405.6666666666667</ele><time>2026-04-30T14:40:09.999Z</time></trkpt><trkpt lat="45.78749379980657" lon="8.954177986454546"><ele>405.33333333333337</ele><time>2026-04-30T14:40:10.999Z</time></trkpt><trkpt lat="45.787522923262394" lon="8.954096300791475"><ele>405.0</ele><time>2026-04-30T14:40:11.999Z</time></trkpt><trkpt lat="45.78755817261693" lon="8.953993336431083"><ele>404.66666666666663</ele><time>2026-04-30T14:40:13.999Z</time></trkpt><trkpt lat="45.787589258779946" lon="8.953898032776177"><ele>404.3333333333333</ele><time>2026-04-30T14:40:16.999Z</time></trkpt><trkpt lat="45.787638695774355" lon="8.953755093995646"><ele>404.0</ele><time>2026-04-30T14:40:20.999Z</time></trkpt><trkpt lat="45.78768549989735" lon="8.953624816218616"><ele>405.2</ele><time>2026-04-30T14:40:22.999Z</time></trkpt><trkpt lat="45.78772492671761" lon="8.95350219027369"><ele>406.4</ele><time>2026-04-30T14:40:24.999Z</time></trkpt><trkpt lat="45.78776076654347" lon="8.953402392559937"><ele>407.6</ele><time>2026-04-30T14:40:27.999Z</time></trkpt><trkpt lat="45.787794948570806" lon="8.953295156087522"><ele>408.8</ele><time>2026-04-30T14:40:43.999Z</time></trkpt><trkpt lat="45.787837378511114" lon="8.953180677943276"><ele>410.0</ele><time>2026-04-30T14:40:45.999Z</time></trkpt><trkpt lat="45.78788655417497" lon="8.953031890569905"><ele>409.99999999999994</ele><time>2026-04-30T14:40:47.999Z</time></trkpt><trkpt lat="45.787916897716585" lon="8.952939025386785"><ele>410.0</ele><time>2026-04-30T14:40:48.999Z</time></trkpt><trkpt lat="45.787949977043965" lon="8.952844374344998"><ele>410.0</ele><time>2026-04-30T14:40:49.999Z</time></trkpt><trkpt lat="45.78797829381732" lon="8.952761866436408"><ele>410.0</ele><time>2026-04-30T14:40:50.999Z</time></trkpt><trkpt lat="45.78802231346224" lon="8.952631810257735"><ele>409.99999999999994</ele><time>2026-04-30T14:40:52.999Z</time></trkpt><trkpt lat="45.78805242471644" lon="8.952538464614708"><ele>410.0</ele><time>2026-04-30T14:40:54.999Z</time></trkpt><trkpt lat="45.78808819091341" lon="8.952437458927452"><ele>410.8</ele><time>2026-04-30T14:40:56.999Z</time></trkpt><trkpt lat="45.78814279896201" lon="8.952277545807176"><ele>411.6</ele><time>2026-04-30T14:40:58.999Z</time></trkpt><trkpt lat="45.7881730135046" lon="8.952188151724409"><ele>412.4</ele><time>2026-04-30T14:40:59.999Z</time></trkpt><trkpt lat="45.78822440348757" lon="8.952033204227064"><ele>413.2</ele><time>2026-04-30T14:41:01.999Z</time></trkpt><trkpt lat="45.78825648477039" lon="8.951942724647157"><ele>414.0</ele><time>2026-04-30T14:41:03.999Z</time></trkpt><trkpt lat="45.78829225999292" lon="8.951838453443647"><ele>414.0</ele><time>2026-04-30T14:41:07.999Z</time></trkpt><trkpt lat="45.78832044593294" lon="8.951757520358555"><ele>414.0</ele><time>2026-04-30T14:41:09.999Z</time></trkpt><trkpt lat="45.78835255751025" lon="8.951675800497597"><ele>414.0</ele><time>2026-04-30T14:41:12Z</time></trkpt><trkpt lat="45.7883842783927" lon="8.951559068766151"><ele>414.0</ele><time>2026-04-30T14:41:15Z</time></trkpt><trkpt lat="45.78839584888143" lon="8.951451797504577"><ele>414.0</ele><time>2026-04-30T14:41:17Z</time></trkpt><trkpt lat="45.788408757091354" lon="8.951319287218459"><ele>414.0</ele><time>2026-04-30T14:41:19Z</time></trkpt><trkpt lat="45.78844745063072" lon="8.951158712254625"><ele>413.79999999999995</ele><time>2026-04-30T14:41:21Z</time></trkpt><trkpt lat="45.788488409827494" lon="8.95101858051706"><ele>413.59999999999997</ele><time>2026-04-30T14:41:23Z</time></trkpt><trkpt lat="45.78853235380309" lon="8.950894488989956"><ele>413.4</ele><time>2026-04-30T14:41:25Z</time></trkpt><trkpt lat="45.78852472175221" lon="8.950739292733084"><ele>413.2</ele><time>2026-04-30T14:41:27Z</time></trkpt><trkpt lat="45.78853915548323" lon="8.950620318990145"><ele>413.0</ele><time>2026-04-30T14:41:29Z</time></trkpt><trkpt lat="45.78851479851591" lon="8.950393146098568"><ele>413.25</ele><time>2026-04-30T14:41:31Z</time></trkpt><trkpt lat="45.78848963058769" lon="8.950200928421845"><ele>413.5</ele><time>2026-04-30T14:41:32Z</time></trkpt><trkpt lat="45.788466750434985" lon="8.950012603795319"><ele>413.75</ele><time>2026-04-30T14:41:33Z</time></trkpt><trkpt lat="45.78843716196383" lon="8.949794182927826"><ele>414.0</ele><time>2026-04-30T14:41:34Z</time></trkpt><trkpt lat="45.78840417206176" lon="8.949561019951295"><ele>414.5</ele><time>2026-04-30T14:41:35Z</time></trkpt><trkpt lat="45.788375671657455" lon="8.94933583985553"><ele>415.0</ele><time>2026-04-30T14:41:36Z</time></trkpt><trkpt lat="45.78835019616705" lon="8.949129467886035"><ele>415.5</ele><time>2026-04-30T14:41:37Z</time></trkpt><trkpt lat="45.7883274893061" lon="8.948947546234889"><ele>416.0</ele><time>2026-04-30T14:41:38Z</time></trkpt><trkpt lat="45.78830677358341" lon="8.94878065270881"><ele>416.0</ele><time>2026-04-30T14:41:39Z</time></trkpt><trkpt lat="45.78828665486534" lon="8.948632978686431"><ele>416.0</ele><time>2026-04-30T14:41:40Z</time></trkpt><trkpt lat="45.788267358507056" lon="8.94850002748332"><ele>416.0</ele><time>2026-04-30T14:41:41Z</time></trkpt><trkpt lat="45.788251229168075" lon="8.948382773895114"><ele>416.0</ele><time>2026-04-30T14:41:42Z</time></trkpt><trkpt lat="45.78823186696076" lon="8.948245642558266"><ele>416.0</ele><time>2026-04-30T14:41:44Z</time></trkpt><trkpt lat="45.788216652063475" lon="8.948082653449733"><ele>416.6</ele><time>2026-04-30T14:41:49Z</time></trkpt><trkpt lat="45.78819120240747" lon="8.947947964566836"><ele>417.20000000000005</ele><time>2026-04-30T14:41:51Z</time></trkpt><trkpt lat="45.788175812131456" lon="8.947804621588665"><ele>417.79999999999995</ele><time>2026-04-30T14:42:17.999Z</time></trkpt><trkpt lat="45.78815278873095" lon="8.94764711402139"><ele>418.4</ele><time>2026-04-30T14:42:18.999Z</time></trkpt><trkpt lat="45.78813350160137" lon="8.947484359648906"><ele>419.0</ele><time>2026-04-30T14:42:19.999Z</time></trkpt><trkpt lat="45.78811435031055" lon="8.947309353787155"><ele>420.25</ele><time>2026-04-30T14:42:20.999Z</time></trkpt><trkpt lat="45.78810549605087" lon="8.947128992451727"><ele>421.5</ele><time>2026-04-30T14:42:21.999Z</time></trkpt><trkpt lat="45.78812415864714" lon="8.946940144249432"><ele>422.75</ele><time>2026-04-30T14:42:22.999Z</time></trkpt><trkpt lat="45.788159920990566" lon="8.946744249297115"><ele>424.0</ele><time>2026-04-30T14:42:23.999Z</time></trkpt><trkpt lat="45.78820185636398" lon="8.946497527590157"><ele>424.33333333333337</ele><time>2026-04-30T14:42:24.999Z</time></trkpt><trkpt lat="45.78824008346601" lon="8.946229037335142"><ele>424.66666666666663</ele><time>2026-04-30T14:42:25.999Z</time></trkpt><trkpt lat="45.788278838545985" lon="8.94595811307366"><ele>425.0</ele><time>2026-04-30T14:42:26.999Z</time></trkpt><trkpt lat="45.7883160496739" lon="8.945715414011868"><ele>425.3333333333333</ele><time>2026-04-30T14:42:27.999Z</time></trkpt><trkpt lat="45.78834810611724" lon="8.945490830398729"><ele>425.66666666666663</ele><time>2026-04-30T14:42:28.999Z</time></trkpt><trkpt lat="45.788379183491045" lon="8.945257793241971"><ele>426.0</ele><time>2026-04-30T14:42:29.999Z</time></trkpt><trkpt lat="45.78841231062681" lon="8.945022159587648"><ele>426.25</ele><time>2026-04-30T14:42:30.999Z</time></trkpt><trkpt lat="45.78844456759379" lon="8.944806919428274"><ele>426.5</ele><time>2026-04-30T14:42:31.999Z</time></trkpt><trkpt lat="45.788472923996736" lon="8.944615377170239"><ele>426.75</ele><time>2026-04-30T14:42:32.999Z</time></trkpt><trkpt lat="45.788499625342475" lon="8.944440060098998"><ele>427.0</ele><time>2026-04-30T14:42:33.999Z</time></trkpt><trkpt lat="45.78852521688564" lon="8.944281325444903"><ele>426.0</ele><time>2026-04-30T14:42:34.999Z</time></trkpt><trkpt lat="45.78855048424472" lon="8.94410402614599"><ele>425.0</ele><time>2026-04-30T14:42:35.999Z</time></trkpt><trkpt lat="45.78857771970686" lon="8.943890631273533"><ele>424.0</ele><time>2026-04-30T14:42:36.999Z</time></trkpt><trkpt lat="45.78861303448334" lon="8.943640978485883"><ele>424.33333333333337</ele><time>2026-04-30T14:42:37.999Z</time></trkpt><trkpt lat="45.78865539237904" lon="8.943347162806115"><ele>424.66666666666663</ele><time>2026-04-30T14:42:38.999Z</time></trkpt><trkpt lat="45.788704011295664" lon="8.943041711182875"><ele>425.0</ele><time>2026-04-30T14:42:39.999Z</time></trkpt><trkpt lat="45.78874774819143" lon="8.942736156323711"><ele>425.66666666666663</ele><time>2026-04-30T14:42:40.999Z</time></trkpt><trkpt lat="45.788788929105216" lon="8.942455776439635"><ele>426.33333333333337</ele><time>2026-04-30T14:42:41.999Z</time></trkpt><trkpt lat="45.788828637775964" lon="8.94217329455034"><ele>427.0</ele><time>2026-04-30T14:42:42.999Z</time></trkpt><trkpt lat="45.788869548912245" lon="8.94188843136896"><ele>428.5</ele><time>2026-04-30T14:42:43.999Z</time></trkpt><trkpt lat="45.788913053380725" lon="8.94156729592963"><ele>430.0</ele><time>2026-04-30T14:42:44.999Z</time></trkpt><trkpt lat="45.78896176471186" lon="8.941226799641086"><ele>430.0</ele><time>2026-04-30T14:42:45.999Z</time></trkpt><trkpt lat="45.7890110695302" lon="8.940893947386908"><ele>430.0</ele><time>2026-04-30T14:42:46.999Z</time></trkpt><trkpt lat="45.78906112902628" lon="8.940536465566208"><ele>431.0</ele><time>2026-04-30T14:42:47.999Z</time></trkpt><trkpt lat="45.7891065728576" lon="8.94019217434849"><ele>432.0</ele><time>2026-04-30T14:42:48.999Z</time></trkpt><trkpt lat="45.789149180448106" lon="8.939880743280764"><ele>432.66666666666663</ele><time>2026-04-30T14:42:49.999Z</time></trkpt><trkpt lat="45.789191681621766" lon="8.939590797301747"><ele>433.3333333333333</ele><time>2026-04-30T14:42:50.999Z</time></trkpt><trkpt lat="45.7892326449469" lon="8.939308680869537"><ele>434.0</ele><time>2026-04-30T14:42:51.999Z</time></trkpt><trkpt lat="45.78927521602195" lon="8.939014669709767"><ele>434.66666666666663</ele><time>2026-04-30T14:42:52.999Z</time></trkpt><trkpt lat="45.78931693911434" lon="8.938722916566508"><ele>435.33333333333337</ele><time>2026-04-30T14:42:53.999Z</time></trkpt><trkpt lat="45.78935905425895" lon="8.938426607361928"><ele>436.0</ele><time>2026-04-30T14:42:54.999Z</time></trkpt><trkpt lat="45.78940372452436" lon="8.93813039287504"><ele>437.0</ele><time>2026-04-30T14:42:55.999Z</time></trkpt><trkpt lat="45.78944880600258" lon="8.937833817386089"><ele>438.0</ele><time>2026-04-30T14:42:56.999Z</time></trkpt><trkpt lat="45.78948891198285" lon="8.93756154015544"><ele>439.0</ele><time>2026-04-30T14:42:57.999Z</time></trkpt><trkpt lat="45.789524226100454" lon="8.937313858733281"><ele>439.33333333333337</ele><time>2026-04-30T14:42:58.999Z</time></trkpt><trkpt lat="45.78955886194505" lon="8.937083631997858"><ele>439.66666666666663</ele><time>2026-04-30T14:42:59.999Z</time></trkpt><trkpt lat="45.789589278508856" lon="8.936869333974348"><ele>440.0</ele><time>2026-04-30T14:43:00.999Z</time></trkpt><trkpt lat="45.789616127892586" lon="8.936677306049413"><ele>441.2</ele><time>2026-04-30T14:43:01.999Z</time></trkpt><trkpt lat="45.78963753751472" lon="8.936496144284456"><ele>442.4</ele><time>2026-04-30T14:43:02.999Z</time></trkpt><trkpt lat="45.78965091610504" lon="8.936336788098435"><ele>443.6</ele><time>2026-04-30T14:43:03.999Z</time></trkpt><trkpt lat="45.789649220051494" lon="8.936196836005825"><ele>444.8</ele><time>2026-04-30T14:43:04.999Z</time></trkpt><trkpt lat="45.789630729293975" lon="8.936067491283845"><ele>446.0</ele><time>2026-04-30T14:43:05.999Z</time></trkpt><trkpt lat="45.789597232750125" lon="8.935956403677881"><ele>446.16666666666663</ele><time>2026-04-30T14:43:06.999Z</time></trkpt><trkpt lat="45.789560862664935" lon="8.935857316460167"><ele>446.3333333333333</ele><time>2026-04-30T14:43:07.999Z</time></trkpt><trkpt lat="45.78953496512838" lon="8.935769792375929"><ele>446.5</ele><time>2026-04-30T14:43:09.999Z</time></trkpt><trkpt lat="45.78950305322083" lon="8.935689725243051"><ele>446.66666666666663</ele><time>2026-04-30T14:43:18Z</time></trkpt><trkpt lat="45.789442281528935" lon="8.935718620313489"><ele>446.8333333333333</ele><time>2026-04-30T14:43:19Z</time></trkpt><trkpt lat="45.789356396861145" lon="8.935595907029215"><ele>447.0</ele><time>2026-04-30T14:43:25Z</time></trkpt><trkpt lat="45.789275947679656" lon="8.935495978800255"><ele>447.3333333333333</ele><time>2026-04-30T14:43:27Z</time></trkpt><trkpt lat="45.789220267281465" lon="8.935451330983605"><ele>447.66666666666663</ele><time>2026-04-30T14:43:28Z</time></trkpt><trkpt lat="45.78918085651451" lon="8.935364055460687"><ele>448.0</ele><time>2026-04-30T14:43:29Z</time></trkpt><trkpt lat="45.78914433838568" lon="8.935249549635921"><ele>448.3333333333333</ele><time>2026-04-30T14:43:30Z</time></trkpt><trkpt lat="45.78911377132857" lon="8.935108713105594"><ele>448.66666666666663</ele><time>2026-04-30T14:43:31Z</time></trkpt><trkpt lat="45.78908623355016" lon="8.934946270603291"><ele>449.0</ele><time>2026-04-30T14:43:32Z</time></trkpt><trkpt lat="45.78905426041284" lon="8.934805820556345"><ele>449.0</ele><time>2026-04-30T14:43:33Z</time></trkpt><trkpt lat="45.78902073596669" lon="8.934646220042508"><ele>449.0</ele><time>2026-04-30T14:43:34Z</time></trkpt><trkpt lat="45.78898777040895" lon="8.934488105234962"><ele>449.0</ele><time>2026-04-30T14:43:35Z</time></trkpt><trkpt lat="45.788958025819014" lon="8.934328588291017"><ele>449.0</ele><time>2026-04-30T14:43:36Z</time></trkpt><trkpt lat="45.78892792183955" lon="8.93417313167239"><ele>449.0</ele><time>2026-04-30T14:43:37Z</time></trkpt><trkpt lat="45.78889702579064" lon="8.934018920486157"><ele>449.0</ele><time>2026-04-30T14:43:38Z</time></trkpt><trkpt lat="45.78886903906251" lon="8.93386642482917"><ele>449.0</ele><time>2026-04-30T14:43:39Z</time></trkpt><trkpt lat="45.78884836986407" lon="8.933720452237248"><ele>449.0</ele><time>2026-04-30T14:43:40Z</time></trkpt><trkpt lat="45.788828636451626" lon="8.933589830637194"><ele>449.0</ele><time>2026-04-30T14:43:41Z</time></trkpt><trkpt lat="45.788807630923465" lon="8.933467535471616"><ele>448.66666666666663</ele><time>2026-04-30T14:43:42Z</time></trkpt><trkpt lat="45.788791879937094" lon="8.933370706803926"><ele>448.3333333333333</ele><time>2026-04-30T14:43:43Z</time></trkpt><trkpt lat="45.788764321454515" lon="8.933271392426564"><ele>448.0</ele><time>2026-04-30T14:43:45Z</time></trkpt><trkpt lat="45.78871963559382" lon="8.933170212391659"><ele>447.66666666666663</ele><time>2026-04-30T14:43:53Z</time></trkpt><trkpt lat="45.78867568607578" lon="8.933080640619858"><ele>447.3333333333333</ele><time>2026-04-30T14:43:54Z</time></trkpt><trkpt lat="45.78863383238168" lon="8.9329435352691"><ele>447.0</ele><time>2026-04-30T14:43:55Z</time></trkpt><trkpt lat="45.78855882881027" lon="8.932779626109264"><ele>446.40000000000003</ele><time>2026-04-30T14:43:56Z</time></trkpt><trkpt lat="45.78848853486903" lon="8.932626007564016"><ele>445.80000000000007</ele><time>2026-04-30T14:43:57Z</time></trkpt><trkpt lat="45.78842697218985" lon="8.932490295704298"><ele>445.2</ele><time>2026-04-30T14:43:58Z</time></trkpt><trkpt lat="45.7883797302455" lon="8.932386484664043"><ele>444.6</ele><time>2026-04-30T14:43:59Z</time></trkpt><trkpt lat="45.78833589071939" lon="8.932290150243642"><ele>444.0</ele><time>2026-04-30T14:44:00Z</time></trkpt><trkpt lat="45.78829988642264" lon="8.932211033168823"><ele>443.6</ele><time>2026-04-30T14:44:01Z</time></trkpt><trkpt lat="45.78824720537697" lon="8.932095022159796"><ele>443.2</ele><time>2026-04-30T14:44:03Z</time></trkpt><trkpt lat="45.78817651435127" lon="8.931938790399284"><ele>442.80000000000007</ele><time>2026-04-30T14:44:05Z</time></trkpt><trkpt lat="45.78812249636322" lon="8.931821850786719"><ele>442.40000000000003</ele><time>2026-04-30T14:44:06Z</time></trkpt><trkpt lat="45.788065858362486" lon="8.931738235445545"><ele>442.0</ele><time>2026-04-30T14:44:07Z</time></trkpt><trkpt lat="45.78802556333919" lon="8.931651701577362"><ele>441.7142857142857</ele><time>2026-04-30T14:44:08Z</time></trkpt><trkpt lat="45.78799956363923" lon="8.931552211492404"><ele>441.42857142857144</ele><time>2026-04-30T14:44:08.999Z</time></trkpt><trkpt lat="45.78795989644471" lon="8.931465765058448"><ele>441.1428571428571</ele><time>2026-04-30T14:44:09.999Z</time></trkpt><trkpt lat="45.78790787177928" lon="8.931393070028452"><ele>440.8571428571429</ele><time>2026-04-30T14:44:10.999Z</time></trkpt><trkpt lat="45.78787606453109" lon="8.931309452175107"><ele>440.57142857142856</ele><time>2026-04-30T14:44:11.999Z</time></trkpt><trkpt lat="45.78784910586333" lon="8.931224554203427"><ele>440.2857142857143</ele><time>2026-04-30T14:44:12.999Z</time></trkpt><trkpt lat="45.78783114638365" lon="8.931136009590917"><ele>440.0</ele><time>2026-04-30T14:44:13.999Z</time></trkpt><trkpt lat="45.78781738377528" lon="8.930964465456277"><ele>439.49999999999994</ele><time>2026-04-30T14:44:15.999Z</time></trkpt><trkpt lat="45.78781277705296" lon="8.930873486096772"><ele>439.0</ele><time>2026-04-30T14:44:16.999Z</time></trkpt><trkpt lat="45.7878048131836" lon="8.930758296157789"><ele>438.5</ele><time>2026-04-30T14:44:17.999Z</time></trkpt><trkpt lat="45.787789644861405" lon="8.930650241828188"><ele>438.0</ele><time>2026-04-30T14:44:18.999Z</time></trkpt><trkpt lat="45.787760938823546" lon="8.930554088790974"><ele>437.49999999999994</ele><time>2026-04-30T14:44:19.999Z</time></trkpt><trkpt lat="45.78771316360658" lon="8.930457472777924"><ele>437.0</ele><time>2026-04-30T14:44:20.999Z</time></trkpt><trkpt lat="45.78764691572481" lon="8.930374775121486"><ele>436.6</ele><time>2026-04-30T14:44:21.999Z</time></trkpt><trkpt lat="45.7875670086569" lon="8.930295044887671"><ele>436.20000000000005</ele><time>2026-04-30T14:44:22.999Z</time></trkpt><trkpt lat="45.787483119265836" lon="8.930201100876577"><ele>435.8</ele><time>2026-04-30T14:44:23.999Z</time></trkpt><trkpt lat="45.78740438899991" lon="8.930080887577503"><ele>435.4</ele><time>2026-04-30T14:44:24.999Z</time></trkpt><trkpt lat="45.78734817031064" lon="8.929937165701611"><ele>435.0</ele><time>2026-04-30T14:44:25.999Z</time></trkpt><trkpt lat="45.78730828297258" lon="8.929779206102792"><ele>435.0</ele><time>2026-04-30T14:44:26.999Z</time></trkpt><trkpt lat="45.78726631130054" lon="8.929574452183923"><ele>435.0</ele><time>2026-04-30T14:44:27.999Z</time></trkpt><trkpt lat="45.78722684701319" lon="8.929350415597238"><ele>435.0</ele><time>2026-04-30T14:44:28.999Z</time></trkpt><trkpt lat="45.787190170736494" lon="8.929106308067755"><ele>435.0</ele><time>2026-04-30T14:44:29.999Z</time></trkpt><trkpt lat="45.78714738909864" lon="8.92881317448737"><ele>435.0</ele><time>2026-04-30T14:44:30.999Z</time></trkpt><trkpt lat="45.78710922481017" lon="8.92851399631705"><ele>435.0</ele><time>2026-04-30T14:44:31.999Z</time></trkpt><trkpt lat="45.7870650391273" lon="8.92817496510243"><ele>434.5</ele><time>2026-04-30T14:44:32.999Z</time></trkpt><trkpt lat="45.78701875751225" lon="8.927849530790867"><ele>434.0</ele><time>2026-04-30T14:44:33.999Z</time></trkpt><trkpt lat="45.78697386930895" lon="8.927498160505314"><ele>433.5</ele><time>2026-04-30T14:44:34.999Z</time></trkpt><trkpt lat="45.78693222952125" lon="8.927136509890374"><ele>433.0</ele><time>2026-04-30T14:44:35.999Z</time></trkpt><trkpt lat="45.786891300358725" lon="8.926781780395148"><ele>432.6666666666667</ele><time>2026-04-30T14:44:36.999Z</time></trkpt><trkpt lat="45.78685246792978" lon="8.926462063818558"><ele>432.33333333333337</ele><time>2026-04-30T14:44:37.999Z</time></trkpt><trkpt lat="45.78681702171127" lon="8.92616027892623"><ele>432.0</ele><time>2026-04-30T14:44:38.999Z</time></trkpt><trkpt lat="45.78678520472589" lon="8.925876539332013"><ele>432.0</ele><time>2026-04-30T14:44:39.999Z</time></trkpt><trkpt lat="45.786750052557025" lon="8.925587962866423"><ele>432.0</ele><time>2026-04-30T14:44:40.999Z</time></trkpt><trkpt lat="45.786711631428496" lon="8.925291825374748"><ele>432.0</ele><time>2026-04-30T14:44:41.999Z</time></trkpt><trkpt lat="45.78667488988337" lon="8.924992736238055"><ele>431.66666666666663</ele><time>2026-04-30T14:44:42.999Z</time></trkpt><trkpt lat="45.786639199905494" lon="8.924688807690462"><ele>431.3333333333333</ele><time>2026-04-30T14:44:43.999Z</time></trkpt><trkpt lat="45.78660038465076" lon="8.924384003482034"><ele>431.0</ele><time>2026-04-30T14:44:44.999Z</time></trkpt><trkpt lat="45.786564959743764" lon="8.924076790699168"><ele>431.66666666666663</ele><time>2026-04-30T14:44:45.999Z</time></trkpt><trkpt lat="45.78653080989182" lon="8.923767753526846"><ele>432.33333333333337</ele><time>2026-04-30T14:44:46.999Z</time></trkpt><trkpt lat="45.78649440496294" lon="8.923458840689637"><ele>433.0</ele><time>2026-04-30T14:44:47.999Z</time></trkpt><trkpt lat="45.786454214967854" lon="8.923147993236823"><ele>433.0</ele><time>2026-04-30T14:44:48.999Z</time></trkpt><trkpt lat="45.7864136984358" lon="8.922819105942414"><ele>433.0</ele><time>2026-04-30T14:44:49.999Z</time></trkpt><trkpt lat="45.78637346580955" lon="8.922479091490915"><ele>433.0</ele><time>2026-04-30T14:44:50.999Z</time></trkpt><trkpt lat="45.78633335662356" lon="8.922126394085561"><ele>433.0</ele><time>2026-04-30T14:44:51.999Z</time></trkpt><trkpt lat="45.78628784694376" lon="8.92175628295"><ele>431.5</ele><time>2026-04-30T14:44:52.999Z</time></trkpt><trkpt lat="45.78624416932191" lon="8.921390494792114"><ele>430.0</ele><time>2026-04-30T14:44:53.999Z</time></trkpt><trkpt lat="45.78619960977511" lon="8.921014377387618"><ele>427.0</ele><time>2026-04-30T14:44:54.999Z</time></trkpt><trkpt lat="45.78615898273251" lon="8.920629852759049"><ele>424.0</ele><time>2026-04-30T14:44:55.999Z</time></trkpt><trkpt lat="45.786116476808765" lon="8.920248663652647"><ele>423.5</ele><time>2026-04-30T14:44:56.999Z</time></trkpt><trkpt lat="45.786070440106435" lon="8.919872836848832"><ele>423.0</ele><time>2026-04-30T14:44:57.999Z</time></trkpt><trkpt lat="45.786023636660005" lon="8.919495164982015"><ele>424.0</ele><time>2026-04-30T14:44:58.999Z</time></trkpt><trkpt lat="45.785978276594115" lon="8.919119087364578"><ele>425.0</ele><time>2026-04-30T14:44:59.999Z</time></trkpt><trkpt lat="45.78593335691808" lon="8.918763316381689"><ele>425.0</ele><time>2026-04-30T14:45:00.999Z</time></trkpt><trkpt lat="45.785896033563226" lon="8.918417896680259"><ele>425.0</ele><time>2026-04-30T14:45:01.999Z</time></trkpt><trkpt lat="45.785858185338626" lon="8.918092468746806"><ele>424.3333333333333</ele><time>2026-04-30T14:45:02.999Z</time></trkpt><trkpt lat="45.78582152894903" lon="8.917777068836527"><ele>423.66666666666663</ele><time>2026-04-30T14:45:03.999Z</time></trkpt><trkpt lat="45.78578589430287" lon="8.91747343567212"><ele>423.0</ele><time>2026-04-30T14:45:04.999Z</time></trkpt><trkpt lat="45.78575012899796" lon="8.917184910739504"><ele>423.0</ele><time>2026-04-30T14:45:05.999Z</time></trkpt><trkpt lat="45.78572056973872" lon="8.916902999190434"><ele>423.0</ele><time>2026-04-30T14:45:06.999Z</time></trkpt><trkpt lat="45.78569614054984" lon="8.916632681864781"><ele>423.0</ele><time>2026-04-30T14:45:07.999Z</time></trkpt><trkpt lat="45.78567932830003" lon="8.916368314808079"><ele>420.66666666666663</ele><time>2026-04-30T14:45:08.999Z</time></trkpt><trkpt lat="45.785671655820785" lon="8.916107834763682"><ele>418.3333333333333</ele><time>2026-04-30T14:45:09.999Z</time></trkpt><trkpt lat="45.78567089014384" lon="8.915833000017876"><ele>416.0</ele><time>2026-04-30T14:45:10.999Z</time></trkpt><trkpt lat="45.785671726944955" lon="8.91554794170907"><ele>414.3333333333333</ele><time>2026-04-30T14:45:11.999Z</time></trkpt><trkpt lat="45.785671279347824" lon="8.915268757834934"><ele>412.66666666666663</ele><time>2026-04-30T14:45:12.999Z</time></trkpt><trkpt lat="45.78566916131259" lon="8.915004591423209"><ele>411.0</ele><time>2026-04-30T14:45:13.999Z</time></trkpt><trkpt lat="45.785667678576075" lon="8.91474815092103"><ele>409.33333333333337</ele><time>2026-04-30T14:45:14.999Z</time></trkpt><trkpt lat="45.785672013642376" lon="8.914500137742369"><ele>407.6666666666667</ele><time>2026-04-30T14:45:15.999Z</time></trkpt><trkpt lat="45.78569020867252" lon="8.914260433261603"><ele>406.0</ele><time>2026-04-30T14:45:16.999Z</time></trkpt><trkpt lat="45.785710455209994" lon="8.914020204010292"><ele>402.0</ele><time>2026-04-30T14:45:17.999Z</time></trkpt><trkpt lat="45.785662476562756" lon="8.91379938225441"><ele>398.0</ele><time>2026-04-30T14:45:18.999Z</time></trkpt><trkpt lat="45.78567043559206" lon="8.913581586579445"><ele>394.0</ele><time>2026-04-30T14:45:19.999Z</time></trkpt><trkpt lat="45.78567275983429" lon="8.91337342274453"><ele>393.75</ele><time>2026-04-30T14:45:20.999Z</time></trkpt><trkpt lat="45.78567199376633" lon="8.913176158396954"><ele>393.5</ele><time>2026-04-30T14:45:21.999Z</time></trkpt><trkpt lat="45.78567099335534" lon="8.912999450194464"><ele>393.25</ele><time>2026-04-30T14:45:23Z</time></trkpt><trkpt lat="45.785679304149" lon="8.912804304713093"><ele>393.0</ele><time>2026-04-30T14:45:24Z</time></trkpt><trkpt lat="45.785693869627025" lon="8.912614497681258"><ele>392.59999999999997</ele><time>2026-04-30T14:45:25Z</time></trkpt><trkpt lat="45.78571660648839" lon="8.91244931873892"><ele>392.2</ele><time>2026-04-30T14:45:26Z</time></trkpt><trkpt lat="45.78575268907687" lon="8.912317618665861"><ele>391.8</ele><time>2026-04-30T14:45:27Z</time></trkpt><trkpt lat="45.78580069335694" lon="8.912200697737342"><ele>391.4</ele><time>2026-04-30T14:45:28Z</time></trkpt><trkpt lat="45.78585102663697" lon="8.912087359623914"><ele>391.0</ele><time>2026-04-30T14:45:29Z</time></trkpt><trkpt lat="45.78590674686769" lon="8.911954401864357"><ele>391.0</ele><time>2026-04-30T14:45:30Z</time></trkpt><trkpt lat="45.785946687176455" lon="8.911817518962687"><ele>391.0</ele><time>2026-04-30T14:45:31Z</time></trkpt><trkpt lat="45.785940593335816" lon="8.911660665079346"><ele>391.0</ele><time>2026-04-30T14:45:32Z</time></trkpt><trkpt lat="45.78587391275368" lon="8.911496888650696"><ele>391.0</ele><time>2026-04-30T14:45:33Z</time></trkpt><trkpt lat="45.78579340298658" lon="8.911335017100019"><ele>390.0</ele><time>2026-04-30T14:45:34Z</time></trkpt><trkpt lat="45.7857230482853" lon="8.911193563149462"><ele>389.0</ele><time>2026-04-30T14:45:35Z</time></trkpt><trkpt lat="45.78577444931892" lon="8.910936481735407"><ele>388.0</ele><time>2026-04-30T14:45:36Z</time></trkpt><trkpt lat="45.7857722160515" lon="8.910738046505678"><ele>387.0</ele><time>2026-04-30T14:45:37Z</time></trkpt><trkpt lat="45.78578072233974" lon="8.91053267157248"><ele>387.0</ele><time>2026-04-30T14:45:38Z</time></trkpt><trkpt lat="45.78579251412527" lon="8.910330978166677"><ele>387.0</ele><time>2026-04-30T14:45:39Z</time></trkpt><trkpt lat="45.7858054166502" lon="8.910128108160805"><ele>387.0</ele><time>2026-04-30T14:45:40Z</time></trkpt><trkpt lat="45.78582686647092" lon="8.909935554988765"><ele>387.0</ele><time>2026-04-30T14:45:41Z</time></trkpt><trkpt lat="45.78584557306745" lon="8.909746901898513"><ele>386.5</ele><time>2026-04-30T14:45:42Z</time></trkpt><trkpt lat="45.78586615190568" lon="8.909559640319534"><ele>386.0</ele><time>2026-04-30T14:45:43Z</time></trkpt><trkpt lat="45.785886497320725" lon="8.909369316945444"><ele>385.5</ele><time>2026-04-30T14:45:44Z</time></trkpt><trkpt lat="45.78590620620477" lon="8.909183406898896"><ele>385.0</ele><time>2026-04-30T14:45:45Z</time></trkpt><trkpt lat="45.785926098015416" lon="8.909006893991421"><ele>384.0</ele><time>2026-04-30T14:45:46Z</time></trkpt><trkpt lat="45.785942337454884" lon="8.908837593586899"><ele>383.0</ele><time>2026-04-30T14:45:47Z</time></trkpt><trkpt lat="45.785955563885345" lon="8.90866057990691"><ele>382.0</ele><time>2026-04-30T14:45:48Z</time></trkpt><trkpt lat="45.78596947294088" lon="8.908457451096336"><ele>381.0</ele><time>2026-04-30T14:45:49Z</time></trkpt><trkpt lat="45.785991216735404" lon="8.908240974446135"><ele>381.0</ele><time>2026-04-30T14:45:50Z</time></trkpt><trkpt lat="45.786017119406964" lon="8.908006883783012"><ele>381.0</ele><time>2026-04-30T14:45:51Z</time></trkpt><trkpt lat="45.78604071298726" lon="8.907773857244182"><ele>381.0</ele><time>2026-04-30T14:45:52Z</time></trkpt><trkpt lat="45.78606751649566" lon="8.90753692763253"><ele>380.6666666666667</ele><time>2026-04-30T14:45:53Z</time></trkpt><trkpt lat="45.78608926211064" lon="8.907321007945088"><ele>380.33333333333337</ele><time>2026-04-30T14:45:54Z</time></trkpt><trkpt lat="45.786108821318294" lon="8.907100078924472"><ele>380.0</ele><time>2026-04-30T14:45:55Z</time></trkpt><trkpt lat="45.78613573593797" lon="8.906885208799816"><ele>379.5</ele><time>2026-04-30T14:45:56Z</time></trkpt><trkpt lat="45.78615591949798" lon="8.906673612074067"><ele>379.0</ele><time>2026-04-30T14:45:57Z</time></trkpt><trkpt lat="45.78617803217705" lon="8.906459347517886"><ele>378.5</ele><time>2026-04-30T14:45:58Z</time></trkpt><trkpt lat="45.78619727446177" lon="8.90625057009284"><ele>378.0</ele><time>2026-04-30T14:45:59Z</time></trkpt><trkpt lat="45.7862147092076" lon="8.906047246761265"><ele>377.75</ele><time>2026-04-30T14:46:00Z</time></trkpt><trkpt lat="45.786233753001696" lon="8.905852629758135"><ele>377.5</ele><time>2026-04-30T14:46:01Z</time></trkpt><trkpt lat="45.786255691461946" lon="8.90566387913998"><ele>377.25</ele><time>2026-04-30T14:46:02Z</time></trkpt><trkpt lat="45.786276469711225" lon="8.905473247393502"><ele>377.0</ele><time>2026-04-30T14:46:03Z</time></trkpt><trkpt lat="45.78629310895088" lon="8.905284998713691"><ele>377.0</ele><time>2026-04-30T14:46:04Z</time></trkpt><trkpt lat="45.78630674841535" lon="8.905110550853504"><ele>377.0</ele><time>2026-04-30T14:46:05Z</time></trkpt><trkpt lat="45.7863181913216" lon="8.904973172414472"><ele>377.0</ele><time>2026-04-30T14:46:06Z</time></trkpt><trkpt lat="45.78632897368434" lon="8.904872893041862"><ele>377.0</ele><time>2026-04-30T14:46:07Z</time></trkpt><trkpt lat="45.78634782686067" lon="8.904690668775698"><ele>377.0</ele><time>2026-04-30T14:46:09Z</time></trkpt><trkpt lat="45.786353127407416" lon="8.904598462633858"><ele>377.0</ele><time>2026-04-30T14:46:10Z</time></trkpt><trkpt lat="45.786361475073534" lon="8.904435268721073"><ele>377.0</ele><time>2026-04-30T14:46:12Z</time></trkpt><trkpt lat="45.78638020000193" lon="8.904282998404383"><ele>377.0</ele><time>2026-04-30T14:46:14Z</time></trkpt><trkpt lat="45.78638877945157" lon="8.904173957060449"><ele>377.0</ele><time>2026-04-30T14:46:14.999Z</time></trkpt><trkpt lat="45.786401278217085" lon="8.904040521555066"><ele>377.0</ele><time>2026-04-30T14:46:15.999Z</time></trkpt><trkpt lat="45.78641824702083" lon="8.903923253174092"><ele>376.83333333333337</ele><time>2026-04-30T14:46:16.999Z</time></trkpt><trkpt lat="45.78642868130237" lon="8.903822056344389"><ele>376.6666666666667</ele><time>2026-04-30T14:46:17.999Z</time></trkpt><trkpt lat="45.78643894944073" lon="8.903710912251631"><ele>376.5</ele><time>2026-04-30T14:46:18.999Z</time></trkpt><trkpt lat="45.78644910891979" lon="8.903590759928951"><ele>376.3333333333333</ele><time>2026-04-30T14:46:19.999Z</time></trkpt><trkpt lat="45.78645935333334" lon="8.90347257278675"><ele>376.16666666666663</ele><time>2026-04-30T14:46:20.999Z</time></trkpt><trkpt lat="45.786473608659925" lon="8.903345266149232"><ele>376.0</ele><time>2026-04-30T14:46:21.999Z</time></trkpt><trkpt lat="45.786492625294535" lon="8.903176707898684"><ele>375.8</ele><time>2026-04-30T14:46:22.999Z</time></trkpt><trkpt lat="45.786514006654876" lon="8.902984662620803"><ele>375.6</ele><time>2026-04-30T14:46:23.999Z</time></trkpt><trkpt lat="45.786533967217096" lon="8.902817780336632"><ele>375.4</ele><time>2026-04-30T14:46:24.999Z</time></trkpt><trkpt lat="45.78654128512757" lon="8.902693123093991"><ele>375.2</ele><time>2026-04-30T14:46:25.999Z</time></trkpt><trkpt lat="45.78654826825998" lon="8.902603289268486"><ele>375.0</ele><time>2026-04-30T14:46:26.999Z</time></trkpt><trkpt lat="45.78655705032147" lon="8.90248457069657"><ele>374.6</ele><time>2026-04-30T14:46:28.999Z</time></trkpt><trkpt lat="45.78656788634273" lon="8.90238699196046"><ele>374.2</ele><time>2026-04-30T14:46:31.999Z</time></trkpt><trkpt lat="45.78658937210729" lon="8.902261252031597"><ele>373.79999999999995</ele><time>2026-04-30T14:46:33.999Z</time></trkpt><trkpt lat="45.78663813226926" lon="8.902115767322677"><ele>373.4</ele><time>2026-04-30T14:46:35.999Z</time></trkpt><trkpt lat="45.786676185676406" lon="8.901955583562017"><ele>373.0</ele><time>2026-04-30T14:46:37.999Z</time></trkpt><trkpt lat="45.78667923363474" lon="8.90183688396708"><ele>373.0</ele><time>2026-04-30T14:46:38.999Z</time></trkpt><trkpt lat="45.78666881205677" lon="8.901717567283063"><ele>373.0</ele><time>2026-04-30T14:46:39.999Z</time></trkpt><trkpt lat="45.78666850520308" lon="8.9015709214741"><ele>373.0</ele><time>2026-04-30T14:46:40.999Z</time></trkpt><trkpt lat="45.786689088645645" lon="8.901389527611348"><ele>373.0</ele><time>2026-04-30T14:46:41.999Z</time></trkpt><trkpt lat="45.78671165101999" lon="8.901211484001783"><ele>373.0</ele><time>2026-04-30T14:46:42.999Z</time></trkpt><trkpt lat="45.78672760853093" lon="8.901049521101557"><ele>373.2</ele><time>2026-04-30T14:46:43.999Z</time></trkpt><trkpt lat="45.78674148331262" lon="8.900905452976106"><ele>373.4</ele><time>2026-04-30T14:46:44.999Z</time></trkpt><trkpt lat="45.786758150342806" lon="8.900752364770314"><ele>373.59999999999997</ele><time>2026-04-30T14:46:45.999Z</time></trkpt><trkpt lat="45.78677613505301" lon="8.900587668998522"><ele>373.79999999999995</ele><time>2026-04-30T14:46:46.999Z</time></trkpt><trkpt lat="45.78679092034843" lon="8.900421806004376"><ele>374.0</ele><time>2026-04-30T14:46:47.999Z</time></trkpt><trkpt lat="45.786805425615874" lon="8.900251777844518"><ele>373.75</ele><time>2026-04-30T14:46:48.999Z</time></trkpt><trkpt lat="45.78682506852095" lon="8.90007758678008"><ele>373.5</ele><time>2026-04-30T14:46:49.999Z</time></trkpt><trkpt lat="45.7868500154366" lon="8.899909924547252"><ele>373.25</ele><time>2026-04-30T14:46:50.999Z</time></trkpt><trkpt lat="45.786876907675214" lon="8.899739367777808"><ele>373.0</ele><time>2026-04-30T14:46:51.999Z</time></trkpt><trkpt lat="45.78690269871136" lon="8.899566811694282"><ele>373.0</ele><time>2026-04-30T14:46:52.999Z</time></trkpt><trkpt lat="45.78692662723357" lon="8.899390298669442"><ele>373.0</ele><time>2026-04-30T14:46:53.999Z</time></trkpt><trkpt lat="45.78695018220825" lon="8.899209310912465"><ele>373.0</ele><time>2026-04-30T14:46:54.999Z</time></trkpt><trkpt lat="45.78697826906033" lon="8.899020682030029"><ele>373.0</ele><time>2026-04-30T14:46:55.999Z</time></trkpt><trkpt lat="45.78700567476259" lon="8.89883403415433"><ele>372.5</ele><time>2026-04-30T14:46:56.999Z</time></trkpt><trkpt lat="45.787028996708635" lon="8.898644242205027"><ele>372.0</ele><time>2026-04-30T14:46:57.999Z</time></trkpt><trkpt lat="45.78702262533251" lon="8.898447330109638"><ele>371.5</ele><time>2026-04-30T14:46:58.999Z</time></trkpt><trkpt lat="45.78702415793944" lon="8.898251906824724"><ele>371.0</ele><time>2026-04-30T14:46:59.999Z</time></trkpt><trkpt lat="45.78701607343315" lon="8.898053132501833"><ele>370.75</ele><time>2026-04-30T14:47:00.999Z</time></trkpt><trkpt lat="45.78700296993566" lon="8.897840638878494"><ele>370.5</ele><time>2026-04-30T14:47:01.999Z</time></trkpt><trkpt lat="45.78698755073694" lon="8.897624099100602"><ele>370.25</ele><time>2026-04-30T14:47:02.999Z</time></trkpt><trkpt lat="45.78697617766655" lon="8.897417120553316"><ele>370.0</ele><time>2026-04-30T14:47:03.999Z</time></trkpt><trkpt lat="45.78696523682529" lon="8.897213588683345"><ele>369.25</ele><time>2026-04-30T14:47:04.999Z</time></trkpt><trkpt lat="45.78695129265513" lon="8.897012823537013"><ele>368.5</ele><time>2026-04-30T14:47:05.999Z</time></trkpt><trkpt lat="45.786937579363396" lon="8.896812427620457"><ele>367.75</ele><time>2026-04-30T14:47:06.999Z</time></trkpt><trkpt lat="45.786924790703914" lon="8.896627088391666"><ele>367.0</ele><time>2026-04-30T14:47:07.999Z</time></trkpt><trkpt lat="45.786910922142674" lon="8.896436226267062"><ele>366.75</ele><time>2026-04-30T14:47:08.999Z</time></trkpt><trkpt lat="45.78689237814599" lon="8.896242354698057"><ele>366.5</ele><time>2026-04-30T14:47:09.999Z</time></trkpt><trkpt lat="45.786876949791065" lon="8.896065979670615"><ele>366.25</ele><time>2026-04-30T14:47:10.999Z</time></trkpt><trkpt lat="45.786869358385836" lon="8.895894771574827"><ele>366.0</ele><time>2026-04-30T14:47:11.999Z</time></trkpt><trkpt lat="45.78686611211463" lon="8.895733655814148"><ele>365.25</ele><time>2026-04-30T14:47:12.999Z</time></trkpt><trkpt lat="45.78687447366734" lon="8.895569035457155"><ele>364.5</ele><time>2026-04-30T14:47:13.999Z</time></trkpt><trkpt lat="45.78689072384766" lon="8.895399882949047"><ele>363.75</ele><time>2026-04-30T14:47:14.999Z</time></trkpt><trkpt lat="45.78691719843408" lon="8.895212955811063"><ele>363.0</ele><time>2026-04-30T14:47:15.999Z</time></trkpt><trkpt lat="45.78695189563203" lon="8.895027370617015"><ele>360.25</ele><time>2026-04-30T14:47:16.999Z</time></trkpt><trkpt lat="45.786988564037166" lon="8.894854006639966"><ele>357.5</ele><time>2026-04-30T14:47:17.999Z</time></trkpt><trkpt lat="45.78702603387886" lon="8.894684951226152"><ele>354.75</ele><time>2026-04-30T14:47:18.999Z</time></trkpt><trkpt lat="45.7870732177124" lon="8.89452350188876"><ele>352.0</ele><time>2026-04-30T14:47:19.999Z</time></trkpt><trkpt lat="45.78714088681192" lon="8.894356933587538"><ele>350.25</ele><time>2026-04-30T14:47:20.999Z</time></trkpt><trkpt lat="45.78722726899632" lon="8.894199248450757"><ele>348.5</ele><time>2026-04-30T14:47:21.999Z</time></trkpt><trkpt lat="45.787332844086734" lon="8.894058491457672"><ele>346.75</ele><time>2026-04-30T14:47:22.999Z</time></trkpt><trkpt lat="45.78744600682599" lon="8.893927956972515"><ele>345.0</ele><time>2026-04-30T14:47:23.999Z</time></trkpt><trkpt lat="45.787556268177354" lon="8.893806196953456"><ele>345.0</ele><time>2026-04-30T14:47:24.999Z</time></trkpt><trkpt lat="45.78766013155976" lon="8.893690660672155"><ele>345.0</ele><time>2026-04-30T14:47:25.999Z</time></trkpt><trkpt lat="45.787767624539285" lon="8.89356957225313"><ele>345.0</ele><time>2026-04-30T14:47:26.999Z</time></trkpt><trkpt lat="45.78787320964213" lon="8.893448039419932"><ele>345.0</ele><time>2026-04-30T14:47:27.999Z</time></trkpt><trkpt lat="45.78797729694112" lon="8.893330184909443"><ele>344.5</ele><time>2026-04-30T14:47:29Z</time></trkpt><trkpt lat="45.788079317258905" lon="8.893211729965039"><ele>344.0</ele><time>2026-04-30T14:47:30Z</time></trkpt><trkpt lat="45.78817938816852" lon="8.89309104636355"><ele>343.5</ele><time>2026-04-30T14:47:31Z</time></trkpt><trkpt lat="45.78828597145571" lon="8.892965886366058"><ele>343.0</ele><time>2026-04-30T14:47:32Z</time></trkpt><trkpt lat="45.78839371431233" lon="8.892838077545544"><ele>343.0</ele><time>2026-04-30T14:47:33Z</time></trkpt><trkpt lat="45.78850516921004" lon="8.89271435169057"><ele>343.0</ele><time>2026-04-30T14:47:34Z</time></trkpt><trkpt lat="45.7885994917416" lon="8.892602544453668"><ele>343.0</ele><time>2026-04-30T14:47:35Z</time></trkpt><trkpt lat="45.788683454393485" lon="8.892504814754771"><ele>343.0</ele><time>2026-04-30T14:47:36Z</time></trkpt><trkpt lat="45.788759150158114" lon="8.892417286892195"><ele>343.79999999999995</ele><time>2026-04-30T14:47:37Z</time></trkpt><trkpt lat="45.78883900247713" lon="8.892324737576917"><ele>344.6</ele><time>2026-04-30T14:47:38Z</time></trkpt><trkpt lat="45.78892127318108" lon="8.892227443582414"><ele>345.4</ele><time>2026-04-30T14:47:39Z</time></trkpt><trkpt lat="45.78900735284745" lon="8.892131731912848"><ele>346.20000000000005</ele><time>2026-04-30T14:47:40Z</time></trkpt><trkpt lat="45.789084352658186" lon="8.892041741844531"><ele>347.0</ele><time>2026-04-30T14:47:41Z</time></trkpt><trkpt lat="45.78915104025003" lon="8.891967106397013"><ele>347.0</ele><time>2026-04-30T14:47:42Z</time></trkpt><trkpt lat="45.78921401757826" lon="8.891896228733087"><ele>347.0</ele><time>2026-04-30T14:47:43Z</time></trkpt><trkpt lat="45.7892697866833" lon="8.891832567672155"><ele>347.0</ele><time>2026-04-30T14:47:44Z</time></trkpt><trkpt lat="45.78932536896806" lon="8.891771242487199"><ele>347.0</ele><time>2026-04-30T14:47:45Z</time></trkpt><trkpt lat="45.78937699259646" lon="8.891712204524593"><ele>347.0</ele><time>2026-04-30T14:47:46Z</time></trkpt><trkpt lat="45.78943811983689" lon="8.891644570916446"><ele>347.0</ele><time>2026-04-30T14:47:47Z</time></trkpt><trkpt lat="45.78949744763798" lon="8.891572396687687"><ele>347.0</ele><time>2026-04-30T14:47:48Z</time></trkpt><trkpt lat="45.78955359643387" lon="8.891507019466955"><ele>348.1666666666667</ele><time>2026-04-30T14:47:49Z</time></trkpt><trkpt lat="45.78960987237224" lon="8.891444816398096"><ele>349.33333333333337</ele><time>2026-04-30T14:47:50Z</time></trkpt><trkpt lat="45.789661725467674" lon="8.891384022595036"><ele>350.5</ele><time>2026-04-30T14:47:51Z</time></trkpt><trkpt lat="45.7897116941147" lon="8.891324993655209"><ele>351.6666666666667</ele><time>2026-04-30T14:47:52Z</time></trkpt><trkpt lat="45.78979692725299" lon="8.891218707529438"><ele>352.8333333333333</ele><time>2026-04-30T14:47:54Z</time></trkpt><trkpt lat="45.78984877448707" lon="8.891134724362699"><ele>354.0</ele><time>2026-04-30T14:47:56Z</time></trkpt><trkpt lat="45.789902977436505" lon="8.891073338969962"><ele>354.0</ele><time>2026-04-30T14:47:58Z</time></trkpt><trkpt lat="45.78997841494928" lon="8.8910020117096"><ele>354.0</ele><time>2026-04-30T14:48:04Z</time></trkpt><trkpt lat="45.790058791987306" lon="8.890956690621856"><ele>354.0</ele><time>2026-04-30T14:48:06Z</time></trkpt><trkpt lat="45.79013037108213" lon="8.890886067014524"><ele>354.0</ele><time>2026-04-30T14:48:09Z</time></trkpt><trkpt lat="45.79020045640471" lon="8.89073891955528"><ele>354.0</ele><time>2026-04-30T14:48:11Z</time></trkpt><trkpt lat="45.790284138747374" lon="8.890628196839884"><ele>354.4</ele><time>2026-04-30T14:48:13Z</time></trkpt><trkpt lat="45.79036870157901" lon="8.890531942985882"><ele>354.79999999999995</ele><time>2026-04-30T14:48:15Z</time></trkpt><trkpt lat="45.7904674984785" lon="8.890421342258296"><ele>355.20000000000005</ele><time>2026-04-30T14:48:17Z</time></trkpt><trkpt lat="45.79052001098938" lon="8.890364756253396"><ele>355.6</ele><time>2026-04-30T14:48:18Z</time></trkpt><trkpt lat="45.79057288387344" lon="8.890308372001211"><ele>356.0</ele><time>2026-04-30T14:48:19Z</time></trkpt><trkpt lat="45.790660565369166" lon="8.890216417016152"><ele>356.0</ele><time>2026-04-30T14:48:21Z</time></trkpt><trkpt lat="45.790735256585734" lon="8.890135521055942"><ele>356.0</ele><time>2026-04-30T14:48:22.999Z</time></trkpt><trkpt lat="45.79082499434893" lon="8.890030610307033"><ele>356.0</ele><time>2026-04-30T14:48:24.999Z</time></trkpt><trkpt lat="45.79091853038606" lon="8.88992739107265"><ele>356.0</ele><time>2026-04-30T14:48:26.999Z</time></trkpt><trkpt lat="45.79096619233065" lon="8.889867405387921"><ele>356.0</ele><time>2026-04-30T14:48:27.999Z</time></trkpt><trkpt lat="45.791030518553896" lon="8.889793473749632"><ele>356.33333333333337</ele><time>2026-04-30T14:48:28.999Z</time></trkpt><trkpt lat="45.79109451571773" lon="8.88972789610617"><ele>356.6666666666667</ele><time>2026-04-30T14:48:29.999Z</time></trkpt><trkpt lat="45.79115406063448" lon="8.889663295391498"><ele>357.0</ele><time>2026-04-30T14:48:30.999Z</time></trkpt><trkpt lat="45.791211578438066" lon="8.889599014031962"><ele>357.3333333333333</ele><time>2026-04-30T14:48:31.999Z</time></trkpt><trkpt lat="45.791265409093135" lon="8.889537022005614"><ele>357.66666666666663</ele><time>2026-04-30T14:48:32.999Z</time></trkpt><trkpt lat="45.79131514618657" lon="8.889479867178995"><ele>358.0</ele><time>2026-04-30T14:48:33.999Z</time></trkpt><trkpt lat="45.79140406288172" lon="8.889387342938969"><ele>358.0</ele><time>2026-04-30T14:48:35.999Z</time></trkpt><trkpt lat="45.791470874627706" lon="8.889327033379"><ele>358.0</ele><time>2026-04-30T14:48:37.999Z</time></trkpt><trkpt lat="45.79154322934567" lon="8.889280244216955"><ele>358.0</ele><time>2026-04-30T14:48:39.999Z</time></trkpt><trkpt lat="45.791653567190224" lon="8.889171089574544"><ele>358.0</ele><time>2026-04-30T14:48:41.999Z</time></trkpt><trkpt lat="45.79172262055786" lon="8.889071408498111"><ele>358.0</ele><time>2026-04-30T14:48:42.999Z</time></trkpt><trkpt lat="45.79179348810859" lon="8.888964281751464"><ele>358.25</ele><time>2026-04-30T14:48:43.999Z</time></trkpt><trkpt lat="45.791882630762615" lon="8.888856373041628"><ele>358.5</ele><time>2026-04-30T14:48:44.999Z</time></trkpt><trkpt lat="45.79199172394181" lon="8.88874071589904"><ele>358.75</ele><time>2026-04-30T14:48:45.999Z</time></trkpt><trkpt lat="45.792095094562036" lon="8.88863091503013"><ele>359.0</ele><time>2026-04-30T14:48:46.999Z</time></trkpt><trkpt lat="45.792181944111704" lon="8.888541410337659"><ele>359.0</ele><time>2026-04-30T14:48:47.999Z</time></trkpt><trkpt lat="45.79225885117738" lon="8.888455321154954"><ele>359.0</ele><time>2026-04-30T14:48:48.999Z</time></trkpt><trkpt lat="45.792350882587755" lon="8.888373714473108"><ele>359.0</ele><time>2026-04-30T14:48:49.999Z</time></trkpt><trkpt lat="45.792376753352016" lon="8.888282441241262"><ele>359.0</ele><time>2026-04-30T14:48:50.999Z</time></trkpt><trkpt lat="45.79245355421327" lon="8.888199730530738"><ele>359.0</ele><time>2026-04-30T14:48:51.999Z</time></trkpt><trkpt lat="45.79253076023517" lon="8.888115913176604"><ele>359.2</ele><time>2026-04-30T14:48:52.999Z</time></trkpt><trkpt lat="45.79260761441719" lon="8.888027389799857"><ele>359.4</ele><time>2026-04-30T14:48:53.999Z</time></trkpt><trkpt lat="45.792680450878" lon="8.88794681334306"><ele>359.6</ele><time>2026-04-30T14:48:54.999Z</time></trkpt><trkpt lat="45.79275404992181" lon="8.887856885667548"><ele>359.8</ele><time>2026-04-30T14:48:55.999Z</time></trkpt><trkpt lat="45.792831821580535" lon="8.887764955003393"><ele>360.0</ele><time>2026-04-30T14:48:56.999Z</time></trkpt><trkpt lat="45.79291122538634" lon="8.887674725951406"><ele>361.0</ele><time>2026-04-30T14:48:57.999Z</time></trkpt><trkpt lat="45.7929864095669" lon="8.887586655975426"><ele>362.0</ele><time>2026-04-30T14:48:58.999Z</time></trkpt><trkpt lat="45.793057794972164" lon="8.887503866882053"><ele>363.0</ele><time>2026-04-30T14:48:59.999Z</time></trkpt><trkpt lat="45.79314668077868" lon="8.887396206231987"><ele>364.0</ele><time>2026-04-30T14:49:00.999Z</time></trkpt><trkpt lat="45.793265024227985" lon="8.887257210318772"><ele>364.0</ele><time>2026-04-30T14:49:01.999Z</time></trkpt><trkpt lat="45.793389256500376" lon="8.887119824366625"><ele>364.0</ele><time>2026-04-30T14:49:02.999Z</time></trkpt><trkpt lat="45.793507987302185" lon="8.88699512490616"><ele>364.0</ele><time>2026-04-30T14:49:03.999Z</time></trkpt><trkpt lat="45.79360406457343" lon="8.88688629466129"><ele>364.0</ele><time>2026-04-30T14:49:04.999Z</time></trkpt><trkpt lat="45.79369361415852" lon="8.88678232935905"><ele>363.6</ele><time>2026-04-30T14:49:05.999Z</time></trkpt><trkpt lat="45.793778087856616" lon="8.886681297905092"><ele>363.2</ele><time>2026-04-30T14:49:06.999Z</time></trkpt><trkpt lat="45.793868486743364" lon="8.88657180358583"><ele>362.8</ele><time>2026-04-30T14:49:07.999Z</time></trkpt><trkpt lat="45.793956327019224" lon="8.886474812824154"><ele>362.40000000000003</ele><time>2026-04-30T14:49:08.999Z</time></trkpt><trkpt lat="45.79403726110704" lon="8.886378683863107"><ele>362.0</ele><time>2026-04-30T14:49:09.999Z</time></trkpt><trkpt lat="45.79411217508985" lon="8.886300221108923"><ele>362.0</ele><time>2026-04-30T14:49:10.999Z</time></trkpt><trkpt lat="45.79418991440107" lon="8.886209055887894"><ele>362.0</ele><time>2026-04-30T14:49:11.999Z</time></trkpt><trkpt lat="45.794265175036756" lon="8.88611640139581"><ele>362.0</ele><time>2026-04-30T14:49:12.999Z</time></trkpt><trkpt lat="45.79433646726535" lon="8.886015842044753"><ele>362.0</ele><time>2026-04-30T14:49:13.999Z</time></trkpt><trkpt lat="45.7944199358899" lon="8.885912698111857"><ele>362.0</ele><time>2026-04-30T14:49:14.999Z</time></trkpt><trkpt lat="45.79451701910234" lon="8.885803137517131"><ele>363.0</ele><time>2026-04-30T14:49:15.999Z</time></trkpt><trkpt lat="45.794646649747946" lon="8.885679509864541"><ele>364.0</ele><time>2026-04-30T14:49:16.999Z</time></trkpt><trkpt lat="45.79473649609893" lon="8.88555141922791"><ele>365.0</ele><time>2026-04-30T14:49:17.999Z</time></trkpt><trkpt lat="45.794827481970444" lon="8.88545622681035"><ele>366.0</ele><time>2026-04-30T14:49:18.999Z</time></trkpt><trkpt lat="45.79489453751025" lon="8.885374310501096"><ele>366.0</ele><time>2026-04-30T14:49:19.999Z</time></trkpt><trkpt lat="45.79495978151097" lon="8.885296160072231"><ele>366.0</ele><time>2026-04-30T14:49:20.999Z</time></trkpt><trkpt lat="45.79502081759082" lon="8.885231609048368"><ele>366.0</ele><time>2026-04-30T14:49:21.999Z</time></trkpt><trkpt lat="45.795100328375355" lon="8.885144592037923"><ele>366.0</ele><time>2026-04-30T14:49:23.999Z</time></trkpt><trkpt lat="45.79516842906804" lon="8.885049151235181"><ele>366.0</ele><time>2026-04-30T14:49:33.999Z</time></trkpt><trkpt lat="45.79526913533249" lon="8.884938840859565"><ele>367.20000000000005</ele><time>2026-04-30T14:49:36Z</time></trkpt><trkpt lat="45.795361626428104" lon="8.884835615212971"><ele>368.40000000000003</ele><time>2026-04-30T14:49:38Z</time></trkpt><trkpt lat="45.79543050368703" lon="8.884754027702325"><ele>369.6</ele><time>2026-04-30T14:49:40Z</time></trkpt><trkpt lat="45.79549464432867" lon="8.884688612365794"><ele>370.8</ele><time>2026-04-30T14:49:42Z</time></trkpt><trkpt lat="45.79557716499368" lon="8.884595070420898"><ele>372.0</ele><time>2026-04-30T14:49:44Z</time></trkpt><trkpt lat="45.79562884596302" lon="8.884534565681362"><ele>372.0</ele><time>2026-04-30T14:49:45Z</time></trkpt><trkpt lat="45.79570957552813" lon="8.884435602754955"><ele>372.0</ele><time>2026-04-30T14:49:47Z</time></trkpt><trkpt lat="45.79578327937469" lon="8.884379345281335"><ele>372.0</ele><time>2026-04-30T14:49:49Z</time></trkpt><trkpt lat="45.795842801611634" lon="8.8843116946059"><ele>372.0</ele><time>2026-04-30T14:49:51Z</time></trkpt><trkpt lat="45.79593655167367" lon="8.884204185332583"><ele>372.0</ele><time>2026-04-30T14:49:53Z</time></trkpt><trkpt lat="45.796023654252274" lon="8.884104385006392"><ele>371.1666666666667</ele><time>2026-04-30T14:49:55Z</time></trkpt><trkpt lat="45.796080454447754" lon="8.88403993751049"><ele>370.3333333333333</ele><time>2026-04-30T14:49:57Z</time></trkpt><trkpt lat="45.79612306620256" lon="8.883967651212474"><ele>369.5</ele><time>2026-04-30T14:50:00Z</time></trkpt><trkpt lat="45.79621768092737" lon="8.883883927194951"><ele>368.66666666666663</ele><time>2026-04-30T14:50:09Z</time></trkpt><trkpt lat="45.796282928622894" lon="8.883803935964"><ele>367.8333333333333</ele><time>2026-04-30T14:50:10Z</time></trkpt><trkpt lat="45.79634412892129" lon="8.883734544782508"><ele>367.0</ele><time>2026-04-30T14:50:11Z</time></trkpt><trkpt lat="45.796406304747016" lon="8.883668074277582"><ele>367.0</ele><time>2026-04-30T14:50:12Z</time></trkpt><trkpt lat="45.79646532494011" lon="8.88360005362236"><ele>367.0</ele><time>2026-04-30T14:50:13Z</time></trkpt><trkpt lat="45.79652185508803" lon="8.883533623062698"><ele>367.0</ele><time>2026-04-30T14:50:14Z</time></trkpt><trkpt lat="45.79657706918614" lon="8.88346568070029"><ele>367.0</ele><time>2026-04-30T14:50:15Z</time></trkpt><trkpt lat="45.7966347363102" lon="8.883401433854543"><ele>367.0</ele><time>2026-04-30T14:50:16Z</time></trkpt><trkpt lat="45.79670137841503" lon="8.883327917797335"><ele>367.0</ele><time>2026-04-30T14:50:17Z</time></trkpt><trkpt lat="45.79677305444608" lon="8.88323659895005"><ele>366.40000000000003</ele><time>2026-04-30T14:50:18Z</time></trkpt><trkpt lat="45.79684968516801" lon="8.883158050935116"><ele>365.8</ele><time>2026-04-30T14:50:19Z</time></trkpt><trkpt lat="45.79692157999542" lon="8.883070560911664"><ele>365.2</ele><time>2026-04-30T14:50:20Z</time></trkpt><trkpt lat="45.79699116240607" lon="8.882991783213862"><ele>364.6</ele><time>2026-04-30T14:50:21Z</time></trkpt><trkpt lat="45.79706228360449" lon="8.882910888370303"><ele>364.0</ele><time>2026-04-30T14:50:22Z</time></trkpt><trkpt lat="45.797129657727055" lon="8.882837837644896"><ele>364.0</ele><time>2026-04-30T14:50:23Z</time></trkpt><trkpt lat="45.79719566202484" lon="8.882758777277473"><ele>364.0</ele><time>2026-04-30T14:50:24Z</time></trkpt><trkpt lat="45.79725910220928" lon="8.882682741372262"><ele>364.0</ele><time>2026-04-30T14:50:25Z</time></trkpt><trkpt lat="45.79732337581893" lon="8.88261047584524"><ele>364.0</ele><time>2026-04-30T14:50:26Z</time></trkpt><trkpt lat="45.79738111868689" lon="8.882538451460983"><ele>364.0</ele><time>2026-04-30T14:50:27Z</time></trkpt><trkpt lat="45.7974345191974" lon="8.882472041099728"><ele>364.0</ele><time>2026-04-30T14:50:28Z</time></trkpt><trkpt lat="45.79748825551964" lon="8.88240987640491"><ele>363.4</ele><time>2026-04-30T14:50:29Z</time></trkpt><trkpt lat="45.79754116299874" lon="8.882349985732352"><ele>362.79999999999995</ele><time>2026-04-30T14:50:30Z</time></trkpt><trkpt lat="45.79759359337052" lon="8.882284583945099"><ele>362.20000000000005</ele><time>2026-04-30T14:50:31Z</time></trkpt><trkpt lat="45.79767733266969" lon="8.88221572420023"><ele>361.6</ele><time>2026-04-30T14:50:31.999Z</time></trkpt><trkpt lat="45.79777041979803" lon="8.882109462414824"><ele>361.0</ele><time>2026-04-30T14:50:32.999Z</time></trkpt><trkpt lat="45.79784646233523" lon="8.881995696612394"><ele>360.66666666666663</ele><time>2026-04-30T14:50:33.999Z</time></trkpt><trkpt lat="45.79792057010456" lon="8.881917571813716"><ele>360.3333333333333</ele><time>2026-04-30T14:50:34.999Z</time></trkpt><trkpt lat="45.797985129589826" lon="8.881843852694221"><ele>360.0</ele><time>2026-04-30T14:50:35.999Z</time></trkpt><trkpt lat="45.79804695736092" lon="8.88177113788704"><ele>359.6666666666667</ele><time>2026-04-30T14:50:36.999Z</time></trkpt><trkpt lat="45.79811387599077" lon="8.881693384745617"><ele>359.33333333333337</ele><time>2026-04-30T14:50:37.999Z</time></trkpt><trkpt lat="45.79818166064318" lon="8.881611243843501"><ele>359.0</ele><time>2026-04-30T14:50:38.999Z</time></trkpt><trkpt lat="45.7982479369017" lon="8.881538064591387"><ele>358.6666666666667</ele><time>2026-04-30T14:50:39.999Z</time></trkpt><trkpt lat="45.7983072862821" lon="8.88146712085228"><ele>358.33333333333337</ele><time>2026-04-30T14:50:40.999Z</time></trkpt><trkpt lat="45.798363125648756" lon="8.88141089584332"><ele>358.0</ele><time>2026-04-30T14:50:41.999Z</time></trkpt><trkpt lat="45.79845638257554" lon="8.88130003017073"><ele>357.6666666666667</ele><time>2026-04-30T14:50:43.999Z</time></trkpt><trkpt lat="45.798515702094896" lon="8.88125855997721"><ele>357.3333333333333</ele><time>2026-04-30T14:50:44.999Z</time></trkpt><trkpt lat="45.79856286032444" lon="8.881176421694965"><ele>357.0</ele><time>2026-04-30T14:50:45.999Z</time></trkpt><trkpt lat="45.79862355877378" lon="8.881109121373223"><ele>356.8333333333333</ele><time>2026-04-30T14:50:46.999Z</time></trkpt><trkpt lat="45.7986870950562" lon="8.881036597038944"><ele>356.6666666666667</ele><time>2026-04-30T14:50:47.999Z</time></trkpt><trkpt lat="45.79875011475604" lon="8.88096061222562"><ele>356.5</ele><time>2026-04-30T14:50:48.999Z</time></trkpt><trkpt lat="45.79882396462468" lon="8.880904969495912"><ele>356.33333333333337</ele><time>2026-04-30T14:50:49.999Z</time></trkpt><trkpt lat="45.798892043966156" lon="8.880826735902538"><ele>356.1666666666667</ele><time>2026-04-30T14:50:50.999Z</time></trkpt><trkpt lat="45.798955714384746" lon="8.880754630750083"><ele>356.0</ele><time>2026-04-30T14:50:51.999Z</time></trkpt><trkpt lat="45.79901348957189" lon="8.880689302712858"><ele>355.83333333333337</ele><time>2026-04-30T14:50:52.999Z</time></trkpt><trkpt lat="45.79906697803359" lon="8.880628821627905"><ele>355.6666666666667</ele><time>2026-04-30T14:50:53.999Z</time></trkpt><trkpt lat="45.79910576382094" lon="8.88055260747225"><ele>355.5</ele><time>2026-04-30T14:50:54.999Z</time></trkpt><trkpt lat="45.79921272758819" lon="8.880445318617728"><ele>355.3333333333333</ele><time>2026-04-30T14:50:56.999Z</time></trkpt><trkpt lat="45.79927962152855" lon="8.88040824423546"><ele>355.16666666666663</ele><time>2026-04-30T14:50:57.999Z</time></trkpt><trkpt lat="45.79935054226586" lon="8.880386021636989"><ele>355.0</ele><time>2026-04-30T14:50:58.999Z</time></trkpt><trkpt lat="45.79943312513447" lon="8.8803440164236"><ele>354.6</ele><time>2026-04-30T14:51:00.999Z</time></trkpt><trkpt lat="45.79948762801506" lon="8.880283193910007"><ele>354.2</ele><time>2026-04-30T14:51:02.999Z</time></trkpt><trkpt lat="45.799532091013475" lon="8.880194142548481"><ele>353.79999999999995</ele><time>2026-04-30T14:51:04.999Z</time></trkpt><trkpt lat="45.79958763244617" lon="8.88007458364177"><ele>353.4</ele><time>2026-04-30T14:51:06.999Z</time></trkpt><trkpt lat="45.799648767762974" lon="8.879919335570136"><ele>353.0</ele><time>2026-04-30T14:51:08.999Z</time></trkpt><trkpt lat="45.799686637292716" lon="8.879761827616601"><ele>352.79999999999995</ele><time>2026-04-30T14:51:10.999Z</time></trkpt><trkpt lat="45.79971333830408" lon="8.879606107405523"><ele>352.6</ele><time>2026-04-30T14:51:12.999Z</time></trkpt><trkpt lat="45.799741531263045" lon="8.879462693718517"><ele>352.4</ele><time>2026-04-30T14:51:14.999Z</time></trkpt><trkpt lat="45.79976678892245" lon="8.879325121011384"><ele>352.20000000000005</ele><time>2026-04-30T14:51:16.999Z</time></trkpt><trkpt lat="45.79979415899846" lon="8.879185075288262"><ele>352.0</ele><time>2026-04-30T14:51:18.999Z</time></trkpt><trkpt lat="45.7998151468511" lon="8.879075450284452"><ele>352.0</ele><time>2026-04-30T14:51:20.999Z</time></trkpt><trkpt lat="45.79983473418347" lon="8.878965986980697"><ele>352.0</ele><time>2026-04-30T14:51:22.999Z</time></trkpt><trkpt lat="45.799858999655285" lon="8.878862517091973"><ele>352.0</ele><time>2026-04-30T14:51:24.999Z</time></trkpt><trkpt lat="45.79989087792338" lon="8.878747253291353"><ele>352.0</ele><time>2026-04-30T14:51:26.999Z</time></trkpt><trkpt lat="45.79993600735005" lon="8.878608584346457"><ele>352.0</ele><time>2026-04-30T14:51:28.999Z</time></trkpt><trkpt lat="45.80000198499035" lon="8.878491001580239"><ele>352.0</ele><time>2026-04-30T14:51:30.999Z</time></trkpt><trkpt lat="45.800055615887466" lon="8.87836395986296"><ele>352.0</ele><time>2026-04-30T14:51:32.999Z</time></trkpt><trkpt lat="45.80005835146019" lon="8.878202780089381"><ele>352.0</ele><time>2026-04-30T14:51:34.999Z</time></trkpt><trkpt lat="45.79997903664971" lon="8.878089570613252"><ele>352.0</ele><time>2026-04-30T14:51:36.999Z</time></trkpt><trkpt lat="45.79988100775249" lon="8.878047924033423"><ele>352.0</ele><time>2026-04-30T14:51:38.999Z</time></trkpt><trkpt lat="45.79978663393514" lon="8.878001398691207"><ele>352.0</ele><time>2026-04-30T14:51:41Z</time></trkpt><trkpt lat="45.799685442622035" lon="8.877957445731855"><ele>352.0</ele><time>2026-04-30T14:51:43Z</time></trkpt><trkpt lat="45.799585047961195" lon="8.877916926549771"><ele>352.0</ele><time>2026-04-30T14:51:45Z</time></trkpt><trkpt lat="45.799470233007476" lon="8.877872566379684"><ele>352.0</ele><time>2026-04-30T14:51:47Z</time></trkpt><trkpt lat="45.79938600672377" lon="8.877847080363672"><ele>352.0</ele><time>2026-04-30T14:51:48Z</time></trkpt><trkpt lat="45.79930758605576" lon="8.877810043112323"><ele>352.20000000000005</ele><time>2026-04-30T14:51:49Z</time></trkpt><trkpt lat="45.79922801578209" lon="8.877781401502302"><ele>352.4</ele><time>2026-04-30T14:51:50Z</time></trkpt><trkpt lat="45.79914218393008" lon="8.877742421873107"><ele>352.6</ele><time>2026-04-30T14:51:51Z</time></trkpt><trkpt lat="45.79905443530867" lon="8.8777101064023"><ele>352.79999999999995</ele><time>2026-04-30T14:51:52Z</time></trkpt><trkpt lat="45.79896457785834" lon="8.877624746903772"><ele>353.0</ele><time>2026-04-30T14:51:53Z</time></trkpt><trkpt lat="45.798874358860836" lon="8.877541287791596"><ele>352.0</ele><time>2026-04-30T14:51:54Z</time></trkpt><trkpt lat="45.798779387399996" lon="8.877436866639567"><ele>351.0</ele><time>2026-04-30T14:51:55Z</time></trkpt><trkpt lat="45.79868807553812" lon="8.877321176793435"><ele>350.0</ele><time>2026-04-30T14:51:56Z</time></trkpt><trkpt lat="45.79858551681428" lon="8.877221591506068"><ele>349.0</ele><time>2026-04-30T14:51:57Z</time></trkpt><trkpt lat="45.798505967991716" lon="8.877108793001618"><ele>348.0</ele><time>2026-04-30T14:51:58Z</time></trkpt><trkpt lat="45.79844397467753" lon="8.876993253310873"><ele>347.0</ele><time>2026-04-30T14:51:59Z</time></trkpt><trkpt lat="45.79838047973738" lon="8.876883565115556"><ele>346.0</ele><time>2026-04-30T14:52:00Z</time></trkpt><trkpt lat="45.798334470449525" lon="8.87676506783759"><ele>345.0</ele><time>2026-04-30T14:52:01Z</time></trkpt><trkpt lat="45.798309278972916" lon="8.876636501829106"><ele>344.0</ele><time>2026-04-30T14:52:02Z</time></trkpt><trkpt lat="45.798268450508274" lon="8.876512447415953"><ele>344.0</ele><time>2026-04-30T14:52:03Z</time></trkpt><trkpt lat="45.79823552920426" lon="8.876381582488923"><ele>344.0</ele><time>2026-04-30T14:52:04Z</time></trkpt><trkpt lat="45.79818050336672" lon="8.876240390347203"><ele>344.0</ele><time>2026-04-30T14:52:05Z</time></trkpt><trkpt lat="45.79811439593378" lon="8.876097929842178"><ele>344.0</ele><time>2026-04-30T14:52:06Z</time></trkpt><trkpt lat="45.7980348540134" lon="8.875950339826451"><ele>343.0</ele><time>2026-04-30T14:52:07Z</time></trkpt><trkpt lat="45.7979483512543" lon="8.875801329217397"><ele>342.0</ele><time>2026-04-30T14:52:08Z</time></trkpt><trkpt lat="45.79786297624822" lon="8.875670111112216"><ele>341.0</ele><time>2026-04-30T14:52:09Z</time></trkpt><trkpt lat="45.79776940714659" lon="8.87559065731317"><ele>340.0</ele><time>2026-04-30T14:52:10Z</time></trkpt><trkpt lat="45.79768320687515" lon="8.875505320634879"><ele>338.0</ele><time>2026-04-30T14:52:11Z</time></trkpt><trkpt lat="45.79760339985179" lon="8.875430719786907"><ele>336.0</ele><time>2026-04-30T14:52:12Z</time></trkpt><trkpt lat="45.79753905123191" lon="8.875338244648766"><ele>334.0</ele><time>2026-04-30T14:52:13Z</time></trkpt><trkpt lat="45.79750387255197" lon="8.875221344728693"><ele>332.0</ele><time>2026-04-30T14:52:14Z</time></trkpt><trkpt lat="45.79750748553336" lon="8.875097485499493"><ele>330.0</ele><time>2026-04-30T14:52:15Z</time></trkpt><trkpt lat="45.79754428435096" lon="8.874981515977808"><ele>329.6</ele><time>2026-04-30T14:52:16Z</time></trkpt><trkpt lat="45.797605158040525" lon="8.874886666987654"><ele>329.2</ele><time>2026-04-30T14:52:17Z</time></trkpt><trkpt lat="45.797687325639885" lon="8.874820392922256"><ele>328.79999999999995</ele><time>2026-04-30T14:52:18Z</time></trkpt><trkpt lat="45.797785466925546" lon="8.874792916969131"><ele>328.4</ele><time>2026-04-30T14:52:19Z</time></trkpt><trkpt lat="45.79789360729662" lon="8.874804633967912"><ele>328.0</ele><time>2026-04-30T14:52:20Z</time></trkpt><trkpt lat="45.798010743131016" lon="8.87482111730434"><ele>328.0</ele><time>2026-04-30T14:52:21Z</time></trkpt><trkpt lat="45.798133312674615" lon="8.874820887098144"><ele>328.0</ele><time>2026-04-30T14:52:22Z</time></trkpt><trkpt lat="45.798249588561205" lon="8.87481818718497"><ele>328.0</ele><time>2026-04-30T14:52:23Z</time></trkpt><trkpt lat="45.79836046308725" lon="8.874818688533932"><ele>328.0</ele><time>2026-04-30T14:52:24Z</time></trkpt><trkpt lat="45.79846951366635" lon="8.87481780571236"><ele>329.79999999999995</ele><time>2026-04-30T14:52:25Z</time></trkpt><trkpt lat="45.798575534798005" lon="8.874809360074444"><ele>331.6</ele><time>2026-04-30T14:52:26Z</time></trkpt><trkpt lat="45.79867999579172" lon="8.87478447209531"><ele>333.4</ele><time>2026-04-30T14:52:27Z</time></trkpt><trkpt lat="45.79878028584866" lon="8.874730288974142"><ele>335.20000000000005</ele><time>2026-04-30T14:52:28Z</time></trkpt><trkpt lat="45.79888930783539" lon="8.874658023736346"><ele>337.0</ele><time>2026-04-30T14:52:29Z</time></trkpt><trkpt lat="45.79900960579653" lon="8.874584719575264"><ele>337.0</ele><time>2026-04-30T14:52:30Z</time></trkpt><trkpt lat="45.799132358889125" lon="8.874510191119873"><ele>337.0</ele><time>2026-04-30T14:52:31Z</time></trkpt><trkpt lat="45.79925492517722" lon="8.874437788176657"><ele>337.0</ele><time>2026-04-30T14:52:32Z</time></trkpt><trkpt lat="45.7993766509577" lon="8.874364903379476"><ele>337.0</ele><time>2026-04-30T14:52:33Z</time></trkpt><trkpt lat="45.79949006409375" lon="8.874297287019182"><ele>334.0</ele><time>2026-04-30T14:52:34Z</time></trkpt><trkpt lat="45.79959528368347" lon="8.874227307763727"><ele>331.0</ele><time>2026-04-30T14:52:35Z</time></trkpt><trkpt lat="45.799689312208905" lon="8.874139369147384"><ele>328.0</ele><time>2026-04-30T14:52:36Z</time></trkpt><trkpt lat="45.7997681883931" lon="8.874033546727288"><ele>325.0</ele><time>2026-04-30T14:52:37Z</time></trkpt><trkpt lat="45.799847043207066" lon="8.87391649360651"><ele>325.0</ele><time>2026-04-30T14:52:38Z</time></trkpt><trkpt lat="45.79993252575354" lon="8.873798055350939"><ele>325.0</ele><time>2026-04-30T14:52:39Z</time></trkpt><trkpt lat="45.800018815962645" lon="8.87368525764009"><ele>325.0</ele><time>2026-04-30T14:52:40Z</time></trkpt><trkpt lat="45.80009787466779" lon="8.873577089754697"><ele>325.0</ele><time>2026-04-30T14:52:40.999Z</time></trkpt><trkpt lat="45.80017360822126" lon="8.873471390083102"><ele>324.0</ele><time>2026-04-30T14:52:41.999Z</time></trkpt><trkpt lat="45.80024579849393" lon="8.873370067938385"><ele>323.0</ele><time>2026-04-30T14:52:42.999Z</time></trkpt><trkpt lat="45.80031706565207" lon="8.8732710815072"><ele>322.0</ele><time>2026-04-30T14:52:43.999Z</time></trkpt><trkpt lat="45.80038735051721" lon="8.873172103237879"><ele>321.0</ele><time>2026-04-30T14:52:44.999Z</time></trkpt><trkpt lat="45.80045901419099" lon="8.873076462323809"><ele>320.0</ele><time>2026-04-30T14:52:45.999Z</time></trkpt><trkpt lat="45.80053389724805" lon="8.872986509671607"><ele>320.0</ele><time>2026-04-30T14:52:46.999Z</time></trkpt><trkpt lat="45.800622536446994" lon="8.872927126532165"><ele>320.0</ele><time>2026-04-30T14:52:47.999Z</time></trkpt><trkpt lat="45.80071713098663" lon="8.872917861350963"><ele>320.0</ele><time>2026-04-30T14:52:48.999Z</time></trkpt><trkpt lat="45.80081684413407" lon="8.872945515497449"><ele>320.0</ele><time>2026-04-30T14:52:49.999Z</time></trkpt><trkpt lat="45.80091683143715" lon="8.872995709804199"><ele>320.0</ele><time>2026-04-30T14:52:50.999Z</time></trkpt><trkpt lat="45.80101240366285" lon="8.873052283034196"><ele>317.5</ele><time>2026-04-30T14:52:51.999Z</time></trkpt><trkpt lat="45.80110303285439" lon="8.873094949062773"><ele>315.0</ele><time>2026-04-30T14:52:52.999Z</time></trkpt><trkpt lat="45.80118260165124" lon="8.873117896591866"><ele>312.5</ele><time>2026-04-30T14:52:53.999Z</time></trkpt><trkpt lat="45.8012694935452" lon="8.873102028124144"><ele>310.0</ele><time>2026-04-30T14:52:55.999Z</time></trkpt><trkpt lat="45.801331609099066" lon="8.87305565186793"><ele>307.5</ele><time>2026-04-30T14:53:01.999Z</time></trkpt><trkpt lat="45.80138252366309" lon="8.873000040927494"><ele>305.0</ele><time>2026-04-30T14:53:03.999Z</time></trkpt><trkpt lat="45.80142826330833" lon="8.872907134923068"><ele>305.0</ele><time>2026-04-30T14:53:06.999Z</time></trkpt><trkpt lat="45.8014873543253" lon="8.872704105260006"><ele>305.0</ele><time>2026-04-30T14:53:08.999Z</time></trkpt><trkpt lat="45.801513777764384" lon="8.872586876229171"><ele>305.0</ele><time>2026-04-30T14:53:09.999Z</time></trkpt><trkpt lat="45.80153380294716" lon="8.872487961183936"><ele>305.0</ele><time>2026-04-30T14:53:10.999Z</time></trkpt><trkpt lat="45.80155732263415" lon="8.87236412281044"><ele>305.0</ele><time>2026-04-30T14:53:12.999Z</time></trkpt><trkpt lat="45.80157205333544" lon="8.872259929027727"><ele>305.0</ele><time>2026-04-30T14:53:15.999Z</time></trkpt><trkpt lat="45.80159173274646" lon="8.87217133001373"><ele>305.0</ele><time>2026-04-30T14:53:17.999Z</time></trkpt><trkpt lat="45.80163221518883" lon="8.87209431252839"><ele>305.0</ele><time>2026-04-30T14:53:24.999Z</time></trkpt><trkpt lat="45.801715295908714" lon="8.872007002655442"><ele>305.0</ele><time>2026-04-30T14:53:26.999Z</time></trkpt><trkpt lat="45.80177066959094" lon="8.871958036389225"><ele>305.0</ele><time>2026-04-30T14:53:27.999Z</time></trkpt><trkpt lat="45.80181596421771" lon="8.87189056894468"><ele>305.0</ele><time>2026-04-30T14:53:28.999Z</time></trkpt><trkpt lat="45.80183800412597" lon="8.871802205607494"><ele>305.0</ele><time>2026-04-30T14:53:29.999Z</time></trkpt><trkpt lat="45.80182702404246" lon="8.871692223868509"><ele>305.0</ele><time>2026-04-30T14:53:30.999Z</time></trkpt><trkpt lat="45.801779807889496" lon="8.871605275090625"><ele>305.0</ele><time>2026-04-30T14:53:31.999Z</time></trkpt><trkpt lat="45.801705438574565" lon="8.87154104099105"><ele>305.0</ele><time>2026-04-30T14:53:32.999Z</time></trkpt><trkpt lat="45.80161953557411" lon="8.871467637975803"><ele>305.0</ele><time>2026-04-30T14:53:33.999Z</time></trkpt><trkpt lat="45.80154789167935" lon="8.871340875840756"><ele>305.0</ele><time>2026-04-30T14:53:34.999Z</time></trkpt><trkpt lat="45.80149178436572" lon="8.871174829605604"><ele>305.0</ele><time>2026-04-30T14:53:35.999Z</time></trkpt><trkpt lat="45.80144592029878" lon="8.870991924540348"><ele>305.0</ele><time>2026-04-30T14:53:36.999Z</time></trkpt><trkpt lat="45.80141390439967" lon="8.870802741230639"><ele>305.0</ele><time>2026-04-30T14:53:37.999Z</time></trkpt><trkpt lat="45.801401111311684" lon="8.870609365582881"><ele>305.0</ele><time>2026-04-30T14:53:38.999Z</time></trkpt><trkpt lat="45.8014077817195" lon="8.870412889161216"><ele>308.0</ele><time>2026-04-30T14:53:39.999Z</time></trkpt><trkpt lat="45.80142431857905" lon="8.870218015200132"><ele>311.0</ele><time>2026-04-30T14:53:40.999Z</time></trkpt><trkpt lat="45.801450538786064" lon="8.870029070804277"><ele>314.0</ele><time>2026-04-30T14:53:41.999Z</time></trkpt><trkpt lat="45.80147624036403" lon="8.869840626159624"><ele>317.0</ele><time>2026-04-30T14:53:42.999Z</time></trkpt><trkpt lat="45.80149688932143" lon="8.869657903689918"><ele>317.0</ele><time>2026-04-30T14:53:43.999Z</time></trkpt><trkpt lat="45.80151690066565" lon="8.869495261973187"><ele>317.0</ele><time>2026-04-30T14:53:44.999Z</time></trkpt><trkpt lat="45.801535345422394" lon="8.869349623761678"><ele>317.0</ele><time>2026-04-30T14:53:45.999Z</time></trkpt><trkpt lat="45.80155361905039" lon="8.869207458273502"><ele>317.0</ele><time>2026-04-30T14:53:47Z</time></trkpt><trkpt lat="45.801574854035906" lon="8.869061957029846"><ele>317.0</ele><time>2026-04-30T14:53:48Z</time></trkpt><trkpt lat="45.801597738977605" lon="8.868915169016962"><ele>317.0</ele><time>2026-04-30T14:53:49Z</time></trkpt><trkpt lat="45.801618246456215" lon="8.868767724567885"><ele>317.0</ele><time>2026-04-30T14:53:50Z</time></trkpt><trkpt lat="45.80163784123208" lon="8.868618842278092"><ele>317.0</ele><time>2026-04-30T14:53:51Z</time></trkpt><trkpt lat="45.80165794956514" lon="8.868471788276588"><ele>317.0</ele><time>2026-04-30T14:53:52Z</time></trkpt><trkpt lat="45.80167704131975" lon="8.868327960673176"><ele>317.0</ele><time>2026-04-30T14:53:53Z</time></trkpt><trkpt lat="45.80169717899053" lon="8.868196439121066"><ele>316.0</ele><time>2026-04-30T14:53:54Z</time></trkpt><trkpt lat="45.801722386546366" lon="8.868058696797844"><ele>315.0</ele><time>2026-04-30T14:53:55Z</time></trkpt><trkpt lat="45.801751856302225" lon="8.867914818313956"><ele>314.0</ele><time>2026-04-30T14:53:56Z</time></trkpt><trkpt lat="45.80179056788905" lon="8.867770915351029"><ele>313.0</ele><time>2026-04-30T14:53:57Z</time></trkpt><trkpt lat="45.80183546637977" lon="8.867630371233487"><ele>312.0</ele><time>2026-04-30T14:53:58Z</time></trkpt><trkpt lat="45.80187762776636" lon="8.86750172088631"><ele>317.8</ele><time>2026-04-30T14:53:59Z</time></trkpt><trkpt lat="45.801915505838934" lon="8.867391981223536"><ele>323.6</ele><time>2026-04-30T14:54:00Z</time></trkpt><trkpt lat="45.80195320708075" lon="8.867280448249636"><ele>329.40000000000003</ele><time>2026-04-30T14:54:01Z</time></trkpt><trkpt lat="45.80199249908237" lon="8.867165561583935"><ele>335.2</ele><time>2026-04-30T14:54:02Z</time></trkpt><trkpt lat="45.80203323792092" lon="8.867045574185447"><ele>341.0</ele><time>2026-04-30T14:54:03Z</time></trkpt><trkpt lat="45.80208774300284" lon="8.866924997291536"><ele>341.0</ele><time>2026-04-30T14:54:04Z</time></trkpt><trkpt lat="45.802167036148916" lon="8.866810164233627"><ele>341.0</ele><time>2026-04-30T14:54:05Z</time></trkpt><trkpt lat="45.802254137855066" lon="8.866699255445079"><ele>341.0</ele><time>2026-04-30T14:54:06Z</time></trkpt><trkpt lat="45.80234561792899" lon="8.866596264821325"><ele>341.0</ele><time>2026-04-30T14:54:07Z</time></trkpt><trkpt lat="45.80243322639274" lon="8.866494850343255"><ele>341.8</ele><time>2026-04-30T14:54:08Z</time></trkpt><trkpt lat="45.802520786172806" lon="8.866392737156433"><ele>342.6</ele><time>2026-04-30T14:54:09Z</time></trkpt><trkpt lat="45.80260504745553" lon="8.86628893667963"><ele>343.4</ele><time>2026-04-30T14:54:10Z</time></trkpt><trkpt lat="45.80268999514269" lon="8.86618793591053"><ele>344.2</ele><time>2026-04-30T14:54:11Z</time></trkpt><trkpt lat="45.802769345354015" lon="8.866075855048015"><ele>345.0</ele><time>2026-04-30T14:54:12Z</time></trkpt><trkpt lat="45.80284222315832" lon="8.865953983259816"><ele>341.4</ele><time>2026-04-30T14:54:13Z</time></trkpt><trkpt lat="45.80291106418113" lon="8.865826302553325"><ele>337.8</ele><time>2026-04-30T14:54:14Z</time></trkpt><trkpt lat="45.80298035341149" lon="8.865692141307537"><ele>334.20000000000005</ele><time>2026-04-30T14:54:15Z</time></trkpt><trkpt lat="45.803047178043876" lon="8.865563272429778"><ele>330.6</ele><time>2026-04-30T14:54:16Z</time></trkpt><trkpt lat="45.80311345911058" lon="8.865445492158628"><ele>327.0</ele><time>2026-04-30T14:54:17Z</time></trkpt><trkpt lat="45.80320171844906" lon="8.865360323318203"><ele>327.0</ele><time>2026-04-30T14:54:18Z</time></trkpt><trkpt lat="45.80328929555113" lon="8.865256829811486"><ele>327.0</ele><time>2026-04-30T14:54:19Z</time></trkpt><trkpt lat="45.80338328383482" lon="8.865134585902284"><ele>327.0</ele><time>2026-04-30T14:54:20Z</time></trkpt><trkpt lat="45.80348349140129" lon="8.865043037212507"><ele>327.0</ele><time>2026-04-30T14:54:21Z</time></trkpt><trkpt lat="45.803572937371754" lon="8.864958460297784"><ele>326.5</ele><time>2026-04-30T14:54:22Z</time></trkpt><trkpt lat="45.80366243247766" lon="8.864876088908193"><ele>326.0</ele><time>2026-04-30T14:54:23Z</time></trkpt><trkpt lat="45.80376263636987" lon="8.864777834958705"><ele>325.5</ele><time>2026-04-30T14:54:24Z</time></trkpt><trkpt lat="45.803888924092135" lon="8.864679842840298"><ele>325.0</ele><time>2026-04-30T14:54:25Z</time></trkpt><trkpt lat="45.804005097715624" lon="8.86454452949535"><ele>325.0</ele><time>2026-04-30T14:54:26Z</time></trkpt><trkpt lat="45.80411479945641" lon="8.864442782523875"><ele>325.0</ele><time>2026-04-30T14:54:27Z</time></trkpt><trkpt lat="45.80420952064617" lon="8.8643478537244"><ele>325.0</ele><time>2026-04-30T14:54:28Z</time></trkpt><trkpt lat="45.80429314203976" lon="8.864267494084418"><ele>325.0</ele><time>2026-04-30T14:54:29Z</time></trkpt><trkpt lat="45.80436640915531" lon="8.864191085838002"><ele>325.0</ele><time>2026-04-30T14:54:30Z</time></trkpt><trkpt lat="45.804437716089225" lon="8.86410370935923"><ele>322.3333333333333</ele><time>2026-04-30T14:54:31Z</time></trkpt><trkpt lat="45.80450682357056" lon="8.864019619569694"><ele>319.66666666666663</ele><time>2026-04-30T14:54:32Z</time></trkpt><trkpt lat="45.804568169983405" lon="8.863941313650958"><ele>317.0</ele><time>2026-04-30T14:54:33Z</time></trkpt><trkpt lat="45.80462669706034" lon="8.863873744910155"><ele>314.3333333333333</ele><time>2026-04-30T14:54:33.999Z</time></trkpt><trkpt lat="45.80469698705257" lon="8.863805043806837"><ele>311.6666666666667</ele><time>2026-04-30T14:54:34.999Z</time></trkpt><trkpt lat="45.804768921339694" lon="8.863752024066594"><ele>309.0</ele><time>2026-04-30T14:54:35.999Z</time></trkpt><trkpt lat="45.804843149794976" lon="8.863712890308589"><ele>309.0</ele><time>2026-04-30T14:54:36.999Z</time></trkpt><trkpt lat="45.80492624140592" lon="8.863690207209492"><ele>309.0</ele><time>2026-04-30T14:54:37.999Z</time></trkpt><trkpt lat="45.805016786950944" lon="8.863680872643764"><ele>309.0</ele><time>2026-04-30T14:54:38.999Z</time></trkpt><trkpt lat="45.80511904226008" lon="8.863692289623412"><ele>309.0</ele><time>2026-04-30T14:54:39.999Z</time></trkpt><trkpt lat="45.80521841807904" lon="8.863683794288157"><ele>309.0</ele><time>2026-04-30T14:54:40.999Z</time></trkpt><trkpt lat="45.805306070707495" lon="8.863638494437872"><ele>308.4</ele><time>2026-04-30T14:54:41.999Z</time></trkpt><trkpt lat="45.80536798663733" lon="8.863553712157398"><ele>307.79999999999995</ele><time>2026-04-30T14:54:42.999Z</time></trkpt><trkpt lat="45.80538961163529" lon="8.863440782927414"><ele>307.20000000000005</ele><time>2026-04-30T14:54:43.999Z</time></trkpt><trkpt lat="45.805383109952594" lon="8.863312191496096"><ele>306.6</ele><time>2026-04-30T14:54:44.999Z</time></trkpt><trkpt lat="45.80536909674775" lon="8.863180862583107"><ele>306.0</ele><time>2026-04-30T14:54:45.999Z</time></trkpt><trkpt lat="45.80529241967977" lon="8.863083996131241"><ele>305.8</ele><time>2026-04-30T14:54:46.999Z</time></trkpt><trkpt lat="45.80521154900028" lon="8.863039551671772"><ele>305.6</ele><time>2026-04-30T14:54:47.999Z</time></trkpt><trkpt lat="45.805112672976925" lon="8.863033410463897"><ele>305.4</ele><time>2026-04-30T14:54:48.999Z</time></trkpt><trkpt lat="45.80500707041286" lon="8.863011011228078"><ele>305.2</ele><time>2026-04-30T14:54:49.999Z</time></trkpt><trkpt lat="45.80487496654151" lon="8.862956707740572"><ele>305.0</ele><time>2026-04-30T14:54:50.999Z</time></trkpt><trkpt lat="45.804711557564985" lon="8.862880125751635"><ele>304.6666666666667</ele><time>2026-04-30T14:54:51.999Z</time></trkpt><trkpt lat="45.804540244379815" lon="8.862828272205505"><ele>304.3333333333333</ele><time>2026-04-30T14:54:52.999Z</time></trkpt><trkpt lat="45.80434601096834" lon="8.862789284434266"><ele>304.0</ele><time>2026-04-30T14:54:53.999Z</time></trkpt><trkpt lat="45.804159432852764" lon="8.86278538318068"><ele>304.0</ele><time>2026-04-30T14:54:54.999Z</time></trkpt><trkpt lat="45.80400187845857" lon="8.862794536820001"><ele>304.0</ele><time>2026-04-30T14:54:55.999Z</time></trkpt><trkpt lat="45.803818684653756" lon="8.862834501865192"><ele>304.0</ele><time>2026-04-30T14:54:56.999Z</time></trkpt><trkpt lat="45.803644325163305" lon="8.862876745981888"><ele>306.0</ele><time>2026-04-30T14:54:57.999Z</time></trkpt><trkpt lat="45.80346152620831" lon="8.862904610796749"><ele>308.0</ele><time>2026-04-30T14:54:58.999Z</time></trkpt><trkpt lat="45.80327010462936" lon="8.862929812829066"><ele>310.0</ele><time>2026-04-30T14:54:59.999Z</time></trkpt><trkpt lat="45.803093628430396" lon="8.862968381132442"><ele>310.0</ele><time>2026-04-30T14:55:00.999Z</time></trkpt><trkpt lat="45.80292874835252" lon="8.863025317669749"><ele>310.0</ele><time>2026-04-30T14:55:01.999Z</time></trkpt><trkpt lat="45.802779686868206" lon="8.863109502407525"><ele>310.0</ele><time>2026-04-30T14:55:02.999Z</time></trkpt><trkpt lat="45.802657358863385" lon="8.863226015441114"><ele>308.3333333333333</ele><time>2026-04-30T14:55:03.999Z</time></trkpt><trkpt lat="45.80255208523632" lon="8.863370769003723"><ele>306.6666666666667</ele><time>2026-04-30T14:55:04.999Z</time></trkpt><trkpt lat="45.802454585160056" lon="8.863533329374654"><ele>305.0</ele><time>2026-04-30T14:55:05.999Z</time></trkpt><trkpt lat="45.80235607651817" lon="8.863715407430696"><ele>305.0</ele><time>2026-04-30T14:55:06.999Z</time></trkpt><trkpt lat="45.80227184199068" lon="8.863916892888147"><ele>305.0</ele><time>2026-04-30T14:55:07.999Z</time></trkpt><trkpt lat="45.80219861497498" lon="8.86413176401924"><ele>305.0</ele><time>2026-04-30T14:55:08.999Z</time></trkpt><trkpt lat="45.802136049152345" lon="8.864344488820777"><ele>304.5</ele><time>2026-04-30T14:55:09.999Z</time></trkpt><trkpt lat="45.80207829608232" lon="8.86452447322155"><ele>304.0</ele><time>2026-04-30T14:55:10.999Z</time></trkpt><trkpt lat="45.80202604270974" lon="8.864684754917578"><ele>303.5</ele><time>2026-04-30T14:55:11.999Z</time></trkpt><trkpt lat="45.8019640947557" lon="8.864835416668967"><ele>303.0</ele><time>2026-04-30T14:55:12.999Z</time></trkpt><trkpt lat="45.80188192472907" lon="8.864988618911104"><ele>304.0</ele><time>2026-04-30T14:55:13.999Z</time></trkpt><trkpt lat="45.801786100370386" lon="8.865132218906362"><ele>305.0</ele><time>2026-04-30T14:55:14.999Z</time></trkpt><trkpt lat="45.801668162283946" lon="8.865284353445714"><ele>306.0</ele><time>2026-04-30T14:55:15.999Z</time></trkpt><trkpt lat="45.80153484426098" lon="8.865426682954391"><ele>306.0</ele><time>2026-04-30T14:55:16.999Z</time></trkpt><trkpt lat="45.801371508056235" lon="8.865550333513744"><ele>306.0</ele><time>2026-04-30T14:55:17.999Z</time></trkpt><trkpt lat="45.801208961662816" lon="8.86566756651889"><ele>306.0</ele><time>2026-04-30T14:55:18.999Z</time></trkpt><trkpt lat="45.80103120154919" lon="8.865788414322076"><ele>307.0</ele><time>2026-04-30T14:55:19.999Z</time></trkpt><trkpt lat="45.800861177245714" lon="8.865899790475467"><ele>308.0</ele><time>2026-04-30T14:55:20.999Z</time></trkpt><trkpt lat="45.800682176822875" lon="8.865998275044245"><ele>309.0</ele><time>2026-04-30T14:55:21.999Z</time></trkpt><trkpt lat="45.800494708955014" lon="8.866074638346431"><ele>309.0</ele><time>2026-04-30T14:55:22.999Z</time></trkpt><trkpt lat="45.80029303568246" lon="8.866122500529913"><ele>309.0</ele><time>2026-04-30T14:55:23.999Z</time></trkpt><trkpt lat="45.80008543339168" lon="8.866154048711032"><ele>309.0</ele><time>2026-04-30T14:55:24.999Z</time></trkpt><trkpt lat="45.79987902886444" lon="8.866180279358794"><ele>318.0</ele><time>2026-04-30T14:55:25.999Z</time></trkpt><trkpt lat="45.799692353844826" lon="8.8661753572354"><ele>327.0</ele><time>2026-04-30T14:55:26.999Z</time></trkpt><trkpt lat="45.79949806112324" lon="8.86619397614286"><ele>336.0</ele><time>2026-04-30T14:55:27.999Z</time></trkpt><trkpt lat="45.7992816326583" lon="8.866202683229828"><ele>339.6666666666667</ele><time>2026-04-30T14:55:29.059Z</time></trkpt><trkpt lat="45.799062244057" lon="8.86624833186977"><ele>343.33333333333337</ele><time>2026-04-30T14:55:30.065Z</time></trkpt><trkpt lat="45.79888708789338" lon="8.866256041261204"><ele>347.0</ele><time>2026-04-30T14:55:31.058Z</time></trkpt><trkpt lat="45.79869364756928" lon="8.866242852423815"><ele>306.0</ele><time>2026-04-30T14:55:32.064Z</time></trkpt><trkpt lat="45.79679502875252" lon="8.865998633465965"><ele>305.5</ele><time>2026-04-30T14:55:39.999Z</time></trkpt><trkpt lat="45.796567114544274" lon="8.865914722352484"><ele>305.0</ele><time>2026-04-30T14:55:40.999Z</time></trkpt><trkpt lat="45.7961105895522" lon="8.865652915862352"><ele>308.5</ele><time>2026-04-30T14:55:41.999Z</time></trkpt><trkpt lat="45.79587301935053" lon="8.865538841931489"><ele>312.0</ele><time>2026-04-30T14:55:42.999Z</time></trkpt><trkpt lat="45.79563004284682" lon="8.86539007348667"><ele>312.0</ele><time>2026-04-30T14:55:43.999Z</time></trkpt><trkpt lat="45.79541503994465" lon="8.865205331216236"><ele>312.0</ele><time>2026-04-30T14:55:44.999Z</time></trkpt><trkpt lat="45.795234643534364" lon="8.86497571882521"><ele>312.5</ele><time>2026-04-30T14:55:45.999Z</time></trkpt><trkpt lat="45.79503904656979" lon="8.864758551599952"><ele>313.0</ele><time>2026-04-30T14:55:46.999Z</time></trkpt><trkpt lat="45.794840867496326" lon="8.86451490190723"><ele>306.0</ele><time>2026-04-30T14:55:47.999Z</time></trkpt><trkpt lat="45.794635801065745" lon="8.864257132444767"><ele>299.0</ele><time>2026-04-30T14:55:48.999Z</time></trkpt><trkpt lat="45.79442519575066" lon="8.863985693900965"><ele>307.0</ele><time>2026-04-30T14:55:49.999Z</time></trkpt><trkpt lat="45.794213328662444" lon="8.863720771757428"><ele>315.0</ele><time>2026-04-30T14:55:50.999Z</time></trkpt><trkpt lat="45.79400842182201" lon="8.863465516595882"><ele>306.5</ele><time>2026-04-30T14:55:51.999Z</time></trkpt><trkpt lat="45.79381647959767" lon="8.863216661539292"><ele>298.0</ele><time>2026-04-30T14:55:53Z</time></trkpt><trkpt lat="45.79363386574097" lon="8.862992337418294"><ele>299.0</ele><time>2026-04-30T14:55:54Z</time></trkpt><trkpt lat="45.793442398130395" lon="8.862781023992591"><ele>300.0</ele><time>2026-04-30T14:55:55Z</time></trkpt><trkpt lat="45.79323467594758" lon="8.862581850153774"><ele>300.0</ele><time>2026-04-30T14:55:56Z</time></trkpt><trkpt lat="45.79300789866505" lon="8.862388381790698"><ele>300.0</ele><time>2026-04-30T14:55:57Z</time></trkpt><trkpt lat="45.792764760863435" lon="8.862198972039096"><ele>306.0</ele><time>2026-04-30T14:55:58Z</time></trkpt><trkpt lat="45.79252085797321" lon="8.86204180208624"><ele>312.0</ele><time>2026-04-30T14:55:59Z</time></trkpt><trkpt lat="45.79227262397157" lon="8.861899996529509"><ele>304.5</ele><time>2026-04-30T14:56:00Z</time></trkpt><trkpt lat="45.79201316148254" lon="8.861776228892644"><ele>297.0</ele><time>2026-04-30T14:56:01Z</time></trkpt><trkpt lat="45.79175840774239" lon="8.861681275993341"><ele>297.0</ele><time>2026-04-30T14:56:02Z</time></trkpt><trkpt lat="45.79150651355787" lon="8.861616034947074"><ele>297.0</ele><time>2026-04-30T14:56:03Z</time></trkpt><trkpt lat="45.79124850468953" lon="8.861575811434566"><ele>299.0</ele><time>2026-04-30T14:56:04Z</time></trkpt><trkpt lat="45.79099394312266" lon="8.86156833647321"><ele>301.0</ele><time>2026-04-30T14:56:05Z</time></trkpt><trkpt lat="45.79074221799849" lon="8.861596096181934"><ele>301.0</ele><time>2026-04-30T14:56:06Z</time></trkpt><trkpt lat="45.790491904354305" lon="8.861652345969619"><ele>301.0</ele><time>2026-04-30T14:56:07Z</time></trkpt><trkpt lat="45.790236907996956" lon="8.861735815172047"><ele>300.0</ele><time>2026-04-30T14:56:08Z</time></trkpt><trkpt lat="45.78997776885614" lon="8.86184218383915"><ele>299.0</ele><time>2026-04-30T14:56:09Z</time></trkpt><trkpt lat="45.78971815211756" lon="8.861969622228631"><ele>299.0</ele><time>2026-04-30T14:56:10Z</time></trkpt><trkpt lat="45.78946113501705" lon="8.862125828629596"><ele>299.0</ele><time>2026-04-30T14:56:11Z</time></trkpt><trkpt lat="45.78921150423027" lon="8.862303859452421"><ele>299.5</ele><time>2026-04-30T14:56:12Z</time></trkpt><trkpt lat="45.788962433589425" lon="8.862499846084352"><ele>300.0</ele><time>2026-04-30T14:56:13Z</time></trkpt><trkpt lat="45.78872463080534" lon="8.862701525539785"><ele>297.0</ele><time>2026-04-30T14:56:14Z</time></trkpt><trkpt lat="45.78848566572188" lon="8.86290865755985"><ele>294.0</ele><time>2026-04-30T14:56:15Z</time></trkpt><trkpt lat="45.78824823463544" lon="8.86311801494874"><ele>294.0</ele><time>2026-04-30T14:56:16Z</time></trkpt><trkpt lat="45.78801629545886" lon="8.863318455719552"><ele>294.0</ele><time>2026-04-30T14:56:17Z</time></trkpt><trkpt lat="45.78778814310872" lon="8.863521582425015"><ele>298.0</ele><time>2026-04-30T14:56:18Z</time></trkpt><trkpt lat="45.787560878726715" lon="8.863721602218133"><ele>302.0</ele><time>2026-04-30T14:56:19Z</time></trkpt><trkpt lat="45.787339889371424" lon="8.86390872801327"><ele>302.0</ele><time>2026-04-30T14:56:20Z</time></trkpt><trkpt lat="45.787130742169495" lon="8.8640900579966"><ele>302.0</ele><time>2026-04-30T14:56:21Z</time></trkpt><trkpt lat="45.78693615669163" lon="8.86426103216585"><ele>302.33333333333337</ele><time>2026-04-30T14:56:22Z</time></trkpt><trkpt lat="45.78674541701088" lon="8.86442741888194"><ele>302.6666666666667</ele><time>2026-04-30T14:56:23Z</time></trkpt><trkpt lat="45.786554632198225" lon="8.86459788305322"><ele>303.0</ele><time>2026-04-30T14:56:24Z</time></trkpt><trkpt lat="45.786361447553915" lon="8.864773036844529"><ele>303.0</ele><time>2026-04-30T14:56:25Z</time></trkpt><trkpt lat="45.786157852317" lon="8.864952511308374"><ele>303.0</ele><time>2026-04-30T14:56:26Z</time></trkpt><trkpt lat="45.785964370091165" lon="8.865122111945771"><ele>301.3333333333333</ele><time>2026-04-30T14:56:27Z</time></trkpt><trkpt lat="45.785785402485985" lon="8.865279914361597"><ele>299.66666666666663</ele><time>2026-04-30T14:56:28Z</time></trkpt><trkpt lat="45.785612565158495" lon="8.865431185057002"><ele>298.0</ele><time>2026-04-30T14:56:29Z</time></trkpt><trkpt lat="45.78543655029123" lon="8.865582244642765"><ele>298.0</ele><time>2026-04-30T14:56:30Z</time></trkpt><trkpt lat="45.785266914442275" lon="8.865735299053831"><ele>298.0</ele><time>2026-04-30T14:56:31Z</time></trkpt><trkpt lat="45.7851005912535" lon="8.86588211833198"><ele>298.0</ele><time>2026-04-30T14:56:32Z</time></trkpt><trkpt lat="45.78493146556495" lon="8.86602779848695"><ele>296.0</ele><time>2026-04-30T14:56:33Z</time></trkpt><trkpt lat="45.784762398236374" lon="8.866172598358002"><ele>294.0</ele><time>2026-04-30T14:56:34Z</time></trkpt><trkpt lat="45.78459335404487" lon="8.866327764591091"><ele>292.0</ele><time>2026-04-30T14:56:35Z</time></trkpt><trkpt lat="45.78442524279913" lon="8.866468808871776"><ele>290.66666666666663</ele><time>2026-04-30T14:56:36Z</time></trkpt><trkpt lat="45.78425316048871" lon="8.866618954411505"><ele>289.3333333333333</ele><time>2026-04-30T14:56:37Z</time></trkpt><trkpt lat="45.78407902817783" lon="8.866770706041954"><ele>288.0</ele><time>2026-04-30T14:56:38Z</time></trkpt><trkpt lat="45.783903040233746" lon="8.866926262420911"><ele>288.0</ele><time>2026-04-30T14:56:39Z</time></trkpt><trkpt lat="45.78373169517776" lon="8.867074433553361"><ele>288.0</ele><time>2026-04-30T14:56:40Z</time></trkpt><trkpt lat="45.783575088060914" lon="8.867212956008501"><ele>288.0</ele><time>2026-04-30T14:56:41Z</time></trkpt><trkpt lat="45.78342167239082" lon="8.867344768488152"><ele>287.6666666666667</ele><time>2026-04-30T14:56:42Z</time></trkpt><trkpt lat="45.78327443807784" lon="8.867471280748523"><ele>287.33333333333337</ele><time>2026-04-30T14:56:43Z</time></trkpt><trkpt lat="45.78313295344959" lon="8.867594321156723"><ele>287.0</ele><time>2026-04-30T14:56:44Z</time></trkpt><trkpt lat="45.782993557895196" lon="8.867711690004839"><ele>287.0</ele><time>2026-04-30T14:56:45Z</time></trkpt><trkpt lat="45.78286040626915" lon="8.867825524329383"><ele>287.0</ele><time>2026-04-30T14:56:46Z</time></trkpt><trkpt lat="45.78271729711196" lon="8.867931819175285"><ele>287.0</ele><time>2026-04-30T14:56:47Z</time></trkpt><trkpt lat="45.78257307459919" lon="8.868034092764335"><ele>287.33333333333337</ele><time>2026-04-30T14:56:48Z</time></trkpt><trkpt lat="45.78242196752531" lon="8.868140402570118"><ele>287.6666666666667</ele><time>2026-04-30T14:56:48.999Z</time></trkpt><trkpt lat="45.78226449901989" lon="8.868243319448633"><ele>288.0</ele><time>2026-04-30T14:56:49.999Z</time></trkpt><trkpt lat="45.78210401310984" lon="8.868349914524645"><ele>287.3333333333333</ele><time>2026-04-30T14:56:50.999Z</time></trkpt><trkpt lat="45.78194297236381" lon="8.868446953315665"><ele>286.66666666666663</ele><time>2026-04-30T14:56:51.999Z</time></trkpt><trkpt lat="45.781792213243634" lon="8.868533583105837"><ele>286.0</ele><time>2026-04-30T14:56:52.999Z</time></trkpt><trkpt lat="45.78164844105672" lon="8.868611319665272"><ele>285.25</ele><time>2026-04-30T14:56:53.999Z</time></trkpt><trkpt lat="45.78150869903432" lon="8.868675050107502"><ele>284.5</ele><time>2026-04-30T14:56:54.999Z</time></trkpt><trkpt lat="45.78136476800532" lon="8.868728830200073"><ele>283.75</ele><time>2026-04-30T14:56:55.999Z</time></trkpt><trkpt lat="45.78121568335554" lon="8.86877054482364"><ele>283.0</ele><time>2026-04-30T14:56:56.999Z</time></trkpt><trkpt lat="45.78106713429418" lon="8.868801653129157"><ele>282.66666666666663</ele><time>2026-04-30T14:56:57.999Z</time></trkpt><trkpt lat="45.78091428679562" lon="8.868825787350445"><ele>282.3333333333333</ele><time>2026-04-30T14:56:58.999Z</time></trkpt><trkpt lat="45.78076320568419" lon="8.868840921082835"><ele>282.0</ele><time>2026-04-30T14:56:59.999Z</time></trkpt><trkpt lat="45.78060667720285" lon="8.868852667968904"><ele>282.0</ele><time>2026-04-30T14:57:00.999Z</time></trkpt><trkpt lat="45.78045191257037" lon="8.8688701910719"><ele>282.0</ele><time>2026-04-30T14:57:01.999Z</time></trkpt><trkpt lat="45.78029541270634" lon="8.868888193609004"><ele>282.0</ele><time>2026-04-30T14:57:02.999Z</time></trkpt><trkpt lat="45.780137185413494" lon="8.868906402546802"><ele>282.5</ele><time>2026-04-30T14:57:03.999Z</time></trkpt><trkpt lat="45.7799894685949" lon="8.868923287283216"><ele>283.0</ele><time>2026-04-30T14:57:04.999Z</time></trkpt><trkpt lat="45.77984446227852" lon="8.868940767591788"><ele>283.5</ele><time>2026-04-30T14:57:05.999Z</time></trkpt><trkpt lat="45.77970280046381" lon="8.868957897020268"><ele>284.0</ele><time>2026-04-30T14:57:06.999Z</time></trkpt><trkpt lat="45.779563859348954" lon="8.868976684096369"><ele>284.0</ele><time>2026-04-30T14:57:07.999Z</time></trkpt><trkpt lat="45.779428163478514" lon="8.869001171621688"><ele>284.0</ele><time>2026-04-30T14:57:08.999Z</time></trkpt><trkpt lat="45.779302168743996" lon="8.869041274813222"><ele>284.0</ele><time>2026-04-30T14:57:09.999Z</time></trkpt><trkpt lat="45.77918579105776" lon="8.869104299946184"><ele>284.0</ele><time>2026-04-30T14:57:10.999Z</time></trkpt><trkpt lat="45.779098873671344" lon="8.869228057908341"><ele>283.25</ele><time>2026-04-30T14:57:11.999Z</time></trkpt><trkpt lat="45.77902633498461" lon="8.869368098026486"><ele>282.5</ele><time>2026-04-30T14:57:12.999Z</time></trkpt><trkpt lat="45.778949221941076" lon="8.869523126471618"><ele>281.75</ele><time>2026-04-30T14:57:13.999Z</time></trkpt><trkpt lat="45.77888808384379" lon="8.869646629743505"><ele>281.0</ele><time>2026-04-30T14:57:14.999Z</time></trkpt><trkpt lat="45.77881701583582" lon="8.869777451891304"><ele>281.0</ele><time>2026-04-30T14:57:15.999Z</time></trkpt><trkpt lat="45.778748130919226" lon="8.869905818565405"><ele>281.0</ele><time>2026-04-30T14:57:16.999Z</time></trkpt><trkpt lat="45.778680631207465" lon="8.87003208924556"><ele>281.0</ele><time>2026-04-30T14:57:17.999Z</time></trkpt><trkpt lat="45.77860930896975" lon="8.870141308029279"><ele>281.0</ele><time>2026-04-30T14:57:18.999Z</time></trkpt><trkpt lat="45.778523993662695" lon="8.870252754686593"><ele>281.0</ele><time>2026-04-30T14:57:19.999Z</time></trkpt><trkpt lat="45.77841830388985" lon="8.870353384476372"><ele>281.5</ele><time>2026-04-30T14:57:20.999Z</time></trkpt><trkpt lat="45.77829486567683" lon="8.870435141371436"><ele>282.0</ele><time>2026-04-30T14:57:21.999Z</time></trkpt><trkpt lat="45.778160068490905" lon="8.870490037702687"><ele>282.5</ele><time>2026-04-30T14:57:22.999Z</time></trkpt><trkpt lat="45.77802788603464" lon="8.870506013945713"><ele>283.0</ele><time>2026-04-30T14:57:23.999Z</time></trkpt><trkpt lat="45.77790435413792" lon="8.870488901889974"><ele>283.0</ele><time>2026-04-30T14:57:24.999Z</time></trkpt><trkpt lat="45.77779811366369" lon="8.870458612652406"><ele>283.0</ele><time>2026-04-30T14:57:25.999Z</time></trkpt><trkpt lat="45.7777259339979" lon="8.870446046783046"><ele>283.0</ele><time>2026-04-30T14:57:26.999Z</time></trkpt><trkpt lat="45.777659440148284" lon="8.870466625140862"><ele>283.0</ele><time>2026-04-30T14:57:27.999Z</time></trkpt><trkpt lat="45.77759260571423" lon="8.870502132174861"><ele>283.0</ele><time>2026-04-30T14:57:28.999Z</time></trkpt><trkpt lat="45.77748672918248" lon="8.8705147344665"><ele>283.0</ele><time>2026-04-30T14:57:30.999Z</time></trkpt><trkpt lat="45.7773808601136" lon="8.870490825851771"><ele>283.2</ele><time>2026-04-30T14:57:32.999Z</time></trkpt><trkpt lat="45.777273700704896" lon="8.870481218314819"><ele>283.4</ele><time>2026-04-30T14:57:34.999Z</time></trkpt><trkpt lat="45.777168163615286" lon="8.870525709989966"><ele>283.59999999999997</ele><time>2026-04-30T14:57:36.999Z</time></trkpt><trkpt lat="45.77709631970811" lon="8.870586011494888"><ele>283.8</ele><time>2026-04-30T14:57:37.999Z</time></trkpt><trkpt lat="45.7770117114296" lon="8.870633563422018"><ele>284.0</ele><time>2026-04-30T14:57:38.999Z</time></trkpt><trkpt lat="45.77692626598746" lon="8.870647782675492"><ele>283.83333333333337</ele><time>2026-04-30T14:57:39.999Z</time></trkpt><trkpt lat="45.77683879699674" lon="8.87063814664989"><ele>283.6666666666667</ele><time>2026-04-30T14:57:40.999Z</time></trkpt><trkpt lat="45.77675527166114" lon="8.870600768937"><ele>283.5</ele><time>2026-04-30T14:57:41.999Z</time></trkpt><trkpt lat="45.77667420485705" lon="8.870548746866296"><ele>283.3333333333333</ele><time>2026-04-30T14:57:42.999Z</time></trkpt><trkpt lat="45.7766177842128" lon="8.870468752446822"><ele>283.16666666666663</ele><time>2026-04-30T14:57:43.999Z</time></trkpt><trkpt lat="45.77659299085064" lon="8.870380176423417"><ele>283.0</ele><time>2026-04-30T14:57:44.999Z</time></trkpt><trkpt lat="45.77658703076205" lon="8.870284005141333"><ele>283.0</ele><time>2026-04-30T14:57:46.999Z</time></trkpt><trkpt lat="45.77660072704171" lon="8.87012283734006"><ele>283.0</ele><time>2026-04-30T14:57:48.999Z</time></trkpt><trkpt lat="45.776617226461646" lon="8.870003634057014"><ele>283.0</ele><time>2026-04-30T14:57:49.999Z</time></trkpt><trkpt lat="45.77661837090489" lon="8.869900410831079"><ele>283.0</ele><time>2026-04-30T14:57:50.999Z</time></trkpt><trkpt lat="45.77660779463486" lon="8.869797840789836"><ele>283.0</ele><time>2026-04-30T14:57:51.999Z</time></trkpt><trkpt lat="45.77658169132811" lon="8.869711173881493"><ele>283.0</ele><time>2026-04-30T14:57:52.999Z</time></trkpt><trkpt lat="45.77654321699737" lon="8.8696353361636"><ele>282.66666666666663</ele><time>2026-04-30T14:57:53.999Z</time></trkpt><trkpt lat="45.776452002119385" lon="8.869544933130774"><ele>282.3333333333333</ele><time>2026-04-30T14:57:55.999Z</time></trkpt><trkpt lat="45.77634154110214" lon="8.869504363013938"><ele>282.0</ele><time>2026-04-30T14:57:57.999Z</time></trkpt><trkpt lat="45.7762765807293" lon="8.86951244859642"><ele>281.6666666666667</ele><time>2026-04-30T14:57:59Z</time></trkpt><trkpt lat="45.77621402600821" lon="8.869542029100682"><ele>281.33333333333337</ele><time>2026-04-30T14:58:00Z</time></trkpt><trkpt lat="45.77615499460068" lon="8.869604840026026"><ele>281.0</ele><time>2026-04-30T14:58:01Z</time></trkpt><trkpt lat="45.77609711712658" lon="8.869684952042403"><ele>281.0</ele><time>2026-04-30T14:58:02Z</time></trkpt><trkpt lat="45.77605865308638" lon="8.86977797837232"><ele>281.0</ele><time>2026-04-30T14:58:03Z</time></trkpt><trkpt lat="45.77604348896626" lon="8.869874620992638"><ele>281.0</ele><time>2026-04-30T14:58:04Z</time></trkpt><trkpt lat="45.776040777989984" lon="8.869972900012687"><ele>281.0</ele><time>2026-04-30T14:58:05Z</time></trkpt><trkpt lat="45.776035452946005" lon="8.870084079160119"><ele>281.0</ele><time>2026-04-30T14:58:06Z</time></trkpt><trkpt lat="45.776015531217624" lon="8.870205028968554"><ele>281.0</ele><time>2026-04-30T14:58:07Z</time></trkpt><trkpt lat="45.77597743226779" lon="8.870304684045609"><ele>281.40000000000003</ele><time>2026-04-30T14:58:08Z</time></trkpt><trkpt lat="45.775924283674605" lon="8.870392835978961"><ele>281.8</ele><time>2026-04-30T14:58:09Z</time></trkpt><trkpt lat="45.77585153728933" lon="8.870496587274705"><ele>282.20000000000005</ele><time>2026-04-30T14:58:10Z</time></trkpt><trkpt lat="45.7757643626742" lon="8.870609121759921"><ele>282.6</ele><time>2026-04-30T14:58:11Z</time></trkpt><trkpt lat="45.77566165972117" lon="8.870692740531062"><ele>283.0</ele><time>2026-04-30T14:58:12Z</time></trkpt><trkpt lat="45.775560436176065" lon="8.870794342013031"><ele>283.0</ele><time>2026-04-30T14:58:13Z</time></trkpt><trkpt lat="45.77542988698539" lon="8.870914844851345"><ele>283.0</ele><time>2026-04-30T14:58:14Z</time></trkpt><trkpt lat="45.77528655815936" lon="8.87104702214807"><ele>283.0</ele><time>2026-04-30T14:58:15Z</time></trkpt><trkpt lat="45.77514999036801" lon="8.871173633212857"><ele>283.75</ele><time>2026-04-30T14:58:16Z</time></trkpt><trkpt lat="45.77502428505827" lon="8.87131409812732"><ele>284.5</ele><time>2026-04-30T14:58:17Z</time></trkpt><trkpt lat="45.77490265301374" lon="8.87142564537202"><ele>285.25</ele><time>2026-04-30T14:58:18Z</time></trkpt><trkpt lat="45.774791202509434" lon="8.871527423302414"><ele>286.0</ele><time>2026-04-30T14:58:19Z</time></trkpt><trkpt lat="45.77469052113798" lon="8.871621531173723"><ele>286.0</ele><time>2026-04-30T14:58:20Z</time></trkpt><trkpt lat="45.774598646700845" lon="8.871708924251749"><ele>286.0</ele><time>2026-04-30T14:58:21Z</time></trkpt><trkpt lat="45.774508855156654" lon="8.871791817939322"><ele>286.0</ele><time>2026-04-30T14:58:22Z</time></trkpt><trkpt lat="45.774410069108384" lon="8.871867314685385"><ele>286.0</ele><time>2026-04-30T14:58:23Z</time></trkpt><trkpt lat="45.77432824795607" lon="8.87198541972045"><ele>286.0</ele><time>2026-04-30T14:58:24Z</time></trkpt><trkpt lat="45.77426860499331" lon="8.872121595832322"><ele>286.0</ele><time>2026-04-30T14:58:25Z</time></trkpt><trkpt lat="45.774255483197734" lon="8.872280584148497"><ele>286.0</ele><time>2026-04-30T14:58:26Z</time></trkpt><trkpt lat="45.774246709815785" lon="8.872433828936344"><ele>286.0</ele><time>2026-04-30T14:58:27Z</time></trkpt><trkpt lat="45.77422962934948" lon="8.87259402898154"><ele>286.0</ele><time>2026-04-30T14:58:28Z</time></trkpt><trkpt lat="45.77423612866939" lon="8.872756942074576"><ele>286.0</ele><time>2026-04-30T14:58:29Z</time></trkpt><trkpt lat="45.77422022865582" lon="8.87291160162164"><ele>288.0</ele><time>2026-04-30T14:58:30Z</time></trkpt><trkpt lat="45.7741956262844" lon="8.873054748340184"><ele>290.0</ele><time>2026-04-30T14:58:31Z</time></trkpt><trkpt lat="45.774149547983306" lon="8.873196840761183"><ele>292.0</ele><time>2026-04-30T14:58:32Z</time></trkpt><trkpt lat="45.77406790952922" lon="8.873325718493554"><ele>294.0</ele><time>2026-04-30T14:58:33Z</time></trkpt><trkpt lat="45.77395004530437" lon="8.873400932686572"><ele>298.25</ele><time>2026-04-30T14:58:34Z</time></trkpt><trkpt lat="45.773856679799344" lon="8.873477822067736"><ele>302.5</ele><time>2026-04-30T14:58:35Z</time></trkpt><trkpt lat="45.773731572001275" lon="8.873499498053766"><ele>306.75</ele><time>2026-04-30T14:58:36Z</time></trkpt><trkpt lat="45.773569630881276" lon="8.873551099992943"><ele>311.0</ele><time>2026-04-30T14:58:37Z</time></trkpt><trkpt lat="45.77339110274485" lon="8.873607201976904"><ele>311.33333333333337</ele><time>2026-04-30T14:58:38Z</time></trkpt><trkpt lat="45.77320182417058" lon="8.873691963440926"><ele>311.6666666666667</ele><time>2026-04-30T14:58:39Z</time></trkpt><trkpt lat="45.77297913445145" lon="8.873767060564136"><ele>312.0</ele><time>2026-04-30T14:58:40Z</time></trkpt><trkpt lat="45.77272954503455" lon="8.873845271905008"><ele>313.0</ele><time>2026-04-30T14:58:41Z</time></trkpt><trkpt lat="45.772493524473454" lon="8.873918415440635"><ele>314.0</ele><time>2026-04-30T14:58:42Z</time></trkpt><trkpt lat="45.772237910780525" lon="8.874003012071338"><ele>314.0</ele><time>2026-04-30T14:58:43Z</time></trkpt><trkpt lat="45.77198934758697" lon="8.874086766495145"><ele>314.0</ele><time>2026-04-30T14:58:44Z</time></trkpt><trkpt lat="45.77177293844416" lon="8.874161570693984"><ele>313.33333333333337</ele><time>2026-04-30T14:58:45Z</time></trkpt><trkpt lat="45.77157288250984" lon="8.874224644327892"><ele>312.6666666666667</ele><time>2026-04-30T14:58:46Z</time></trkpt><trkpt lat="45.77139043755882" lon="8.874281834614818"><ele>312.0</ele><time>2026-04-30T14:58:47Z</time></trkpt><trkpt lat="45.77120269656662" lon="8.874336572079454"><ele>323.3333333333333</ele><time>2026-04-30T14:58:48Z</time></trkpt><trkpt lat="45.77100925195571" lon="8.87434464513129"><ele>334.66666666666663</ele><time>2026-04-30T14:58:49Z</time></trkpt><trkpt lat="45.770800479602855" lon="8.87432972098876"><ele>346.0</ele><time>2026-04-30T14:58:50Z</time></trkpt><trkpt lat="45.770574005996174" lon="8.874310109744073"><ele>346.0</ele><time>2026-04-30T14:58:51Z</time></trkpt><trkpt lat="45.77033356486346" lon="8.87429460172952"><ele>346.0</ele><time>2026-04-30T14:58:52Z</time></trkpt><trkpt lat="45.770084225172745" lon="8.874282041535192"><ele>347.66666666666663</ele><time>2026-04-30T14:58:53Z</time></trkpt><trkpt lat="45.76986141452012" lon="8.874271929832794"><ele>349.3333333333333</ele><time>2026-04-30T14:58:54Z</time></trkpt><trkpt lat="45.76966116631309" lon="8.874259380706457"><ele>351.0</ele><time>2026-04-30T14:58:55Z</time></trkpt><trkpt lat="45.76947986262012" lon="8.874253252523497"><ele>340.3333333333333</ele><time>2026-04-30T14:58:56Z</time></trkpt><trkpt lat="45.76931931923631" lon="8.874257021288242"><ele>329.66666666666663</ele><time>2026-04-30T14:58:57Z</time></trkpt><trkpt lat="45.76916822182877" lon="8.874259423047274"><ele>319.0</ele><time>2026-04-30T14:58:58Z</time></trkpt><trkpt lat="45.769026615378024" lon="8.874247047257615"><ele>319.0</ele><time>2026-04-30T14:58:59Z</time></trkpt><trkpt lat="45.768899039376734" lon="8.874212778824628"><ele>319.0</ele><time>2026-04-30T14:59:00Z</time></trkpt><trkpt lat="45.76878150363484" lon="8.874168249694732"><ele>319.0</ele><time>2026-04-30T14:59:01Z</time></trkpt><trkpt lat="45.76868220416586" lon="8.87420786895759"><ele>319.0</ele><time>2026-04-30T14:59:02Z</time></trkpt><trkpt lat="45.76861847053904" lon="8.874179469268721"><ele>319.0</ele><time>2026-04-30T14:59:03Z</time></trkpt><trkpt lat="45.7685602626077" lon="8.874135216594766"><ele>318.8</ele><time>2026-04-30T14:59:06Z</time></trkpt><trkpt lat="45.768448009127326" lon="8.874071478432041"><ele>318.59999999999997</ele><time>2026-04-30T14:59:07.999Z</time></trkpt><trkpt lat="45.76837964734605" lon="8.874068404709812"><ele>318.4</ele><time>2026-04-30T14:59:08.999Z</time></trkpt><trkpt lat="45.76830596529789" lon="8.874125030539748"><ele>318.2</ele><time>2026-04-30T14:59:09.999Z</time></trkpt><trkpt lat="45.768228137336415" lon="8.874224566392174"><ele>318.0</ele><time>2026-04-30T14:59:10.999Z</time></trkpt><trkpt lat="45.76813309674386" lon="8.874313842812887"><ele>322.5</ele><time>2026-04-30T14:59:11.999Z</time></trkpt><trkpt lat="45.768026820529876" lon="8.874359575438278"><ele>327.0</ele><time>2026-04-30T14:59:12.999Z</time></trkpt><trkpt lat="45.76791546759806" lon="8.87432930784185"><ele>331.5</ele><time>2026-04-30T14:59:13.999Z</time></trkpt><trkpt lat="45.76780624940497" lon="8.874345593448073"><ele>336.0</ele><time>2026-04-30T14:59:14.999Z</time></trkpt><trkpt lat="45.767684134829686" lon="8.87436241463296"><ele>336.0</ele><time>2026-04-30T14:59:15.999Z</time></trkpt><trkpt lat="45.767569095862626" lon="8.874384095858295"><ele>336.0</ele><time>2026-04-30T14:59:16.999Z</time></trkpt><trkpt lat="45.76745277418" lon="8.874411136928869"><ele>336.0</ele><time>2026-04-30T14:59:17.999Z</time></trkpt><trkpt lat="45.767329097430604" lon="8.874457539992951"><ele>336.0</ele><time>2026-04-30T14:59:18.999Z</time></trkpt><trkpt lat="45.76717523112444" lon="8.87456833734581"><ele>336.0</ele><time>2026-04-30T14:59:19.999Z</time></trkpt><trkpt lat="45.766997352504134" lon="8.87465360604481"><ele>336.0</ele><time>2026-04-30T14:59:20.999Z</time></trkpt><trkpt lat="45.766846361897485" lon="8.874723991262979"><ele>336.0</ele><time>2026-04-30T14:59:21.999Z</time></trkpt><trkpt lat="45.76671415953908" lon="8.874786836643244"><ele>334.25</ele><time>2026-04-30T14:59:22.999Z</time></trkpt><trkpt lat="45.76659687524394" lon="8.874842873297911"><ele>332.5</ele><time>2026-04-30T14:59:23.999Z</time></trkpt><trkpt lat="45.76649324581223" lon="8.874891574892402"><ele>330.75</ele><time>2026-04-30T14:59:24.999Z</time></trkpt><trkpt lat="45.76639591198846" lon="8.87493783424487"><ele>329.0</ele><time>2026-04-30T14:59:25.999Z</time></trkpt><trkpt lat="45.76627568045977" lon="8.874979321354283"><ele>329.0</ele><time>2026-04-30T14:59:26.999Z</time></trkpt><trkpt lat="45.7661227463117" lon="8.87504888072829"><ele>329.0</ele><time>2026-04-30T14:59:27.999Z</time></trkpt><trkpt lat="45.765948390524514" lon="8.875131601283137"><ele>329.0</ele><time>2026-04-30T14:59:28.999Z</time></trkpt><trkpt lat="45.76578268460414" lon="8.875225992552565"><ele>333.0</ele><time>2026-04-30T14:59:29.999Z</time></trkpt><trkpt lat="45.765635720617794" lon="8.87529770312645"><ele>337.0</ele><time>2026-04-30T14:59:30.999Z</time></trkpt><trkpt lat="45.76548497067851" lon="8.875380571700008"><ele>341.0</ele><time>2026-04-30T14:59:31.999Z</time></trkpt><trkpt lat="45.76532490033692" lon="8.875465755524845"><ele>338.33333333333337</ele><time>2026-04-30T14:59:32.999Z</time></trkpt><trkpt lat="45.765157252806794" lon="8.875553832882874"><ele>335.6666666666667</ele><time>2026-04-30T14:59:33.999Z</time></trkpt><trkpt lat="45.764992978659436" lon="8.87564548200776"><ele>333.0</ele><time>2026-04-30T14:59:34.999Z</time></trkpt><trkpt lat="45.76483123787605" lon="8.875759661917161"><ele>333.0</ele><time>2026-04-30T14:59:35.999Z</time></trkpt><trkpt lat="45.76463988173071" lon="8.875899947724585"><ele>333.0</ele><time>2026-04-30T14:59:36.999Z</time></trkpt><trkpt lat="45.764439047020076" lon="8.876049575013935"><ele>333.0</ele><time>2026-04-30T14:59:37.999Z</time></trkpt><trkpt lat="45.76426019738726" lon="8.876179914184343"><ele>334.3333333333333</ele><time>2026-04-30T14:59:38.999Z</time></trkpt><trkpt lat="45.76410037140306" lon="8.876295682264752"><ele>335.66666666666663</ele><time>2026-04-30T14:59:39.999Z</time></trkpt><trkpt lat="45.76394490320096" lon="8.876372576030423"><ele>337.0</ele><time>2026-04-30T14:59:40.999Z</time></trkpt><trkpt lat="45.763788545575984" lon="8.876382150239762"><ele>337.0</ele><time>2026-04-30T14:59:41.999Z</time></trkpt><trkpt lat="45.763632086939786" lon="8.876368968479804"><ele>337.0</ele><time>2026-04-30T14:59:42.999Z</time></trkpt><trkpt lat="45.76347745846712" lon="8.876362053646885"><ele>337.0</ele><time>2026-04-30T14:59:43.999Z</time></trkpt><trkpt lat="45.76333944047373" lon="8.876330539503012"><ele>335.5</ele><time>2026-04-30T14:59:44.999Z</time></trkpt><trkpt lat="45.76321380900874" lon="8.876288368077187"><ele>334.0</ele><time>2026-04-30T14:59:45.999Z</time></trkpt><trkpt lat="45.76309553514127" lon="8.876265311224996"><ele>332.5</ele><time>2026-04-30T14:59:46.999Z</time></trkpt><trkpt lat="45.76298601137679" lon="8.876243960149884"><ele>331.0</ele><time>2026-04-30T14:59:47.999Z</time></trkpt><trkpt lat="45.76288608470283" lon="8.87622414056833"><ele>331.0</ele><time>2026-04-30T14:59:48.999Z</time></trkpt><trkpt lat="45.76279813892661" lon="8.876206547091634"><ele>331.0</ele><time>2026-04-30T14:59:49.999Z</time></trkpt><trkpt lat="45.7627176624193" lon="8.876213470637511"><ele>331.0</ele><time>2026-04-30T14:59:50.999Z</time></trkpt><trkpt lat="45.762641973253984" lon="8.876198624032462"><ele>331.0</ele><time>2026-04-30T14:59:51.999Z</time></trkpt><trkpt lat="45.76257256676502" lon="8.876184747517854"><ele>331.0</ele><time>2026-04-30T14:59:52.999Z</time></trkpt><trkpt lat="45.76250369393295" lon="8.876170806540486"><ele>331.0</ele><time>2026-04-30T14:59:53.999Z</time></trkpt><trkpt lat="45.762433755118174" lon="8.876155632814635"><ele>331.0</ele><time>2026-04-30T14:59:54.999Z</time></trkpt><trkpt lat="45.76236318931997" lon="8.876143074730871"><ele>331.0</ele><time>2026-04-30T14:59:55.999Z</time></trkpt><trkpt lat="45.76229041621701" lon="8.876127886223076"><ele>331.0</ele><time>2026-04-30T14:59:56.999Z</time></trkpt><trkpt lat="45.76221383275859" lon="8.87611187372682"><ele>331.0</ele><time>2026-04-30T14:59:57.999Z</time></trkpt><trkpt lat="45.762129063977476" lon="8.876093071903378"><ele>331.0</ele><time>2026-04-30T14:59:58.999Z</time></trkpt><trkpt lat="45.76203772097799" lon="8.876075949070914"><ele>331.0</ele><time>2026-04-30T14:59:59.999Z</time></trkpt><trkpt lat="45.761939797267466" lon="8.876036541007348"><ele>330.20000000000005</ele><time>2026-04-30T15:00:00.999Z</time></trkpt><trkpt lat="45.76183322821316" lon="8.876015375467018"><ele>329.40000000000003</ele><time>2026-04-30T15:00:01.999Z</time></trkpt><trkpt lat="45.76172125834082" lon="8.875993132863147"><ele>328.6</ele><time>2026-04-30T15:00:02.999Z</time></trkpt><trkpt lat="45.761602535931516" lon="8.875969548906683"><ele>327.8</ele><time>2026-04-30T15:00:03.999Z</time></trkpt><trkpt lat="45.76149903330937" lon="8.875948991550652"><ele>327.0</ele><time>2026-04-30T15:00:05Z</time></trkpt><trkpt lat="45.76140312773339" lon="8.875953676075586"><ele>326.40000000000003</ele><time>2026-04-30T15:00:06Z</time></trkpt><trkpt lat="45.7613131384633" lon="8.875935366111145"><ele>325.8</ele><time>2026-04-30T15:00:07Z</time></trkpt><trkpt lat="45.761236111822406" lon="8.875896778242486"><ele>325.2</ele><time>2026-04-30T15:00:08Z</time></trkpt><trkpt lat="45.761148083669454" lon="8.87587929682637"><ele>324.6</ele><time>2026-04-30T15:00:09Z</time></trkpt><trkpt lat="45.76105166721098" lon="8.87586014956406"><ele>324.0</ele><time>2026-04-30T15:00:10Z</time></trkpt><trkpt lat="45.76094571983205" lon="8.875839109584275"><ele>323.75</ele><time>2026-04-30T15:00:11Z</time></trkpt><trkpt lat="45.76082954083418" lon="8.875816037756623"><ele>323.5</ele><time>2026-04-30T15:00:12Z</time></trkpt><trkpt lat="45.7607055773435" lon="8.875824736390234"><ele>323.25</ele><time>2026-04-30T15:00:13Z</time></trkpt><trkpt lat="45.760595075284186" lon="8.875804251374051"><ele>323.0</ele><time>2026-04-30T15:00:14Z</time></trkpt><trkpt lat="45.76048040042009" lon="8.875778830408569"><ele>323.0</ele><time>2026-04-30T15:00:15Z</time></trkpt><trkpt lat="45.76036289696874" lon="8.875751947652839"><ele>323.0</ele><time>2026-04-30T15:00:16Z</time></trkpt><trkpt lat="45.76024481229427" lon="8.875702109968435"><ele>323.0</ele><time>2026-04-30T15:00:17Z</time></trkpt><trkpt lat="45.76012282271803" lon="8.875678399288558"><ele>323.0</ele><time>2026-04-30T15:00:18Z</time></trkpt><trkpt lat="45.759997538896414" lon="8.875685239306675"><ele>323.75</ele><time>2026-04-30T15:00:19Z</time></trkpt><trkpt lat="45.75987359813465" lon="8.875660839059796"><ele>324.5</ele><time>2026-04-30T15:00:20Z</time></trkpt><trkpt lat="45.75975288873338" lon="8.875634992775579"><ele>325.25</ele><time>2026-04-30T15:00:21Z</time></trkpt><trkpt lat="45.7596331732805" lon="8.875610433503686"><ele>326.0</ele><time>2026-04-30T15:00:22Z</time></trkpt><trkpt lat="45.75951823556877" lon="8.87555793703108"><ele>326.0</ele><time>2026-04-30T15:00:23Z</time></trkpt><trkpt lat="45.759410158235106" lon="8.875537155229635"><ele>326.0</ele><time>2026-04-30T15:00:24Z</time></trkpt><trkpt lat="45.75930547047658" lon="8.875516875186047"><ele>326.0</ele><time>2026-04-30T15:00:25Z</time></trkpt><trkpt lat="45.75920309599776" lon="8.87549665453392"><ele>326.0</ele><time>2026-04-30T15:00:26Z</time></trkpt><trkpt lat="45.75909705422888" lon="8.875475709519561"><ele>326.0</ele><time>2026-04-30T15:00:27Z</time></trkpt><trkpt lat="45.758989432350994" lon="8.875454452411427"><ele>326.0</ele><time>2026-04-30T15:00:28Z</time></trkpt><trkpt lat="45.758879881921665" lon="8.875440624976477"><ele>326.0</ele><time>2026-04-30T15:00:29Z</time></trkpt><trkpt lat="45.758768894778065" lon="8.875428676501874"><ele>326.0</ele><time>2026-04-30T15:00:30Z</time></trkpt><trkpt lat="45.7586563239828" lon="8.875433344681099"><ele>326.0</ele><time>2026-04-30T15:00:31Z</time></trkpt><trkpt lat="45.75854951243971" lon="8.875448268377362"><ele>326.0</ele><time>2026-04-30T15:00:32Z</time></trkpt><trkpt lat="45.75844876227983" lon="8.875470245622612"><ele>326.0</ele><time>2026-04-30T15:00:33Z</time></trkpt><trkpt lat="45.758358054012795" lon="8.875493276729882"><ele>326.0</ele><time>2026-04-30T15:00:34Z</time></trkpt><trkpt lat="45.75827304604947" lon="8.875518172912741"><ele>326.0</ele><time>2026-04-30T15:00:35Z</time></trkpt><trkpt lat="45.75819408675969" lon="8.875541505931887"><ele>326.0</ele><time>2026-04-30T15:00:36Z</time></trkpt><trkpt lat="45.75812289954509" lon="8.875567147519453"><ele>326.0</ele><time>2026-04-30T15:00:37Z</time></trkpt><trkpt lat="45.758054036968" lon="8.875590466018437"><ele>326.0</ele><time>2026-04-30T15:00:38Z</time></trkpt><trkpt lat="45.7579889358279" lon="8.875611824033422"><ele>326.0</ele><time>2026-04-30T15:00:39Z</time></trkpt><trkpt lat="45.7579212333025" lon="8.875634294025094"><ele>326.0</ele><time>2026-04-30T15:00:40Z</time></trkpt><trkpt lat="45.7578503819364" lon="8.875657809101705"><ele>326.0</ele><time>2026-04-30T15:00:41Z</time></trkpt><trkpt lat="45.757775603136906" lon="8.875683357127105"><ele>326.0</ele><time>2026-04-30T15:00:42Z</time></trkpt><trkpt lat="45.7576980112816" lon="8.87571004077108"><ele>326.0</ele><time>2026-04-30T15:00:43Z</time></trkpt><trkpt lat="45.7576190251234" lon="8.875737203925947"><ele>326.0</ele><time>2026-04-30T15:00:44Z</time></trkpt><trkpt lat="45.7575483315856" lon="8.875761515263875"><ele>326.0</ele><time>2026-04-30T15:00:45Z</time></trkpt><trkpt lat="45.75748630742204" lon="8.8757828446649"><ele>326.0</ele><time>2026-04-30T15:00:46Z</time></trkpt><trkpt lat="45.757387921222204" lon="8.875815729530206"><ele>326.0</ele><time>2026-04-30T15:00:48Z</time></trkpt><trkpt lat="45.757306374303944" lon="8.875843262836653"><ele>326.0</ele><time>2026-04-30T15:00:50Z</time></trkpt><trkpt lat="45.75722667685752" lon="8.875870171613347"><ele>326.0</ele><time>2026-04-30T15:00:52Z</time></trkpt><trkpt lat="45.757139298626875" lon="8.875899390621514"><ele>326.0</ele><time>2026-04-30T15:00:54Z</time></trkpt><trkpt lat="45.757035822568255" lon="8.875934004916639"><ele>326.33333333333337</ele><time>2026-04-30T15:00:56Z</time></trkpt><trkpt lat="45.756963287766396" lon="8.87599248889626"><ele>326.6666666666667</ele><time>2026-04-30T15:00:58Z</time></trkpt><trkpt lat="45.756898898825675" lon="8.87601579517171"><ele>327.0</ele><time>2026-04-30T15:00:59Z</time></trkpt><trkpt lat="45.75681474262329" lon="8.876041080436565"><ele>327.3333333333333</ele><time>2026-04-30T15:01:00Z</time></trkpt><trkpt lat="45.756722367733616" lon="8.87607151571087"><ele>327.66666666666663</ele><time>2026-04-30T15:01:01Z</time></trkpt><trkpt lat="45.756635168665525" lon="8.876102516594031"><ele>328.0</ele><time>2026-04-30T15:01:01.999Z</time></trkpt><trkpt lat="45.7565509373436" lon="8.876131231345939"><ele>328.0</ele><time>2026-04-30T15:01:02.999Z</time></trkpt><trkpt lat="45.75646940160219" lon="8.876157523438879"><ele>328.0</ele><time>2026-04-30T15:01:03.999Z</time></trkpt><trkpt lat="45.75638659188815" lon="8.87618225071342"><ele>328.0</ele><time>2026-04-30T15:01:04.999Z</time></trkpt><trkpt lat="45.7563096004913" lon="8.876206250394768"><ele>328.0</ele><time>2026-04-30T15:01:05.999Z</time></trkpt><trkpt lat="45.75623429840079" lon="8.876233792534276"><ele>328.0</ele><time>2026-04-30T15:01:06.999Z</time></trkpt><trkpt lat="45.756161535259146" lon="8.87626286371996"><ele>328.0</ele><time>2026-04-30T15:01:07.999Z</time></trkpt><trkpt lat="45.756084546815664" lon="8.876252436770226"><ele>327.3333333333333</ele><time>2026-04-30T15:01:08.999Z</time></trkpt><trkpt lat="45.756023738459035" lon="8.876303341693424"><ele>326.66666666666663</ele><time>2026-04-30T15:01:09.999Z</time></trkpt><trkpt lat="45.75596156179363" lon="8.876323915736513"><ele>326.0</ele><time>2026-04-30T15:01:10.999Z</time></trkpt><trkpt lat="45.75589773428451" lon="8.876343900057917"><ele>325.3333333333333</ele><time>2026-04-30T15:01:11.999Z</time></trkpt><trkpt lat="45.75577183909987" lon="8.87635641537947"><ele>324.6666666666667</ele><time>2026-04-30T15:01:13.999Z</time></trkpt><trkpt lat="45.75570170218943" lon="8.876379756965065"><ele>324.0</ele><time>2026-04-30T15:01:14.999Z</time></trkpt><trkpt lat="45.75563743935748" lon="8.87640114357288"><ele>324.0</ele><time>2026-04-30T15:01:15.999Z</time></trkpt><trkpt lat="45.75554040412881" lon="8.876434352200626"><ele>324.0</ele><time>2026-04-30T15:01:17.999Z</time></trkpt><trkpt lat="45.75547894003403" lon="8.876455479088655"><ele>324.0</ele><time>2026-04-30T15:01:19.999Z</time></trkpt><trkpt lat="45.75541134658861" lon="8.87647871280205"><ele>324.0</ele><time>2026-04-30T15:01:30.999Z</time></trkpt><trkpt lat="45.755257479493565" lon="8.876531603119878"><ele>324.0</ele><time>2026-04-30T15:01:32.999Z</time></trkpt><trkpt lat="45.75512883727443" lon="8.876596904068911"><ele>324.0</ele><time>2026-04-30T15:01:33.999Z</time></trkpt><trkpt lat="45.75495606526297" lon="8.87664306874369"><ele>324.0</ele><time>2026-04-30T15:01:34.999Z</time></trkpt><trkpt lat="45.75476155744617" lon="8.876708493057121"><ele>324.0</ele><time>2026-04-30T15:01:35.999Z</time></trkpt><trkpt lat="45.75457159022141" lon="8.876782441995537"><ele>323.5</ele><time>2026-04-30T15:01:36.999Z</time></trkpt><trkpt lat="45.75440632093362" lon="8.876839051261976"><ele>323.0</ele><time>2026-04-30T15:01:37.999Z</time></trkpt><trkpt lat="45.75427214995457" lon="8.876884103025665"><ele>322.5</ele><time>2026-04-30T15:01:38.999Z</time></trkpt><trkpt lat="45.754141125442324" lon="8.876925046421176"><ele>322.0</ele><time>2026-04-30T15:01:39.999Z</time></trkpt><trkpt lat="45.75402283543296" lon="8.876968702365614"><ele>322.0</ele><time>2026-04-30T15:01:40.999Z</time></trkpt><trkpt lat="45.75390968540213" lon="8.877009845182998"><ele>322.0</ele><time>2026-04-30T15:01:41.999Z</time></trkpt><trkpt lat="45.75380038624287" lon="8.877047095436287"><ele>322.0</ele><time>2026-04-30T15:01:42.999Z</time></trkpt><trkpt lat="45.75371342634624" lon="8.87707539248115"><ele>322.0</ele><time>2026-04-30T15:01:43.999Z</time></trkpt><trkpt lat="45.753646094477375" lon="8.877076730935434"><ele>322.0</ele><time>2026-04-30T15:01:44.999Z</time></trkpt><trkpt lat="45.75356991484715" lon="8.877102500664062"><ele>321.75</ele><time>2026-04-30T15:01:45.999Z</time></trkpt><trkpt lat="45.75345172728675" lon="8.877164781628348"><ele>321.5</ele><time>2026-04-30T15:01:46.999Z</time></trkpt><trkpt lat="45.75330556617191" lon="8.87721437996787"><ele>321.25</ele><time>2026-04-30T15:01:47.999Z</time></trkpt><trkpt lat="45.75313543170298" lon="8.877247543264723"><ele>321.0</ele><time>2026-04-30T15:01:48.999Z</time></trkpt><trkpt lat="45.75296899860299" lon="8.877328417624092"><ele>321.0</ele><time>2026-04-30T15:01:49.999Z</time></trkpt><trkpt lat="45.752791332761404" lon="8.87738389119667"><ele>321.0</ele><time>2026-04-30T15:01:50.999Z</time></trkpt><trkpt lat="45.75264589620067" lon="8.877435236022873"><ele>321.0</ele><time>2026-04-30T15:01:51.999Z</time></trkpt><trkpt lat="45.75253312250272" lon="8.87747719437655"><ele>321.0</ele><time>2026-04-30T15:01:52.999Z</time></trkpt><trkpt lat="45.75243543392753" lon="8.87748396772687"><ele>321.0</ele><time>2026-04-30T15:01:53.999Z</time></trkpt><trkpt lat="45.75231911817484" lon="8.877523940908516"><ele>321.0</ele><time>2026-04-30T15:01:54.999Z</time></trkpt><trkpt lat="45.75217275247582" lon="8.877594586091048"><ele>321.0</ele><time>2026-04-30T15:01:55.999Z</time></trkpt><trkpt lat="45.7519848658322" lon="8.877645414285938"><ele>320.6666666666667</ele><time>2026-04-30T15:01:56.999Z</time></trkpt><trkpt lat="45.75181487651153" lon="8.877706416373574"><ele>320.33333333333337</ele><time>2026-04-30T15:01:57.999Z</time></trkpt><trkpt lat="45.75166820391509" lon="8.877756622000112"><ele>320.0</ele><time>2026-04-30T15:01:58.999Z</time></trkpt><trkpt lat="45.75154614414159" lon="8.87779387827376"><ele>320.0</ele><time>2026-04-30T15:01:59.999Z</time></trkpt><trkpt lat="45.75144317701755" lon="8.877823592195577"><ele>320.0</ele><time>2026-04-30T15:02:00.999Z</time></trkpt><trkpt lat="45.751359046287114" lon="8.877852095616069"><ele>320.0</ele><time>2026-04-30T15:02:01.999Z</time></trkpt><trkpt lat="45.751271702706156" lon="8.877878203951107"><ele>320.0</ele><time>2026-04-30T15:02:03.999Z</time></trkpt><trkpt lat="45.75112734142755" lon="8.877919874945249"><ele>320.0</ele><time>2026-04-30T15:02:54Z</time></trkpt><trkpt lat="45.751020373960806" lon="8.877961726284246"><ele>319.6666666666667</ele><time>2026-04-30T15:02:55Z</time></trkpt><trkpt lat="45.7508747882343" lon="8.878020256945838"><ele>319.3333333333333</ele><time>2026-04-30T15:02:56Z</time></trkpt><trkpt lat="45.750711329941" lon="8.878074477553824"><ele>319.0</ele><time>2026-04-30T15:02:57Z</time></trkpt><trkpt lat="45.75053552318068" lon="8.878133900847802"><ele>319.0</ele><time>2026-04-30T15:02:58Z</time></trkpt><trkpt lat="45.750350392564656" lon="8.878195625483277"><ele>319.0</ele><time>2026-04-30T15:02:59Z</time></trkpt><trkpt lat="45.750157232914496" lon="8.878261568386758"><ele>319.0</ele><time>2026-04-30T15:03:00Z</time></trkpt><trkpt lat="45.74995846656941" lon="8.878328274955122"><ele>318.66666666666663</ele><time>2026-04-30T15:03:01Z</time></trkpt><trkpt lat="45.749778013601656" lon="8.878387898780993"><ele>318.3333333333333</ele><time>2026-04-30T15:03:02Z</time></trkpt><trkpt lat="45.74961080077168" lon="8.878446539945134"><ele>318.0</ele><time>2026-04-30T15:03:03Z</time></trkpt><trkpt lat="45.74943511854767" lon="8.878506330331415"><ele>317.3333333333333</ele><time>2026-04-30T15:03:04Z</time></trkpt><trkpt lat="45.74925516999247" lon="8.878570257168814"><ele>316.66666666666663</ele><time>2026-04-30T15:03:05Z</time></trkpt><trkpt lat="45.74907096117702" lon="8.878634499892838"><ele>316.0</ele><time>2026-04-30T15:03:06Z</time></trkpt><trkpt lat="45.748883076517075" lon="8.878697062251122"><ele>316.0</ele><time>2026-04-30T15:03:07Z</time></trkpt><trkpt lat="45.74869688691918" lon="8.878761415849285"><ele>316.0</ele><time>2026-04-30T15:03:08Z</time></trkpt><trkpt lat="45.74851752525627" lon="8.878826107903496"><ele>316.0</ele><time>2026-04-30T15:03:09Z</time></trkpt><trkpt lat="45.74835276301369" lon="8.87888452573675"><ele>315.66666666666663</ele><time>2026-04-30T15:03:10Z</time></trkpt><trkpt lat="45.74819215526523" lon="8.878936178416849"><ele>315.3333333333333</ele><time>2026-04-30T15:03:11Z</time></trkpt><trkpt lat="45.7479988648248" lon="8.879002372145353"><ele>315.0</ele><time>2026-04-30T15:03:12Z</time></trkpt><trkpt lat="45.74777432578454" lon="8.87907615674969"><ele>315.5</ele><time>2026-04-30T15:03:13Z</time></trkpt><trkpt lat="45.747544541169574" lon="8.879152623834628"><ele>316.0</ele><time>2026-04-30T15:03:14Z</time></trkpt><trkpt lat="45.74731643453917" lon="8.879232927900398"><ele>315.5</ele><time>2026-04-30T15:03:15Z</time></trkpt><trkpt lat="45.74708765763855" lon="8.87930569095999"><ele>315.0</ele><time>2026-04-30T15:03:16Z</time></trkpt><trkpt lat="45.7468779802676" lon="8.879375444173665"><ele>315.3333333333333</ele><time>2026-04-30T15:03:17Z</time></trkpt><trkpt lat="45.7466838578392" lon="8.87943882847407"><ele>315.66666666666663</ele><time>2026-04-30T15:03:18Z</time></trkpt><trkpt lat="45.74649531532371" lon="8.879498921173766"><ele>316.0</ele><time>2026-04-30T15:03:19Z</time></trkpt><trkpt lat="45.74632056192407" lon="8.879553725018452"><ele>316.0</ele><time>2026-04-30T15:03:20Z</time></trkpt><trkpt lat="45.74615639474559" lon="8.879605518262933"><ele>316.0</ele><time>2026-04-30T15:03:20.999Z</time></trkpt><trkpt lat="45.74599895549955" lon="8.879657680633873"><ele>316.0</ele><time>2026-04-30T15:03:21.999Z</time></trkpt><trkpt lat="45.74583981338632" lon="8.879714340916458"><ele>316.0</ele><time>2026-04-30T15:03:22.999Z</time></trkpt><trkpt lat="45.7456899125126" lon="8.879764131896515"><ele>316.0</ele><time>2026-04-30T15:03:23.999Z</time></trkpt><trkpt lat="45.74554775148579" lon="8.879811726005414"><ele>316.0</ele><time>2026-04-30T15:03:24.999Z</time></trkpt><trkpt lat="45.74540396513319" lon="8.879862138501109"><ele>316.0</ele><time>2026-04-30T15:03:25.999Z</time></trkpt><trkpt lat="45.74526222031331" lon="8.879905269818268"><ele>315.5</ele><time>2026-04-30T15:03:26.999Z</time></trkpt><trkpt lat="45.74513208181936" lon="8.879942267405276"><ele>315.0</ele><time>2026-04-30T15:03:27.999Z</time></trkpt><trkpt lat="45.74501071697592" lon="8.879977918775982"><ele>314.5</ele><time>2026-04-30T15:03:28.999Z</time></trkpt><trkpt lat="45.74489532157807" lon="8.88000623994436"><ele>314.0</ele><time>2026-04-30T15:03:29.999Z</time></trkpt><trkpt lat="45.74478692374297" lon="8.880025597043604"><ele>313.99999999999994</ele><time>2026-04-30T15:03:30.999Z</time></trkpt><trkpt lat="45.74469438288335" lon="8.880040221374705"><ele>314.0</ele><time>2026-04-30T15:03:31.999Z</time></trkpt><trkpt lat="45.744622586896305" lon="8.880048709929339"><ele>314.0</ele><time>2026-04-30T15:03:32.999Z</time></trkpt><trkpt lat="45.74455789667843" lon="8.880051260486164"><ele>314.0</ele><time>2026-04-30T15:03:33.999Z</time></trkpt><trkpt lat="45.744489588854165" lon="8.880031593174605"><ele>314.0</ele><time>2026-04-30T15:03:34.999Z</time></trkpt><trkpt lat="45.74442651899949" lon="8.880002750817876"><ele>313.99999999999994</ele><time>2026-04-30T15:03:35.999Z</time></trkpt><trkpt lat="45.744363759578015" lon="8.879988973193482"><ele>314.0</ele><time>2026-04-30T15:03:36.999Z</time></trkpt><trkpt lat="45.74429421890626" lon="8.880004156775154"><ele>314.1666666666667</ele><time>2026-04-30T15:03:37.999Z</time></trkpt><trkpt lat="45.74422459313232" lon="8.88004348319416"><ele>314.33333333333337</ele><time>2026-04-30T15:03:38.999Z</time></trkpt><trkpt lat="45.74415320928299" lon="8.880094509975203"><ele>314.5</ele><time>2026-04-30T15:03:39.999Z</time></trkpt><trkpt lat="45.74407264417956" lon="8.880139786728154"><ele>314.6666666666667</ele><time>2026-04-30T15:03:40.999Z</time></trkpt><trkpt lat="45.74397628978353" lon="8.880132473028869"><ele>314.8333333333333</ele><time>2026-04-30T15:03:41.999Z</time></trkpt><trkpt lat="45.74387501918015" lon="8.880146616073425"><ele>315.0</ele><time>2026-04-30T15:03:42.999Z</time></trkpt><trkpt lat="45.74378476165531" lon="8.880181377171931"><ele>316.4</ele><time>2026-04-30T15:03:43.999Z</time></trkpt><trkpt lat="45.74368920422048" lon="8.880172424950283"><ele>317.8</ele><time>2026-04-30T15:03:44.999Z</time></trkpt><trkpt lat="45.74359338133211" lon="8.880185604472965"><ele>319.20000000000005</ele><time>2026-04-30T15:03:45.999Z</time></trkpt><trkpt lat="45.743488081687254" lon="8.880198990328601"><ele>320.6</ele><time>2026-04-30T15:03:46.999Z</time></trkpt><trkpt lat="45.74336633892885" lon="8.880213611921153"><ele>322.0</ele><time>2026-04-30T15:03:47.999Z</time></trkpt><trkpt lat="45.74323702114436" lon="8.88022914329498"><ele>324.0</ele><time>2026-04-30T15:03:48.999Z</time></trkpt><trkpt lat="45.743112769649215" lon="8.880244066194185"><ele>326.0</ele><time>2026-04-30T15:03:49.999Z</time></trkpt><trkpt lat="45.74299297423879" lon="8.880258453906627"><ele>328.0</ele><time>2026-04-30T15:03:50.999Z</time></trkpt><trkpt lat="45.742869460229294" lon="8.880272570113034"><ele>330.0</ele><time>2026-04-30T15:03:51.999Z</time></trkpt><trkpt lat="45.742745465142214" lon="8.88030659016962"><ele>329.5</ele><time>2026-04-30T15:03:52.999Z</time></trkpt><trkpt lat="45.74261893711318" lon="8.880319330594547"><ele>329.0</ele><time>2026-04-30T15:03:53.999Z</time></trkpt><trkpt lat="45.742488339632516" lon="8.880310309738883"><ele>328.5</ele><time>2026-04-30T15:03:54.999Z</time></trkpt><trkpt lat="45.742370001484844" lon="8.880347139929992"><ele>328.0</ele><time>2026-04-30T15:03:55.999Z</time></trkpt><trkpt lat="45.74226370857928" lon="8.880363619568152"><ele>328.0</ele><time>2026-04-30T15:03:56.999Z</time></trkpt><trkpt lat="45.74216563044085" lon="8.880381974220656"><ele>328.0</ele><time>2026-04-30T15:03:57.999Z</time></trkpt><trkpt lat="45.74207726080019" lon="8.880396413056346"><ele>328.0</ele><time>2026-04-30T15:03:58.999Z</time></trkpt><trkpt lat="45.74200206670426" lon="8.88040169478769"><ele>328.0</ele><time>2026-04-30T15:03:59.999Z</time></trkpt><trkpt lat="45.741901586023545" lon="8.880359175009104"><ele>328.0</ele><time>2026-04-30T15:04:01.999Z</time></trkpt><trkpt lat="45.74182243677391" lon="8.880301192102817"><ele>326.66666666666663</ele><time>2026-04-30T15:04:03.999Z</time></trkpt><trkpt lat="45.741745466751176" lon="8.880251545494923"><ele>325.3333333333333</ele><time>2026-04-30T15:04:04.999Z</time></trkpt><trkpt lat="45.74166634955356" lon="8.880228471647465"><ele>324.0</ele><time>2026-04-30T15:04:05.999Z</time></trkpt><trkpt lat="45.741591353242605" lon="8.880253392253575"><ele>322.6666666666667</ele><time>2026-04-30T15:04:06.999Z</time></trkpt><trkpt lat="45.74151424553974" lon="8.88032338672072"><ele>321.33333333333337</ele><time>2026-04-30T15:04:07.999Z</time></trkpt><trkpt lat="45.74144172720279" lon="8.88042717630019"><ele>320.0</ele><time>2026-04-30T15:04:08.999Z</time></trkpt><trkpt lat="45.74137754237356" lon="8.880563183473097"><ele>320.0</ele><time>2026-04-30T15:04:09.999Z</time></trkpt><trkpt lat="45.74131474161346" lon="8.880718069280315"><ele>320.0</ele><time>2026-04-30T15:04:10.999Z</time></trkpt><trkpt lat="45.7412415058037" lon="8.880848768628534"><ele>320.0</ele><time>2026-04-30T15:04:11.999Z</time></trkpt><trkpt lat="45.74115824425103" lon="8.880977690250049"><ele>320.0</ele><time>2026-04-30T15:04:12.999Z</time></trkpt><trkpt lat="45.74106979762277" lon="8.88110359276679"><ele>319.0</ele><time>2026-04-30T15:04:13.999Z</time></trkpt><trkpt lat="45.74096778119391" lon="8.881227619126637"><ele>318.0</ele><time>2026-04-30T15:04:14.999Z</time></trkpt><trkpt lat="45.74085195416729" lon="8.881346504390406"><ele>317.0</ele><time>2026-04-30T15:04:15.999Z</time></trkpt><trkpt lat="45.74073223286369" lon="8.881458796815508"><ele>316.0</ele><time>2026-04-30T15:04:17Z</time></trkpt><trkpt lat="45.74059474791203" lon="8.881549886601343"><ele>316.0</ele><time>2026-04-30T15:04:18Z</time></trkpt><trkpt lat="45.74047682698892" lon="8.881679190935852"><ele>316.0</ele><time>2026-04-30T15:04:19Z</time></trkpt><trkpt lat="45.740355426946415" lon="8.881776632248792"><ele>316.0</ele><time>2026-04-30T15:04:20Z</time></trkpt><trkpt lat="45.74023396270924" lon="8.881876298281735"><ele>316.0</ele><time>2026-04-30T15:04:21Z</time></trkpt><trkpt lat="45.74012296881736" lon="8.88196619974042"><ele>316.5</ele><time>2026-04-30T15:04:22Z</time></trkpt><trkpt lat="45.74000710237012" lon="8.882056936121483"><ele>317.0</ele><time>2026-04-30T15:04:23Z</time></trkpt><trkpt lat="45.73987806452349" lon="8.88215061961704"><ele>317.5</ele><time>2026-04-30T15:04:24Z</time></trkpt><trkpt lat="45.73973774070867" lon="8.882237276919607"><ele>318.0</ele><time>2026-04-30T15:04:25Z</time></trkpt><trkpt lat="45.73958912593893" lon="8.882309365732606"><ele>318.0</ele><time>2026-04-30T15:04:26Z</time></trkpt><trkpt lat="45.739425454057894" lon="8.882343669305722"><ele>318.0</ele><time>2026-04-30T15:04:27Z</time></trkpt><trkpt lat="45.73924975212419" lon="8.882387631987404"><ele>318.0</ele><time>2026-04-30T15:04:28Z</time></trkpt><trkpt lat="45.73907221758495" lon="8.882428296886534"><ele>317.0</ele><time>2026-04-30T15:04:29Z</time></trkpt><trkpt lat="45.73885753868036" lon="8.882476269612717"><ele>316.0</ele><time>2026-04-30T15:04:30Z</time></trkpt><trkpt lat="45.73861917549866" lon="8.882529534897916"><ele>315.3333333333333</ele><time>2026-04-30T15:04:31Z</time></trkpt><trkpt lat="45.738411641578054" lon="8.882576716232048"><ele>314.6666666666667</ele><time>2026-04-30T15:04:32Z</time></trkpt><trkpt lat="45.73822571513807" lon="8.882619104665647"><ele>314.0</ele><time>2026-04-30T15:04:33Z</time></trkpt><trkpt lat="45.738063619263365" lon="8.882656059960915"><ele>314.0</ele><time>2026-04-30T15:04:34Z</time></trkpt><trkpt lat="45.73791869791857" lon="8.882709889849423"><ele>314.0</ele><time>2026-04-30T15:04:35Z</time></trkpt><trkpt lat="45.737771950029384" lon="8.882743579144103"><ele>314.0</ele><time>2026-04-30T15:04:36Z</time></trkpt><trkpt lat="45.73763737264686" lon="8.882773959250962"><ele>314.0</ele><time>2026-04-30T15:04:37Z</time></trkpt><trkpt lat="45.73749544927828" lon="8.882805771051775"><ele>314.0</ele><time>2026-04-30T15:04:38Z</time></trkpt><trkpt lat="45.7373721319102" lon="8.88283527076093"><ele>314.0</ele><time>2026-04-30T15:04:39Z</time></trkpt><trkpt lat="45.73725624259783" lon="8.882857562747086"><ele>314.0</ele><time>2026-04-30T15:04:40Z</time></trkpt><trkpt lat="45.73714987835108" lon="8.882882448962981"><ele>314.0</ele><time>2026-04-30T15:04:41Z</time></trkpt><trkpt lat="45.737053416222025" lon="8.882907174090256"><ele>314.0</ele><time>2026-04-30T15:04:42Z</time></trkpt><trkpt lat="45.73696080462136" lon="8.88293032154942"><ele>314.0</ele><time>2026-04-30T15:04:43Z</time></trkpt><trkpt lat="45.7368606133366" lon="8.882953049679518"><ele>314.0</ele><time>2026-04-30T15:04:44Z</time></trkpt><trkpt lat="45.73675888229856" lon="8.88297811661851"><ele>314.0</ele><time>2026-04-30T15:04:45Z</time></trkpt><trkpt lat="45.73666452837525" lon="8.88300067604454"><ele>314.0</ele><time>2026-04-30T15:04:46Z</time></trkpt><trkpt lat="45.73657922320686" lon="8.88302006797341"><ele>314.0</ele><time>2026-04-30T15:04:47Z</time></trkpt><trkpt lat="45.73650194001831" lon="8.883038798513246"><ele>313.99999999999994</ele><time>2026-04-30T15:04:48Z</time></trkpt><trkpt lat="45.73642772224211" lon="8.883055737634065"><ele>314.0</ele><time>2026-04-30T15:04:49Z</time></trkpt><trkpt lat="45.73634955894175" lon="8.883071381484097"><ele>314.0</ele><time>2026-04-30T15:04:50Z</time></trkpt><trkpt lat="45.73627104679606" lon="8.883083055769253"><ele>314.0</ele><time>2026-04-30T15:04:51Z</time></trkpt><trkpt lat="45.73619453082055" lon="8.883086858815041"><ele>314.0</ele><time>2026-04-30T15:04:52Z</time></trkpt><trkpt lat="45.73612536281778" lon="8.883080792629025"><ele>313.99999999999994</ele><time>2026-04-30T15:04:53Z</time></trkpt><trkpt lat="45.736056322584595" lon="8.883065223926119"><ele>314.0</ele><time>2026-04-30T15:04:54Z</time></trkpt><trkpt lat="45.73599153226135" lon="8.883057286043242"><ele>313.4</ele><time>2026-04-30T15:04:55Z</time></trkpt><trkpt lat="45.73587668346499" lon="8.88310713454758"><ele>312.79999999999995</ele><time>2026-04-30T15:04:57Z</time></trkpt><trkpt lat="45.7358272119322" lon="8.88317173758662"><ele>312.20000000000005</ele><time>2026-04-30T15:04:58Z</time></trkpt><trkpt lat="45.73571421140743" lon="8.88318696748044"><ele>311.6</ele><time>2026-04-30T15:05:00Z</time></trkpt><trkpt lat="45.735586030769696" lon="8.883217910284857"><ele>311.0</ele><time>2026-04-30T15:05:02Z</time></trkpt><trkpt lat="45.73552340562143" lon="8.883233027996592"><ele>311.0</ele><time>2026-04-30T15:05:03Z</time></trkpt><trkpt lat="45.73540514866313" lon="8.883261575226122"><ele>311.0</ele><time>2026-04-30T15:05:05Z</time></trkpt><trkpt lat="45.73526724988395" lon="8.883291730762425"><ele>311.0</ele><time>2026-04-30T15:05:07Z</time></trkpt><trkpt lat="45.735179562616096" lon="8.883311433512594"><ele>311.0</ele><time>2026-04-30T15:05:08Z</time></trkpt><trkpt lat="45.735096354223096" lon="8.883330103789886"><ele>311.0</ele><time>2026-04-30T15:05:09Z</time></trkpt><trkpt lat="45.735020677231404" lon="8.88334708415654"><ele>311.0</ele><time>2026-04-30T15:05:10Z</time></trkpt><trkpt lat="45.734940517647644" lon="8.88336558163533"><ele>311.0</ele><time>2026-04-30T15:05:11Z</time></trkpt><trkpt lat="45.734853710935724" lon="8.883386277583405"><ele>311.0</ele><time>2026-04-30T15:05:12Z</time></trkpt><trkpt lat="45.7347661269571" lon="8.883407052567827"><ele>311.0</ele><time>2026-04-30T15:05:13Z</time></trkpt><trkpt lat="45.734680666316564" lon="8.883427306518255"><ele>311.0</ele><time>2026-04-30T15:05:14Z</time></trkpt><trkpt lat="45.73459213314691" lon="8.883447677741202"><ele>311.0</ele><time>2026-04-30T15:05:15Z</time></trkpt><trkpt lat="45.73451710683609" lon="8.883464941077703"><ele>312.0</ele><time>2026-04-30T15:05:16Z</time></trkpt><trkpt lat="45.734448787705304" lon="8.883480661108717"><ele>313.0</ele><time>2026-04-30T15:05:17Z</time></trkpt><trkpt lat="45.73433489598333" lon="8.883506603257617"><ele>314.0</ele><time>2026-04-30T15:05:19Z</time></trkpt><trkpt lat="45.73422368415536" lon="8.883531445583024"><ele>315.0</ele><time>2026-04-30T15:05:21Z</time></trkpt><trkpt lat="45.73414921716301" lon="8.883548079900057"><ele>316.0</ele><time>2026-04-30T15:05:22Z</time></trkpt><trkpt lat="45.734070841519525" lon="8.883565587314793"><ele>316.0</ele><time>2026-04-30T15:05:23Z</time></trkpt><trkpt lat="45.733998819896605" lon="8.883582262620548"><ele>316.0</ele><time>2026-04-30T15:05:24Z</time></trkpt><trkpt lat="45.73393526168392" lon="8.883596888798946"><ele>316.0</ele><time>2026-04-30T15:05:25Z</time></trkpt><trkpt lat="45.733831633133946" lon="8.883620736070236"><ele>316.0</ele><time>2026-04-30T15:05:27Z</time></trkpt><trkpt lat="45.73373798155747" lon="8.883642922389196"><ele>316.0</ele><time>2026-04-30T15:05:29Z</time></trkpt><trkpt lat="45.733663422926476" lon="8.883660839766891"><ele>316.0</ele><time>2026-04-30T15:05:30Z</time></trkpt><trkpt lat="45.733573455353" lon="8.883682460107488"><ele>315.40000000000003</ele><time>2026-04-30T15:05:31Z</time></trkpt><trkpt lat="45.73347498497442" lon="8.883706509812592"><ele>314.8</ele><time>2026-04-30T15:05:32Z</time></trkpt><trkpt lat="45.73337029097858" lon="8.883734275385399"><ele>314.20000000000005</ele><time>2026-04-30T15:05:33Z</time></trkpt><trkpt lat="45.733270136640364" lon="8.88376128686941"><ele>313.6</ele><time>2026-04-30T15:05:34Z</time></trkpt><trkpt lat="45.73318449680291" lon="8.883786417244018"><ele>313.0</ele><time>2026-04-30T15:05:35Z</time></trkpt><trkpt lat="45.733109152376" lon="8.883812077814563"><ele>313.0</ele><time>2026-04-30T15:05:35.999Z</time></trkpt><trkpt lat="45.73301343756504" lon="8.88385303945097"><ele>313.0</ele><time>2026-04-30T15:05:37.999Z</time></trkpt><trkpt lat="45.73290577732897" lon="8.883908489769686"><ele>313.0</ele><time>2026-04-30T15:05:39.999Z</time></trkpt><trkpt lat="45.732836325776105" lon="8.883949239875625"><ele>313.0</ele><time>2026-04-30T15:05:41.999Z</time></trkpt><trkpt lat="45.732759483495265" lon="8.884004770386369"><ele>313.0</ele><time>2026-04-30T15:05:43.999Z</time></trkpt><trkpt lat="45.73270135259014" lon="8.884050692026966"><ele>313.0</ele><time>2026-04-30T15:05:44.999Z</time></trkpt><trkpt lat="45.732593368161275" lon="8.884137257466513"><ele>313.0</ele><time>2026-04-30T15:05:46.999Z</time></trkpt><trkpt lat="45.732556502944675" lon="8.884214377713072"><ele>313.0</ele><time>2026-04-30T15:05:47.999Z</time></trkpt><trkpt lat="45.732495920410116" lon="8.884271096072013"><ele>313.0</ele><time>2026-04-30T15:05:48.999Z</time></trkpt><trkpt lat="45.73242312698715" lon="8.884340502394927"><ele>313.0</ele><time>2026-04-30T15:05:49.999Z</time></trkpt><trkpt lat="45.73235396587822" lon="8.884407180400334"><ele>313.0</ele><time>2026-04-30T15:05:50.999Z</time></trkpt><trkpt lat="45.73226430218968" lon="8.884437635822152"><ele>313.0</ele><time>2026-04-30T15:05:51.999Z</time></trkpt><trkpt lat="45.73220099796571" lon="8.884496483359952"><ele>313.0</ele><time>2026-04-30T15:05:52.999Z</time></trkpt><trkpt lat="45.73214649827464" lon="8.884547146225012"><ele>313.0</ele><time>2026-04-30T15:05:53.999Z</time></trkpt><trkpt lat="45.73206997045062" lon="8.884657043609566"><ele>313.0</ele><time>2026-04-30T15:05:55.999Z</time></trkpt><trkpt lat="45.731965664723035" lon="8.88476137183762"><ele>313.0</ele><time>2026-04-30T15:05:57.999Z</time></trkpt><trkpt lat="45.731898910663965" lon="8.884819291087977"><ele>313.0</ele><time>2026-04-30T15:05:58.999Z</time></trkpt><trkpt lat="45.73182835682914" lon="8.884840543220077"><ele>312.4</ele><time>2026-04-30T15:05:59.999Z</time></trkpt><trkpt lat="45.73173699118995" lon="8.88492418310119"><ele>311.8</ele><time>2026-04-30T15:06:01.999Z</time></trkpt><trkpt lat="45.73167398906587" lon="8.884981846762848"><ele>311.2</ele><time>2026-04-30T15:06:04.999Z</time></trkpt><trkpt lat="45.73159836059922" lon="8.885051066881978"><ele>310.6</ele><time>2026-04-30T15:06:07.999Z</time></trkpt><trkpt lat="45.731539925499945" lon="8.885153926263675"><ele>310.0</ele><time>2026-04-30T15:06:09.999Z</time></trkpt><trkpt lat="45.73143962957769" lon="8.885260624495219"><ele>310.0</ele><time>2026-04-30T15:06:17.999Z</time></trkpt><trkpt lat="45.73136535972199" lon="8.885314213085957"><ele>310.0</ele><time>2026-04-30T15:06:18.999Z</time></trkpt><trkpt lat="45.73130181860617" lon="8.885374112425966"><ele>310.0</ele><time>2026-04-30T15:06:19.999Z</time></trkpt><trkpt lat="45.73124696622353" lon="8.88542345135596"><ele>310.0</ele><time>2026-04-30T15:06:20.999Z</time></trkpt><trkpt lat="45.73115961752423" lon="8.885501818603673"><ele>310.0</ele><time>2026-04-30T15:06:23Z</time></trkpt><trkpt lat="45.73108335776244" lon="8.885530385594151"><ele>310.0</ele><time>2026-04-30T15:06:29Z</time></trkpt><trkpt lat="45.73102860124968" lon="8.885581616040344"><ele>310.0</ele><time>2026-04-30T15:06:40Z</time></trkpt><trkpt lat="45.730973311854456" lon="8.885625365155867"><ele>310.0</ele><time>2026-04-30T15:06:42Z</time></trkpt><trkpt lat="45.73091466725146" lon="8.88566662614468"><ele>310.0</ele><time>2026-04-30T15:06:43Z</time></trkpt><trkpt lat="45.73083980971362" lon="8.885731005530683"><ele>310.0</ele><time>2026-04-30T15:06:44Z</time></trkpt><trkpt lat="45.7307491269701" lon="8.885806498335784"><ele>310.0</ele><time>2026-04-30T15:06:45Z</time></trkpt><trkpt lat="45.73065215327376" lon="8.885889355648601"><ele>310.0</ele><time>2026-04-30T15:06:46Z</time></trkpt><trkpt lat="45.730568884861185" lon="8.885957378952277"><ele>310.16666666666663</ele><time>2026-04-30T15:06:47Z</time></trkpt><trkpt lat="45.730507050330765" lon="8.886002321738857"><ele>310.3333333333333</ele><time>2026-04-30T15:06:48Z</time></trkpt><trkpt lat="45.730424882205035" lon="8.88604128863104"><ele>310.5</ele><time>2026-04-30T15:06:51Z</time></trkpt><trkpt lat="45.73035796089344" lon="8.886060949086811"><ele>310.6666666666667</ele><time>2026-04-30T15:06:54Z</time></trkpt><trkpt lat="45.730271035189176" lon="8.886065177233352"><ele>310.83333333333337</ele><time>2026-04-30T15:06:56Z</time></trkpt><trkpt lat="45.73015045806758" lon="8.886054127591153"><ele>311.0</ele><time>2026-04-30T15:06:58Z</time></trkpt><trkpt lat="45.73006219702098" lon="8.886053172927733"><ele>310.5</ele><time>2026-04-30T15:06:59Z</time></trkpt><trkpt lat="45.72997894283442" lon="8.886057110843463"><ele>310.0</ele><time>2026-04-30T15:07:00Z</time></trkpt><trkpt lat="45.72990242754065" lon="8.886041627735054"><ele>309.5</ele><time>2026-04-30T15:07:01Z</time></trkpt><trkpt lat="45.72982864392235" lon="8.885999738195952"><ele>309.0</ele><time>2026-04-30T15:07:02Z</time></trkpt><trkpt lat="45.72975835328741" lon="8.885920240218566"><ele>308.5</ele><time>2026-04-30T15:07:03Z</time></trkpt><trkpt lat="45.729694477596404" lon="8.885813137029524"><ele>308.0</ele><time>2026-04-30T15:07:04Z</time></trkpt><trkpt lat="45.729631940423175" lon="8.885709505645046"><ele>307.8</ele><time>2026-04-30T15:07:05Z</time></trkpt><trkpt lat="45.72957280611912" lon="8.885601321486394"><ele>307.6</ele><time>2026-04-30T15:07:06Z</time></trkpt><trkpt lat="45.729513889588496" lon="8.885490655951513"><ele>307.4</ele><time>2026-04-30T15:07:07Z</time></trkpt><trkpt lat="45.72945351959914" lon="8.885374711079894"><ele>307.2</ele><time>2026-04-30T15:07:08Z</time></trkpt><trkpt lat="45.72939370131146" lon="8.885258151537656"><ele>307.0</ele><time>2026-04-30T15:07:09Z</time></trkpt><trkpt lat="45.729334339660845" lon="8.885140616893217"><ele>307.4</ele><time>2026-04-30T15:07:10Z</time></trkpt><trkpt lat="45.72927494324445" lon="8.885019249283117"><ele>307.79999999999995</ele><time>2026-04-30T15:07:11Z</time></trkpt><trkpt lat="45.72921613362188" lon="8.884897839614707"><ele>308.2</ele><time>2026-04-30T15:07:12Z</time></trkpt><trkpt lat="45.729155262452615" lon="8.884774175832986"><ele>308.59999999999997</ele><time>2026-04-30T15:07:13Z</time></trkpt><trkpt lat="45.729093125248106" lon="8.884650358434534"><ele>309.0</ele><time>2026-04-30T15:07:14Z</time></trkpt><trkpt lat="45.729030821306466" lon="8.884524733525408"><ele>309.0</ele><time>2026-04-30T15:07:15Z</time></trkpt><trkpt lat="45.72897253860134" lon="8.884399546445461"><ele>309.0</ele><time>2026-04-30T15:07:16Z</time></trkpt><trkpt lat="45.728922679983896" lon="8.884279409633697"><ele>309.0</ele><time>2026-04-30T15:07:17Z</time></trkpt><trkpt lat="45.72888965070165" lon="8.884169411800013"><ele>309.0</ele><time>2026-04-30T15:07:18Z</time></trkpt><trkpt lat="45.72886733427928" lon="8.884062501121134"><ele>309.0</ele><time>2026-04-30T15:07:19Z</time></trkpt><trkpt lat="45.728862464939745" lon="8.883961223622805"><ele>309.0</ele><time>2026-04-30T15:07:20Z</time></trkpt><trkpt lat="45.728875415921635" lon="8.883864916482473"><ele>308.8333333333333</ele><time>2026-04-30T15:07:21Z</time></trkpt><trkpt lat="45.72888356441426" lon="8.883775189778865"><ele>308.6666666666667</ele><time>2026-04-30T15:07:22Z</time></trkpt><trkpt lat="45.72879184509295" lon="8.883655325456958"><ele>308.5</ele><time>2026-04-30T15:07:24Z</time></trkpt><trkpt lat="45.72871654524995" lon="8.88365777250895"><ele>308.33333333333337</ele><time>2026-04-30T15:07:25Z</time></trkpt><trkpt lat="45.72863550319525" lon="8.883662196547087"><ele>308.1666666666667</ele><time>2026-04-30T15:07:26Z</time></trkpt><trkpt lat="45.72854933465942" lon="8.883634694579605"><ele>308.0</ele><time>2026-04-30T15:07:27Z</time></trkpt><trkpt lat="45.72846157869358" lon="8.883577078932822"><ele>307.6</ele><time>2026-04-30T15:07:28Z</time></trkpt><trkpt lat="45.72837176192941" lon="8.883506238621743"><ele>307.20000000000005</ele><time>2026-04-30T15:07:29Z</time></trkpt><trkpt lat="45.728276723458144" lon="8.883431372481876"><ele>306.8</ele><time>2026-04-30T15:07:30Z</time></trkpt><trkpt lat="45.72817543601307" lon="8.883360127784764"><ele>306.40000000000003</ele><time>2026-04-30T15:07:31Z</time></trkpt><trkpt lat="45.72806965739361" lon="8.883292569776534"><ele>306.0</ele><time>2026-04-30T15:07:32Z</time></trkpt><trkpt lat="45.72797537406772" lon="8.88322800687923"><ele>305.6</ele><time>2026-04-30T15:07:33Z</time></trkpt><trkpt lat="45.72788519215919" lon="8.883162286668195"><ele>305.20000000000005</ele><time>2026-04-30T15:07:34Z</time></trkpt><trkpt lat="45.72779297202836" lon="8.883099465058919"><ele>304.79999999999995</ele><time>2026-04-30T15:07:35Z</time></trkpt><trkpt lat="45.72769678202042" lon="8.883037620151914"><ele>304.4</ele><time>2026-04-30T15:07:36Z</time></trkpt><trkpt lat="45.72759189684438" lon="8.88296794923698"><ele>304.0</ele><time>2026-04-30T15:07:36.999Z</time></trkpt><trkpt lat="45.72747330880243" lon="8.88288773333081"><ele>303.3333333333333</ele><time>2026-04-30T15:07:37.999Z</time></trkpt><trkpt lat="45.727343791351366" lon="8.882798103500166"><ele>302.6666666666667</ele><time>2026-04-30T15:07:38.999Z</time></trkpt><trkpt lat="45.72720533096304" lon="8.882704376557072"><ele>302.0</ele><time>2026-04-30T15:07:39.999Z</time></trkpt><trkpt lat="45.72706520493749" lon="8.882611145298002"><ele>302.25</ele><time>2026-04-30T15:07:40.999Z</time></trkpt><trkpt lat="45.72694159817585" lon="8.882530646868432"><ele>302.5</ele><time>2026-04-30T15:07:41.999Z</time></trkpt><trkpt lat="45.72682255550068" lon="8.882450776571948"><ele>302.75</ele><time>2026-04-30T15:07:42.999Z</time></trkpt><trkpt lat="45.726702181662795" lon="8.882370140243628"><ele>303.0</ele><time>2026-04-30T15:07:43.999Z</time></trkpt><trkpt lat="45.72657930218344" lon="8.882289422188288"><ele>303.0</ele><time>2026-04-30T15:07:44.999Z</time></trkpt><trkpt lat="45.726455241109605" lon="8.882209864033644"><ele>303.0</ele><time>2026-04-30T15:07:45.999Z</time></trkpt><trkpt lat="45.72633187763381" lon="8.88213059228358"><ele>303.0</ele><time>2026-04-30T15:07:46.999Z</time></trkpt><trkpt lat="45.726229094919226" lon="8.882040596676598"><ele>303.0</ele><time>2026-04-30T15:07:47.999Z</time></trkpt><trkpt lat="45.72612465867811" lon="8.881970613527164"><ele>303.0</ele><time>2026-04-30T15:07:48.999Z</time></trkpt><trkpt lat="45.7260232494155" lon="8.88191935115746"><ele>303.0</ele><time>2026-04-30T15:07:49.999Z</time></trkpt><trkpt lat="45.72593932225029" lon="8.881861554216131"><ele>303.0</ele><time>2026-04-30T15:07:50.999Z</time></trkpt><trkpt lat="45.72584536795991" lon="8.881806821196038"><ele>303.0</ele><time>2026-04-30T15:07:51.999Z</time></trkpt><trkpt lat="45.725767403781646" lon="8.881750443451555"><ele>303.0</ele><time>2026-04-30T15:07:52.999Z</time></trkpt><trkpt lat="45.72567453588918" lon="8.881691472963801"><ele>303.0</ele><time>2026-04-30T15:07:54.999Z</time></trkpt><trkpt lat="45.72561383757485" lon="8.88164499343839"><ele>303.0</ele><time>2026-04-30T15:07:57.999Z</time></trkpt><trkpt lat="45.72553021005003" lon="8.88158390272059"><ele>303.0</ele><time>2026-04-30T15:07:59.999Z</time></trkpt><trkpt lat="45.72545398823336" lon="8.881528620724339"><ele>303.0</ele><time>2026-04-30T15:08:01.999Z</time></trkpt><trkpt lat="45.725384715946916" lon="8.88148356723881"><ele>303.0</ele><time>2026-04-30T15:08:03.999Z</time></trkpt><trkpt lat="45.725325553876395" lon="8.881436955769399"><ele>303.0</ele><time>2026-04-30T15:08:05.999Z</time></trkpt><trkpt lat="45.72527222026656" lon="8.881368392235894"><ele>302.8333333333333</ele><time>2026-04-30T15:08:08.999Z</time></trkpt><trkpt lat="45.72522169181509" lon="8.881263432085822"><ele>302.6666666666667</ele><time>2026-04-30T15:08:12.999Z</time></trkpt><trkpt lat="45.725182659058596" lon="8.881175182412745"><ele>302.5</ele><time>2026-04-30T15:08:13.999Z</time></trkpt><trkpt lat="45.72513685219969" lon="8.881100668800968"><ele>302.33333333333337</ele><time>2026-04-30T15:08:14.999Z</time></trkpt><trkpt lat="45.72501731961962" lon="8.881052867481179"><ele>302.1666666666667</ele><time>2026-04-30T15:08:16.999Z</time></trkpt><trkpt lat="45.7249382407888" lon="8.88107147449083"><ele>302.0</ele><time>2026-04-30T15:08:17.999Z</time></trkpt><trkpt lat="45.724859606315455" lon="8.881074423527549"><ele>302.0</ele><time>2026-04-30T15:08:18.999Z</time></trkpt><trkpt lat="45.72477178840619" lon="8.881058079608602"><ele>302.0</ele><time>2026-04-30T15:08:19.999Z</time></trkpt><trkpt lat="45.724668593658464" lon="8.881007306542918"><ele>302.0</ele><time>2026-04-30T15:08:20.999Z</time></trkpt><trkpt lat="45.72455748076972" lon="8.880934622367745"><ele>302.0</ele><time>2026-04-30T15:08:21.999Z</time></trkpt><trkpt lat="45.72444410567461" lon="8.880853103332147"><ele>302.0</ele><time>2026-04-30T15:08:22.999Z</time></trkpt><trkpt lat="45.724332495936196" lon="8.880775530255907"><ele>301.0</ele><time>2026-04-30T15:08:23.999Z</time></trkpt><trkpt lat="45.72421664113749" lon="8.88069821587789"><ele>300.0</ele><time>2026-04-30T15:08:24.999Z</time></trkpt><trkpt lat="45.72410474295823" lon="8.880621580940721"><ele>299.0</ele><time>2026-04-30T15:08:25.999Z</time></trkpt><trkpt lat="45.72400069896455" lon="8.880554042727544"><ele>298.0</ele><time>2026-04-30T15:08:26.999Z</time></trkpt><trkpt lat="45.72389934321189" lon="8.880484184730099"><ele>298.0</ele><time>2026-04-30T15:08:27.999Z</time></trkpt><trkpt lat="45.723797051958485" lon="8.880413059242912"><ele>298.0</ele><time>2026-04-30T15:08:29Z</time></trkpt><trkpt lat="45.72368875911311" lon="8.88034331457281"><ele>298.0</ele><time>2026-04-30T15:08:30Z</time></trkpt><trkpt lat="45.723587872917115" lon="8.880280615419341"><ele>298.0</ele><time>2026-04-30T15:08:31Z</time></trkpt><trkpt lat="45.723486252735306" lon="8.880223263747697"><ele>298.5</ele><time>2026-04-30T15:08:32Z</time></trkpt><trkpt lat="45.72337482421416" lon="8.880167704133225"><ele>299.0</ele><time>2026-04-30T15:08:33Z</time></trkpt><trkpt lat="45.72324797415931" lon="8.880111845049226"><ele>299.5</ele><time>2026-04-30T15:08:34Z</time></trkpt><trkpt lat="45.72310080494644" lon="8.880051574475607"><ele>300.0</ele><time>2026-04-30T15:08:35Z</time></trkpt><trkpt lat="45.72295499899445" lon="8.87996843011307"><ele>300.0</ele><time>2026-04-30T15:08:36Z</time></trkpt><trkpt lat="45.722805787000084" lon="8.879907104510377"><ele>300.0</ele><time>2026-04-30T15:08:37Z</time></trkpt><trkpt lat="45.72263794892101" lon="8.879841732744211"><ele>300.0</ele><time>2026-04-30T15:08:38Z</time></trkpt><trkpt lat="45.72245857946411" lon="8.879772370197863"><ele>300.0</ele><time>2026-04-30T15:08:39Z</time></trkpt><trkpt lat="45.722273633128246" lon="8.879703049339675"><ele>300.0</ele><time>2026-04-30T15:08:40Z</time></trkpt><trkpt lat="45.72208955997561" lon="8.879631872970416"><ele>300.0</ele><time>2026-04-30T15:08:41Z</time></trkpt><trkpt lat="45.72188360664082" lon="8.879546449672759"><ele>300.0</ele><time>2026-04-30T15:08:42Z</time></trkpt><trkpt lat="45.721672426500135" lon="8.879455861171976"><ele>300.0</ele><time>2026-04-30T15:08:43Z</time></trkpt><trkpt lat="45.72144809755907" lon="8.87935978929306"><ele>300.0</ele><time>2026-04-30T15:08:44Z</time></trkpt><trkpt lat="45.721219225168824" lon="8.879280666806824"><ele>300.0</ele><time>2026-04-30T15:08:45Z</time></trkpt><trkpt lat="45.7209939554434" lon="8.879189061152985"><ele>299.3333333333333</ele><time>2026-04-30T15:08:46Z</time></trkpt><trkpt lat="45.72077733659982" lon="8.87909662513427"><ele>298.66666666666663</ele><time>2026-04-30T15:08:47Z</time></trkpt><trkpt lat="45.72058766731079" lon="8.879023363511955"><ele>298.0</ele><time>2026-04-30T15:08:48Z</time></trkpt><trkpt lat="45.720418353925524" lon="8.87895391220224"><ele>298.0</ele><time>2026-04-30T15:08:49Z</time></trkpt><trkpt lat="45.72026415636704" lon="8.878890561097977"><ele>298.0</ele><time>2026-04-30T15:08:50Z</time></trkpt><trkpt lat="45.72011054178219" lon="8.87883235171098"><ele>298.0</ele><time>2026-04-30T15:08:51Z</time></trkpt><trkpt lat="45.71994185982986" lon="8.87878457954799"><ele>299.3333333333333</ele><time>2026-04-30T15:08:52Z</time></trkpt><trkpt lat="45.719784253893174" lon="8.87876194625251"><ele>300.6666666666667</ele><time>2026-04-30T15:08:53Z</time></trkpt><trkpt lat="45.71962401511102" lon="8.878746778958527"><ele>302.0</ele><time>2026-04-30T15:08:54Z</time></trkpt><trkpt lat="45.719464294219854" lon="8.878746689512607"><ele>300.6666666666667</ele><time>2026-04-30T15:08:55Z</time></trkpt><trkpt lat="45.719312094649766" lon="8.878754113899154"><ele>299.3333333333333</ele><time>2026-04-30T15:08:56Z</time></trkpt><trkpt lat="45.719152578849695" lon="8.878770742214634"><ele>298.0</ele><time>2026-04-30T15:08:57Z</time></trkpt><trkpt lat="45.71899379383703" lon="8.878798658099955"><ele>298.0</ele><time>2026-04-30T15:08:58Z</time></trkpt><trkpt lat="45.71883119861821" lon="8.878835091887275"><ele>298.0</ele><time>2026-04-30T15:08:59Z</time></trkpt><trkpt lat="45.718626848484114" lon="8.878852311405241"><ele>298.0</ele><time>2026-04-30T15:09:00Z</time></trkpt><trkpt lat="45.71838859381222" lon="8.878899171661983"><ele>297.5</ele><time>2026-04-30T15:09:01Z</time></trkpt><trkpt lat="45.71813803452022" lon="8.878966129153282"><ele>297.0</ele><time>2026-04-30T15:09:02Z</time></trkpt><trkpt lat="45.717878761609704" lon="8.87901525280426"><ele>297.0</ele><time>2026-04-30T15:09:03Z</time></trkpt><trkpt lat="45.71760235673571" lon="8.879071424880378"><ele>297.0</ele><time>2026-04-30T15:09:04Z</time></trkpt><trkpt lat="45.717347967997966" lon="8.879120589255448"><ele>297.0</ele><time>2026-04-30T15:09:05Z</time></trkpt><trkpt lat="45.717122128944" lon="8.87916648770333"><ele>297.0</ele><time>2026-04-30T15:09:06Z</time></trkpt><trkpt lat="45.71691872326245" lon="8.879181343108963"><ele>297.0</ele><time>2026-04-30T15:09:07Z</time></trkpt><trkpt lat="45.71673945523292" lon="8.879214258402126"><ele>297.0</ele><time>2026-04-30T15:09:08Z</time></trkpt><trkpt lat="45.71658932208219" lon="8.879265074638738"><ele>297.0</ele><time>2026-04-30T15:09:09Z</time></trkpt><trkpt lat="45.71647046597783" lon="8.879278792454278"><ele>297.0</ele><time>2026-04-30T15:09:10Z</time></trkpt><trkpt lat="45.71636959415237" lon="8.879279795101525"><ele>297.0</ele><time>2026-04-30T15:09:11Z</time></trkpt><trkpt lat="45.71627852517993" lon="8.879259372769816"><ele>297.0</ele><time>2026-04-30T15:09:12Z</time></trkpt><trkpt lat="45.716188623378414" lon="8.879250954723096"><ele>297.0</ele><time>2026-04-30T15:09:13Z</time></trkpt><trkpt lat="45.71609094570988" lon="8.879307014913396"><ele>297.0</ele><time>2026-04-30T15:09:14Z</time></trkpt><trkpt lat="45.71598190213591" lon="8.879360292960769"><ele>297.0</ele><time>2026-04-30T15:09:15Z</time></trkpt><trkpt lat="45.715857100077315" lon="8.879385892954614"><ele>297.0</ele><time>2026-04-30T15:09:16Z</time></trkpt><trkpt lat="45.71572559496609" lon="8.879411773272816"><ele>296.5</ele><time>2026-04-30T15:09:17Z</time></trkpt><trkpt lat="45.715590462021325" lon="8.879474929110533"><ele>296.0</ele><time>2026-04-30T15:09:18Z</time></trkpt><trkpt lat="45.71544605243462" lon="8.87949604895827"><ele>295.5</ele><time>2026-04-30T15:09:19Z</time></trkpt><trkpt lat="45.71529687771057" lon="8.879525701354385"><ele>295.0</ele><time>2026-04-30T15:09:20Z</time></trkpt><trkpt lat="45.71513909320666" lon="8.879553816434086"><ele>294.66666666666663</ele><time>2026-04-30T15:09:21Z</time></trkpt><trkpt lat="45.714975433900115" lon="8.879586860975753"><ele>294.3333333333333</ele><time>2026-04-30T15:09:22Z</time></trkpt><trkpt lat="45.71480124700967" lon="8.879594538948004"><ele>294.0</ele><time>2026-04-30T15:09:23Z</time></trkpt><trkpt lat="45.71462591231102" lon="8.879657688501856"><ele>294.0</ele><time>2026-04-30T15:09:24Z</time></trkpt><trkpt lat="45.7144528287552" lon="8.879690362029997"><ele>294.0</ele><time>2026-04-30T15:09:25Z</time></trkpt><trkpt lat="45.714288736601304" lon="8.879720725172527"><ele>294.0</ele><time>2026-04-30T15:09:26Z</time></trkpt><trkpt lat="45.714137039864525" lon="8.879752556676308"><ele>294.0</ele><time>2026-04-30T15:09:27Z</time></trkpt><trkpt lat="45.71399228362815" lon="8.87978020845585"><ele>294.0</ele><time>2026-04-30T15:09:28Z</time></trkpt><trkpt lat="45.71384438259053" lon="8.879781993792447"><ele>294.0</ele><time>2026-04-30T15:09:29Z</time></trkpt><trkpt lat="45.713700356334286" lon="8.879831504458696"><ele>294.0</ele><time>2026-04-30T15:09:30Z</time></trkpt><trkpt lat="45.713569952981004" lon="8.879851467131623"><ele>294.0</ele><time>2026-04-30T15:09:31Z</time></trkpt><trkpt lat="45.7134537746526" lon="8.879876019781316"><ele>294.0</ele><time>2026-04-30T15:09:32Z</time></trkpt><trkpt lat="45.713328199846636" lon="8.87989837719874"><ele>294.0</ele><time>2026-04-30T15:09:33Z</time></trkpt><trkpt lat="45.713184622489" lon="8.879928019806048"><ele>294.0</ele><time>2026-04-30T15:09:34Z</time></trkpt><trkpt lat="45.713026751142316" lon="8.879960056419305"><ele>294.0</ele><time>2026-04-30T15:09:35Z</time></trkpt><trkpt lat="45.712862087873255" lon="8.879990417588655"><ele>294.0</ele><time>2026-04-30T15:09:36Z</time></trkpt><trkpt lat="45.71269747314201" lon="8.880022601771152"><ele>294.0</ele><time>2026-04-30T15:09:37Z</time></trkpt><trkpt lat="45.712551387982316" lon="8.880053477435304"><ele>293.3333333333333</ele><time>2026-04-30T15:09:38Z</time></trkpt><trkpt lat="45.71241016141585" lon="8.880083310919675"><ele>292.66666666666663</ele><time>2026-04-30T15:09:39Z</time></trkpt><trkpt lat="45.71225991748484" lon="8.880111563058787"><ele>292.0</ele><time>2026-04-30T15:09:40Z</time></trkpt><trkpt lat="45.71210283908011" lon="8.880139432815218"><ele>292.0</ele><time>2026-04-30T15:09:41Z</time></trkpt><trkpt lat="45.71194923085193" lon="8.880168838342168"><ele>292.0</ele><time>2026-04-30T15:09:42Z</time></trkpt><trkpt lat="45.71180237341165" lon="8.880199373575596"><ele>292.0</ele><time>2026-04-30T15:09:43Z</time></trkpt><trkpt lat="45.711655998197415" lon="8.880227630029344"><ele>292.0</ele><time>2026-04-30T15:09:44Z</time></trkpt><trkpt lat="45.711506567048566" lon="8.880255106687398"><ele>292.0</ele><time>2026-04-30T15:09:45Z</time></trkpt><trkpt lat="45.711337460505675" lon="8.880265643004458"><ele>292.0</ele><time>2026-04-30T15:09:46Z</time></trkpt><trkpt lat="45.71115714657138" lon="8.880300264295785"><ele>292.3333333333333</ele><time>2026-04-30T15:09:47Z</time></trkpt><trkpt lat="45.71095224341872" lon="8.880339715927203"><ele>292.6666666666667</ele><time>2026-04-30T15:09:47.999Z</time></trkpt><trkpt lat="45.71073390575218" lon="8.880401941822926"><ele>293.0</ele><time>2026-04-30T15:09:48.999Z</time></trkpt><trkpt lat="45.71050647643844" lon="8.880421746974358"><ele>293.0</ele><time>2026-04-30T15:09:49.999Z</time></trkpt><trkpt lat="45.71027387959749" lon="8.880417890182198"><ele>293.0</ele><time>2026-04-30T15:09:50.999Z</time></trkpt><trkpt lat="45.710041987602544" lon="8.880403797967592"><ele>292.33333333333337</ele><time>2026-04-30T15:09:51.999Z</time></trkpt><trkpt lat="45.70983194391473" lon="8.880305226836006"><ele>291.6666666666667</ele><time>2026-04-30T15:09:52.999Z</time></trkpt><trkpt lat="45.70963903666621" lon="8.880206615277253"><ele>291.0</ele><time>2026-04-30T15:09:53.999Z</time></trkpt><trkpt lat="45.70943501508854" lon="8.88009863058731"><ele>291.3333333333333</ele><time>2026-04-30T15:09:54.999Z</time></trkpt><trkpt lat="45.70923498663296" lon="8.8799371400486"><ele>291.66666666666663</ele><time>2026-04-30T15:09:55.999Z</time></trkpt><trkpt lat="45.709062405526765" lon="8.87978802068372"><ele>292.0</ele><time>2026-04-30T15:09:56.999Z</time></trkpt><trkpt lat="45.708904054597014" lon="8.879651964659564"><ele>292.0</ele><time>2026-04-30T15:09:57.999Z</time></trkpt><trkpt lat="45.70875742195534" lon="8.879531490652136"><ele>292.0</ele><time>2026-04-30T15:09:58.999Z</time></trkpt><trkpt lat="45.70862791747213" lon="8.87942642771207"><ele>292.0</ele><time>2026-04-30T15:09:59.999Z</time></trkpt><trkpt lat="45.70851649276396" lon="8.879337299821422"><ele>292.0</ele><time>2026-04-30T15:10:00.999Z</time></trkpt><trkpt lat="45.70842181707983" lon="8.87926136577049"><ele>291.16666666666663</ele><time>2026-04-30T15:10:01.999Z</time></trkpt><trkpt lat="45.70834487136637" lon="8.879194019510901"><ele>290.3333333333333</ele><time>2026-04-30T15:10:02.999Z</time></trkpt><trkpt lat="45.70828785353579" lon="8.879125780562033"><ele>289.5</ele><time>2026-04-30T15:10:03.999Z</time></trkpt><trkpt lat="45.708244610685824" lon="8.879038237680668"><ele>288.6666666666667</ele><time>2026-04-30T15:10:04.999Z</time></trkpt><trkpt lat="45.708204290722115" lon="8.87895432919681"><ele>287.83333333333337</ele><time>2026-04-30T15:10:05.999Z</time></trkpt><trkpt lat="45.7081396670186" lon="8.87890773839776"><ele>287.0</ele><time>2026-04-30T15:10:06.999Z</time></trkpt><trkpt lat="45.708033991835904" lon="8.878886217809631"><ele>287.0</ele><time>2026-04-30T15:10:07.999Z</time></trkpt><trkpt lat="45.707908203351764" lon="8.878853940603996"><ele>287.0</ele><time>2026-04-30T15:10:08.999Z</time></trkpt><trkpt lat="45.707816699791564" lon="8.878796858618488"><ele>287.0</ele><time>2026-04-30T15:10:09.999Z</time></trkpt><trkpt lat="45.70774862416634" lon="8.878706650183185"><ele>287.0</ele><time>2026-04-30T15:10:10.999Z</time></trkpt><trkpt lat="45.7076738045931" lon="8.878646267322488"><ele>287.0</ele><time>2026-04-30T15:10:11.999Z</time></trkpt><trkpt lat="45.70759195107085" lon="8.878580207718649"><ele>287.0</ele><time>2026-04-30T15:10:12.999Z</time></trkpt><trkpt lat="45.707511752296234" lon="8.878515483617441"><ele>287.0</ele><time>2026-04-30T15:10:13.999Z</time></trkpt><trkpt lat="45.707439325230524" lon="8.878457031629729"><ele>287.0</ele><time>2026-04-30T15:10:14.999Z</time></trkpt><trkpt lat="45.707368953350006" lon="8.878424040622827"><ele>287.0</ele><time>2026-04-30T15:10:15.999Z</time></trkpt><trkpt lat="45.707263161772175" lon="8.878337346131225"><ele>287.0</ele><time>2026-04-30T15:10:17.999Z</time></trkpt><trkpt lat="45.70720119416862" lon="8.878289183745293"><ele>287.0</ele><time>2026-04-30T15:10:18.999Z</time></trkpt><trkpt lat="45.70713190839929" lon="8.878231325751429"><ele>287.0</ele><time>2026-04-30T15:10:19.999Z</time></trkpt><trkpt lat="45.70705691430453" lon="8.878172789005383"><ele>287.0</ele><time>2026-04-30T15:10:20.999Z</time></trkpt><trkpt lat="45.70698291365867" lon="8.878121338630907"><ele>287.0</ele><time>2026-04-30T15:10:21.999Z</time></trkpt><trkpt lat="45.70690894876495" lon="8.878051827054419"><ele>287.0</ele><time>2026-04-30T15:10:22.999Z</time></trkpt><trkpt lat="45.70682069587324" lon="8.878003116507665"><ele>287.0</ele><time>2026-04-30T15:10:23.999Z</time></trkpt><trkpt lat="45.70672513422284" lon="8.87795258004467"><ele>287.25</ele><time>2026-04-30T15:10:24.999Z</time></trkpt><trkpt lat="45.70661920027903" lon="8.877919944702398"><ele>287.5</ele><time>2026-04-30T15:10:25.999Z</time></trkpt><trkpt lat="45.706515243194055" lon="8.87785773154132"><ele>287.75</ele><time>2026-04-30T15:10:26.999Z</time></trkpt><trkpt lat="45.70640698737501" lon="8.877788598356641"><ele>288.0</ele><time>2026-04-30T15:10:27.999Z</time></trkpt><trkpt lat="45.70629604543997" lon="8.877714854990048"><ele>288.0</ele><time>2026-04-30T15:10:28.999Z</time></trkpt><trkpt lat="45.70618327247326" lon="8.877636139309345"><ele>288.0</ele><time>2026-04-30T15:10:29.999Z</time></trkpt><trkpt lat="45.70606922021633" lon="8.877558339642379"><ele>288.0</ele><time>2026-04-30T15:10:30.999Z</time></trkpt><trkpt lat="45.70595548969233" lon="8.877481027294465"><ele>288.0</ele><time>2026-04-30T15:10:31.999Z</time></trkpt><trkpt lat="45.705848856680525" lon="8.877410162176647"><ele>288.2</ele><time>2026-04-30T15:10:32.999Z</time></trkpt><trkpt lat="45.705751225394806" lon="8.87734775547058"><ele>288.4</ele><time>2026-04-30T15:10:33.999Z</time></trkpt><trkpt lat="45.70566042755754" lon="8.877287409977944"><ele>288.59999999999997</ele><time>2026-04-30T15:10:35Z</time></trkpt><trkpt lat="45.70557648029657" lon="8.877230493378264"><ele>288.8</ele><time>2026-04-30T15:10:36Z</time></trkpt><trkpt lat="45.70549968128757" lon="8.877181250669848"><ele>289.0</ele><time>2026-04-30T15:10:37Z</time></trkpt><trkpt lat="45.70542793267957" lon="8.877132110505825"><ele>289.0</ele><time>2026-04-30T15:10:38Z</time></trkpt><trkpt lat="45.705366809111986" lon="8.87708781824218"><ele>289.0</ele><time>2026-04-30T15:10:39Z</time></trkpt><trkpt lat="45.70527358956797" lon="8.877019306056468"><ele>289.0</ele><time>2026-04-30T15:10:41Z</time></trkpt><trkpt lat="45.70519123504739" lon="8.876964313286722"><ele>289.0</ele><time>2026-04-30T15:10:43Z</time></trkpt><trkpt lat="45.70511965415689" lon="8.876915575840666"><ele>289.0</ele><time>2026-04-30T15:10:45Z</time></trkpt><trkpt lat="45.70505868291142" lon="8.876853644523111"><ele>289.0</ele><time>2026-04-30T15:11:53.999Z</time></trkpt><trkpt lat="45.705001965486396" lon="8.87681343973192"><ele>289.0</ele><time>2026-04-30T15:11:55.999Z</time></trkpt><trkpt lat="45.704938796496876" lon="8.876768661715627"><ele>289.0</ele><time>2026-04-30T15:11:57.999Z</time></trkpt><trkpt lat="45.704836418440856" lon="8.876943608220397"><ele>289.0</ele><time>2026-04-30T15:12:01.999Z</time></trkpt><trkpt lat="45.70486359385627" lon="8.877035561191066"><ele>289.0</ele><time>2026-04-30T15:12:02.999Z</time></trkpt><trkpt lat="45.704887826554774" lon="8.877148125283872"><ele>289.0</ele><time>2026-04-30T15:12:03.999Z</time></trkpt><trkpt lat="45.704916806882736" lon="8.877250145043039"><ele>289.0</ele><time>2026-04-30T15:12:04.999Z</time></trkpt><trkpt lat="45.7049479260511" lon="8.877348602936834"><ele>289.0</ele><time>2026-04-30T15:12:05.999Z</time></trkpt><trkpt lat="45.7049779837859" lon="8.877446684474359"><ele>289.0</ele><time>2026-04-30T15:12:06.999Z</time></trkpt><trkpt lat="45.70500646517463" lon="8.87754891010139"><ele>289.0</ele><time>2026-04-30T15:12:07.999Z</time></trkpt><trkpt lat="45.70503627262392" lon="8.877649241189863"><ele>289.0</ele><time>2026-04-30T15:12:08.999Z</time></trkpt><trkpt lat="45.70506177684248" lon="8.877740972537472"><ele>289.0</ele><time>2026-04-30T15:12:09.999Z</time></trkpt><trkpt lat="45.705106887644654" lon="8.877891330690115"><ele>289.0</ele><time>2026-04-30T15:12:11.999Z</time></trkpt><trkpt lat="45.7051548536735" lon="8.878042141684505"><ele>289.0</ele><time>2026-04-30T15:12:13.999Z</time></trkpt><trkpt lat="45.70518594630787" lon="8.878155068992843"><ele>289.0</ele><time>2026-04-30T15:12:15.999Z</time></trkpt><trkpt lat="45.70517341630894" lon="8.87827363224021"><ele>289.0</ele><time>2026-04-30T15:12:18.999Z</time></trkpt><trkpt lat="45.70506230852962" lon="8.878325044272378"><ele>289.0</ele><time>2026-04-30T15:12:20.999Z</time></trkpt><trkpt lat="45.70495198547462" lon="8.878383837651063"><ele>289.0</ele><time>2026-04-30T15:12:22.999Z</time></trkpt><trkpt lat="45.704874292590134" lon="8.878431622395496"><ele>289.0</ele><time>2026-04-30T15:12:23.999Z</time></trkpt><trkpt lat="45.704780939726724" lon="8.878482331830169"><ele>289.0</ele><time>2026-04-30T15:12:24.999Z</time></trkpt><trkpt lat="45.70467742112826" lon="8.878512429667639"><ele>289.0</ele><time>2026-04-30T15:12:25.999Z</time></trkpt><trkpt lat="45.70459306692172" lon="8.878556174385038"><ele>289.0</ele><time>2026-04-30T15:12:26.999Z</time></trkpt><trkpt lat="45.70451962627493" lon="8.878594259629192"><ele>288.8</ele><time>2026-04-30T15:12:27.999Z</time></trkpt><trkpt lat="45.70445496198216" lon="8.87865015508568"><ele>288.59999999999997</ele><time>2026-04-30T15:12:28.999Z</time></trkpt><trkpt lat="45.70434817488477" lon="8.878698992310413"><ele>288.4</ele><time>2026-04-30T15:12:30.999Z</time></trkpt><trkpt lat="45.70426065524465" lon="8.878744507937954"><ele>288.2</ele><time>2026-04-30T15:12:32.999Z</time></trkpt><trkpt lat="45.70415567992918" lon="8.878804342416249"><ele>288.0</ele><time>2026-04-30T15:12:34.999Z</time></trkpt><trkpt lat="45.70408772738795" lon="8.878839868142217"><ele>288.3333333333333</ele><time>2026-04-30T15:12:35.999Z</time></trkpt><trkpt lat="45.70401751314216" lon="8.878880147191607"><ele>288.6666666666667</ele><time>2026-04-30T15:12:36.999Z</time></trkpt><trkpt lat="45.70393521908297" lon="8.87892064659777"><ele>289.0</ele><time>2026-04-30T15:12:37.999Z</time></trkpt><trkpt lat="45.70384879961326" lon="8.878969753186464"><ele>289.33333333333337</ele><time>2026-04-30T15:12:38.999Z</time></trkpt><trkpt lat="45.7037697943238" lon="8.879017658890024"><ele>289.6666666666667</ele><time>2026-04-30T15:12:39.999Z</time></trkpt><trkpt lat="45.70369222363057" lon="8.879063113102132"><ele>290.0</ele><time>2026-04-30T15:12:41Z</time></trkpt><trkpt lat="45.703637285827874" lon="8.879121201814115"><ele>289.83333333333337</ele><time>2026-04-30T15:12:42Z</time></trkpt><trkpt lat="45.70355617912552" lon="8.879173791522863"><ele>289.6666666666667</ele><time>2026-04-30T15:12:43Z</time></trkpt><trkpt lat="45.70347792298205" lon="8.879212247687903"><ele>289.5</ele><time>2026-04-30T15:12:44Z</time></trkpt><trkpt lat="45.70341656532505" lon="8.879246980123451"><ele>289.3333333333333</ele><time>2026-04-30T15:12:45Z</time></trkpt><trkpt lat="45.703358087413534" lon="8.879282714802319"><ele>289.16666666666663</ele><time>2026-04-30T15:12:46Z</time></trkpt><trkpt lat="45.703277516630315" lon="8.879343091246813"><ele>289.0</ele><time>2026-04-30T15:12:48Z</time></trkpt><trkpt lat="45.70316691133079" lon="8.879397635706196"><ele>289.0</ele><time>2026-04-30T15:12:50Z</time></trkpt><trkpt lat="45.703045912502155" lon="8.879475206388115"><ele>289.0</ele><time>2026-04-30T15:12:52Z</time></trkpt><trkpt lat="45.7029780725983" lon="8.879517279132028"><ele>289.0</ele><time>2026-04-30T15:12:53Z</time></trkpt><trkpt lat="45.70291598093843" lon="8.879556149488362"><ele>289.0</ele><time>2026-04-30T15:12:54Z</time></trkpt><trkpt lat="45.70286033894317" lon="8.879609449429683"><ele>289.0</ele><time>2026-04-30T15:12:55Z</time></trkpt><trkpt lat="45.70279577240034" lon="8.879631401989903"><ele>289.0</ele><time>2026-04-30T15:12:56Z</time></trkpt><trkpt lat="45.702739245133124" lon="8.879680442958131"><ele>288.8</ele><time>2026-04-30T15:12:57Z</time></trkpt><trkpt lat="45.70268069429644" lon="8.87972214474562"><ele>288.59999999999997</ele><time>2026-04-30T15:12:58Z</time></trkpt><trkpt lat="45.70257988477148" lon="8.879780765436085"><ele>288.4</ele><time>2026-04-30T15:13:00Z</time></trkpt><trkpt lat="45.702484316617905" lon="8.879839343166479"><ele>288.2</ele><time>2026-04-30T15:13:08Z</time></trkpt><trkpt lat="45.702415635306295" lon="8.879878873181822"><ele>288.0</ele><time>2026-04-30T15:13:09Z</time></trkpt><trkpt lat="45.70232167285615" lon="8.879931906500964"><ele>288.0</ele><time>2026-04-30T15:13:10Z</time></trkpt><trkpt lat="45.70219616840654" lon="8.879999249388355"><ele>288.0</ele><time>2026-04-30T15:13:11Z</time></trkpt><trkpt lat="45.70206405608874" lon="8.880061738083029"><ele>288.0</ele><time>2026-04-30T15:13:12Z</time></trkpt><trkpt lat="45.70193766838998" lon="8.880126722285164"><ele>288.0</ele><time>2026-04-30T15:13:13Z</time></trkpt><trkpt lat="45.70180820852329" lon="8.880187965206089"><ele>287.75</ele><time>2026-04-30T15:13:14Z</time></trkpt><trkpt lat="45.701683208491914" lon="8.880252400637794"><ele>287.5</ele><time>2026-04-30T15:13:15Z</time></trkpt><trkpt lat="45.70156109957617" lon="8.880316909045993"><ele>287.25</ele><time>2026-04-30T15:13:16Z</time></trkpt><trkpt lat="45.701438102746344" lon="8.880378653329588"><ele>287.0</ele><time>2026-04-30T15:13:17Z</time></trkpt><trkpt lat="45.701327761560925" lon="8.880432995138536"><ele>287.0</ele><time>2026-04-30T15:13:18Z</time></trkpt><trkpt lat="45.701233664493834" lon="8.880475127842464"><ele>287.0</ele><time>2026-04-30T15:13:19Z</time></trkpt><trkpt lat="45.70115920275287" lon="8.880511258047788"><ele>287.0</ele><time>2026-04-30T15:13:20Z</time></trkpt><trkpt lat="45.70108980261801" lon="8.880544389788259"><ele>287.0</ele><time>2026-04-30T15:13:21Z</time></trkpt><trkpt lat="45.70101165433523" lon="8.880584146845198"><ele>287.0</ele><time>2026-04-30T15:13:22Z</time></trkpt><trkpt lat="45.700885565152134" lon="8.880645113927612"><ele>286.6666666666667</ele><time>2026-04-30T15:13:23Z</time></trkpt><trkpt lat="45.700745138166766" lon="8.88071377234711"><ele>286.3333333333333</ele><time>2026-04-30T15:13:24Z</time></trkpt><trkpt lat="45.70058749739899" lon="8.880789984921204"><ele>286.0</ele><time>2026-04-30T15:13:25Z</time></trkpt><trkpt lat="45.70037196218351" lon="8.880892491213631"><ele>286.3333333333333</ele><time>2026-04-30T15:13:26Z</time></trkpt><trkpt lat="45.70015348636224" lon="8.88099724229166"><ele>286.6666666666667</ele><time>2026-04-30T15:13:27Z</time></trkpt><trkpt lat="45.699945650237154" lon="8.88106973650591"><ele>287.0</ele><time>2026-04-30T15:13:28Z</time></trkpt><trkpt lat="45.69970772725603" lon="8.881201599964056"><ele>287.0</ele><time>2026-04-30T15:13:29Z</time></trkpt><trkpt lat="45.69944509653274" lon="8.881299331799653"><ele>287.0</ele><time>2026-04-30T15:13:30Z</time></trkpt><trkpt lat="45.69917630966477" lon="8.881422393673981"><ele>286.0</ele><time>2026-04-30T15:13:31Z</time></trkpt><trkpt lat="45.69892630507321" lon="8.881560185044828"><ele>285.0</ele><time>2026-04-30T15:13:32Z</time></trkpt><trkpt lat="45.69869451912887" lon="8.881663763045873"><ele>285.6666666666667</ele><time>2026-04-30T15:13:33Z</time></trkpt><trkpt lat="45.6984790278727" lon="8.881761450047739"><ele>286.33333333333337</ele><time>2026-04-30T15:13:34Z</time></trkpt><trkpt lat="45.6982778549408" lon="8.881849769328696"><ele>287.0</ele><time>2026-04-30T15:13:35Z</time></trkpt><trkpt lat="45.69808899273464" lon="8.881934763115293"><ele>287.0</ele><time>2026-04-30T15:13:36Z</time></trkpt><trkpt lat="45.69790143605186" lon="8.882019087306341"><ele>287.0</ele><time>2026-04-30T15:13:37Z</time></trkpt><trkpt lat="45.69771018752397" lon="8.882109831961746"><ele>287.0</ele><time>2026-04-30T15:13:38Z</time></trkpt><trkpt lat="45.69751630793525" lon="8.882200602304286"><ele>286.0</ele><time>2026-04-30T15:13:39Z</time></trkpt><trkpt lat="45.6973238443332" lon="8.882298184303465"><ele>285.0</ele><time>2026-04-30T15:13:40Z</time></trkpt><trkpt lat="45.69713068170103" lon="8.882398759729837"><ele>284.0</ele><time>2026-04-30T15:13:41Z</time></trkpt><trkpt lat="45.696937725887324" lon="8.882496713080503"><ele>284.33333333333337</ele><time>2026-04-30T15:13:42Z</time></trkpt><trkpt lat="45.69675022739463" lon="8.882591304786828"><ele>284.6666666666667</ele><time>2026-04-30T15:13:43Z</time></trkpt><trkpt lat="45.6965747037073" lon="8.882678167081867"><ele>285.0</ele><time>2026-04-30T15:13:44Z</time></trkpt><trkpt lat="45.69642395566982" lon="8.882772346275114"><ele>285.0</ele><time>2026-04-30T15:13:45Z</time></trkpt><trkpt lat="45.696270203406364" lon="8.882904300401997"><ele>285.0</ele><time>2026-04-30T15:13:46Z</time></trkpt><trkpt lat="45.69609400855761" lon="8.883081752965063"><ele>285.0</ele><time>2026-04-30T15:13:47Z</time></trkpt><trkpt lat="45.69589899898013" lon="8.883295913960211"><ele>286.0</ele><time>2026-04-30T15:13:48Z</time></trkpt><trkpt lat="45.69567500788602" lon="8.883495685713084"><ele>287.0</ele><time>2026-04-30T15:13:49Z</time></trkpt><trkpt lat="45.69545708529436" lon="8.883720554239696"><ele>287.0</ele><time>2026-04-30T15:13:50Z</time></trkpt><trkpt lat="45.695258827958675" lon="8.88395381473069"><ele>287.0</ele><time>2026-04-30T15:13:51Z</time></trkpt><trkpt lat="45.69506897334635" lon="8.88413833372203"><ele>286.6666666666667</ele><time>2026-04-30T15:13:52Z</time></trkpt><trkpt lat="45.69489946548946" lon="8.884321920949175"><ele>286.3333333333333</ele><time>2026-04-30T15:13:53Z</time></trkpt><trkpt lat="45.69472574426222" lon="8.884495735466723"><ele>286.0</ele><time>2026-04-30T15:13:54Z</time></trkpt><trkpt lat="45.69454817029318" lon="8.884659856667355"><ele>286.0</ele><time>2026-04-30T15:13:55Z</time></trkpt><trkpt lat="45.69438493815425" lon="8.88485365963983"><ele>286.0</ele><time>2026-04-30T15:13:56Z</time></trkpt><trkpt lat="45.69420912823892" lon="8.885031348946818"><ele>286.0</ele><time>2026-04-30T15:13:57Z</time></trkpt><trkpt lat="45.69402768353154" lon="8.88522269817445"><ele>286.0</ele><time>2026-04-30T15:13:58Z</time></trkpt><trkpt lat="45.69382815888759" lon="8.885400062535073"><ele>286.0</ele><time>2026-04-30T15:13:59Z</time></trkpt><trkpt lat="45.69363417144601" lon="8.885599976988122"><ele>286.5</ele><time>2026-04-30T15:13:59.999Z</time></trkpt><trkpt lat="45.69343745158042" lon="8.885802707430956"><ele>287.0</ele><time>2026-04-30T15:14:00.999Z</time></trkpt><trkpt lat="45.69324612592721" lon="8.885999878725238"><ele>287.0</ele><time>2026-04-30T15:14:01.999Z</time></trkpt><trkpt lat="45.693070897245086" lon="8.886182833337433"><ele>287.0</ele><time>2026-04-30T15:14:02.999Z</time></trkpt><trkpt lat="45.6929106495375" lon="8.886351542790749"><ele>287.0</ele><time>2026-04-30T15:14:03.999Z</time></trkpt><trkpt lat="45.692774086366136" lon="8.886537870708606"><ele>286.33333333333337</ele><time>2026-04-30T15:14:04.999Z</time></trkpt><trkpt lat="45.692635692245695" lon="8.886715748778293"><ele>285.6666666666667</ele><time>2026-04-30T15:14:05.999Z</time></trkpt><trkpt lat="45.69249331966382" lon="8.886912552742071"><ele>285.0</ele><time>2026-04-30T15:14:06.999Z</time></trkpt><trkpt lat="45.69234186223633" lon="8.887120020968588"><ele>285.0</ele><time>2026-04-30T15:14:07.999Z</time></trkpt><trkpt lat="45.69218613104896" lon="8.887346416640979"><ele>285.0</ele><time>2026-04-30T15:14:08.999Z</time></trkpt><trkpt lat="45.69202160107142" lon="8.887563190961684"><ele>285.0</ele><time>2026-04-30T15:14:09.999Z</time></trkpt><trkpt lat="45.69184627334132" lon="8.88779578007673"><ele>286.0</ele><time>2026-04-30T15:14:10.999Z</time></trkpt><trkpt lat="45.69166808423079" lon="8.888037075866393"><ele>287.0</ele><time>2026-04-30T15:14:11.999Z</time></trkpt><trkpt lat="45.69149230046334" lon="8.88830254114775"><ele>286.5</ele><time>2026-04-30T15:14:12.999Z</time></trkpt><trkpt lat="45.69130604493323" lon="8.888549394138314"><ele>286.0</ele><time>2026-04-30T15:14:13.999Z</time></trkpt><trkpt lat="45.69114643031674" lon="8.888779008449143"><ele>285.66666666666663</ele><time>2026-04-30T15:14:14.999Z</time></trkpt><trkpt lat="45.69098750612369" lon="8.88897516318845"><ele>285.3333333333333</ele><time>2026-04-30T15:14:15.999Z</time></trkpt><trkpt lat="45.69083806062267" lon="8.889145175828967"><ele>285.0</ele><time>2026-04-30T15:14:16.999Z</time></trkpt><trkpt lat="45.69068007245005" lon="8.889264531774304"><ele>284.6666666666667</ele><time>2026-04-30T15:14:17.999Z</time></trkpt><trkpt lat="45.69052172830019" lon="8.889362112376057"><ele>284.33333333333337</ele><time>2026-04-30T15:14:18.999Z</time></trkpt><trkpt lat="45.690349588236266" lon="8.889412046375089"><ele>284.0</ele><time>2026-04-30T15:14:19.999Z</time></trkpt><trkpt lat="45.69014118180398" lon="8.889447217767822"><ele>283.0</ele><time>2026-04-30T15:14:20.999Z</time></trkpt><trkpt lat="45.68991686215525" lon="8.889498985397939"><ele>282.0</ele><time>2026-04-30T15:14:21.999Z</time></trkpt><trkpt lat="45.68972594911816" lon="8.889541696610202"><ele>281.0</ele><time>2026-04-30T15:14:22.999Z</time></trkpt><trkpt lat="45.68957369418988" lon="8.889591114246143"><ele>281.0</ele><time>2026-04-30T15:14:23.999Z</time></trkpt><trkpt lat="45.689443700857204" lon="8.8896223356976"><ele>281.0</ele><time>2026-04-30T15:14:24.999Z</time></trkpt><trkpt lat="45.68933453765627" lon="8.889635804386938"><ele>281.0</ele><time>2026-04-30T15:14:25.999Z</time></trkpt><trkpt lat="45.689248316587296" lon="8.88963092307541"><ele>281.0</ele><time>2026-04-30T15:14:26.999Z</time></trkpt><trkpt lat="45.689161136458644" lon="8.88958945726572"><ele>281.0</ele><time>2026-04-30T15:14:28.999Z</time></trkpt><trkpt lat="45.689099002504754" lon="8.889546613717627"><ele>280.6666666666667</ele><time>2026-04-30T15:14:29.999Z</time></trkpt><trkpt lat="45.689019703319246" lon="8.88949937625006"><ele>280.33333333333337</ele><time>2026-04-30T15:14:30.999Z</time></trkpt><trkpt lat="45.688948994167696" lon="8.889492435976644"><ele>280.0</ele><time>2026-04-30T15:14:31.999Z</time></trkpt><trkpt lat="45.68889208652874" lon="8.889550545913648"><ele>279.6666666666667</ele><time>2026-04-30T15:14:32.999Z</time></trkpt><trkpt lat="45.688864784718305" lon="8.889669821064636"><ele>279.3333333333333</ele><time>2026-04-30T15:14:33.999Z</time></trkpt><trkpt lat="45.688880119916014" lon="8.889804240670573"><ele>279.0</ele><time>2026-04-30T15:14:34.999Z</time></trkpt><trkpt lat="45.688941777563706" lon="8.889932625369465"><ele>279.0</ele><time>2026-04-30T15:14:35.999Z</time></trkpt><trkpt lat="45.68903471123794" lon="8.890070063964124"><ele>279.0</ele><time>2026-04-30T15:14:36.999Z</time></trkpt><trkpt lat="45.68910502970404" lon="8.890255793463119"><ele>279.0</ele><time>2026-04-30T15:14:37.999Z</time></trkpt><trkpt lat="45.6891572906547" lon="8.89050903648188"><ele>279.0</ele><time>2026-04-30T15:14:38.999Z</time></trkpt><trkpt lat="45.6892107502328" lon="8.890803497343478"><ele>279.0</ele><time>2026-04-30T15:14:39.999Z</time></trkpt><trkpt lat="45.689261601416824" lon="8.891097012717022"><ele>279.0</ele><time>2026-04-30T15:14:40.999Z</time></trkpt><trkpt lat="45.689301189492504" lon="8.891327969434828"><ele>278.5</ele><time>2026-04-30T15:14:41.999Z</time></trkpt><trkpt lat="45.68932690164109" lon="8.89153661323577"><ele>278.0</ele><time>2026-04-30T15:14:42.999Z</time></trkpt><trkpt lat="45.68933866125268" lon="8.891729671600839"><ele>277.5</ele><time>2026-04-30T15:14:43.999Z</time></trkpt><trkpt lat="45.689339770939334" lon="8.891892759518628"><ele>277.0</ele><time>2026-04-30T15:14:44.999Z</time></trkpt><trkpt lat="45.68933258209581" lon="8.892018364597426"><ele>277.0</ele><time>2026-04-30T15:14:45.999Z</time></trkpt><trkpt lat="45.68930991649818" lon="8.89213753920396"><ele>277.0</ele><time>2026-04-30T15:14:47Z</time></trkpt><trkpt lat="45.68926565053088" lon="8.892265560973907"><ele>277.0</ele><time>2026-04-30T15:14:48Z</time></trkpt><trkpt lat="45.68920808005127" lon="8.892395632595306"><ele>277.0</ele><time>2026-04-30T15:14:49Z</time></trkpt><trkpt lat="45.68914579276351" lon="8.892504091549988"><ele>277.0</ele><time>2026-04-30T15:14:50Z</time></trkpt><trkpt lat="45.68906568304469" lon="8.892593636582141"><ele>277.75</ele><time>2026-04-30T15:14:51Z</time></trkpt><trkpt lat="45.68896435111797" lon="8.892667625278419"><ele>278.5</ele><time>2026-04-30T15:14:52Z</time></trkpt><trkpt lat="45.68885119872196" lon="8.892711856793875"><ele>279.25</ele><time>2026-04-30T15:14:53Z</time></trkpt><trkpt lat="45.688736281895864" lon="8.892732276358116"><ele>280.0</ele><time>2026-04-30T15:14:54Z</time></trkpt><trkpt lat="45.688605711479" lon="8.892753730702758"><ele>280.66666666666663</ele><time>2026-04-30T15:14:55Z</time></trkpt><trkpt lat="45.688442794371795" lon="8.892791675768438"><ele>281.3333333333333</ele><time>2026-04-30T15:14:56Z</time></trkpt><trkpt lat="45.688242099723034" lon="8.892834866622115"><ele>282.0</ele><time>2026-04-30T15:14:57Z</time></trkpt><trkpt lat="45.68802004127868" lon="8.89286216084691"><ele>282.0</ele><time>2026-04-30T15:14:58Z</time></trkpt><trkpt lat="45.68779357257346" lon="8.892895681483772"><ele>282.0</ele><time>2026-04-30T15:14:59Z</time></trkpt><trkpt lat="45.68755330181724" lon="8.892935723263411"><ele>282.0</ele><time>2026-04-30T15:15:00Z</time></trkpt><trkpt lat="45.687295352653535" lon="8.892979162001337"><ele>282.0</ele><time>2026-04-30T15:15:01Z</time></trkpt><trkpt lat="45.6870457672284" lon="8.8930260164303"><ele>281.0</ele><time>2026-04-30T15:15:02Z</time></trkpt><trkpt lat="45.68679403434832" lon="8.893080592571792"><ele>280.0</ele><time>2026-04-30T15:15:03Z</time></trkpt><trkpt lat="45.68653803355066" lon="8.893135862253711"><ele>280.0</ele><time>2026-04-30T15:15:04Z</time></trkpt><trkpt lat="45.686283102038566" lon="8.893198368575035"><ele>280.0</ele><time>2026-04-30T15:15:05Z</time></trkpt><trkpt lat="45.68602662955314" lon="8.893263137469454"><ele>280.0</ele><time>2026-04-30T15:15:06Z</time></trkpt><trkpt lat="45.685773677251255" lon="8.893331160238946"><ele>280.0</ele><time>2026-04-30T15:15:07Z</time></trkpt><trkpt lat="45.68552026183015" lon="8.893396021011384"><ele>281.0</ele><time>2026-04-30T15:15:08Z</time></trkpt><trkpt lat="45.6852690740058" lon="8.893461589164946"><ele>282.0</ele><time>2026-04-30T15:15:09Z</time></trkpt><trkpt lat="45.68501494013888" lon="8.893523271223366"><ele>280.0</ele><time>2026-04-30T15:15:10Z</time></trkpt><trkpt lat="45.68476895318436" lon="8.893582611269897"><ele>278.0</ele><time>2026-04-30T15:15:11Z</time></trkpt><trkpt lat="45.684544666372055" lon="8.893636988858113"><ele>278.33333333333337</ele><time>2026-04-30T15:15:12Z</time></trkpt><trkpt lat="45.684335113805304" lon="8.893688274158333"><ele>278.6666666666667</ele><time>2026-04-30T15:15:13Z</time></trkpt><trkpt lat="45.68414236701382" lon="8.893741082083798"><ele>279.0</ele><time>2026-04-30T15:15:14Z</time></trkpt><trkpt lat="45.683955212330076" lon="8.893787623153525"><ele>279.0</ele><time>2026-04-30T15:15:15Z</time></trkpt><trkpt lat="45.68375223198384" lon="8.893831985929976"><ele>279.0</ele><time>2026-04-30T15:15:16Z</time></trkpt><trkpt lat="45.6835542570416" lon="8.893882500199702"><ele>279.0</ele><time>2026-04-30T15:15:17Z</time></trkpt><trkpt lat="45.68335338914407" lon="8.893928126596673"><ele>279.6666666666667</ele><time>2026-04-30T15:15:18Z</time></trkpt><trkpt lat="45.68316804342971" lon="8.893977870963091"><ele>280.33333333333337</ele><time>2026-04-30T15:15:19Z</time></trkpt><trkpt lat="45.682981871746314" lon="8.894023514858425"><ele>281.0</ele><time>2026-04-30T15:15:20Z</time></trkpt><trkpt lat="45.68278710240476" lon="8.894040276893014"><ele>280.33333333333337</ele><time>2026-04-30T15:15:21Z</time></trkpt><trkpt lat="45.682595459443235" lon="8.894087750432544"><ele>279.6666666666667</ele><time>2026-04-30T15:15:22Z</time></trkpt><trkpt lat="45.68239652971754" lon="8.894137029040467"><ele>279.0</ele><time>2026-04-30T15:15:23Z</time></trkpt><trkpt lat="45.682198528062564" lon="8.894209434106466"><ele>279.0</ele><time>2026-04-30T15:15:24Z</time></trkpt><trkpt lat="45.68200380711664" lon="8.894253834726502"><ele>279.0</ele><time>2026-04-30T15:15:25Z</time></trkpt><trkpt lat="45.68182311043109" lon="8.894293429641861"><ele>279.0</ele><time>2026-04-30T15:15:26Z</time></trkpt><trkpt lat="45.68165391234041" lon="8.89433278954536"><ele>277.3333333333333</ele><time>2026-04-30T15:15:27Z</time></trkpt><trkpt lat="45.68149386128224" lon="8.894370990698224"><ele>275.66666666666663</ele><time>2026-04-30T15:15:28Z</time></trkpt><trkpt lat="45.68134256036117" lon="8.89440711854221"><ele>274.0</ele><time>2026-04-30T15:15:29Z</time></trkpt><trkpt lat="45.68118364156157" lon="8.894430840413186"><ele>273.0</ele><time>2026-04-30T15:15:30Z</time></trkpt><trkpt lat="45.68103206176896" lon="8.894490509924482"><ele>272.0</ele><time>2026-04-30T15:15:31Z</time></trkpt><trkpt lat="45.68085538804368" lon="8.894524957232855"><ele>271.0</ele><time>2026-04-30T15:15:32Z</time></trkpt><trkpt lat="45.68067436690889" lon="8.894559279671933"><ele>271.0</ele><time>2026-04-30T15:15:33Z</time></trkpt><trkpt lat="45.68048417934386" lon="8.894577359283696"><ele>271.0</ele><time>2026-04-30T15:15:34Z</time></trkpt><trkpt lat="45.68029137742079" lon="8.894581717687762"><ele>271.0</ele><time>2026-04-30T15:15:35Z</time></trkpt><trkpt lat="45.68011939260992" lon="8.894565990424468"><ele>272.0</ele><time>2026-04-30T15:15:36Z</time></trkpt><trkpt lat="45.6799561240638" lon="8.894546972146054"><ele>273.0</ele><time>2026-04-30T15:15:37Z</time></trkpt><trkpt lat="45.67978800672203" lon="8.89452723209527"><ele>274.0</ele><time>2026-04-30T15:15:38Z</time></trkpt><trkpt lat="45.679610612549624" lon="8.894499219050118"><ele>275.0</ele><time>2026-04-30T15:15:39Z</time></trkpt><trkpt lat="45.67943276047729" lon="8.894468811323009"><ele>276.0</ele><time>2026-04-30T15:15:40Z</time></trkpt><trkpt lat="45.679265770671044" lon="8.8944393151665"><ele>277.0</ele><time>2026-04-30T15:15:41Z</time></trkpt><trkpt lat="45.679106584411954" lon="8.894412868090594"><ele>277.0</ele><time>2026-04-30T15:15:42Z</time></trkpt><trkpt lat="45.67895603900983" lon="8.89439541463747"><ele>277.0</ele><time>2026-04-30T15:15:43Z</time></trkpt><trkpt lat="45.678813113263296" lon="8.894376747034695"><ele>277.0</ele><time>2026-04-30T15:15:44Z</time></trkpt><trkpt lat="45.67867653963974" lon="8.89435856655091"><ele>277.0</ele><time>2026-04-30T15:15:45Z</time></trkpt><trkpt lat="45.67852717242018" lon="8.894336086757443"><ele>277.3333333333333</ele><time>2026-04-30T15:15:46Z</time></trkpt><trkpt lat="45.67837342545703" lon="8.894310517882934"><ele>277.6666666666667</ele><time>2026-04-30T15:15:47Z</time></trkpt><trkpt lat="45.67821496883303" lon="8.8942948782382"><ele>278.0</ele><time>2026-04-30T15:15:48Z</time></trkpt><trkpt lat="45.67805555555709" lon="8.894255744788556"><ele>278.0</ele><time>2026-04-30T15:15:49Z</time></trkpt><trkpt lat="45.677909083976175" lon="8.894233386918053"><ele>278.0</ele><time>2026-04-30T15:15:50Z</time></trkpt><trkpt lat="45.67776948201387" lon="8.894232842968393"><ele>278.0</ele><time>2026-04-30T15:15:51Z</time></trkpt><trkpt lat="45.67763512855774" lon="8.894210538058834"><ele>278.0</ele><time>2026-04-30T15:15:52Z</time></trkpt><trkpt lat="45.677501720072755" lon="8.89418930412033"><ele>276.75</ele><time>2026-04-30T15:15:53Z</time></trkpt><trkpt lat="45.67736854276659" lon="8.894176212949862"><ele>275.5</ele><time>2026-04-30T15:15:54Z</time></trkpt><trkpt lat="45.677231895711415" lon="8.894148555921607"><ele>274.25</ele><time>2026-04-30T15:15:55Z</time></trkpt><trkpt lat="45.6770895259204" lon="8.894175163808791"><ele>273.0</ele><time>2026-04-30T15:15:56Z</time></trkpt><trkpt lat="45.67695034540878" lon="8.894212363116255"><ele>271.75</ele><time>2026-04-30T15:15:57Z</time></trkpt><trkpt lat="45.67682785162512" lon="8.89425050116213"><ele>270.5</ele><time>2026-04-30T15:15:57.999Z</time></trkpt><trkpt lat="45.676719590086044" lon="8.894284208036314"><ele>269.25</ele><time>2026-04-30T15:15:58.999Z</time></trkpt><trkpt lat="45.6766125873122" lon="8.894317523001602"><ele>268.0</ele><time>2026-04-30T15:15:59.999Z</time></trkpt><trkpt lat="45.67649400321899" lon="8.894354443779127"><ele>267.66666666666663</ele><time>2026-04-30T15:16:00.999Z</time></trkpt><trkpt lat="45.676350067337644" lon="8.894399257740199"><ele>267.3333333333333</ele><time>2026-04-30T15:16:01.999Z</time></trkpt><trkpt lat="45.67618384709394" lon="8.894451009870817"><ele>267.0</ele><time>2026-04-30T15:16:02.999Z</time></trkpt><trkpt lat="45.6760514208277" lon="8.894492240357742"><ele>266.6</ele><time>2026-04-30T15:16:03.999Z</time></trkpt><trkpt lat="45.67593473303227" lon="8.894528570725821"><ele>266.2</ele><time>2026-04-30T15:16:04.999Z</time></trkpt><trkpt lat="45.67582315507397" lon="8.894563310159116"><ele>265.8</ele><time>2026-04-30T15:16:05.999Z</time></trkpt><trkpt lat="45.67572745261167" lon="8.894593171571067"><ele>265.4</ele><time>2026-04-30T15:16:06.999Z</time></trkpt><trkpt lat="45.675635400683106" lon="8.89462193036168"><ele>265.0</ele><time>2026-04-30T15:16:07.999Z</time></trkpt><trkpt lat="45.67553170731928" lon="8.894654326151235"><ele>265.0</ele><time>2026-04-30T15:16:08.999Z</time></trkpt><trkpt lat="45.67543594924869" lon="8.894684334856457"><ele>265.0</ele><time>2026-04-30T15:16:09.999Z</time></trkpt><trkpt lat="45.67532524521366" lon="8.894739975547573"><ele>265.0</ele><time>2026-04-30T15:16:10.999Z</time></trkpt><trkpt lat="45.6751956278852" lon="8.894779274610745"><ele>265.0</ele><time>2026-04-30T15:16:11.999Z</time></trkpt><trkpt lat="45.675030154496945" lon="8.894825820057417"><ele>265.5</ele><time>2026-04-30T15:16:12.999Z</time></trkpt><trkpt lat="45.6748681024975" lon="8.89487571704227"><ele>266.0</ele><time>2026-04-30T15:16:13.999Z</time></trkpt><trkpt lat="45.67473451937502" lon="8.894919630023741"><ele>266.5</ele><time>2026-04-30T15:16:14.999Z</time></trkpt><trkpt lat="45.67461791374577" lon="8.894956794338446"><ele>267.0</ele><time>2026-04-30T15:16:15.999Z</time></trkpt><trkpt lat="45.674491107462956" lon="8.895000297124389"><ele>266.75</ele><time>2026-04-30T15:16:16.999Z</time></trkpt><trkpt lat="45.674356079205786" lon="8.895019050754426"><ele>266.5</ele><time>2026-04-30T15:16:17.999Z</time></trkpt><trkpt lat="45.67424120158406" lon="8.895054844551069"><ele>266.25</ele><time>2026-04-30T15:16:18.999Z</time></trkpt><trkpt lat="45.67413713647798" lon="8.89508726937872"><ele>266.0</ele><time>2026-04-30T15:16:19.999Z</time></trkpt><trkpt lat="45.67403393619941" lon="8.895119424739324"><ele>266.40000000000003</ele><time>2026-04-30T15:16:20.999Z</time></trkpt><trkpt lat="45.67393626505134" lon="8.895149859355495"><ele>266.8</ele><time>2026-04-30T15:16:21.999Z</time></trkpt><trkpt lat="45.673835496891904" lon="8.895181256455393"><ele>267.20000000000005</ele><time>2026-04-30T15:16:22.999Z</time></trkpt><trkpt lat="45.67374183369698" lon="8.895210642711557"><ele>267.6</ele><time>2026-04-30T15:16:23.999Z</time></trkpt><trkpt lat="45.67365470121401" lon="8.895237953169973"><ele>268.0</ele><time>2026-04-30T15:16:24.999Z</time></trkpt><trkpt lat="45.67357983950305" lon="8.895261417617268"><ele>267.0</ele><time>2026-04-30T15:16:25.999Z</time></trkpt><trkpt lat="45.67351385655303" lon="8.89528209912961"><ele>266.0</ele><time>2026-04-30T15:16:26.999Z</time></trkpt><trkpt lat="45.6734231476267" lon="8.895322183475258"><ele>265.0</ele><time>2026-04-30T15:16:28.999Z</time></trkpt><trkpt lat="45.673331900742106" lon="8.895323864694893"><ele>264.0</ele><time>2026-04-30T15:16:30.999Z</time></trkpt><trkpt lat="45.67323618666038" lon="8.895274426078053"><ele>263.0</ele><time>2026-04-30T15:16:32.999Z</time></trkpt><trkpt lat="45.67311431958029" lon="8.8952845649527"><ele>263.0</ele><time>2026-04-30T15:16:34.999Z</time></trkpt><trkpt lat="45.673053534344625" lon="8.895380804786303"><ele>263.0</ele><time>2026-04-30T15:16:35.999Z</time></trkpt><trkpt lat="45.67299720044652" lon="8.89544374421852"><ele>263.0</ele><time>2026-04-30T15:16:36.999Z</time></trkpt><trkpt lat="45.672934405029956" lon="8.89548024051849"><ele>263.0</ele><time>2026-04-30T15:16:37.999Z</time></trkpt><trkpt lat="45.67286120445035" lon="8.89550999289935"><ele>263.0</ele><time>2026-04-30T15:16:38.999Z</time></trkpt><trkpt lat="45.67277707101294" lon="8.895511872608179"><ele>263.0</ele><time>2026-04-30T15:16:39.999Z</time></trkpt><trkpt lat="45.6726900860473" lon="8.895538219967154"><ele>263.25</ele><time>2026-04-30T15:16:40.999Z</time></trkpt><trkpt lat="45.67257205817571" lon="8.895572860029253"><ele>263.5</ele><time>2026-04-30T15:16:41.999Z</time></trkpt><trkpt lat="45.67241849775402" lon="8.895619245051577"><ele>263.75</ele><time>2026-04-30T15:16:42.999Z</time></trkpt><trkpt lat="45.672264546669375" lon="8.895665850940803"><ele>264.0</ele><time>2026-04-30T15:16:43.999Z</time></trkpt><trkpt lat="45.67208430677702" lon="8.895721174293298"><ele>264.6666666666667</ele><time>2026-04-30T15:16:44.999Z</time></trkpt><trkpt lat="45.67188411794717" lon="8.895782620849475"><ele>265.33333333333337</ele><time>2026-04-30T15:16:45.999Z</time></trkpt><trkpt lat="45.671705189517446" lon="8.895856949410547"><ele>266.0</ele><time>2026-04-30T15:16:46.999Z</time></trkpt><trkpt lat="45.67154959934006" lon="8.895903333924478"><ele>265.6666666666667</ele><time>2026-04-30T15:16:47.999Z</time></trkpt><trkpt lat="45.67138842373438" lon="8.895942576584117"><ele>265.3333333333333</ele><time>2026-04-30T15:16:48.999Z</time></trkpt><trkpt lat="45.671219532907855" lon="8.895991131888078"><ele>265.0</ele><time>2026-04-30T15:16:49.999Z</time></trkpt><trkpt lat="45.671036452339216" lon="8.89604719877083"><ele>265.66666666666663</ele><time>2026-04-30T15:16:50.999Z</time></trkpt><trkpt lat="45.67083858780849" lon="8.896100600195737"><ele>266.3333333333333</ele><time>2026-04-30T15:16:51.999Z</time></trkpt><trkpt lat="45.67063453117927" lon="8.89614881438539"><ele>267.0</ele><time>2026-04-30T15:16:53Z</time></trkpt><trkpt lat="45.670427759501834" lon="8.896198058500122"><ele>266.3333333333333</ele><time>2026-04-30T15:16:54Z</time></trkpt><trkpt lat="45.67021869111871" lon="8.896229866098658"><ele>265.66666666666663</ele><time>2026-04-30T15:16:55Z</time></trkpt><trkpt lat="45.67003243670624" lon="8.896263767897874"><ele>265.0</ele><time>2026-04-30T15:16:56Z</time></trkpt><trkpt lat="45.669856491512526" lon="8.896287598444333"><ele>265.0</ele><time>2026-04-30T15:16:57Z</time></trkpt><trkpt lat="45.669693055949395" lon="8.896314685548079"><ele>265.0</ele><time>2026-04-30T15:16:58Z</time></trkpt><trkpt lat="45.66955185626144" lon="8.896333307168115"><ele>265.0</ele><time>2026-04-30T15:16:59Z</time></trkpt><trkpt lat="45.66942615874164" lon="8.896347248922039"><ele>265.0</ele><time>2026-04-30T15:17:00Z</time></trkpt><trkpt lat="45.66932647220925" lon="8.896359336670267"><ele>265.0</ele><time>2026-04-30T15:17:01Z</time></trkpt><trkpt lat="45.66924244595134" lon="8.896357867208774"><ele>265.0</ele><time>2026-04-30T15:17:02Z</time></trkpt><trkpt lat="45.669176841016935" lon="8.896353139131092"><ele>265.0</ele><time>2026-04-30T15:17:03Z</time></trkpt><trkpt lat="45.66910512102576" lon="8.89632991340008"><ele>265.0</ele><time>2026-04-30T15:17:04Z</time></trkpt><trkpt lat="45.66901808444912" lon="8.896299502945404"><ele>265.0</ele><time>2026-04-30T15:17:05Z</time></trkpt><trkpt lat="45.66892964889828" lon="8.896300474404217"><ele>265.0</ele><time>2026-04-30T15:17:06Z</time></trkpt><trkpt lat="45.66885485101848" lon="8.896345992985209"><ele>265.0</ele><time>2026-04-30T15:17:07Z</time></trkpt><trkpt lat="45.668778181560484" lon="8.896421594638444"><ele>265.0</ele><time>2026-04-30T15:17:08Z</time></trkpt><trkpt lat="45.6686648255717" lon="8.89642285523887"><ele>265.0</ele><time>2026-04-30T15:17:09Z</time></trkpt><trkpt lat="45.668502532530475" lon="8.896439549472026"><ele>265.0</ele><time>2026-04-30T15:17:10Z</time></trkpt><trkpt lat="45.66830180991189" lon="8.896483990147907"><ele>264.0</ele><time>2026-04-30T15:17:11Z</time></trkpt><trkpt lat="45.668067168589225" lon="8.896509027817467"><ele>263.0</ele><time>2026-04-30T15:17:12Z</time></trkpt><trkpt lat="45.667849440342756" lon="8.896528826795382"><ele>262.0</ele><time>2026-04-30T15:17:13Z</time></trkpt><trkpt lat="45.66766792410668" lon="8.896554611203985"><ele>261.0</ele><time>2026-04-30T15:17:14Z</time></trkpt><trkpt lat="45.66750444987061" lon="8.896550217637904"><ele>260.0</ele><time>2026-04-30T15:17:15Z</time></trkpt><trkpt lat="45.6673555395965" lon="8.896591427212583"><ele>260.0</ele><time>2026-04-30T15:17:16Z</time></trkpt><trkpt lat="45.66721836128074" lon="8.896583713595383"><ele>260.0</ele><time>2026-04-30T15:17:17Z</time></trkpt><trkpt lat="45.66709632032141" lon="8.896598105043008"><ele>260.0</ele><time>2026-04-30T15:17:18Z</time></trkpt><trkpt lat="45.66698986451764" lon="8.896611087459117"><ele>260.0</ele><time>2026-04-30T15:17:19Z</time></trkpt><trkpt lat="45.6669007436007" lon="8.896621955862724"><ele>260.33333333333337</ele><time>2026-04-30T15:17:20Z</time></trkpt><trkpt lat="45.66682582222007" lon="8.896630845787353"><ele>260.6666666666667</ele><time>2026-04-30T15:17:21Z</time></trkpt><trkpt lat="45.66676238456625" lon="8.896637804250046"><ele>261.0</ele><time>2026-04-30T15:17:22Z</time></trkpt><trkpt lat="45.66666808677653" lon="8.896648147749444"><ele>261.3333333333333</ele><time>2026-04-30T15:17:24Z</time></trkpt><trkpt lat="45.666584277205274" lon="8.896657340791503"><ele>261.66666666666663</ele><time>2026-04-30T15:17:26Z</time></trkpt><trkpt lat="45.66651933378073" lon="8.89666446441567"><ele>262.0</ele><time>2026-04-30T15:17:27Z</time></trkpt><trkpt lat="45.6664349687989" lon="8.896673707445544"><ele>262.0</ele><time>2026-04-30T15:17:28Z</time></trkpt><trkpt lat="45.666335509829736" lon="8.896684592287636"><ele>262.0</ele><time>2026-04-30T15:17:29Z</time></trkpt><trkpt lat="45.66622084055132" lon="8.896721136105539"><ele>262.0</ele><time>2026-04-30T15:17:30Z</time></trkpt><trkpt lat="45.666106273367845" lon="8.896711216851942"><ele>262.0</ele><time>2026-04-30T15:17:31Z</time></trkpt><trkpt lat="45.66598510650419" lon="8.896725065330743"><ele>262.0</ele><time>2026-04-30T15:17:32Z</time></trkpt><trkpt lat="45.665854107576045" lon="8.89674021924526"><ele>262.0</ele><time>2026-04-30T15:17:33Z</time></trkpt><trkpt lat="45.66572145367458" lon="8.89675556461361"><ele>262.0</ele><time>2026-04-30T15:17:34Z</time></trkpt><trkpt lat="45.66559523645061" lon="8.896770165379762"><ele>262.0</ele><time>2026-04-30T15:17:35Z</time></trkpt><trkpt lat="45.66546369084809" lon="8.896785382534253"><ele>262.0</ele><time>2026-04-30T15:17:36Z</time></trkpt><trkpt lat="45.66532544384662" lon="8.896801374909556"><ele>262.0</ele><time>2026-04-30T15:17:37Z</time></trkpt><trkpt lat="45.66519655218751" lon="8.896816285052214"><ele>262.0</ele><time>2026-04-30T15:17:38Z</time></trkpt><trkpt lat="45.665092477683466" lon="8.896828324487341"><ele>262.0</ele><time>2026-04-30T15:17:39Z</time></trkpt><trkpt lat="45.665004457580224" lon="8.89686144053617"><ele>261.8</ele><time>2026-04-30T15:17:40Z</time></trkpt><trkpt lat="45.66491873185803" lon="8.896866437565583"><ele>261.6</ele><time>2026-04-30T15:17:41Z</time></trkpt><trkpt lat="45.664823934163934" lon="8.896874788218895"><ele>261.40000000000003</ele><time>2026-04-30T15:17:42Z</time></trkpt><trkpt lat="45.664716309233626" lon="8.896883242157296"><ele>261.2</ele><time>2026-04-30T15:17:43Z</time></trkpt><trkpt lat="45.664621252681535" lon="8.89689600666502"><ele>261.0</ele><time>2026-04-30T15:17:44Z</time></trkpt><trkpt lat="45.66454071357795" lon="8.896902599283088"><ele>261.0</ele><time>2026-04-30T15:17:45Z</time></trkpt><trkpt lat="45.66446722254509" lon="8.896911276517555"><ele>261.0</ele><time>2026-04-30T15:17:46Z</time></trkpt><trkpt lat="45.66440342927331" lon="8.896921801679945"><ele>261.0</ele><time>2026-04-30T15:17:47Z</time></trkpt><trkpt lat="45.664303924096274" lon="8.8969376077402"><ele>261.0</ele><time>2026-04-30T15:17:49Z</time></trkpt><trkpt lat="45.66421132826827" lon="8.896954232864212"><ele>261.0</ele><time>2026-04-30T15:17:51Z</time></trkpt><trkpt lat="45.6641311684291" lon="8.896966196750975"><ele>261.0</ele><time>2026-04-30T15:17:53Z</time></trkpt><trkpt lat="45.664066007914826" lon="8.896980160991385"><ele>260.8</ele><time>2026-04-30T15:17:59Z</time></trkpt><trkpt lat="45.66396018378646" lon="8.896993954081589"><ele>260.6</ele><time>2026-04-30T15:18:06Z</time></trkpt><trkpt lat="45.663895237204805" lon="8.897003017216393"><ele>260.4</ele><time>2026-04-30T15:18:07Z</time></trkpt><trkpt lat="45.66377666779957" lon="8.897025501070383"><ele>260.2</ele><time>2026-04-30T15:18:09Z</time></trkpt><trkpt lat="45.66366653208958" lon="8.89704281421662"><ele>260.0</ele><time>2026-04-30T15:18:11Z</time></trkpt><trkpt lat="45.663602933606064" lon="8.897032394816854"><ele>259.83333333333337</ele><time>2026-04-30T15:18:14Z</time></trkpt><trkpt lat="45.663517074646045" lon="8.897012254901012"><ele>259.6666666666667</ele><time>2026-04-30T15:18:16Z</time></trkpt><trkpt lat="45.663457326121396" lon="8.896980053250065"><ele>259.5</ele><time>2026-04-30T15:18:17Z</time></trkpt><trkpt lat="45.663399953806355" lon="8.897020356918048"><ele>259.3333333333333</ele><time>2026-04-30T15:18:18Z</time></trkpt><trkpt lat="45.663322986153325" lon="8.89704170555681"><ele>259.16666666666663</ele><time>2026-04-30T15:18:19Z</time></trkpt><trkpt lat="45.66324107467437" lon="8.897063681509325"><ele>259.0</ele><time>2026-04-30T15:18:20Z</time></trkpt><trkpt lat="45.663163900553634" lon="8.897079160744774"><ele>259.0</ele><time>2026-04-30T15:18:21Z</time></trkpt><trkpt lat="45.66308098109799" lon="8.897090594161014"><ele>259.0</ele><time>2026-04-30T15:18:22Z</time></trkpt><trkpt lat="45.662991404505725" lon="8.897101949594985"><ele>259.0</ele><time>2026-04-30T15:18:23Z</time></trkpt><trkpt lat="45.66289583151275" lon="8.897117620331308"><ele>259.0</ele><time>2026-04-30T15:18:24Z</time></trkpt><trkpt lat="45.662783785044766" lon="8.897135553290358"><ele>259.0</ele><time>2026-04-30T15:18:25Z</time></trkpt><trkpt lat="45.66265896723961" lon="8.897159688329044"><ele>259.0</ele><time>2026-04-30T15:18:25.999Z</time></trkpt><trkpt lat="45.662513465846835" lon="8.897193321926075"><ele>259.0</ele><time>2026-04-30T15:18:26.999Z</time></trkpt><trkpt lat="45.662353516500325" lon="8.89722578271941"><ele>259.0</ele><time>2026-04-30T15:18:27.999Z</time></trkpt><trkpt lat="45.66218585867852" lon="8.897252723914994"><ele>259.0</ele><time>2026-04-30T15:18:28.999Z</time></trkpt><trkpt lat="45.66198501498076" lon="8.897289199526014"><ele>259.0</ele><time>2026-04-30T15:18:29.999Z</time></trkpt><trkpt lat="45.661774477308285" lon="8.897326240366274"><ele>259.0</ele><time>2026-04-30T15:18:30.999Z</time></trkpt><trkpt lat="45.66156102427849" lon="8.897373237039497"><ele>258.0</ele><time>2026-04-30T15:18:31.999Z</time></trkpt><trkpt lat="45.66131901751964" lon="8.897422090505202"><ele>257.0</ele><time>2026-04-30T15:18:32.999Z</time></trkpt><trkpt lat="45.66105310389807" lon="8.89747289840679"><ele>257.0</ele><time>2026-04-30T15:18:33.999Z</time></trkpt><trkpt lat="45.66080537139416" lon="8.89751900339193"><ele>257.0</ele><time>2026-04-30T15:18:34.999Z</time></trkpt><trkpt lat="45.66058960825651" lon="8.897559109653777"><ele>257.33333333333337</ele><time>2026-04-30T15:18:35.999Z</time></trkpt><trkpt lat="45.66038935105119" lon="8.897594162822376"><ele>257.6666666666667</ele><time>2026-04-30T15:18:36.999Z</time></trkpt><trkpt lat="45.66019080158647" lon="8.897632297701259"><ele>258.0</ele><time>2026-04-30T15:18:37.999Z</time></trkpt><trkpt lat="45.65997684920949" lon="8.897677065783544"><ele>258.0</ele><time>2026-04-30T15:18:38.999Z</time></trkpt><trkpt lat="45.65976925687991" lon="8.897714640893525"><ele>258.0</ele><time>2026-04-30T15:18:39.999Z</time></trkpt><trkpt lat="45.65957960727513" lon="8.897745688715117"><ele>258.0</ele><time>2026-04-30T15:18:40.999Z</time></trkpt><trkpt lat="45.65938878378221" lon="8.89778154894478"><ele>257.0</ele><time>2026-04-30T15:18:41.999Z</time></trkpt><trkpt lat="45.65919187734947" lon="8.897822185528574"><ele>256.0</ele><time>2026-04-30T15:18:42.999Z</time></trkpt><trkpt lat="45.658992538814594" lon="8.897861834018423"><ele>255.0</ele><time>2026-04-30T15:18:43.999Z</time></trkpt><trkpt lat="45.658804973418206" lon="8.897898240751607"><ele>255.0</ele><time>2026-04-30T15:18:44.999Z</time></trkpt><trkpt lat="45.6586353408629" lon="8.897932637420022"><ele>255.0</ele><time>2026-04-30T15:18:45.999Z</time></trkpt><trkpt lat="45.65847397396589" lon="8.897964247869739"><ele>255.0</ele><time>2026-04-30T15:18:46.999Z</time></trkpt><trkpt lat="45.658321855710376" lon="8.897992161985142"><ele>255.33333333333331</ele><time>2026-04-30T15:18:47.999Z</time></trkpt><trkpt lat="45.65816697109458" lon="8.89802529824495"><ele>255.66666666666666</ele><time>2026-04-30T15:18:48.999Z</time></trkpt><trkpt lat="45.65800161687583" lon="8.898054246158942"><ele>256.0</ele><time>2026-04-30T15:18:49.999Z</time></trkpt><trkpt lat="45.65783300247363" lon="8.898084332962025"><ele>256.3333333333333</ele><time>2026-04-30T15:18:50.999Z</time></trkpt><trkpt lat="45.657663461139755" lon="8.898122897236542"><ele>256.6666666666667</ele><time>2026-04-30T15:18:51.999Z</time></trkpt><trkpt lat="45.65749926377003" lon="8.898142586148756"><ele>257.0</ele><time>2026-04-30T15:18:52.999Z</time></trkpt><trkpt lat="45.657346604238725" lon="8.898176225609674"><ele>257.0</ele><time>2026-04-30T15:18:53.999Z</time></trkpt><trkpt lat="45.657207908502755" lon="8.898200874433241"><ele>257.0</ele><time>2026-04-30T15:18:54.999Z</time></trkpt><trkpt lat="45.65707987948908" lon="8.898228831019782"><ele>257.0</ele><time>2026-04-30T15:18:55.999Z</time></trkpt><trkpt lat="45.656957721365885" lon="8.898249884301611"><ele>257.0</ele><time>2026-04-30T15:18:56.999Z</time></trkpt><trkpt lat="45.656838168456765" lon="8.89826615021338"><ele>257.0</ele><time>2026-04-30T15:18:57.999Z</time></trkpt><trkpt lat="45.656726774893414" lon="8.898287492376276"><ele>257.0</ele><time>2026-04-30T15:18:59Z</time></trkpt><trkpt lat="45.65661397369549" lon="8.898304077678818"><ele>257.0</ele><time>2026-04-30T15:19:00Z</time></trkpt><trkpt lat="45.65651540467002" lon="8.898302688596704"><ele>257.0</ele><time>2026-04-30T15:19:01Z</time></trkpt><trkpt lat="45.65641360697368" lon="8.898245335899194"><ele>257.0</ele><time>2026-04-30T15:19:02Z</time></trkpt><trkpt lat="45.656311721597135" lon="8.898263042954833"><ele>257.0</ele><time>2026-04-30T15:19:03Z</time></trkpt><trkpt lat="45.65622065277208" lon="8.898321926886435"><ele>257.0</ele><time>2026-04-30T15:19:04Z</time></trkpt><trkpt lat="45.656124241824166" lon="8.898450220108757"><ele>257.0</ele><time>2026-04-30T15:19:05Z</time></trkpt><trkpt lat="45.65600262152018" lon="8.898559772484113"><ele>257.0</ele><time>2026-04-30T15:19:06Z</time></trkpt><trkpt lat="45.655854282185416" lon="8.898659568748732"><ele>256.33333333333337</ele><time>2026-04-30T15:19:07Z</time></trkpt><trkpt lat="45.6556621858784" lon="8.898759802139818"><ele>255.66666666666669</ele><time>2026-04-30T15:19:08Z</time></trkpt><trkpt lat="45.65545509663767" lon="8.898909118909135"><ele>255.0</ele><time>2026-04-30T15:19:09Z</time></trkpt><trkpt lat="45.65525481222616" lon="8.8990735633903"><ele>254.33333333333331</ele><time>2026-04-30T15:19:10Z</time></trkpt><trkpt lat="45.65506838439148" lon="8.89920543625027"><ele>253.66666666666666</ele><time>2026-04-30T15:19:11Z</time></trkpt><trkpt lat="45.654896555992416" lon="8.8993287245134"><ele>253.0</ele><time>2026-04-30T15:19:12Z</time></trkpt><trkpt lat="45.6547098019385" lon="8.899445392921201"><ele>253.0</ele><time>2026-04-30T15:19:13Z</time></trkpt><trkpt lat="45.65450459562022" lon="8.899613535614572"><ele>253.0</ele><time>2026-04-30T15:19:14Z</time></trkpt><trkpt lat="45.65428281404733" lon="8.899759727721984"><ele>254.0</ele><time>2026-04-30T15:19:15Z</time></trkpt><trkpt lat="45.6540745791109" lon="8.89991120913958"><ele>255.0</ele><time>2026-04-30T15:19:16Z</time></trkpt><trkpt lat="45.653878865754066" lon="8.900054311104668"><ele>254.66666666666669</ele><time>2026-04-30T15:19:17Z</time></trkpt><trkpt lat="45.65369045249282" lon="8.900206523923174"><ele>254.33333333333334</ele><time>2026-04-30T15:19:18Z</time></trkpt><trkpt lat="45.65353829836154" lon="8.900345212704497"><ele>254.0</ele><time>2026-04-30T15:19:19Z</time></trkpt><trkpt lat="45.653386921911654" lon="8.900527486441517"><ele>253.0</ele><time>2026-04-30T15:19:20Z</time></trkpt><trkpt lat="45.65326012571443" lon="8.900720742834302"><ele>252.0</ele><time>2026-04-30T15:19:21Z</time></trkpt><trkpt lat="45.65314743374261" lon="8.90092975772858"><ele>251.0</ele><time>2026-04-30T15:19:22Z</time></trkpt><trkpt lat="45.6530425948197" lon="8.90115405463791"><ele>251.0</ele><time>2026-04-30T15:19:23Z</time></trkpt><trkpt lat="45.6529545356416" lon="8.901374370418555"><ele>251.0</ele><time>2026-04-30T15:19:24Z</time></trkpt><trkpt lat="45.65289522984092" lon="8.901563133470454"><ele>251.0</ele><time>2026-04-30T15:19:25Z</time></trkpt><trkpt lat="45.65284744683052" lon="8.9017341496237"><ele>251.25</ele><time>2026-04-30T15:19:26Z</time></trkpt><trkpt lat="45.65280486465154" lon="8.901912948509777"><ele>251.5</ele><time>2026-04-30T15:19:27Z</time></trkpt><trkpt lat="45.65275526996102" lon="8.902110440917346"><ele>251.75</ele><time>2026-04-30T15:19:28Z</time></trkpt><trkpt lat="45.652700436471285" lon="8.902317725823329"><ele>252.0</ele><time>2026-04-30T15:19:29Z</time></trkpt><trkpt lat="45.65264411065572" lon="8.902542102815092"><ele>251.66666666666669</ele><time>2026-04-30T15:19:30Z</time></trkpt><trkpt lat="45.652558945190954" lon="8.902797561022487"><ele>251.33333333333334</ele><time>2026-04-30T15:19:31Z</time></trkpt><trkpt lat="45.65247893554816" lon="8.903100350469664"><ele>251.0</ele><time>2026-04-30T15:19:32Z</time></trkpt><trkpt lat="45.65240518083877" lon="8.903436674400684"><ele>251.0</ele><time>2026-04-30T15:19:33Z</time></trkpt><trkpt lat="45.652308020633" lon="8.90377292060218"><ele>251.0</ele><time>2026-04-30T15:19:34Z</time></trkpt><trkpt lat="45.652216911140705" lon="8.904111930965705"><ele>250.0</ele><time>2026-04-30T15:19:35Z</time></trkpt><trkpt lat="45.65213084314029" lon="8.904453181980696"><ele>249.0</ele><time>2026-04-30T15:19:36Z</time></trkpt><trkpt lat="45.65204596902232" lon="8.904786570732103"><ele>249.66666666666669</ele><time>2026-04-30T15:19:37Z</time></trkpt><trkpt lat="45.65196675108072" lon="8.905091572992822"><ele>250.33333333333334</ele><time>2026-04-30T15:19:38Z</time></trkpt><trkpt lat="45.651892044938705" lon="8.905375938438876"><ele>251.0</ele><time>2026-04-30T15:19:39Z</time></trkpt><trkpt lat="45.6518220075951" lon="8.905637388969964"><ele>251.33333333333334</ele><time>2026-04-30T15:19:40Z</time></trkpt><trkpt lat="45.651754091403255" lon="8.905882510939149"><ele>251.66666666666669</ele><time>2026-04-30T15:19:41Z</time></trkpt><trkpt lat="45.651693043821076" lon="8.906114670416029"><ele>252.0</ele><time>2026-04-30T15:19:42Z</time></trkpt><trkpt lat="45.651635586423765" lon="8.906334593439178"><ele>252.0</ele><time>2026-04-30T15:19:43Z</time></trkpt><trkpt lat="45.65157776009478" lon="8.906555365600607"><ele>252.0</ele><time>2026-04-30T15:19:44Z</time></trkpt><trkpt lat="45.651502045131146" lon="8.90678260454612"><ele>252.0</ele><time>2026-04-30T15:19:45Z</time></trkpt><trkpt lat="45.6514473784936" lon="8.906989532579297"><ele>252.0</ele><time>2026-04-30T15:19:46Z</time></trkpt><trkpt lat="45.65139958879879" lon="8.907161408525093"><ele>252.0</ele><time>2026-04-30T15:19:47Z</time></trkpt><trkpt lat="45.65134997784804" lon="8.907328142847701"><ele>252.0</ele><time>2026-04-30T15:19:48Z</time></trkpt><trkpt lat="45.651287364004396" lon="8.907516160864143"><ele>252.0</ele><time>2026-04-30T15:19:49Z</time></trkpt><trkpt lat="45.65120771073234" lon="8.907699577710796"><ele>251.75</ele><time>2026-04-30T15:19:50Z</time></trkpt><trkpt lat="45.65111645458448" lon="8.907874466574896"><ele>251.5</ele><time>2026-04-30T15:19:51Z</time></trkpt><trkpt lat="45.651018744178394" lon="8.908035065889251"><ele>251.25</ele><time>2026-04-30T15:19:52Z</time></trkpt><trkpt lat="45.65091180742055" lon="8.908180467358644"><ele>251.0</ele><time>2026-04-30T15:19:53Z</time></trkpt><trkpt lat="45.65079470685125" lon="8.908320811410523"><ele>251.5</ele><time>2026-04-30T15:19:54Z</time></trkpt><trkpt lat="45.65066698955821" lon="8.908445206608505"><ele>252.0</ele><time>2026-04-30T15:19:55Z</time></trkpt><trkpt lat="45.65054115924127" lon="8.90854347901003"><ele>252.5</ele><time>2026-04-30T15:19:56Z</time></trkpt><trkpt lat="45.650415792919596" lon="8.908628603211458"><ele>253.0</ele><time>2026-04-30T15:19:57Z</time></trkpt><trkpt lat="45.65028806156573" lon="8.90872964559938"><ele>251.33333333333331</ele><time>2026-04-30T15:19:58Z</time></trkpt><trkpt lat="45.6501522071921" lon="8.908803518394611"><ele>249.66666666666669</ele><time>2026-04-30T15:19:59Z</time></trkpt><trkpt lat="45.650004915678494" lon="8.908881580689217"><ele>248.0</ele><time>2026-04-30T15:20:00Z</time></trkpt><trkpt lat="45.64986379489414" lon="8.908957611694731"><ele>248.0</ele><time>2026-04-30T15:20:01Z</time></trkpt><trkpt lat="45.64973658685058" lon="8.909023777049235"><ele>248.0</ele><time>2026-04-30T15:20:02Z</time></trkpt><trkpt lat="45.649618416239015" lon="8.909086446147915"><ele>248.0</ele><time>2026-04-30T15:20:03Z</time></trkpt><trkpt lat="45.64950858646864" lon="8.909145030047192"><ele>248.0</ele><time>2026-04-30T15:20:04Z</time></trkpt><trkpt lat="45.64940733674398" lon="8.90919902874656"><ele>248.4</ele><time>2026-04-30T15:20:05Z</time></trkpt><trkpt lat="45.64931229307063" lon="8.909249246157112"><ele>248.8</ele><time>2026-04-30T15:20:06Z</time></trkpt><trkpt lat="45.649221913544714" lon="8.909296557048386"><ele>249.2</ele><time>2026-04-30T15:20:07Z</time></trkpt><trkpt lat="45.64913748543877" lon="8.90934309321045"><ele>249.6</ele><time>2026-04-30T15:20:08Z</time></trkpt><trkpt lat="45.649057518171126" lon="8.909386530595702"><ele>250.0</ele><time>2026-04-30T15:20:09Z</time></trkpt><trkpt lat="45.64898092684277" lon="8.909427602503358"><ele>250.0</ele><time>2026-04-30T15:20:10Z</time></trkpt><trkpt lat="45.648904861505294" lon="8.909466237124018"><ele>250.0</ele><time>2026-04-30T15:20:11Z</time></trkpt><trkpt lat="45.648837880942494" lon="8.90950038432917"><ele>250.0</ele><time>2026-04-30T15:20:12Z</time></trkpt><trkpt lat="45.64877158289326" lon="8.90953017433019"><ele>250.0</ele><time>2026-04-30T15:20:13Z</time></trkpt><trkpt lat="45.648702089686395" lon="8.909542497475064"><ele>250.0</ele><time>2026-04-30T15:20:14Z</time></trkpt><trkpt lat="45.64863557097548" lon="8.90952520594103"><ele>250.0</ele><time>2026-04-30T15:20:15Z</time></trkpt><trkpt lat="45.64856920431189" lon="8.909503686092725"><ele>250.0</ele><time>2026-04-30T15:20:16Z</time></trkpt><trkpt lat="45.648501535782685" lon="8.909514412121432"><ele>249.5</ele><time>2026-04-30T15:20:17Z</time></trkpt><trkpt lat="45.64840153138758" lon="8.909674426182137"><ele>249.0</ele><time>2026-04-30T15:20:19Z</time></trkpt><trkpt lat="45.64834010110266" lon="8.909762755071837"><ele>248.5</ele><time>2026-04-30T15:20:20Z</time></trkpt><trkpt lat="45.648244852113834" lon="8.909833804765775"><ele>248.0</ele><time>2026-04-30T15:20:21Z</time></trkpt><trkpt lat="45.648124806884496" lon="8.909893184008927"><ele>248.0</ele><time>2026-04-30T15:20:22Z</time></trkpt><trkpt lat="45.647985028759926" lon="8.90996524986705"><ele>248.0</ele><time>2026-04-30T15:20:23Z</time></trkpt><trkpt lat="45.64785051363202" lon="8.910036582397575"><ele>248.0</ele><time>2026-04-30T15:20:24Z</time></trkpt><trkpt lat="45.647717794855424" lon="8.910110230204472"><ele>248.0</ele><time>2026-04-30T15:20:25Z</time></trkpt><trkpt lat="45.64757754454274" lon="8.910187773937935"><ele>247.33333333333334</ele><time>2026-04-30T15:20:26Z</time></trkpt><trkpt lat="45.64741416838306" lon="8.910253359183377"><ele>246.66666666666669</ele><time>2026-04-30T15:20:27Z</time></trkpt><trkpt lat="45.64723027394727" lon="8.910352386934168"><ele>246.0</ele><time>2026-04-30T15:20:28Z</time></trkpt><trkpt lat="45.64705720074367" lon="8.910445162976895"><ele>246.25</ele><time>2026-04-30T15:20:29Z</time></trkpt><trkpt lat="45.64692495441287" lon="8.910516114061677"><ele>246.5</ele><time>2026-04-30T15:20:30Z</time></trkpt><trkpt lat="45.64681090769375" lon="8.910599886697728"><ele>246.75</ele><time>2026-04-30T15:20:31Z</time></trkpt><trkpt lat="45.64669444254566" lon="8.910664152274776"><ele>247.0</ele><time>2026-04-30T15:20:32Z</time></trkpt><trkpt lat="45.646584679857874" lon="8.910723273163173"><ele>246.99999999999997</ele><time>2026-04-30T15:20:33Z</time></trkpt><trkpt lat="45.646480953825964" lon="8.910777719559094"><ele>247.0</ele><time>2026-04-30T15:20:34Z</time></trkpt><trkpt lat="45.646392928910856" lon="8.910826600596415"><ele>247.0</ele><time>2026-04-30T15:20:35Z</time></trkpt><trkpt lat="45.64632382619475" lon="8.910865084471286"><ele>247.0</ele><time>2026-04-30T15:20:36Z</time></trkpt><trkpt lat="45.646257737820434" lon="8.910898370578638"><ele>246.99999999999997</ele><time>2026-04-30T15:20:36.999Z</time></trkpt><trkpt lat="45.64619569603654" lon="8.910922128390663"><ele>247.0</ele><time>2026-04-30T15:20:37.999Z</time></trkpt><trkpt lat="45.64608615017064" lon="8.910980387828902"><ele>247.2</ele><time>2026-04-30T15:20:39.999Z</time></trkpt><trkpt lat="45.64598469471484" lon="8.911005660397063"><ele>247.39999999999998</ele><time>2026-04-30T15:20:41.999Z</time></trkpt><trkpt lat="45.64586217614096" lon="8.91099473546331"><ele>247.60000000000002</ele><time>2026-04-30T15:20:43.999Z</time></trkpt><trkpt lat="45.645787713661605" lon="8.910998222657888"><ele>247.8</ele><time>2026-04-30T15:20:44.999Z</time></trkpt><trkpt lat="45.6457129353385" lon="8.911051810612037"><ele>248.0</ele><time>2026-04-30T15:20:45.999Z</time></trkpt><trkpt lat="45.64564461434628" lon="8.911138206222647"><ele>248.0</ele><time>2026-04-30T15:20:46.999Z</time></trkpt><trkpt lat="45.64556060221089" lon="8.911204310647152"><ele>248.0</ele><time>2026-04-30T15:20:47.999Z</time></trkpt><trkpt lat="45.645458380990085" lon="8.911240848422919"><ele>248.0</ele><time>2026-04-30T15:20:48.999Z</time></trkpt><trkpt lat="45.64534607221275" lon="8.911256536798446"><ele>248.0</ele><time>2026-04-30T15:20:49.999Z</time></trkpt><trkpt lat="45.64522556733972" lon="8.91126262739197"><ele>248.0</ele><time>2026-04-30T15:20:50.999Z</time></trkpt><trkpt lat="45.64510234371094" lon="8.91126135244269"><ele>247.5</ele><time>2026-04-30T15:20:51.999Z</time></trkpt><trkpt lat="45.644988950000865" lon="8.911250179015422"><ele>247.0</ele><time>2026-04-30T15:20:52.999Z</time></trkpt><trkpt lat="45.644881887599205" lon="8.911228495325004"><ele>246.5</ele><time>2026-04-30T15:20:53.999Z</time></trkpt><trkpt lat="45.64477284406105" lon="8.911200908718591"><ele>246.0</ele><time>2026-04-30T15:20:54.999Z</time></trkpt><trkpt lat="45.64465842789084" lon="8.911165617454797"><ele>246.0</ele><time>2026-04-30T15:20:55.999Z</time></trkpt><trkpt lat="45.64454258521004" lon="8.91111581520731"><ele>246.0</ele><time>2026-04-30T15:20:56.999Z</time></trkpt><trkpt lat="45.644425203137004" lon="8.911047463320266"><ele>246.0</ele><time>2026-04-30T15:20:57.999Z</time></trkpt><trkpt lat="45.6443064907553" lon="8.910979202915623"><ele>246.0</ele><time>2026-04-30T15:20:58.999Z</time></trkpt><trkpt lat="45.644215832609824" lon="8.910924381900474"><ele>246.0</ele><time>2026-04-30T15:20:59.999Z</time></trkpt><trkpt lat="45.6441455032263" lon="8.910886465503902"><ele>246.00000000000003</ele><time>2026-04-30T15:21:00.999Z</time></trkpt><trkpt lat="45.644043252409034" lon="8.910825861311016"><ele>246.00000000000003</ele><time>2026-04-30T15:21:02.999Z</time></trkpt><trkpt lat="45.643923777456976" lon="8.910754628075544"><ele>246.0</ele><time>2026-04-30T15:21:05Z</time></trkpt><trkpt lat="45.643846955042456" lon="8.910705614312258"><ele>246.0</ele><time>2026-04-30T15:21:06Z</time></trkpt><trkpt lat="45.643774946313336" lon="8.910661722570104"><ele>246.00000000000003</ele><time>2026-04-30T15:21:07Z</time></trkpt><trkpt lat="45.6437059547094" lon="8.910618074457902"><ele>246.0</ele><time>2026-04-30T15:21:08Z</time></trkpt><trkpt lat="45.64363843595413" lon="8.910577196139826"><ele>246.00000000000003</ele><time>2026-04-30T15:21:09Z</time></trkpt><trkpt lat="45.643572556488834" lon="8.910535524770866"><ele>246.00000000000003</ele><time>2026-04-30T15:21:10Z</time></trkpt><trkpt lat="45.643508542781575" lon="8.910496729569125"><ele>246.0</ele><time>2026-04-30T15:21:11Z</time></trkpt><trkpt lat="45.64344317116077" lon="8.910456642871909"><ele>246.00000000000003</ele><time>2026-04-30T15:21:12Z</time></trkpt><trkpt lat="45.643383078796454" lon="8.910418925653378"><ele>246.00000000000003</ele><time>2026-04-30T15:21:13Z</time></trkpt><trkpt lat="45.64328647443675" lon="8.91035922683017"><ele>246.0</ele><time>2026-04-30T15:21:15Z</time></trkpt><trkpt lat="45.64321141777974" lon="8.910309407801085"><ele>246.0</ele><time>2026-04-30T15:21:17Z</time></trkpt><trkpt lat="45.64314708434038" lon="8.910269666430072"><ele>246.0</ele><time>2026-04-30T15:21:19Z</time></trkpt><trkpt lat="45.64307160405743" lon="8.910226944481748"><ele>246.0</ele><time>2026-04-30T15:21:21Z</time></trkpt><trkpt lat="45.64296692240381" lon="8.910145832035473"><ele>246.0</ele><time>2026-04-30T15:21:23Z</time></trkpt><trkpt lat="45.64288925398214" lon="8.910098163258724"><ele>246.0</ele><time>2026-04-30T15:21:24Z</time></trkpt><trkpt lat="45.642799295005126" lon="8.910068086902312"><ele>246.0</ele><time>2026-04-30T15:21:25Z</time></trkpt><trkpt lat="45.64273000629842" lon="8.910021544978562"><ele>246.0</ele><time>2026-04-30T15:21:26Z</time></trkpt><trkpt lat="45.642660539532066" lon="8.909982053629463"><ele>246.0</ele><time>2026-04-30T15:21:27Z</time></trkpt><trkpt lat="45.64259668325989" lon="8.90994261018057"><ele>246.0</ele><time>2026-04-30T15:21:28Z</time></trkpt><trkpt lat="45.64252731853579" lon="8.909876059883125"><ele>246.0</ele><time>2026-04-30T15:21:29Z</time></trkpt><trkpt lat="45.64244176064043" lon="8.909823671676971"><ele>246.0</ele><time>2026-04-30T15:21:30Z</time></trkpt><trkpt lat="45.64236700841579" lon="8.909777899959213"><ele>246.0</ele><time>2026-04-30T15:21:31Z</time></trkpt><trkpt lat="45.642294804293726" lon="8.909757756514017"><ele>246.0</ele><time>2026-04-30T15:21:32Z</time></trkpt><trkpt lat="45.642236575277565" lon="8.909722070998907"><ele>246.0</ele><time>2026-04-30T15:21:33Z</time></trkpt><trkpt lat="45.64212802913481" lon="8.90963156983048"><ele>246.0</ele><time>2026-04-30T15:21:35Z</time></trkpt><trkpt lat="45.64205501827021" lon="8.909586864337568"><ele>246.0</ele><time>2026-04-30T15:21:36Z</time></trkpt><trkpt lat="45.64196424691263" lon="8.909531283849125"><ele>246.0</ele><time>2026-04-30T15:21:37Z</time></trkpt><trkpt lat="45.64185750816865" lon="8.909489627950087"><ele>245.60000000000002</ele><time>2026-04-30T15:21:38Z</time></trkpt><trkpt lat="45.64175112010599" lon="8.909420352080806"><ele>245.20000000000002</ele><time>2026-04-30T15:21:39Z</time></trkpt><trkpt lat="45.64165710378697" lon="8.909360735349093"><ele>244.79999999999998</ele><time>2026-04-30T15:21:40Z</time></trkpt><trkpt lat="45.64157432134027" lon="8.909306248100322"><ele>244.39999999999998</ele><time>2026-04-30T15:21:41Z</time></trkpt><trkpt lat="45.64149782966625" lon="8.90926055282447"><ele>244.0</ele><time>2026-04-30T15:21:42Z</time></trkpt><trkpt lat="45.64141153196239" lon="8.909209546617607"><ele>244.0</ele><time>2026-04-30T15:21:43Z</time></trkpt><trkpt lat="45.64132037934851" lon="8.90915789631748"><ele>243.99999999999997</ele><time>2026-04-30T15:21:44Z</time></trkpt><trkpt lat="45.64122575973445" lon="8.909100980078193"><ele>243.99999999999997</ele><time>2026-04-30T15:21:45Z</time></trkpt><trkpt lat="45.64112881150519" lon="8.909044305109475"><ele>244.0</ele><time>2026-04-30T15:21:46Z</time></trkpt><trkpt lat="45.641035034046176" lon="8.9089625864067"><ele>244.0</ele><time>2026-04-30T15:21:47Z</time></trkpt><trkpt lat="45.64091793899902" lon="8.908914810243894"><ele>243.25</ele><time>2026-04-30T15:21:48Z</time></trkpt><trkpt lat="45.64080226090876" lon="8.908844241959915"><ele>242.5</ele><time>2026-04-30T15:21:49Z</time></trkpt><trkpt lat="45.64069208937732" lon="8.90877744222254"><ele>241.75</ele><time>2026-04-30T15:21:50Z</time></trkpt><trkpt lat="45.64059265765692" lon="8.90869197139396"><ele>241.0</ele><time>2026-04-30T15:21:51Z</time></trkpt><trkpt lat="45.640489208060444" lon="8.908628688128506"><ele>241.0</ele><time>2026-04-30T15:21:52Z</time></trkpt><trkpt lat="45.64038911976097" lon="8.908567461080061"><ele>241.00000000000003</ele><time>2026-04-30T15:21:53Z</time></trkpt><trkpt lat="45.640282345426506" lon="8.908528628275295"><ele>241.00000000000003</ele><time>2026-04-30T15:21:54Z</time></trkpt><trkpt lat="45.64018471517443" lon="8.908466901330392"><ele>241.0</ele><time>2026-04-30T15:21:55Z</time></trkpt><trkpt lat="45.640087170417445" lon="8.908403326808735"><ele>241.0</ele><time>2026-04-30T15:21:56Z</time></trkpt><trkpt lat="45.639990676454495" lon="8.908340316762738"><ele>241.0</ele><time>2026-04-30T15:21:57Z</time></trkpt><trkpt lat="45.63989331912719" lon="8.90828441475132"><ele>241.00000000000003</ele><time>2026-04-30T15:21:58Z</time></trkpt><trkpt lat="45.63979862994995" lon="8.908231157979202"><ele>241.00000000000003</ele><time>2026-04-30T15:21:59Z</time></trkpt><trkpt lat="45.639701388181585" lon="8.908173005015056"><ele>241.0</ele><time>2026-04-30T15:22:00Z</time></trkpt><trkpt lat="45.639606083494506" lon="8.908088386747105"><ele>241.0</ele><time>2026-04-30T15:22:01Z</time></trkpt><trkpt lat="45.6395027945797" lon="8.908050627613445"><ele>241.33333333333331</ele><time>2026-04-30T15:22:02Z</time></trkpt><trkpt lat="45.63942408254252" lon="8.907992873238564"><ele>241.66666666666666</ele><time>2026-04-30T15:22:03Z</time></trkpt><trkpt lat="45.6393519841869" lon="8.907949875284872"><ele>242.0</ele><time>2026-04-30T15:22:04Z</time></trkpt><trkpt lat="45.639285766179164" lon="8.907913951601316"><ele>242.33333333333331</ele><time>2026-04-30T15:22:05Z</time></trkpt><trkpt lat="45.639228091410885" lon="8.907877250234048"><ele>242.66666666666666</ele><time>2026-04-30T15:22:06Z</time></trkpt><trkpt lat="45.639128907417" lon="8.907813284113608"><ele>243.0</ele><time>2026-04-30T15:22:08Z</time></trkpt><trkpt lat="45.6390606304917" lon="8.907749075263483"><ele>243.0</ele><time>2026-04-30T15:22:11Z</time></trkpt><trkpt lat="45.63898150813294" lon="8.907701421564713"><ele>243.0</ele><time>2026-04-30T15:22:13Z</time></trkpt><trkpt lat="45.63889729340571" lon="8.907687142299316"><ele>243.0</ele><time>2026-04-30T15:22:21Z</time></trkpt><trkpt lat="45.6388221542698" lon="8.90765659302669"><ele>243.0</ele><time>2026-04-30T15:22:23Z</time></trkpt><trkpt lat="45.63875176324648" lon="8.9076403819209"><ele>243.0</ele><time>2026-04-30T15:22:26Z</time></trkpt><trkpt lat="45.638654812418146" lon="8.907600621517124"><ele>243.0</ele><time>2026-04-30T15:22:30Z</time></trkpt><trkpt lat="45.63854933651259" lon="8.907569683080315"><ele>242.60000000000002</ele><time>2026-04-30T15:22:32Z</time></trkpt><trkpt lat="45.638488576427434" lon="8.907539723472935"><ele>242.20000000000002</ele><time>2026-04-30T15:22:32.999Z</time></trkpt><trkpt lat="45.63841785119199" lon="8.907481838832144"><ele>241.8</ele><time>2026-04-30T15:22:34.999Z</time></trkpt><trkpt lat="45.63836178989904" lon="8.907350871229735"><ele>241.4</ele><time>2026-04-30T15:22:36.999Z</time></trkpt><trkpt lat="45.638256534858165" lon="8.907257749555654"><ele>241.0</ele><time>2026-04-30T15:22:38.999Z</time></trkpt><trkpt lat="45.63817804157365" lon="8.907269349633356"><ele>240.99999999999997</ele><time>2026-04-30T15:22:39.999Z</time></trkpt><trkpt lat="45.63809878764953" lon="8.907241074444972"><ele>241.0</ele><time>2026-04-30T15:22:40.999Z</time></trkpt><trkpt lat="45.63802932457055" lon="8.907186621809826"><ele>241.0</ele><time>2026-04-30T15:22:41.999Z</time></trkpt><trkpt lat="45.637976801529796" lon="8.907119976209815"><ele>241.0</ele><time>2026-04-30T15:22:42.999Z</time></trkpt><trkpt lat="45.637928743139135" lon="8.907029825595288"><ele>240.99999999999997</ele><time>2026-04-30T15:22:43.999Z</time></trkpt><trkpt lat="45.63789985518361" lon="8.906946458237828"><ele>241.0</ele><time>2026-04-30T15:22:44.999Z</time></trkpt><trkpt lat="45.637835323014386" lon="8.906811583678088"><ele>241.4</ele><time>2026-04-30T15:22:46.999Z</time></trkpt><trkpt lat="45.63771323343026" lon="8.906774510980853"><ele>241.8</ele><time>2026-04-30T15:22:48.999Z</time></trkpt><trkpt lat="45.63759583516309" lon="8.906887342933006"><ele>242.20000000000002</ele><time>2026-04-30T15:22:50.999Z</time></trkpt><trkpt lat="45.637529241224904" lon="8.906953541794481"><ele>242.60000000000002</ele><time>2026-04-30T15:22:51.999Z</time></trkpt><trkpt lat="45.637447349070584" lon="8.906999338251342"><ele>243.0</ele><time>2026-04-30T15:22:52.999Z</time></trkpt><trkpt lat="45.63734171223645" lon="8.907031156102077"><ele>243.0</ele><time>2026-04-30T15:22:53.999Z</time></trkpt><trkpt lat="45.63721548522726" lon="8.907052974094363"><ele>243.0</ele><time>2026-04-30T15:22:54.999Z</time></trkpt><trkpt lat="45.637082371903546" lon="8.907080363517672"><ele>243.0</ele><time>2026-04-30T15:22:55.999Z</time></trkpt><trkpt lat="45.63695951642702" lon="8.90711209578564"><ele>243.0</ele><time>2026-04-30T15:22:56.999Z</time></trkpt><trkpt lat="45.636836032366034" lon="8.907150552049982"><ele>243.5</ele><time>2026-04-30T15:22:57.999Z</time></trkpt><trkpt lat="45.636711969415096" lon="8.907183580876545"><ele>244.0</ele><time>2026-04-30T15:22:58.999Z</time></trkpt><trkpt lat="45.636594218355796" lon="8.907216028536986"><ele>244.5</ele><time>2026-04-30T15:22:59.999Z</time></trkpt><trkpt lat="45.63647685822151" lon="8.907251155106556"><ele>245.0</ele><time>2026-04-30T15:23:00.999Z</time></trkpt><trkpt lat="45.63636183948611" lon="8.907289927415988"><ele>245.0</ele><time>2026-04-30T15:23:01.999Z</time></trkpt><trkpt lat="45.63624855186015" lon="8.907331494305394"><ele>245.0</ele><time>2026-04-30T15:23:02.999Z</time></trkpt><trkpt lat="45.636134058282224" lon="8.90737789528764"><ele>245.0</ele><time>2026-04-30T15:23:03.999Z</time></trkpt><trkpt lat="45.63601814059253" lon="8.90743063673993"><ele>245.0</ele><time>2026-04-30T15:23:04.999Z</time></trkpt><trkpt lat="45.635901061710506" lon="8.907489899668457"><ele>244.5</ele><time>2026-04-30T15:23:05.999Z</time></trkpt><trkpt lat="45.63578569440167" lon="8.907554506652142"><ele>244.0</ele><time>2026-04-30T15:23:06.999Z</time></trkpt><trkpt lat="45.63566983837624" lon="8.907624175130595"><ele>243.5</ele><time>2026-04-30T15:23:07.999Z</time></trkpt><trkpt lat="45.63554476351939" lon="8.907699475138866"><ele>243.0</ele><time>2026-04-30T15:23:08.999Z</time></trkpt><trkpt lat="45.63541222272956" lon="8.907776715211519"><ele>242.25</ele><time>2026-04-30T15:23:09.999Z</time></trkpt><trkpt lat="45.63528405112167" lon="8.907851065151357"><ele>241.5</ele><time>2026-04-30T15:23:11Z</time></trkpt><trkpt lat="45.635156784442835" lon="8.907928960503826"><ele>240.75</ele><time>2026-04-30T15:23:12Z</time></trkpt><trkpt lat="45.63503129595645" lon="8.908005336789918"><ele>240.0</ele><time>2026-04-30T15:23:13Z</time></trkpt><trkpt lat="45.63490695848788" lon="8.908081065143634"><ele>240.0</ele><time>2026-04-30T15:23:14Z</time></trkpt><trkpt lat="45.63478206773558" lon="8.908155384395322"><ele>240.0</ele><time>2026-04-30T15:23:15Z</time></trkpt><trkpt lat="45.634665912205705" lon="8.908225422307096"><ele>240.0</ele><time>2026-04-30T15:23:16Z</time></trkpt><trkpt lat="45.6345476840023" lon="8.90827259240262"><ele>240.0</ele><time>2026-04-30T15:23:17Z</time></trkpt><trkpt lat="45.6344310680168" lon="8.908341914802596"><ele>239.75</ele><time>2026-04-30T15:23:18Z</time></trkpt><trkpt lat="45.63431526201376" lon="8.908436076775368"><ele>239.5</ele><time>2026-04-30T15:23:19Z</time></trkpt><trkpt lat="45.634186380509576" lon="8.908511891279282"><ele>239.25</ele><time>2026-04-30T15:23:20Z</time></trkpt><trkpt lat="45.63405039582926" lon="8.908567655205639"><ele>239.0</ele><time>2026-04-30T15:23:21Z</time></trkpt><trkpt lat="45.633930533493526" lon="8.908638714322858"><ele>239.0</ele><time>2026-04-30T15:23:22Z</time></trkpt><trkpt lat="45.63381723196125" lon="8.908705883927297"><ele>238.99999999999997</ele><time>2026-04-30T15:23:23Z</time></trkpt><trkpt lat="45.63371401754817" lon="8.908768649509021"><ele>238.99999999999997</ele><time>2026-04-30T15:23:24Z</time></trkpt><trkpt lat="45.63361859845051" lon="8.908828449076843"><ele>239.0</ele><time>2026-04-30T15:23:25Z</time></trkpt><trkpt lat="45.633523119960806" lon="8.908888285965295"><ele>239.0</ele><time>2026-04-30T15:23:26Z</time></trkpt><trkpt lat="45.63341641004807" lon="8.908953896351301"><ele>238.75</ele><time>2026-04-30T15:23:27Z</time></trkpt><trkpt lat="45.633300716087625" lon="8.90902496930766"><ele>238.5</ele><time>2026-04-30T15:23:28Z</time></trkpt><trkpt lat="45.63320093893686" lon="8.9091112155938"><ele>238.25</ele><time>2026-04-30T15:23:29Z</time></trkpt><trkpt lat="45.63308881232009" lon="8.909177376548225"><ele>238.0</ele><time>2026-04-30T15:23:30Z</time></trkpt><trkpt lat="45.63298365394575" lon="8.90923526487804"><ele>237.99999999999997</ele><time>2026-04-30T15:23:31Z</time></trkpt><trkpt lat="45.632888071299604" lon="8.909290159822453"><ele>238.0</ele><time>2026-04-30T15:23:32Z</time></trkpt><trkpt lat="45.6327957366369" lon="8.909335751913547"><ele>238.0</ele><time>2026-04-30T15:23:33Z</time></trkpt><trkpt lat="45.6327161851088" lon="8.909371619490592"><ele>238.0</ele><time>2026-04-30T15:23:34Z</time></trkpt><trkpt lat="45.632648905577696" lon="8.909390758596773"><ele>237.99999999999997</ele><time>2026-04-30T15:23:35Z</time></trkpt><trkpt lat="45.632575006216165" lon="8.909384080757098"><ele>238.0</ele><time>2026-04-30T15:23:36Z</time></trkpt><trkpt lat="45.6325016363489" lon="8.90935523851131"><ele>238.4</ele><time>2026-04-30T15:23:37Z</time></trkpt><trkpt lat="45.63243031417508" lon="8.909362790989919"><ele>238.8</ele><time>2026-04-30T15:23:38Z</time></trkpt><trkpt lat="45.63237437346543" lon="8.909441263584453"><ele>239.2</ele><time>2026-04-30T15:23:39Z</time></trkpt><trkpt lat="45.63231091261105" lon="8.909538469973823"><ele>239.6</ele><time>2026-04-30T15:23:40Z</time></trkpt><trkpt lat="45.63223347178482" lon="8.909652568619972"><ele>240.0</ele><time>2026-04-30T15:23:41Z</time></trkpt><trkpt lat="45.63213113339066" lon="8.909760870438381"><ele>240.0</ele><time>2026-04-30T15:23:42Z</time></trkpt><trkpt lat="45.631983372877436" lon="8.909828847275651"><ele>240.0</ele><time>2026-04-30T15:23:43Z</time></trkpt><trkpt lat="45.631849264929755" lon="8.9099130766532"><ele>240.0</ele><time>2026-04-30T15:23:44Z</time></trkpt><trkpt lat="45.63169945882504" lon="8.910008802290532"><ele>240.0</ele><time>2026-04-30T15:23:45Z</time></trkpt><trkpt lat="45.63153345729101" lon="8.910110435272138"><ele>240.0</ele><time>2026-04-30T15:23:46Z</time></trkpt><trkpt lat="45.63135681550041" lon="8.910209453104839"><ele>240.0</ele><time>2026-04-30T15:23:47Z</time></trkpt><trkpt lat="45.63117133548814" lon="8.91031588336288"><ele>237.66666666666669</ele><time>2026-04-30T15:23:48Z</time></trkpt><trkpt lat="45.63098398505829" lon="8.910430723685879"><ele>235.33333333333334</ele><time>2026-04-30T15:23:49Z</time></trkpt><trkpt lat="45.6307940289013" lon="8.91054741130777"><ele>233.0</ele><time>2026-04-30T15:23:50Z</time></trkpt><trkpt lat="45.630603256611344" lon="8.910660801966573"><ele>233.0</ele><time>2026-04-30T15:23:51Z</time></trkpt><trkpt lat="45.63042890521343" lon="8.910766065645207"><ele>233.0</ele><time>2026-04-30T15:23:52Z</time></trkpt><trkpt lat="45.630265382480204" lon="8.910865734360867"><ele>233.0</ele><time>2026-04-30T15:23:53Z</time></trkpt><trkpt lat="45.63011194205013" lon="8.910959510676657"><ele>233.5</ele><time>2026-04-30T15:23:54Z</time></trkpt><trkpt lat="45.629970423351494" lon="8.911046132996658"><ele>234.0</ele><time>2026-04-30T15:23:55Z</time></trkpt><trkpt lat="45.62984197149917" lon="8.911120352535681"><ele>234.5</ele><time>2026-04-30T15:23:56Z</time></trkpt><trkpt lat="45.62972019945408" lon="8.911183909690383"><ele>235.0</ele><time>2026-04-30T15:23:57Z</time></trkpt><trkpt lat="45.6296304667368" lon="8.911250717584933"><ele>234.99999999999997</ele><time>2026-04-30T15:23:58Z</time></trkpt><trkpt lat="45.629572685944034" lon="8.911290905568864"><ele>235.0</ele><time>2026-04-30T15:23:59Z</time></trkpt><trkpt lat="45.6294826889703" lon="8.911344578491764"><ele>235.0</ele><time>2026-04-30T15:24:01Z</time></trkpt><trkpt lat="45.62940705853699" lon="8.911381230720988"><ele>235.0</ele><time>2026-04-30T15:24:03Z</time></trkpt><trkpt lat="45.62929069607951" lon="8.911408064353747"><ele>234.99999999999997</ele><time>2026-04-30T15:24:05Z</time></trkpt><trkpt lat="45.62922467093092" lon="8.911401197797318"><ele>235.0</ele><time>2026-04-30T15:24:07Z</time></trkpt><trkpt lat="45.629150512770806" lon="8.91137213331559"><ele>234.4</ele><time>2026-04-30T15:24:09Z</time></trkpt><trkpt lat="45.62908951655877" lon="8.911345922345555"><ele>233.8</ele><time>2026-04-30T15:24:10Z</time></trkpt><trkpt lat="45.62895671130988" lon="8.91134619244136"><ele>233.2</ele><time>2026-04-30T15:24:12Z</time></trkpt><trkpt lat="45.62889030203691" lon="8.911446307670788"><ele>232.6</ele><time>2026-04-30T15:24:13Z</time></trkpt><trkpt lat="45.62882718815156" lon="8.911588640044632"><ele>232.0</ele><time>2026-04-30T15:24:14Z</time></trkpt><trkpt lat="45.628739680755615" lon="8.91172450328534"><ele>232.5</ele><time>2026-04-30T15:24:15Z</time></trkpt><trkpt lat="45.628625750912995" lon="8.911844062296328"><ele>233.0</ele><time>2026-04-30T15:24:16Z</time></trkpt><trkpt lat="45.62850128932316" lon="8.911941432558642"><ele>233.5</ele><time>2026-04-30T15:24:17Z</time></trkpt><trkpt lat="45.62836413823118" lon="8.912028227314263"><ele>234.0</ele><time>2026-04-30T15:24:18Z</time></trkpt><trkpt lat="45.62823182572466" lon="8.912114939933616"><ele>234.0</ele><time>2026-04-30T15:24:19Z</time></trkpt><trkpt lat="45.62806326749809" lon="8.912193344950637"><ele>234.0</ele><time>2026-04-30T15:24:20Z</time></trkpt><trkpt lat="45.627884518248024" lon="8.912309432777414"><ele>234.0</ele><time>2026-04-30T15:24:21Z</time></trkpt><trkpt lat="45.62770267049106" lon="8.912429074235952"><ele>233.0</ele><time>2026-04-30T15:24:22Z</time></trkpt><trkpt lat="45.6275401140736" lon="8.91254188488874"><ele>232.0</ele><time>2026-04-30T15:24:23Z</time></trkpt><trkpt lat="45.62739860305546" lon="8.912643574118563"><ele>231.0</ele><time>2026-04-30T15:24:24Z</time></trkpt><trkpt lat="45.627277688705526" lon="8.912758777987065"><ele>231.0</ele><time>2026-04-30T15:24:25Z</time></trkpt><trkpt lat="45.62715720142077" lon="8.912848554682364"><ele>231.0</ele><time>2026-04-30T15:24:26Z</time></trkpt><trkpt lat="45.62704660131555" lon="8.912930302269448"><ele>231.0</ele><time>2026-04-30T15:24:27Z</time></trkpt><trkpt lat="45.626931849554666" lon="8.913013962875034"><ele>231.0</ele><time>2026-04-30T15:24:28Z</time></trkpt><trkpt lat="45.62681274980712" lon="8.913101938275016"><ele>230.8</ele><time>2026-04-30T15:24:29Z</time></trkpt><trkpt lat="45.6266973752518" lon="8.913186292913027"><ele>230.60000000000002</ele><time>2026-04-30T15:24:30Z</time></trkpt><trkpt lat="45.626594202030326" lon="8.91325638211513"><ele>230.4</ele><time>2026-04-30T15:24:30.999Z</time></trkpt><trkpt lat="45.62651209426486" lon="8.913316191732958"><ele>230.2</ele><time>2026-04-30T15:24:31.999Z</time></trkpt><trkpt lat="45.626442457555164" lon="8.913368359665045"><ele>230.0</ele><time>2026-04-30T15:24:33.999Z</time></trkpt><trkpt lat="45.62636270829993" lon="8.913420468724045"><ele>230.0</ele><time>2026-04-30T15:24:36.999Z</time></trkpt><trkpt lat="45.62620527453303" lon="8.913514265882423"><ele>230.0</ele><time>2026-04-30T15:24:38.999Z</time></trkpt><trkpt lat="45.626088698060165" lon="8.91362240639789"><ele>230.0</ele><time>2026-04-30T15:24:39.999Z</time></trkpt><trkpt lat="45.62597828281249" lon="8.913690336248848"><ele>230.0</ele><time>2026-04-30T15:24:40.999Z</time></trkpt><trkpt lat="45.62590776186767" lon="8.913743166661362"><ele>229.50000000000003</ele><time>2026-04-30T15:24:42.999Z</time></trkpt><trkpt lat="45.625828613897525" lon="8.913792995248647"><ele>229.0</ele><time>2026-04-30T15:24:45.999Z</time></trkpt><trkpt lat="45.625736052420045" lon="8.913860300090464"><ele>228.5</ele><time>2026-04-30T15:24:47.999Z</time></trkpt><trkpt lat="45.625674502865145" lon="8.913902866280827"><ele>228.0</ele><time>2026-04-30T15:24:48.999Z</time></trkpt><trkpt lat="45.625600423172074" lon="8.913948873389279"><ele>227.50000000000003</ele><time>2026-04-30T15:24:49.999Z</time></trkpt><trkpt lat="45.62552785191287" lon="8.913988527004877"><ele>227.0</ele><time>2026-04-30T15:24:50.999Z</time></trkpt><trkpt lat="45.6254470226284" lon="8.914024365017891"><ele>227.00000000000003</ele><time>2026-04-30T15:24:51.999Z</time></trkpt><trkpt lat="45.625362509336384" lon="8.914053242503902"><ele>227.0</ele><time>2026-04-30T15:24:52.999Z</time></trkpt><trkpt lat="45.62528704884951" lon="8.914073562711453"><ele>227.0</ele><time>2026-04-30T15:24:53.999Z</time></trkpt><trkpt lat="45.62521490451181" lon="8.914092396984303"><ele>227.0</ele><time>2026-04-30T15:24:54.999Z</time></trkpt><trkpt lat="45.62513801097578" lon="8.914113525144119"><ele>227.00000000000003</ele><time>2026-04-30T15:24:55.999Z</time></trkpt><trkpt lat="45.625059098530514" lon="8.914136485700862"><ele>227.0</ele><time>2026-04-30T15:24:56.999Z</time></trkpt><trkpt lat="45.624973671809855" lon="8.914162909239222"><ele>226.8</ele><time>2026-04-30T15:24:57.999Z</time></trkpt><trkpt lat="45.62488249432788" lon="8.914190232066446"><ele>226.6</ele><time>2026-04-30T15:24:58.999Z</time></trkpt><trkpt lat="45.62477502898403" lon="8.914218115303889"><ele>226.40000000000003</ele><time>2026-04-30T15:24:59.999Z</time></trkpt><trkpt lat="45.624657099903544" lon="8.91424812335247"><ele>226.20000000000002</ele><time>2026-04-30T15:25:00.999Z</time></trkpt><trkpt lat="45.62453271531654" lon="8.914275885917297"><ele>226.0</ele><time>2026-04-30T15:25:01.999Z</time></trkpt><trkpt lat="45.62440976957781" lon="8.914289715689504"><ele>226.25</ele><time>2026-04-30T15:25:02.999Z</time></trkpt><trkpt lat="45.62429163295378" lon="8.914287053357283"><ele>226.5</ele><time>2026-04-30T15:25:03.999Z</time></trkpt><trkpt lat="45.62417466575605" lon="8.914265619571658"><ele>226.75</ele><time>2026-04-30T15:25:04.999Z</time></trkpt><trkpt lat="45.62405612576765" lon="8.914229539408007"><ele>227.0</ele><time>2026-04-30T15:25:05.999Z</time></trkpt><trkpt lat="45.62394126897833" lon="8.914177749367218"><ele>227.0</ele><time>2026-04-30T15:25:06.999Z</time></trkpt><trkpt lat="45.62383575093504" lon="8.914109995168078"><ele>227.0</ele><time>2026-04-30T15:25:07.999Z</time></trkpt><trkpt lat="45.62373291200837" lon="8.914020448997018"><ele>227.0</ele><time>2026-04-30T15:25:08.999Z</time></trkpt><trkpt lat="45.62363700731358" lon="8.91391102916148"><ele>227.0</ele><time>2026-04-30T15:25:09.999Z</time></trkpt><trkpt lat="45.62355411270902" lon="8.91380312901212"><ele>226.5</ele><time>2026-04-30T15:25:10.999Z</time></trkpt><trkpt lat="45.62347153342213" lon="8.913682954918402"><ele>226.0</ele><time>2026-04-30T15:25:11.999Z</time></trkpt><trkpt lat="45.62338614310725" lon="8.913561391035293"><ele>225.5</ele><time>2026-04-30T15:25:12.999Z</time></trkpt><trkpt lat="45.62329983571832" lon="8.913439750097643"><ele>225.0</ele><time>2026-04-30T15:25:13.999Z</time></trkpt><trkpt lat="45.623212054941725" lon="8.913319404131066"><ele>225.0</ele><time>2026-04-30T15:25:14.999Z</time></trkpt><trkpt lat="45.62312482245996" lon="8.913199572003363"><ele>225.0</ele><time>2026-04-30T15:25:15.999Z</time></trkpt><trkpt lat="45.62304103330177" lon="8.91308130574653"><ele>225.0</ele><time>2026-04-30T15:25:17Z</time></trkpt><trkpt lat="45.62295474333944" lon="8.91296069280077"><ele>225.0</ele><time>2026-04-30T15:25:18Z</time></trkpt><trkpt lat="45.622868049817995" lon="8.91284283985418"><ele>224.5</ele><time>2026-04-30T15:25:19Z</time></trkpt><trkpt lat="45.62277858005722" lon="8.912719384149959"><ele>224.0</ele><time>2026-04-30T15:25:20Z</time></trkpt><trkpt lat="45.62268521886388" lon="8.912586083291329"><ele>223.5</ele><time>2026-04-30T15:25:21Z</time></trkpt><trkpt lat="45.62259240049569" lon="8.912458508332218"><ele>223.0</ele><time>2026-04-30T15:25:22Z</time></trkpt><trkpt lat="45.62250240065783" lon="8.912333011428268"><ele>223.0</ele><time>2026-04-30T15:25:23Z</time></trkpt><trkpt lat="45.62241444997256" lon="8.912205577339448"><ele>223.0</ele><time>2026-04-30T15:25:24Z</time></trkpt><trkpt lat="45.62232849807607" lon="8.912088429562333"><ele>223.0</ele><time>2026-04-30T15:25:25Z</time></trkpt><trkpt lat="45.62224514995451" lon="8.911972673130158"><ele>223.0</ele><time>2026-04-30T15:25:26Z</time></trkpt><trkpt lat="45.62216795625126" lon="8.911865958926741"><ele>223.0</ele><time>2026-04-30T15:25:27Z</time></trkpt><trkpt lat="45.6220951128924" lon="8.911766259845027"><ele>223.0</ele><time>2026-04-30T15:25:28Z</time></trkpt><trkpt lat="45.62202634727869" lon="8.911670957224686"><ele>223.0</ele><time>2026-04-30T15:25:29Z</time></trkpt><trkpt lat="45.621958346825544" lon="8.911584914847586"><ele>223.0</ele><time>2026-04-30T15:25:30Z</time></trkpt><trkpt lat="45.62190011855242" lon="8.911492828828187"><ele>223.0</ele><time>2026-04-30T15:25:31Z</time></trkpt><trkpt lat="45.62184167102241" lon="8.911410790373756"><ele>223.14285714285714</ele><time>2026-04-30T15:25:32Z</time></trkpt><trkpt lat="45.62179112736232" lon="8.911333989258715"><ele>223.28571428571428</ele><time>2026-04-30T15:25:33Z</time></trkpt><trkpt lat="45.621736594086" lon="8.911260945058824"><ele>223.42857142857144</ele><time>2026-04-30T15:25:34Z</time></trkpt><trkpt lat="45.6216834081079" lon="8.911193790196629"><ele>223.57142857142856</ele><time>2026-04-30T15:25:35Z</time></trkpt><trkpt lat="45.62163368029554" lon="8.911124593257732"><ele>223.71428571428572</ele><time>2026-04-30T15:25:36Z</time></trkpt><trkpt lat="45.62158789684117" lon="8.911053850325402"><ele>223.85714285714286</ele><time>2026-04-30T15:25:37Z</time></trkpt><trkpt lat="45.6215444726663" lon="8.91098250545147"><ele>224.0</ele><time>2026-04-30T15:25:38Z</time></trkpt><trkpt lat="45.62150506586682" lon="8.910909504661817"><ele>224.2</ele><time>2026-04-30T15:25:39Z</time></trkpt><trkpt lat="45.62145760007346" lon="8.910778447495721"><ele>224.39999999999998</ele><time>2026-04-30T15:25:41Z</time></trkpt><trkpt lat="45.62142475325324" lon="8.910663957095737"><ele>224.6</ele><time>2026-04-30T15:25:43Z</time></trkpt><trkpt lat="45.62135089251895" lon="8.910492149697983"><ele>224.8</ele><time>2026-04-30T15:25:45Z</time></trkpt><trkpt lat="45.621286513087675" lon="8.910413867285328"><ele>225.0</ele><time>2026-04-30T15:25:46Z</time></trkpt><trkpt lat="45.62121535646295" lon="8.910362841440286"><ele>224.83333333333334</ele><time>2026-04-30T15:25:47Z</time></trkpt><trkpt lat="45.62114671274425" lon="8.910328914563758"><ele>224.66666666666669</ele><time>2026-04-30T15:25:48Z</time></trkpt><trkpt lat="45.62107524893758" lon="8.910287522219559"><ele>224.5</ele><time>2026-04-30T15:25:49Z</time></trkpt><trkpt lat="45.621011493258415" lon="8.910237507306507"><ele>224.33333333333334</ele><time>2026-04-30T15:25:50Z</time></trkpt><trkpt lat="45.62095344298322" lon="8.910173994622564"><ele>224.16666666666669</ele><time>2026-04-30T15:25:51Z</time></trkpt><trkpt lat="45.62089063119217" lon="8.91009571600647"><ele>224.0</ele><time>2026-04-30T15:25:52Z</time></trkpt><trkpt lat="45.620836271726404" lon="8.90999117959834"><ele>223.6</ele><time>2026-04-30T15:25:53Z</time></trkpt><trkpt lat="45.62075244730266" lon="8.909906132012768"><ele>223.2</ele><time>2026-04-30T15:25:54Z</time></trkpt><trkpt lat="45.62067928293807" lon="8.909804639583307"><ele>222.79999999999998</ele><time>2026-04-30T15:25:55Z</time></trkpt><trkpt lat="45.620600907558426" lon="8.90969779985377"><ele>222.39999999999998</ele><time>2026-04-30T15:25:56Z</time></trkpt><trkpt lat="45.620518064053165" lon="8.909593419689301"><ele>222.0</ele><time>2026-04-30T15:25:57Z</time></trkpt><trkpt lat="45.6204278156901" lon="8.90948670276669"><ele>222.0</ele><time>2026-04-30T15:25:58Z</time></trkpt><trkpt lat="45.62033591504564" lon="8.909384643656782"><ele>222.0</ele><time>2026-04-30T15:25:59Z</time></trkpt><trkpt lat="45.62024891448971" lon="8.90929153937331"><ele>222.0</ele><time>2026-04-30T15:26:00Z</time></trkpt><trkpt lat="45.620167539766776" lon="8.90920144141598"><ele>222.0</ele><time>2026-04-30T15:26:01Z</time></trkpt><trkpt lat="45.62008895912131" lon="8.90911871681659"><ele>222.0</ele><time>2026-04-30T15:26:02Z</time></trkpt><trkpt lat="45.62001415427349" lon="8.909048203495653"><ele>222.0</ele><time>2026-04-30T15:26:03Z</time></trkpt><trkpt lat="45.61994018343155" lon="8.90896888816587"><ele>222.0</ele><time>2026-04-30T15:26:04Z</time></trkpt><trkpt lat="45.61986258365388" lon="8.908885005584056"><ele>222.0</ele><time>2026-04-30T15:26:05Z</time></trkpt><trkpt lat="45.61978352672411" lon="8.908802407638907"><ele>222.0</ele><time>2026-04-30T15:26:06Z</time></trkpt><trkpt lat="45.619712746579324" lon="8.908732277505337"><ele>222.0</ele><time>2026-04-30T15:26:07Z</time></trkpt><trkpt lat="45.61964703468469" lon="8.908662889504539"><ele>222.0</ele><time>2026-04-30T15:26:08Z</time></trkpt><trkpt lat="45.61959290635431" lon="8.908603098906779"><ele>222.0</ele><time>2026-04-30T15:26:09Z</time></trkpt><trkpt lat="45.619524299968404" lon="8.908533265016692"><ele>222.0</ele><time>2026-04-30T15:26:10Z</time></trkpt><trkpt lat="45.61944779757527" lon="8.908456567009985"><ele>222.0</ele><time>2026-04-30T15:26:11Z</time></trkpt><trkpt lat="45.61936275232385" lon="8.908378352881973"><ele>222.0</ele><time>2026-04-30T15:26:12Z</time></trkpt><trkpt lat="45.619272665255814" lon="8.908280881762717"><ele>221.8</ele><time>2026-04-30T15:26:13Z</time></trkpt><trkpt lat="45.61917839912484" lon="8.908195159644412"><ele>221.6</ele><time>2026-04-30T15:26:14Z</time></trkpt><trkpt lat="45.619082128745724" lon="8.90812215347198"><ele>221.40000000000003</ele><time>2026-04-30T15:26:15Z</time></trkpt><trkpt lat="45.61898472285586" lon="8.90804974726306"><ele>221.20000000000002</ele><time>2026-04-30T15:26:16Z</time></trkpt><trkpt lat="45.61888835738949" lon="8.907973683848743"><ele>221.0</ele><time>2026-04-30T15:26:17Z</time></trkpt><trkpt lat="45.61880331050237" lon="8.907893673475607"><ele>221.0</ele><time>2026-04-30T15:26:18Z</time></trkpt><trkpt lat="45.61872991273024" lon="8.907820241982241"><ele>221.00000000000003</ele><time>2026-04-30T15:26:19Z</time></trkpt><trkpt lat="45.6186401888963" lon="8.907730075477431"><ele>221.00000000000003</ele><time>2026-04-30T15:26:20Z</time></trkpt><trkpt lat="45.618564001239086" lon="8.907635628323199"><ele>221.0</ele><time>2026-04-30T15:26:21Z</time></trkpt><trkpt lat="45.618481007258765" lon="8.907547043684009"><ele>221.0</ele><time>2026-04-30T15:26:22Z</time></trkpt><trkpt lat="45.61840857468087" lon="8.907467931578951"><ele>220.60000000000002</ele><time>2026-04-30T15:26:23Z</time></trkpt><trkpt lat="45.61834920558613" lon="8.907403017549303"><ele>220.20000000000002</ele><time>2026-04-30T15:26:24Z</time></trkpt><trkpt lat="45.6182877748084" lon="8.90733129798324"><ele>219.79999999999998</ele><time>2026-04-30T15:26:26Z</time></trkpt><trkpt lat="45.61823705096147" lon="8.907267056470571"><ele>219.39999999999998</ele><time>2026-04-30T15:26:28Z</time></trkpt><trkpt lat="45.618122925012095" lon="8.907371012942354"><ele>219.0</ele><time>2026-04-30T15:26:30Z</time></trkpt><trkpt lat="45.618049136361115" lon="8.907455637138154"><ele>219.0</ele><time>2026-04-30T15:26:31Z</time></trkpt><trkpt lat="45.61796091348875" lon="8.90756000822108"><ele>219.0</ele><time>2026-04-30T15:26:32Z</time></trkpt><trkpt lat="45.61787618091922" lon="8.907661169982346"><ele>219.0</ele><time>2026-04-30T15:26:33Z</time></trkpt><trkpt lat="45.61779162649298" lon="8.907763150671524"><ele>219.0</ele><time>2026-04-30T15:26:34Z</time></trkpt><trkpt lat="45.617704439009934" lon="8.907868409038448"><ele>219.39999999999998</ele><time>2026-04-30T15:26:35Z</time></trkpt><trkpt lat="45.617618688904315" lon="8.907971932002269"><ele>219.79999999999998</ele><time>2026-04-30T15:26:36Z</time></trkpt><trkpt lat="45.61753355466526" lon="8.908073598957142"><ele>220.20000000000002</ele><time>2026-04-30T15:26:37Z</time></trkpt><trkpt lat="45.617452499173545" lon="8.908170337202462"><ele>220.60000000000002</ele><time>2026-04-30T15:26:38Z</time></trkpt><trkpt lat="45.61737342591028" lon="8.90826560606671"><ele>221.0</ele><time>2026-04-30T15:26:39Z</time></trkpt><trkpt lat="45.61729815191791" lon="8.908357573907928"><ele>220.83333333333334</ele><time>2026-04-30T15:26:40Z</time></trkpt><trkpt lat="45.617224739470274" lon="8.9084472682289"><ele>220.66666666666669</ele><time>2026-04-30T15:26:41Z</time></trkpt><trkpt lat="45.61715365731659" lon="8.908532140134561"><ele>220.5</ele><time>2026-04-30T15:26:42Z</time></trkpt><trkpt lat="45.617091288082605" lon="8.908606719150596"><ele>220.33333333333331</ele><time>2026-04-30T15:26:43Z</time></trkpt><trkpt lat="45.617024740112136" lon="8.908686842319817"><ele>220.16666666666666</ele><time>2026-04-30T15:26:44Z</time></trkpt><trkpt lat="45.61697487482332" lon="8.908777296313755"><ele>220.0</ele><time>2026-04-30T15:26:46Z</time></trkpt><trkpt lat="45.616912556226175" lon="8.908836524864958"><ele>219.83333333333331</ele><time>2026-04-30T15:26:51Z</time></trkpt><trkpt lat="45.6168477617775" lon="8.90889985462976"><ele>219.66666666666666</ele><time>2026-04-30T15:26:55.999Z</time></trkpt><trkpt lat="45.616781885969864" lon="8.90897827161363"><ele>219.5</ele><time>2026-04-30T15:26:56.999Z</time></trkpt><trkpt lat="45.61671511096763" lon="8.909057744167214"><ele>219.33333333333331</ele><time>2026-04-30T15:26:57.999Z</time></trkpt><trkpt lat="45.61665513602276" lon="8.909129872807732"><ele>219.16666666666666</ele><time>2026-04-30T15:26:58.999Z</time></trkpt><trkpt lat="45.616583269308286" lon="8.909216862501566"><ele>219.0</ele><time>2026-04-30T15:26:59.999Z</time></trkpt><trkpt lat="45.616510763114015" lon="8.909304626167238"><ele>218.79999999999998</ele><time>2026-04-30T15:27:00.999Z</time></trkpt><trkpt lat="45.61643468488152" lon="8.909396715902032"><ele>218.59999999999997</ele><time>2026-04-30T15:27:01.999Z</time></trkpt><trkpt lat="45.61635462836423" lon="8.909491590440702"><ele>218.4</ele><time>2026-04-30T15:27:02.999Z</time></trkpt><trkpt lat="45.61627831706886" lon="8.909582091532792"><ele>218.2</ele><time>2026-04-30T15:27:03.999Z</time></trkpt><trkpt lat="45.61621020190851" lon="8.909662873203516"><ele>218.0</ele><time>2026-04-30T15:27:04.999Z</time></trkpt><trkpt lat="45.616132355581996" lon="8.909781881904097"><ele>218.0</ele><time>2026-04-30T15:27:06.999Z</time></trkpt><trkpt lat="45.61605837536938" lon="8.90982840644091"><ele>218.0</ele><time>2026-04-30T15:27:08.999Z</time></trkpt><trkpt lat="45.61594295492666" lon="8.909817327869892"><ele>218.0</ele><time>2026-04-30T15:27:10.999Z</time></trkpt><trkpt lat="45.615859631014075" lon="8.909741061624363"><ele>218.0</ele><time>2026-04-30T15:27:11.999Z</time></trkpt><trkpt lat="45.61574447648112" lon="8.909671734871605"><ele>218.0</ele><time>2026-04-30T15:27:12.999Z</time></trkpt><trkpt lat="45.61561727277057" lon="8.90960533279954"><ele>218.0</ele><time>2026-04-30T15:27:13.999Z</time></trkpt><trkpt lat="45.61550650596178" lon="8.909546049036502"><ele>218.0</ele><time>2026-04-30T15:27:14.999Z</time></trkpt><trkpt lat="45.61540796271414" lon="8.909509194535847"><ele>218.0</ele><time>2026-04-30T15:27:15.999Z</time></trkpt><trkpt lat="45.615322973164105" lon="8.909456587972599"><ele>218.0</ele><time>2026-04-30T15:27:16.999Z</time></trkpt><trkpt lat="45.615249349356844" lon="8.909426737964962"><ele>218.0</ele><time>2026-04-30T15:27:17.999Z</time></trkpt><trkpt lat="45.61515632471266" lon="8.909355912360054"><ele>218.0</ele><time>2026-04-30T15:27:19.999Z</time></trkpt><trkpt lat="45.61508005803706" lon="8.909528216322224"><ele>218.0</ele><time>2026-04-30T15:27:20.999Z</time></trkpt><trkpt lat="45.61502120977911" lon="8.909665764257962"><ele>218.0</ele><time>2026-04-30T15:27:21.999Z</time></trkpt><trkpt lat="45.61494765554493" lon="8.909819722895776"><ele>218.0</ele><time>2026-04-30T15:27:23Z</time></trkpt><trkpt lat="45.61488154691443" lon="8.909996860336202"><ele>218.0</ele><time>2026-04-30T15:27:24Z</time></trkpt><trkpt lat="45.61479301706003" lon="8.910166639315534"><ele>218.0</ele><time>2026-04-30T15:27:25Z</time></trkpt><trkpt lat="45.61471955251119" lon="8.910337363489736"><ele>218.0</ele><time>2026-04-30T15:27:26Z</time></trkpt><trkpt lat="45.61465584089586" lon="8.910477582577348"><ele>218.0</ele><time>2026-04-30T15:27:27Z</time></trkpt><trkpt lat="45.61459875585311" lon="8.910595273228687"><ele>218.0</ele><time>2026-04-30T15:27:28Z</time></trkpt><trkpt lat="45.61455183768747" lon="8.910698935388531"><ele>218.0</ele><time>2026-04-30T15:27:29Z</time></trkpt><trkpt lat="45.61447971255188" lon="8.91081058996718"><ele>218.0</ele><time>2026-04-30T15:27:31Z</time></trkpt><trkpt lat="45.61436970169378" lon="8.91075290416092"><ele>218.0</ele><time>2026-04-30T15:27:33Z</time></trkpt><trkpt lat="45.61431992647689" lon="8.910654763566551"><ele>218.0</ele><time>2026-04-30T15:27:34Z</time></trkpt><trkpt lat="45.61424713744531" lon="8.910543539820132"><ele>218.0</ele><time>2026-04-30T15:27:35Z</time></trkpt><trkpt lat="45.614172539195515" lon="8.910394556996367"><ele>218.0</ele><time>2026-04-30T15:27:36Z</time></trkpt><trkpt lat="45.61408719802914" lon="8.910240532520797"><ele>218.0</ele><time>2026-04-30T15:27:37Z</time></trkpt><trkpt lat="45.614008501228845" lon="8.910078322342814"><ele>218.0</ele><time>2026-04-30T15:27:38Z</time></trkpt><trkpt lat="45.61394342883251" lon="8.909950743691383"><ele>218.0</ele><time>2026-04-30T15:27:39Z</time></trkpt><trkpt lat="45.61388395030277" lon="8.909839182905323"><ele>218.0</ele><time>2026-04-30T15:27:40Z</time></trkpt><trkpt lat="45.61383820034253" lon="8.909752872548848"><ele>218.0</ele><time>2026-04-30T15:27:41Z</time></trkpt><trkpt lat="45.61378546016898" lon="8.909672123090083"><ele>218.0</ele><time>2026-04-30T15:27:43Z</time></trkpt><trkpt lat="45.61368093012921" lon="8.90975588722931"><ele>218.0</ele><time>2026-04-30T15:27:46Z</time></trkpt><trkpt lat="45.6136071134603" lon="8.90983398300871"><ele>217.25</ele><time>2026-04-30T15:27:47Z</time></trkpt><trkpt lat="45.61351538120703" lon="8.909976661183533"><ele>216.5</ele><time>2026-04-30T15:27:48Z</time></trkpt><trkpt lat="45.61342345860377" lon="8.910124682382573"><ele>215.75</ele><time>2026-04-30T15:27:49Z</time></trkpt><trkpt lat="45.61331236676398" lon="8.910303571360645"><ele>215.0</ele><time>2026-04-30T15:27:50Z</time></trkpt><trkpt lat="45.6132022202357" lon="8.910480938329362"><ele>214.4</ele><time>2026-04-30T15:27:51Z</time></trkpt><trkpt lat="45.61311299976996" lon="8.910624608332808"><ele>213.8</ele><time>2026-04-30T15:27:52Z</time></trkpt><trkpt lat="45.61304904811806" lon="8.910761286928011"><ele>213.2</ele><time>2026-04-30T15:27:53Z</time></trkpt><trkpt lat="45.612981405111995" lon="8.910867640869549"><ele>212.6</ele><time>2026-04-30T15:27:54Z</time></trkpt><trkpt lat="45.612916088123306" lon="8.910957732331665"><ele>212.0</ele><time>2026-04-30T15:27:55Z</time></trkpt><trkpt lat="45.61286798970668" lon="8.91103596099362"><ele>212.2</ele><time>2026-04-30T15:27:56Z</time></trkpt><trkpt lat="45.612814052935505" lon="8.91112655816841"><ele>212.39999999999998</ele><time>2026-04-30T15:27:58Z</time></trkpt><trkpt lat="45.61276952601212" lon="8.911194118986392"><ele>212.60000000000002</ele><time>2026-04-30T15:28:04Z</time></trkpt><trkpt lat="45.61272439991596" lon="8.911277164686409"><ele>212.8</ele><time>2026-04-30T15:28:05Z</time></trkpt><trkpt lat="45.61263181234" lon="8.911407296775378"><ele>213.0</ele><time>2026-04-30T15:28:06Z</time></trkpt><trkpt lat="45.61253607747123" lon="8.911562169004489"><ele>213.0</ele><time>2026-04-30T15:28:07Z</time></trkpt><trkpt lat="45.61245610888087" lon="8.911718516580029"><ele>213.0</ele><time>2026-04-30T15:28:08Z</time></trkpt><trkpt lat="45.61236551895578" lon="8.91186270795032"><ele>213.0</ele><time>2026-04-30T15:28:09Z</time></trkpt><trkpt lat="45.612276008786" lon="8.912008745702654"><ele>213.0</ele><time>2026-04-30T15:28:10Z</time></trkpt><trkpt lat="45.612174153179815" lon="8.912134135644953"><ele>213.0</ele><time>2026-04-30T15:28:11Z</time></trkpt><trkpt lat="45.612085498053055" lon="8.912271161007794"><ele>213.0</ele><time>2026-04-30T15:28:12Z</time></trkpt><trkpt lat="45.611994061628195" lon="8.912412136215384"><ele>213.0</ele><time>2026-04-30T15:28:13Z</time></trkpt><trkpt lat="45.61190436320503" lon="8.91255129222968"><ele>213.0</ele><time>2026-04-30T15:28:14Z</time></trkpt><trkpt lat="45.61182555434328" lon="8.912673901373177"><ele>213.2</ele><time>2026-04-30T15:28:15Z</time></trkpt><trkpt lat="45.61175078901879" lon="8.91279367834258"><ele>213.4</ele><time>2026-04-30T15:28:16Z</time></trkpt><trkpt lat="45.61167867231591" lon="8.912909212312725"><ele>213.59999999999997</ele><time>2026-04-30T15:28:17Z</time></trkpt><trkpt lat="45.61161155960456" lon="8.913016729699631"><ele>213.79999999999998</ele><time>2026-04-30T15:28:18Z</time></trkpt><trkpt lat="45.61154976094606" lon="8.913115260756237"><ele>214.0</ele><time>2026-04-30T15:28:19Z</time></trkpt><trkpt lat="45.61149956492056" lon="8.91322146189708"><ele>214.0</ele><time>2026-04-30T15:28:20Z</time></trkpt><trkpt lat="45.611449481254866" lon="8.913293139638046"><ele>213.99999999999997</ele><time>2026-04-30T15:28:21Z</time></trkpt><trkpt lat="45.61140376820204" lon="8.913371475184542"><ele>213.99999999999997</ele><time>2026-04-30T15:28:22Z</time></trkpt><trkpt lat="45.611352090374616" lon="8.91345825322276"><ele>214.0</ele><time>2026-04-30T15:28:23Z</time></trkpt><trkpt lat="45.61127141364034" lon="8.913584165458749"><ele>214.0</ele><time>2026-04-30T15:28:24Z</time></trkpt><trkpt lat="45.61117280723856" lon="8.913737283538646"><ele>213.75</ele><time>2026-04-30T15:28:25Z</time></trkpt><trkpt lat="45.61107414082455" lon="8.913887949908363"><ele>213.5</ele><time>2026-04-30T15:28:26Z</time></trkpt><trkpt lat="45.610973994587496" lon="8.914044107980434"><ele>213.25</ele><time>2026-04-30T15:28:27Z</time></trkpt><trkpt lat="45.610872747679124" lon="8.914209320376479"><ele>213.0</ele><time>2026-04-30T15:28:28Z</time></trkpt><trkpt lat="45.61077993517796" lon="8.914355257029"><ele>212.8</ele><time>2026-04-30T15:28:29Z</time></trkpt><trkpt lat="45.61070944322438" lon="8.914474016358005"><ele>212.60000000000002</ele><time>2026-04-30T15:28:30Z</time></trkpt><trkpt lat="45.610657797282705" lon="8.914558342145206"><ele>212.39999999999998</ele><time>2026-04-30T15:28:31Z</time></trkpt><trkpt lat="45.610604464049835" lon="8.914620961878022"><ele>212.2</ele><time>2026-04-30T15:28:32Z</time></trkpt><trkpt lat="45.61056695385059" lon="8.914710580306835"><ele>212.0</ele><time>2026-04-30T15:28:34Z</time></trkpt><trkpt lat="45.6107286001948" lon="8.914924817133604"><ele>212.0</ele><time>2026-04-30T15:28:35Z</time></trkpt><trkpt lat="45.61081976568994" lon="8.915020000773472"><ele>212.0</ele><time>2026-04-30T15:28:36Z</time></trkpt><trkpt lat="45.61090766912834" lon="8.915115523894723"><ele>212.0</ele><time>2026-04-30T15:28:37Z</time></trkpt><trkpt lat="45.610981074933406" lon="8.915207962533364"><ele>212.0</ele><time>2026-04-30T15:28:38Z</time></trkpt><trkpt lat="45.61104343471909" lon="8.915289991935365"><ele>212.0</ele><time>2026-04-30T15:28:39Z</time></trkpt><trkpt lat="45.611098821959786" lon="8.915369990235753"><ele>212.0</ele><time>2026-04-30T15:28:40Z</time></trkpt><trkpt lat="45.61115133543601" lon="8.91544187800282"><ele>212.0</ele><time>2026-04-30T15:28:41Z</time></trkpt><trkpt lat="45.61120011564104" lon="8.915504671893455"><ele>212.0</ele><time>2026-04-30T15:28:42Z</time></trkpt><trkpt lat="45.61128969834285" lon="8.915616249972826"><ele>212.0</ele><time>2026-04-30T15:28:44Z</time></trkpt><trkpt lat="45.61137708390692" lon="8.915715521817676"><ele>212.0</ele><time>2026-04-30T15:28:46Z</time></trkpt><trkpt lat="45.61142656797519" lon="8.915832400976266"><ele>212.0</ele><time>2026-04-30T15:28:48Z</time></trkpt><trkpt lat="45.61136851920154" lon="8.915967142934871"><ele>212.0</ele><time>2026-04-30T15:28:50Z</time></trkpt><trkpt lat="45.61128033549023" lon="8.916098117469861"><ele>212.0</ele><time>2026-04-30T15:28:52Z</time></trkpt><trkpt lat="45.611236824411264" lon="8.916186401906506"><ele>212.0</ele><time>2026-04-30T15:28:53Z</time></trkpt><trkpt lat="45.611182674713746" lon="8.916280975028174"><ele>212.0</ele><time>2026-04-30T15:28:54Z</time></trkpt><trkpt lat="45.61112738800356" lon="8.916370366649627"><ele>212.00000000000003</ele><time>2026-04-30T15:28:55Z</time></trkpt><trkpt lat="45.61108022409494" lon="8.91644360622668"><ele>212.0</ele><time>2026-04-30T15:28:56Z</time></trkpt><trkpt lat="45.61103373683955" lon="8.916521199535724"><ele>212.0</ele><time>2026-04-30T15:28:57Z</time></trkpt><trkpt lat="45.61098320079524" lon="8.916606935426378"><ele>212.0</ele><time>2026-04-30T15:28:58Z</time></trkpt><trkpt lat="45.61093002695527" lon="8.91669649638566"><ele>212.00000000000003</ele><time>2026-04-30T15:28:59Z</time></trkpt><trkpt lat="45.610873898679785" lon="8.91678477491329"><ele>212.0</ele><time>2026-04-30T15:29:00Z</time></trkpt><trkpt lat="45.610817872326315" lon="8.916882464699578"><ele>212.00000000000003</ele><time>2026-04-30T15:29:01Z</time></trkpt><trkpt lat="45.610759100951405" lon="8.916983231144483"><ele>212.0</ele><time>2026-04-30T15:29:02Z</time></trkpt><trkpt lat="45.610701595015904" lon="8.917078813536426"><ele>212.0</ele><time>2026-04-30T15:29:03Z</time></trkpt><trkpt lat="45.61063909128749" lon="8.917174804931179"><ele>212.0</ele><time>2026-04-30T15:29:04Z</time></trkpt><trkpt lat="45.61057739798739" lon="8.917266309935568"><ele>212.00000000000003</ele><time>2026-04-30T15:29:05Z</time></trkpt><trkpt lat="45.61051635649078" lon="8.917355951922255"><ele>212.0</ele><time>2026-04-30T15:29:06Z</time></trkpt><trkpt lat="45.61046173910343" lon="8.91744273635856"><ele>212.0</ele><time>2026-04-30T15:29:07Z</time></trkpt><trkpt lat="45.61041506135738" lon="8.91752317305623"><ele>212.0</ele><time>2026-04-30T15:29:08Z</time></trkpt><trkpt lat="45.61037257262614" lon="8.91760288640806"><ele>212.0</ele><time>2026-04-30T15:29:08.999Z</time></trkpt><trkpt lat="45.61032841540012" lon="8.917681170247844"><ele>212.0</ele><time>2026-04-30T15:29:09.999Z</time></trkpt><trkpt lat="45.610282495196735" lon="8.917762475445045"><ele>212.0</ele><time>2026-04-30T15:29:10.999Z</time></trkpt><trkpt lat="45.61023917880977" lon="8.917844062073145"><ele>212.0</ele><time>2026-04-30T15:29:11.999Z</time></trkpt><trkpt lat="45.61019444214712" lon="8.917930937585462"><ele>212.0</ele><time>2026-04-30T15:29:12.999Z</time></trkpt><trkpt lat="45.61014786118792" lon="8.918023918628482"><ele>212.00000000000003</ele><time>2026-04-30T15:29:13.999Z</time></trkpt><trkpt lat="45.61010367363674" lon="8.918122009544122"><ele>212.0</ele><time>2026-04-30T15:29:14.999Z</time></trkpt><trkpt lat="45.61005317806617" lon="8.918232721046959"><ele>212.0</ele><time>2026-04-30T15:29:15.999Z</time></trkpt><trkpt lat="45.61001231972161" lon="8.918325390847524"><ele>212.0</ele><time>2026-04-30T15:29:16.999Z</time></trkpt><trkpt lat="45.609971606906996" lon="8.918411569579984"><ele>212.00000000000003</ele><time>2026-04-30T15:29:17.999Z</time></trkpt><trkpt lat="45.609932884622445" lon="8.918493284819322"><ele>212.0</ele><time>2026-04-30T15:29:18.999Z</time></trkpt><trkpt lat="45.609892613215536" lon="8.918572685715246"><ele>211.57142857142858</ele><time>2026-04-30T15:29:19.999Z</time></trkpt><trkpt lat="45.60985202984598" lon="8.918656477804904"><ele>211.14285714285714</ele><time>2026-04-30T15:29:20.999Z</time></trkpt><trkpt lat="45.60981309200253" lon="8.918741633027887"><ele>210.71428571428572</ele><time>2026-04-30T15:29:21.999Z</time></trkpt><trkpt lat="45.60977753678833" lon="8.918831484417762"><ele>210.28571428571428</ele><time>2026-04-30T15:29:22.999Z</time></trkpt><trkpt lat="45.60973931226115" lon="8.918911946495637"><ele>209.85714285714283</ele><time>2026-04-30T15:29:23.999Z</time></trkpt><trkpt lat="45.60969670229801" lon="8.919028898165"><ele>209.42857142857142</ele><time>2026-04-30T15:29:25.999Z</time></trkpt><trkpt lat="45.60967064595009" lon="8.919123657647157"><ele>209.0</ele><time>2026-04-30T15:29:27.999Z</time></trkpt><trkpt lat="45.60963716769338" lon="8.919228022199599"><ele>209.2</ele><time>2026-04-30T15:29:30Z</time></trkpt><trkpt lat="45.60950828935648" lon="8.919248420056606"><ele>209.39999999999998</ele><time>2026-04-30T15:29:31Z</time></trkpt><trkpt lat="45.60940176975239" lon="8.919277082369398"><ele>209.6</ele><time>2026-04-30T15:29:32Z</time></trkpt><trkpt lat="45.60931060348115" lon="8.919314031821253"><ele>209.8</ele><time>2026-04-30T15:29:33Z</time></trkpt><trkpt lat="45.60923820380251" lon="8.919345959897857"><ele>210.0</ele><time>2026-04-30T15:29:34Z</time></trkpt><trkpt lat="45.60912393250143" lon="8.919395470606371"><ele>210.0</ele><time>2026-04-30T15:29:36Z</time></trkpt><trkpt lat="45.609040470889184" lon="8.919430784452627"><ele>210.0</ele><time>2026-04-30T15:29:38Z</time></trkpt><trkpt lat="45.60896804178365" lon="8.91945193542324"><ele>210.0</ele><time>2026-04-30T15:29:40Z</time></trkpt><trkpt lat="45.608904765073966" lon="8.91946941389682"><ele>210.0</ele><time>2026-04-30T15:29:42Z</time></trkpt><trkpt lat="45.60883920581003" lon="8.91947370003829"><ele>210.0</ele><time>2026-04-30T15:29:44Z</time></trkpt><trkpt lat="45.608760642284466" lon="8.919443296232245"><ele>210.0</ele><time>2026-04-30T15:29:47Z</time></trkpt><trkpt lat="45.60869635791918" lon="8.919432911450114"><ele>210.0</ele><time>2026-04-30T15:29:49Z</time></trkpt><trkpt lat="45.60861945300895" lon="8.919459436310392"><ele>209.83333333333334</ele><time>2026-04-30T15:29:52Z</time></trkpt><trkpt lat="45.6085292925163" lon="8.91943605640272"><ele>209.66666666666669</ele><time>2026-04-30T15:29:55Z</time></trkpt><trkpt lat="45.6084648650149" lon="8.919401071805636"><ele>209.5</ele><time>2026-04-30T15:29:57Z</time></trkpt><trkpt lat="45.60839776521812" lon="8.919366161247725"><ele>209.33333333333334</ele><time>2026-04-30T15:29:59Z</time></trkpt><trkpt lat="45.608330015818794" lon="8.919307784039281"><ele>209.16666666666669</ele><time>2026-04-30T15:30:02Z</time></trkpt><trkpt lat="45.60828086238737" lon="8.91945038041774"><ele>209.0</ele><time>2026-04-30T15:30:04Z</time></trkpt><trkpt lat="45.608263362638915" lon="8.919547589142438"><ele>209.00000000000003</ele><time>2026-04-30T15:30:07Z</time></trkpt><trkpt lat="45.60820143280282" lon="8.919645153037113"><ele>209.0</ele><time>2026-04-30T15:30:25Z</time></trkpt><trkpt lat="45.60811407812563" lon="8.919741971271499"><ele>209.0</ele><time>2026-04-30T15:30:27Z</time></trkpt><trkpt lat="45.60804657533463" lon="8.919775904412049"><ele>209.0</ele><time>2026-04-30T15:30:28Z</time></trkpt><trkpt lat="45.60798264668627" lon="8.919860420550071"><ele>209.00000000000003</ele><time>2026-04-30T15:30:29Z</time></trkpt><trkpt lat="45.607912572659785" lon="8.91992563648114"><ele>209.0</ele><time>2026-04-30T15:30:30Z</time></trkpt><trkpt lat="45.607816886418995" lon="8.91998475897711"><ele>209.0</ele><time>2026-04-30T15:30:32Z</time></trkpt><trkpt lat="45.60790314863899" lon="8.920172142030198"><ele>209.0</ele><time>2026-04-30T15:30:34Z</time></trkpt><trkpt lat="45.60794725053734" lon="8.920248400688505"><ele>209.0</ele><time>2026-04-30T15:30:35Z</time></trkpt><trkpt lat="45.60798729144512" lon="8.920346123147114"><ele>209.0</ele><time>2026-04-30T15:30:36Z</time></trkpt><trkpt lat="45.608030059988224" lon="8.920454396492842"><ele>209.0</ele><time>2026-04-30T15:30:37Z</time></trkpt><trkpt lat="45.60807703308866" lon="8.920559952411407"><ele>209.0</ele><time>2026-04-30T15:30:38Z</time></trkpt><trkpt lat="45.60811310452847" lon="8.920655880798902"><ele>209.0</ele><time>2026-04-30T15:30:39Z</time></trkpt><trkpt lat="45.6081389744024" lon="8.920762505279605"><ele>209.0</ele><time>2026-04-30T15:30:40Z</time></trkpt><trkpt lat="45.608158273308455" lon="8.920899212582613"><ele>209.0</ele><time>2026-04-30T15:30:41Z</time></trkpt><trkpt lat="45.608172902802465" lon="8.921063727625876"><ele>209.0</ele><time>2026-04-30T15:30:42Z</time></trkpt><trkpt lat="45.608189975986434" lon="8.921244018356479"><ele>209.0</ele><time>2026-04-30T15:30:43Z</time></trkpt><trkpt lat="45.60820950314111" lon="8.921440211031154"><ele>209.0</ele><time>2026-04-30T15:30:44Z</time></trkpt><trkpt lat="45.60822847797635" lon="8.921675553902155"><ele>209.0</ele><time>2026-04-30T15:30:45Z</time></trkpt><trkpt lat="45.6082513373434" lon="8.921948603347806"><ele>209.0</ele><time>2026-04-30T15:30:46Z</time></trkpt><trkpt lat="45.6082728054741" lon="8.92221173623995"><ele>209.0</ele><time>2026-04-30T15:30:47Z</time></trkpt><trkpt lat="45.60826578380422" lon="8.922471016927815"><ele>209.0</ele><time>2026-04-30T15:30:48Z</time></trkpt><trkpt lat="45.60828435797452" lon="8.922721474085451"><ele>209.0</ele><time>2026-04-30T15:30:49Z</time></trkpt><trkpt lat="45.60831703983685" lon="8.922956636977375"><ele>209.0</ele><time>2026-04-30T15:30:50Z</time></trkpt><trkpt lat="45.60833294947972" lon="8.923198506277023"><ele>209.0</ele><time>2026-04-30T15:30:51Z</time></trkpt><trkpt lat="45.60835260904114" lon="8.92346318472186"><ele>208.66666666666669</ele><time>2026-04-30T15:30:52Z</time></trkpt><trkpt lat="45.60837667135359" lon="8.923766701548871"><ele>208.33333333333331</ele><time>2026-04-30T15:30:53Z</time></trkpt><trkpt lat="45.60838488335507" lon="8.924097941266446"><ele>208.0</ele><time>2026-04-30T15:30:54Z</time></trkpt><trkpt lat="45.6084250906923" lon="8.924425658679883"><ele>208.0</ele><time>2026-04-30T15:30:55Z</time></trkpt><trkpt lat="45.60844792826644" lon="8.92473767143553"><ele>208.0</ele><time>2026-04-30T15:30:56Z</time></trkpt><trkpt lat="45.608452037478415" lon="8.925012387484013"><ele>208.0</ele><time>2026-04-30T15:30:57Z</time></trkpt><trkpt lat="45.60848668500234" lon="8.92525860345583"><ele>208.25</ele><time>2026-04-30T15:30:58Z</time></trkpt><trkpt lat="45.60849865257961" lon="8.925481905735143"><ele>208.5</ele><time>2026-04-30T15:30:59Z</time></trkpt><trkpt lat="45.60850910559864" lon="8.92567027449"><ele>208.75</ele><time>2026-04-30T15:31:00Z</time></trkpt><trkpt lat="45.60852504486184" lon="8.92581964887681"><ele>209.0</ele><time>2026-04-30T15:31:01Z</time></trkpt><trkpt lat="45.6085325308398" lon="8.925938856126088"><ele>208.6</ele><time>2026-04-30T15:31:02Z</time></trkpt><trkpt lat="45.60849991468049" lon="8.926088509736916"><ele>208.2</ele><time>2026-04-30T15:31:04Z</time></trkpt><trkpt lat="45.60844738452979" lon="8.926142815989365"><ele>207.79999999999998</ele><time>2026-04-30T15:31:05Z</time></trkpt><trkpt lat="45.60836437536782" lon="8.926158993659824"><ele>207.39999999999998</ele><time>2026-04-30T15:31:06Z</time></trkpt><trkpt lat="45.60830399502758" lon="8.926199998343911"><ele>207.0</ele><time>2026-04-30T15:31:07Z</time></trkpt><trkpt lat="45.60819549667646" lon="8.926076850319152"><ele>207.0</ele><time>2026-04-30T15:31:09Z</time></trkpt><trkpt lat="45.608157008670624" lon="8.925967591877749"><ele>207.0</ele><time>2026-04-30T15:31:10Z</time></trkpt><trkpt lat="45.60811809566926" lon="8.92585312865123"><ele>207.0</ele><time>2026-04-30T15:31:11Z</time></trkpt><trkpt lat="45.60807008715352" lon="8.92574162635565"><ele>207.0</ele><time>2026-04-30T15:31:12Z</time></trkpt><trkpt lat="45.608022488133884" lon="8.925642894814537"><ele>207.0</ele><time>2026-04-30T15:31:13Z</time></trkpt><trkpt lat="45.607972685879105" lon="8.925540354246138"><ele>207.0</ele><time>2026-04-30T15:31:14Z</time></trkpt><trkpt lat="45.60792307803508" lon="8.925439362517924"><ele>207.2</ele><time>2026-04-30T15:31:15Z</time></trkpt><trkpt lat="45.60787657635054" lon="8.925335488564302"><ele>207.39999999999998</ele><time>2026-04-30T15:31:16Z</time></trkpt><trkpt lat="45.60782618749649" lon="8.925219717719022"><ele>207.60000000000002</ele><time>2026-04-30T15:31:17Z</time></trkpt><trkpt lat="45.60777488742113" lon="8.925098770410948"><ele>207.8</ele><time>2026-04-30T15:31:18Z</time></trkpt><trkpt lat="45.60773181093148" lon="8.924998853721947"><ele>208.0</ele><time>2026-04-30T15:31:19Z</time></trkpt><trkpt lat="45.60766226428423" lon="8.924882796701862"><ele>208.0</ele><time>2026-04-30T15:31:21Z</time></trkpt><trkpt lat="45.60755686858945" lon="8.924917354143949"><ele>208.0</ele><time>2026-04-30T15:31:23Z</time></trkpt><trkpt lat="45.607475702948165" lon="8.924980574467556"><ele>208.0</ele><time>2026-04-30T15:31:24Z</time></trkpt><trkpt lat="45.60735637436203" lon="8.925095566284456"><ele>208.0</ele><time>2026-04-30T15:31:25Z</time></trkpt><trkpt lat="45.60721338930568" lon="8.92522444300298"><ele>208.0</ele><time>2026-04-30T15:31:26Z</time></trkpt><trkpt lat="45.60708151905042" lon="8.92533237845464"><ele>208.0</ele><time>2026-04-30T15:31:27Z</time></trkpt><trkpt lat="45.60697754304062" lon="8.925416378840058"><ele>208.0</ele><time>2026-04-30T15:31:28Z</time></trkpt><trkpt lat="45.60689659688084" lon="8.925483148480648"><ele>208.0</ele><time>2026-04-30T15:31:29Z</time></trkpt><trkpt lat="45.606805909075824" lon="8.925564250230813"><ele>208.25</ele><time>2026-04-30T15:31:31Z</time></trkpt><trkpt lat="45.60671040512211" lon="8.92564854535039"><ele>208.5</ele><time>2026-04-30T15:31:45Z</time></trkpt><trkpt lat="45.60663419147379" lon="8.925719292122528"><ele>208.75</ele><time>2026-04-30T15:31:46Z</time></trkpt><trkpt lat="45.6065249410857" lon="8.925823590443423"><ele>209.0</ele><time>2026-04-30T15:31:47Z</time></trkpt><trkpt lat="45.606408937520385" lon="8.925931361172086"><ele>208.5</ele><time>2026-04-30T15:31:48Z</time></trkpt><trkpt lat="45.60630270896218" lon="8.92601962522843"><ele>208.0</ele><time>2026-04-30T15:31:49Z</time></trkpt><trkpt lat="45.60619615113563" lon="8.926103159641215"><ele>207.5</ele><time>2026-04-30T15:31:50Z</time></trkpt><trkpt lat="45.6060896221672" lon="8.926189266203028"><ele>207.0</ele><time>2026-04-30T15:31:51Z</time></trkpt><trkpt lat="45.60596458611963" lon="8.926297277088537"><ele>207.0</ele><time>2026-04-30T15:31:52Z</time></trkpt><trkpt lat="45.60582669957904" lon="8.926377177863264"><ele>207.0</ele><time>2026-04-30T15:31:53Z</time></trkpt><trkpt lat="45.6057077051057" lon="8.9264773262607"><ele>207.0</ele><time>2026-04-30T15:31:54Z</time></trkpt><trkpt lat="45.60558578903457" lon="8.926583280331046"><ele>207.0</ele><time>2026-04-30T15:31:55Z</time></trkpt><trkpt lat="45.60547409069329" lon="8.926682496815419"><ele>207.0</ele><time>2026-04-30T15:31:56Z</time></trkpt><trkpt lat="45.605375950062424" lon="8.926792652884702"><ele>207.0</ele><time>2026-04-30T15:31:57Z</time></trkpt><trkpt lat="45.605281920300456" lon="8.92686636486012"><ele>207.0</ele><time>2026-04-30T15:31:58Z</time></trkpt><trkpt lat="45.60521561042863" lon="8.92692853582049"><ele>207.0</ele><time>2026-04-30T15:31:59Z</time></trkpt><trkpt lat="45.60514082328592" lon="8.92697608647416"><ele>207.0</ele><time>2026-04-30T15:32:01Z</time></trkpt><trkpt lat="45.605199342483594" lon="8.92715910974416"><ele>207.0</ele><time>2026-04-30T15:32:03Z</time></trkpt><trkpt lat="45.60525717387009" lon="8.927239518998514"><ele>207.0</ele><time>2026-04-30T15:32:04Z</time></trkpt><trkpt lat="45.60529990447844" lon="8.927347613793907"><ele>207.0</ele><time>2026-04-30T15:32:05Z</time></trkpt><trkpt lat="45.60535337525211" lon="8.927457651552574"><ele>207.0</ele><time>2026-04-30T15:32:06Z</time></trkpt><trkpt lat="45.60541119771649" lon="8.92758087207465"><ele>207.0</ele><time>2026-04-30T15:32:07Z</time></trkpt><trkpt lat="45.60548121609066" lon="8.927700433166823"><ele>207.25</ele><time>2026-04-30T15:32:08Z</time></trkpt><trkpt lat="45.60553997840199" lon="8.92784740201162"><ele>207.5</ele><time>2026-04-30T15:32:09Z</time></trkpt><trkpt lat="45.605604444170226" lon="8.92799464634272"><ele>207.75</ele><time>2026-04-30T15:32:10Z</time></trkpt><trkpt lat="45.60566796212125" lon="8.928136413619113"><ele>208.0</ele><time>2026-04-30T15:32:11Z</time></trkpt><trkpt lat="45.60572687908642" lon="8.928272097333478"><ele>208.0</ele><time>2026-04-30T15:32:12Z</time></trkpt><trkpt lat="45.60577679923665" lon="8.928387708749755"><ele>208.0</ele><time>2026-04-30T15:32:13Z</time></trkpt><trkpt lat="45.605822147404396" lon="8.928490754738421"><ele>208.0</ele><time>2026-04-30T15:32:14Z</time></trkpt><trkpt lat="45.605858478549024" lon="8.928575388093615"><ele>208.0</ele><time>2026-04-30T15:32:15Z</time></trkpt><trkpt lat="45.605909612410386" lon="8.928690501769118"><ele>208.0</ele><time>2026-04-30T15:32:17Z</time></trkpt><trkpt lat="45.60594788760215" lon="8.928800643124225"><ele>208.0</ele><time>2026-04-30T15:32:27Z</time></trkpt></trkseg></trk></gpx>